<?xml version="1.0" encoding="UTF-8" standalone="no" ?>
<gpx xmlns="http://www.topografix.com/GPX/1/1" xmlns:xsi="http://www.w3.org/2001/XMLSchema-instance" xsi:schemaLocation="http://www.topografix.com/GPX/1/1 http://www.topografix.com/GPX/1/1/gpx.xsd" version="1.1" creator="VisuGPX - https://www.visugpx.com">
  <metadata>
    <name>ECOLE CYCLO VTT</name>
  </metadata>
  <trk>
    <name><![CDATA[ECOLE CYCLO VTT_1]]></name>
    <trkseg>
      <trkpt lat="48.93673" lon="7.87894">
        <ele>141.8</ele>
        <time>2022-11-19T13:06:35Z</time>
      </trkpt>
      <trkpt lat="48.93676" lon="7.87877">
        <ele>150.6</ele>
        <time>2022-11-19T13:06:40Z</time>
      </trkpt>
      <trkpt lat="48.93678" lon="7.87869">
        <ele>150.6</ele>
        <time>2022-11-19T13:06:42Z</time>
      </trkpt>
      <trkpt lat="48.93681" lon="7.87862">
        <ele>151.2</ele>
        <time>2022-11-19T13:06:44Z</time>
      </trkpt>
      <trkpt lat="48.93683" lon="7.8786">
        <ele>151.4</ele>
        <time>2022-11-19T13:06:45Z</time>
      </trkpt>
      <trkpt lat="48.93686" lon="7.87859">
        <ele>151.4</ele>
        <time>2022-11-19T13:06:46Z</time>
      </trkpt>
      <trkpt lat="48.93691" lon="7.87861">
        <ele>151.6</ele>
        <time>2022-11-19T13:06:49Z</time>
      </trkpt>
      <trkpt lat="48.93692" lon="7.87862">
        <ele>151.6</ele>
        <time>2022-11-19T13:06:50Z</time>
      </trkpt>
      <trkpt lat="48.93694" lon="7.87863">
        <ele>151.6</ele>
        <time>2022-11-19T13:06:51Z</time>
      </trkpt>
      <trkpt lat="48.93695" lon="7.87865">
        <ele>151.4</ele>
        <time>2022-11-19T13:06:52Z</time>
      </trkpt>
      <trkpt lat="48.93696" lon="7.87866">
        <ele>151.6</ele>
        <time>2022-11-19T13:06:53Z</time>
      </trkpt>
      <trkpt lat="48.93698" lon="7.87866">
        <ele>151.6</ele>
        <time>2022-11-19T13:06:54Z</time>
      </trkpt>
      <trkpt lat="48.93704" lon="7.87862">
        <ele>151.4</ele>
        <time>2022-11-19T13:06:57Z</time>
      </trkpt>
      <trkpt lat="48.93706" lon="7.8786">
        <ele>151.4</ele>
        <time>2022-11-19T13:06:58Z</time>
      </trkpt>
      <trkpt lat="48.93708" lon="7.87857">
        <ele>151.4</ele>
        <time>2022-11-19T13:06:59Z</time>
      </trkpt>
      <trkpt lat="48.9371" lon="7.87853">
        <ele>151.4</ele>
        <time>2022-11-19T13:07:00Z</time>
      </trkpt>
      <trkpt lat="48.93711" lon="7.87849">
        <ele>151.4</ele>
        <time>2022-11-19T13:07:01Z</time>
      </trkpt>
      <trkpt lat="48.93711" lon="7.87844">
        <ele>151.4</ele>
        <time>2022-11-19T13:07:02Z</time>
      </trkpt>
      <trkpt lat="48.93711" lon="7.87839">
        <ele>151.4</ele>
        <time>2022-11-19T13:07:03Z</time>
      </trkpt>
      <trkpt lat="48.93711" lon="7.87834">
        <ele>151.4</ele>
        <time>2022-11-19T13:07:04Z</time>
      </trkpt>
      <trkpt lat="48.93707" lon="7.87814">
        <ele>151.2</ele>
        <time>2022-11-19T13:07:08Z</time>
      </trkpt>
      <trkpt lat="48.93696" lon="7.87785">
        <ele>150.6</ele>
        <time>2022-11-19T13:07:14Z</time>
      </trkpt>
      <trkpt lat="48.93684" lon="7.87756">
        <ele>150.4</ele>
        <time>2022-11-19T13:07:20Z</time>
      </trkpt>
      <trkpt lat="48.93681" lon="7.87746">
        <ele>150.4</ele>
        <time>2022-11-19T13:07:22Z</time>
      </trkpt>
      <trkpt lat="48.9368" lon="7.87724">
        <ele>150.6</ele>
        <time>2022-11-19T13:07:26Z</time>
      </trkpt>
      <trkpt lat="48.9368" lon="7.8772">
        <ele>150.6</ele>
        <time>2022-11-19T13:07:27Z</time>
      </trkpt>
      <trkpt lat="48.93681" lon="7.87716">
        <ele>150.6</ele>
        <time>2022-11-19T13:07:28Z</time>
      </trkpt>
      <trkpt lat="48.93682" lon="7.87712">
        <ele>150.6</ele>
        <time>2022-11-19T13:07:29Z</time>
      </trkpt>
      <trkpt lat="48.93688" lon="7.87694">
        <ele>150.8</ele>
        <time>2022-11-19T13:07:32Z</time>
      </trkpt>
      <trkpt lat="48.93692" lon="7.87678">
        <ele>150.8</ele>
        <time>2022-11-19T13:07:34Z</time>
      </trkpt>
      <trkpt lat="48.93693" lon="7.87661">
        <ele>150.8</ele>
        <time>2022-11-19T13:07:36Z</time>
      </trkpt>
      <trkpt lat="48.93693" lon="7.87654">
        <ele>150.6</ele>
        <time>2022-11-19T13:07:37Z</time>
      </trkpt>
      <trkpt lat="48.93692" lon="7.87647">
        <ele>150.6</ele>
        <time>2022-11-19T13:07:38Z</time>
      </trkpt>
      <trkpt lat="48.93692" lon="7.8764">
        <ele>150.6</ele>
        <time>2022-11-19T13:07:39Z</time>
      </trkpt>
      <trkpt lat="48.9369" lon="7.87634">
        <ele>150.6</ele>
        <time>2022-11-19T13:07:40Z</time>
      </trkpt>
      <trkpt lat="48.93688" lon="7.87628">
        <ele>150.6</ele>
        <time>2022-11-19T13:07:41Z</time>
      </trkpt>
      <trkpt lat="48.93688" lon="7.87621">
        <ele>150.4</ele>
        <time>2022-11-19T13:07:42Z</time>
      </trkpt>
      <trkpt lat="48.93689" lon="7.87616">
        <ele>150.4</ele>
        <time>2022-11-19T13:07:43Z</time>
      </trkpt>
      <trkpt lat="48.93693" lon="7.8761">
        <ele>150.4</ele>
        <time>2022-11-19T13:07:44Z</time>
      </trkpt>
      <trkpt lat="48.937" lon="7.87601">
        <ele>150.2</ele>
        <time>2022-11-19T13:07:46Z</time>
      </trkpt>
      <trkpt lat="48.93716" lon="7.87583">
        <ele>150.2</ele>
        <time>2022-11-19T13:07:50Z</time>
      </trkpt>
      <trkpt lat="48.9372" lon="7.8758">
        <ele>150.2</ele>
        <time>2022-11-19T13:07:51Z</time>
      </trkpt>
      <trkpt lat="48.9373" lon="7.87569">
        <ele>150.4</ele>
        <time>2022-11-19T13:07:54Z</time>
      </trkpt>
      <trkpt lat="48.93733" lon="7.87566">
        <ele>150.4</ele>
        <time>2022-11-19T13:07:55Z</time>
      </trkpt>
      <trkpt lat="48.93735" lon="7.87562">
        <ele>150.6</ele>
        <time>2022-11-19T13:07:56Z</time>
      </trkpt>
      <trkpt lat="48.93736" lon="7.87558">
        <ele>150.6</ele>
        <time>2022-11-19T13:07:57Z</time>
      </trkpt>
      <trkpt lat="48.93736" lon="7.87553">
        <ele>150.8</ele>
        <time>2022-11-19T13:07:58Z</time>
      </trkpt>
      <trkpt lat="48.93736" lon="7.87548">
        <ele>150.8</ele>
        <time>2022-11-19T13:07:59Z</time>
      </trkpt>
      <trkpt lat="48.93737" lon="7.87543">
        <ele>151.2</ele>
        <time>2022-11-19T13:08:00Z</time>
      </trkpt>
      <trkpt lat="48.9374" lon="7.8754">
        <ele>151.4</ele>
        <time>2022-11-19T13:08:01Z</time>
      </trkpt>
      <trkpt lat="48.93743" lon="7.87538">
        <ele>151.8</ele>
        <time>2022-11-19T13:08:02Z</time>
      </trkpt>
      <trkpt lat="48.93746" lon="7.87536">
        <ele>152.4</ele>
        <time>2022-11-19T13:08:03Z</time>
      </trkpt>
      <trkpt lat="48.93749" lon="7.87535">
        <ele>152.6</ele>
        <time>2022-11-19T13:08:04Z</time>
      </trkpt>
      <trkpt lat="48.93753" lon="7.87534">
        <ele>152.8</ele>
        <time>2022-11-19T13:08:05Z</time>
      </trkpt>
      <trkpt lat="48.93762" lon="7.87531">
        <ele>153.6</ele>
        <time>2022-11-19T13:08:08Z</time>
      </trkpt>
      <trkpt lat="48.93766" lon="7.8753">
        <ele>153.8</ele>
        <time>2022-11-19T13:08:09Z</time>
      </trkpt>
      <trkpt lat="48.93769" lon="7.8753">
        <ele>154.2</ele>
        <time>2022-11-19T13:08:10Z</time>
      </trkpt>
      <trkpt lat="48.93773" lon="7.87528">
        <ele>154.4</ele>
        <time>2022-11-19T13:08:11Z</time>
      </trkpt>
      <trkpt lat="48.93776" lon="7.87527">
        <ele>154.6</ele>
        <time>2022-11-19T13:08:12Z</time>
      </trkpt>
      <trkpt lat="48.93779" lon="7.87525">
        <ele>154.8</ele>
        <time>2022-11-19T13:08:13Z</time>
      </trkpt>
      <trkpt lat="48.93782" lon="7.87524">
        <ele>155</ele>
        <time>2022-11-19T13:08:14Z</time>
      </trkpt>
      <trkpt lat="48.93785" lon="7.87523">
        <ele>155.2</ele>
        <time>2022-11-19T13:08:15Z</time>
      </trkpt>
      <trkpt lat="48.93788" lon="7.87522">
        <ele>155.4</ele>
        <time>2022-11-19T13:08:16Z</time>
      </trkpt>
      <trkpt lat="48.9379" lon="7.87521">
        <ele>155.6</ele>
        <time>2022-11-19T13:08:17Z</time>
      </trkpt>
      <trkpt lat="48.93793" lon="7.8752">
        <ele>155.8</ele>
        <time>2022-11-19T13:08:18Z</time>
      </trkpt>
      <trkpt lat="48.93796" lon="7.87519">
        <ele>156</ele>
        <time>2022-11-19T13:08:19Z</time>
      </trkpt>
      <trkpt lat="48.93799" lon="7.87518">
        <ele>156</ele>
        <time>2022-11-19T13:08:20Z</time>
      </trkpt>
      <trkpt lat="48.93801" lon="7.87516">
        <ele>156.4</ele>
        <time>2022-11-19T13:08:21Z</time>
      </trkpt>
      <trkpt lat="48.93804" lon="7.87516">
        <ele>156.8</ele>
        <time>2022-11-19T13:08:22Z</time>
      </trkpt>
      <trkpt lat="48.93807" lon="7.87515">
        <ele>157.2</ele>
        <time>2022-11-19T13:08:23Z</time>
      </trkpt>
      <trkpt lat="48.9381" lon="7.87514">
        <ele>157.4</ele>
        <time>2022-11-19T13:08:24Z</time>
      </trkpt>
      <trkpt lat="48.93813" lon="7.87513">
        <ele>157.4</ele>
        <time>2022-11-19T13:08:25Z</time>
      </trkpt>
      <trkpt lat="48.93815" lon="7.87512">
        <ele>157.6</ele>
        <time>2022-11-19T13:08:26Z</time>
      </trkpt>
      <trkpt lat="48.93818" lon="7.87511">
        <ele>158</ele>
        <time>2022-11-19T13:08:27Z</time>
      </trkpt>
      <trkpt lat="48.93821" lon="7.8751">
        <ele>158.2</ele>
        <time>2022-11-19T13:08:28Z</time>
      </trkpt>
      <trkpt lat="48.93823" lon="7.87508">
        <ele>158.6</ele>
        <time>2022-11-19T13:08:29Z</time>
      </trkpt>
      <trkpt lat="48.93826" lon="7.87507">
        <ele>158.8</ele>
        <time>2022-11-19T13:08:30Z</time>
      </trkpt>
      <trkpt lat="48.93829" lon="7.87506">
        <ele>159</ele>
        <time>2022-11-19T13:08:31Z</time>
      </trkpt>
      <trkpt lat="48.93832" lon="7.87505">
        <ele>159.2</ele>
        <time>2022-11-19T13:08:32Z</time>
      </trkpt>
      <trkpt lat="48.93835" lon="7.87504">
        <ele>159.4</ele>
        <time>2022-11-19T13:08:33Z</time>
      </trkpt>
      <trkpt lat="48.93837" lon="7.87503">
        <ele>159.8</ele>
        <time>2022-11-19T13:08:34Z</time>
      </trkpt>
      <trkpt lat="48.9384" lon="7.87502">
        <ele>160.2</ele>
        <time>2022-11-19T13:08:35Z</time>
      </trkpt>
      <trkpt lat="48.93843" lon="7.87501">
        <ele>160.6</ele>
        <time>2022-11-19T13:08:36Z</time>
      </trkpt>
      <trkpt lat="48.93846" lon="7.875">
        <ele>160.8</ele>
        <time>2022-11-19T13:08:37Z</time>
      </trkpt>
      <trkpt lat="48.93849" lon="7.87499">
        <ele>161</ele>
        <time>2022-11-19T13:08:38Z</time>
      </trkpt>
      <trkpt lat="48.93851" lon="7.87498">
        <ele>161.2</ele>
        <time>2022-11-19T13:08:39Z</time>
      </trkpt>
      <trkpt lat="48.93854" lon="7.87497">
        <ele>161.6</ele>
        <time>2022-11-19T13:08:40Z</time>
      </trkpt>
      <trkpt lat="48.93857" lon="7.87496">
        <ele>161.6</ele>
        <time>2022-11-19T13:08:41Z</time>
      </trkpt>
      <trkpt lat="48.93859" lon="7.87495">
        <ele>162</ele>
        <time>2022-11-19T13:08:42Z</time>
      </trkpt>
      <trkpt lat="48.93862" lon="7.87494">
        <ele>162.2</ele>
        <time>2022-11-19T13:08:43Z</time>
      </trkpt>
      <trkpt lat="48.93864" lon="7.87493">
        <ele>162.6</ele>
        <time>2022-11-19T13:08:44Z</time>
      </trkpt>
      <trkpt lat="48.93867" lon="7.87492">
        <ele>163</ele>
        <time>2022-11-19T13:08:45Z</time>
      </trkpt>
      <trkpt lat="48.93869" lon="7.87492">
        <ele>163.2</ele>
        <time>2022-11-19T13:08:46Z</time>
      </trkpt>
      <trkpt lat="48.93872" lon="7.87491">
        <ele>163.4</ele>
        <time>2022-11-19T13:08:47Z</time>
      </trkpt>
      <trkpt lat="48.93875" lon="7.8749">
        <ele>163.6</ele>
        <time>2022-11-19T13:08:48Z</time>
      </trkpt>
      <trkpt lat="48.93877" lon="7.8749">
        <ele>163.8</ele>
        <time>2022-11-19T13:08:49Z</time>
      </trkpt>
      <trkpt lat="48.93879" lon="7.87489">
        <ele>164.2</ele>
        <time>2022-11-19T13:08:50Z</time>
      </trkpt>
      <trkpt lat="48.93881" lon="7.87488">
        <ele>164.4</ele>
        <time>2022-11-19T13:08:51Z</time>
      </trkpt>
      <trkpt lat="48.93883" lon="7.87487">
        <ele>164.6</ele>
        <time>2022-11-19T13:08:52Z</time>
      </trkpt>
      <trkpt lat="48.93885" lon="7.87486">
        <ele>165</ele>
        <time>2022-11-19T13:08:53Z</time>
      </trkpt>
      <trkpt lat="48.93886" lon="7.87486">
        <ele>165.2</ele>
        <time>2022-11-19T13:08:54Z</time>
      </trkpt>
      <trkpt lat="48.93887" lon="7.87484">
        <ele>165.4</ele>
        <time>2022-11-19T13:08:55Z</time>
      </trkpt>
      <trkpt lat="48.93888" lon="7.87482">
        <ele>165.6</ele>
        <time>2022-11-19T13:08:56Z</time>
      </trkpt>
      <trkpt lat="48.93888" lon="7.8748">
        <ele>165.8</ele>
        <time>2022-11-19T13:08:57Z</time>
      </trkpt>
      <trkpt lat="48.93888" lon="7.87477">
        <ele>166</ele>
        <time>2022-11-19T13:08:58Z</time>
      </trkpt>
      <trkpt lat="48.93887" lon="7.87475">
        <ele>166.2</ele>
        <time>2022-11-19T13:08:59Z</time>
      </trkpt>
      <trkpt lat="48.93887" lon="7.87473">
        <ele>166.2</ele>
        <time>2022-11-19T13:09:00Z</time>
      </trkpt>
      <trkpt lat="48.93888" lon="7.87471">
        <ele>166.4</ele>
        <time>2022-11-19T13:09:01Z</time>
      </trkpt>
      <trkpt lat="48.93888" lon="7.87469">
        <ele>166.6</ele>
        <time>2022-11-19T13:09:02Z</time>
      </trkpt>
      <trkpt lat="48.93889" lon="7.87468">
        <ele>166.6</ele>
        <time>2022-11-19T13:09:03Z</time>
      </trkpt>
      <trkpt lat="48.9389" lon="7.87466">
        <ele>166.8</ele>
        <time>2022-11-19T13:09:04Z</time>
      </trkpt>
      <trkpt lat="48.93891" lon="7.87465">
        <ele>166.8</ele>
        <time>2022-11-19T13:09:05Z</time>
      </trkpt>
      <trkpt lat="48.93893" lon="7.87463">
        <ele>166.8</ele>
        <time>2022-11-19T13:09:06Z</time>
      </trkpt>
      <trkpt lat="48.93894" lon="7.87462">
        <ele>167</ele>
        <time>2022-11-19T13:09:07Z</time>
      </trkpt>
      <trkpt lat="48.93895" lon="7.87459">
        <ele>167</ele>
        <time>2022-11-19T13:09:08Z</time>
      </trkpt>
      <trkpt lat="48.93897" lon="7.87457">
        <ele>167</ele>
        <time>2022-11-19T13:09:09Z</time>
      </trkpt>
      <trkpt lat="48.93899" lon="7.87455">
        <ele>167</ele>
        <time>2022-11-19T13:09:10Z</time>
      </trkpt>
      <trkpt lat="48.93901" lon="7.87453">
        <ele>167</ele>
        <time>2022-11-19T13:09:11Z</time>
      </trkpt>
      <trkpt lat="48.93902" lon="7.87451">
        <ele>167.2</ele>
        <time>2022-11-19T13:09:12Z</time>
      </trkpt>
      <trkpt lat="48.93904" lon="7.87449">
        <ele>167.6</ele>
        <time>2022-11-19T13:09:13Z</time>
      </trkpt>
      <trkpt lat="48.93906" lon="7.87446">
        <ele>167.6</ele>
        <time>2022-11-19T13:09:14Z</time>
      </trkpt>
      <trkpt lat="48.93908" lon="7.87444">
        <ele>167.8</ele>
        <time>2022-11-19T13:09:15Z</time>
      </trkpt>
      <trkpt lat="48.93909" lon="7.87442">
        <ele>167.8</ele>
        <time>2022-11-19T13:09:16Z</time>
      </trkpt>
      <trkpt lat="48.93911" lon="7.87439">
        <ele>167.8</ele>
        <time>2022-11-19T13:09:17Z</time>
      </trkpt>
      <trkpt lat="48.93914" lon="7.87436">
        <ele>167.8</ele>
        <time>2022-11-19T13:09:18Z</time>
      </trkpt>
      <trkpt lat="48.93916" lon="7.87434">
        <ele>167.8</ele>
        <time>2022-11-19T13:09:19Z</time>
      </trkpt>
      <trkpt lat="48.93919" lon="7.87433">
        <ele>168.2</ele>
        <time>2022-11-19T13:09:20Z</time>
      </trkpt>
      <trkpt lat="48.93921" lon="7.87431">
        <ele>168.2</ele>
        <time>2022-11-19T13:09:21Z</time>
      </trkpt>
      <trkpt lat="48.93924" lon="7.87429">
        <ele>168.2</ele>
        <time>2022-11-19T13:09:22Z</time>
      </trkpt>
      <trkpt lat="48.93926" lon="7.87427">
        <ele>168.2</ele>
        <time>2022-11-19T13:09:23Z</time>
      </trkpt>
      <trkpt lat="48.93929" lon="7.87425">
        <ele>168.2</ele>
        <time>2022-11-19T13:09:24Z</time>
      </trkpt>
      <trkpt lat="48.93931" lon="7.87423">
        <ele>168.2</ele>
        <time>2022-11-19T13:09:25Z</time>
      </trkpt>
      <trkpt lat="48.93933" lon="7.87421">
        <ele>168.2</ele>
        <time>2022-11-19T13:09:26Z</time>
      </trkpt>
      <trkpt lat="48.93936" lon="7.87419">
        <ele>168.2</ele>
        <time>2022-11-19T13:09:27Z</time>
      </trkpt>
      <trkpt lat="48.93943" lon="7.87414">
        <ele>168.2</ele>
        <time>2022-11-19T13:09:30Z</time>
      </trkpt>
      <trkpt lat="48.93962" lon="7.87399">
        <ele>168.4</ele>
        <time>2022-11-19T13:09:37Z</time>
      </trkpt>
      <trkpt lat="48.93974" lon="7.87379">
        <ele>168.8</ele>
        <time>2022-11-19T13:09:43Z</time>
      </trkpt>
      <trkpt lat="48.93983" lon="7.8735">
        <ele>169.2</ele>
        <time>2022-11-19T13:09:50Z</time>
      </trkpt>
      <trkpt lat="48.93984" lon="7.87345">
        <ele>169.4</ele>
        <time>2022-11-19T13:09:51Z</time>
      </trkpt>
      <trkpt lat="48.93986" lon="7.87341">
        <ele>169.4</ele>
        <time>2022-11-19T13:09:52Z</time>
      </trkpt>
      <trkpt lat="48.93992" lon="7.87321">
        <ele>169.8</ele>
        <time>2022-11-19T13:09:57Z</time>
      </trkpt>
      <trkpt lat="48.93993" lon="7.87317">
        <ele>169.8</ele>
        <time>2022-11-19T13:09:58Z</time>
      </trkpt>
      <trkpt lat="48.93999" lon="7.87296">
        <ele>170.2</ele>
        <time>2022-11-19T13:10:03Z</time>
      </trkpt>
      <trkpt lat="48.94" lon="7.87292">
        <ele>170.4</ele>
        <time>2022-11-19T13:10:04Z</time>
      </trkpt>
      <trkpt lat="48.94003" lon="7.87285">
        <ele>170.6</ele>
        <time>2022-11-19T13:10:06Z</time>
      </trkpt>
      <trkpt lat="48.94013" lon="7.87263">
        <ele>171.4</ele>
        <time>2022-11-19T13:10:12Z</time>
      </trkpt>
      <trkpt lat="48.94016" lon="7.87257">
        <ele>172</ele>
        <time>2022-11-19T13:10:14Z</time>
      </trkpt>
      <trkpt lat="48.94021" lon="7.8725">
        <ele>172.4</ele>
        <time>2022-11-19T13:10:16Z</time>
      </trkpt>
      <trkpt lat="48.94023" lon="7.87248">
        <ele>173</ele>
        <time>2022-11-19T13:10:17Z</time>
      </trkpt>
      <trkpt lat="48.94025" lon="7.87245">
        <ele>173.2</ele>
        <time>2022-11-19T13:10:18Z</time>
      </trkpt>
      <trkpt lat="48.94028" lon="7.87243">
        <ele>173.4</ele>
        <time>2022-11-19T13:10:19Z</time>
      </trkpt>
      <trkpt lat="48.9403" lon="7.87239">
        <ele>173.6</ele>
        <time>2022-11-19T13:10:20Z</time>
      </trkpt>
      <trkpt lat="48.94032" lon="7.87237">
        <ele>174</ele>
        <time>2022-11-19T13:10:21Z</time>
      </trkpt>
      <trkpt lat="48.94034" lon="7.87233">
        <ele>174.4</ele>
        <time>2022-11-19T13:10:22Z</time>
      </trkpt>
      <trkpt lat="48.94036" lon="7.8723">
        <ele>174.6</ele>
        <time>2022-11-19T13:10:23Z</time>
      </trkpt>
      <trkpt lat="48.94039" lon="7.87228">
        <ele>174.8</ele>
        <time>2022-11-19T13:10:24Z</time>
      </trkpt>
      <trkpt lat="48.94041" lon="7.87225">
        <ele>175.2</ele>
        <time>2022-11-19T13:10:25Z</time>
      </trkpt>
      <trkpt lat="48.94043" lon="7.87222">
        <ele>175.4</ele>
        <time>2022-11-19T13:10:26Z</time>
      </trkpt>
      <trkpt lat="48.94045" lon="7.87219">
        <ele>175.8</ele>
        <time>2022-11-19T13:10:27Z</time>
      </trkpt>
      <trkpt lat="48.94047" lon="7.87216">
        <ele>176</ele>
        <time>2022-11-19T13:10:28Z</time>
      </trkpt>
      <trkpt lat="48.94049" lon="7.87213">
        <ele>176.4</ele>
        <time>2022-11-19T13:10:29Z</time>
      </trkpt>
      <trkpt lat="48.94051" lon="7.8721">
        <ele>176.6</ele>
        <time>2022-11-19T13:10:30Z</time>
      </trkpt>
      <trkpt lat="48.94053" lon="7.87207">
        <ele>176.8</ele>
        <time>2022-11-19T13:10:31Z</time>
      </trkpt>
      <trkpt lat="48.94055" lon="7.87204">
        <ele>177.2</ele>
        <time>2022-11-19T13:10:32Z</time>
      </trkpt>
      <trkpt lat="48.94057" lon="7.87201">
        <ele>177.4</ele>
        <time>2022-11-19T13:10:33Z</time>
      </trkpt>
      <trkpt lat="48.94059" lon="7.87197">
        <ele>177.8</ele>
        <time>2022-11-19T13:10:34Z</time>
      </trkpt>
      <trkpt lat="48.94061" lon="7.87194">
        <ele>178.2</ele>
        <time>2022-11-19T13:10:35Z</time>
      </trkpt>
      <trkpt lat="48.94063" lon="7.87191">
        <ele>178.4</ele>
        <time>2022-11-19T13:10:36Z</time>
      </trkpt>
      <trkpt lat="48.94064" lon="7.87188">
        <ele>178.6</ele>
        <time>2022-11-19T13:10:37Z</time>
      </trkpt>
      <trkpt lat="48.94067" lon="7.87185">
        <ele>178.8</ele>
        <time>2022-11-19T13:10:38Z</time>
      </trkpt>
      <trkpt lat="48.94069" lon="7.87182">
        <ele>179</ele>
        <time>2022-11-19T13:10:39Z</time>
      </trkpt>
      <trkpt lat="48.94071" lon="7.87179">
        <ele>179.2</ele>
        <time>2022-11-19T13:10:40Z</time>
      </trkpt>
      <trkpt lat="48.94073" lon="7.87176">
        <ele>179.4</ele>
        <time>2022-11-19T13:10:41Z</time>
      </trkpt>
      <trkpt lat="48.94075" lon="7.87173">
        <ele>179.6</ele>
        <time>2022-11-19T13:10:42Z</time>
      </trkpt>
      <trkpt lat="48.94077" lon="7.8717">
        <ele>179.8</ele>
        <time>2022-11-19T13:10:43Z</time>
      </trkpt>
      <trkpt lat="48.94079" lon="7.87167">
        <ele>180</ele>
        <time>2022-11-19T13:10:44Z</time>
      </trkpt>
      <trkpt lat="48.9408" lon="7.87163">
        <ele>180.2</ele>
        <time>2022-11-19T13:10:45Z</time>
      </trkpt>
      <trkpt lat="48.94082" lon="7.8716">
        <ele>180.2</ele>
        <time>2022-11-19T13:10:46Z</time>
      </trkpt>
      <trkpt lat="48.94084" lon="7.87158">
        <ele>180.4</ele>
        <time>2022-11-19T13:10:47Z</time>
      </trkpt>
      <trkpt lat="48.94086" lon="7.87154">
        <ele>180.6</ele>
        <time>2022-11-19T13:10:48Z</time>
      </trkpt>
      <trkpt lat="48.94088" lon="7.87151">
        <ele>181</ele>
        <time>2022-11-19T13:10:49Z</time>
      </trkpt>
      <trkpt lat="48.9409" lon="7.87148">
        <ele>181.2</ele>
        <time>2022-11-19T13:10:50Z</time>
      </trkpt>
      <trkpt lat="48.94092" lon="7.87145">
        <ele>181.4</ele>
        <time>2022-11-19T13:10:51Z</time>
      </trkpt>
      <trkpt lat="48.94094" lon="7.87142">
        <ele>181.4</ele>
        <time>2022-11-19T13:10:52Z</time>
      </trkpt>
      <trkpt lat="48.94095" lon="7.87139">
        <ele>181.6</ele>
        <time>2022-11-19T13:10:53Z</time>
      </trkpt>
      <trkpt lat="48.94097" lon="7.87135">
        <ele>181.6</ele>
        <time>2022-11-19T13:10:54Z</time>
      </trkpt>
      <trkpt lat="48.94099" lon="7.87132">
        <ele>181.8</ele>
        <time>2022-11-19T13:10:55Z</time>
      </trkpt>
      <trkpt lat="48.94101" lon="7.87128">
        <ele>182</ele>
        <time>2022-11-19T13:10:56Z</time>
      </trkpt>
      <trkpt lat="48.94103" lon="7.87125">
        <ele>182.2</ele>
        <time>2022-11-19T13:10:57Z</time>
      </trkpt>
      <trkpt lat="48.94105" lon="7.87122">
        <ele>182.4</ele>
        <time>2022-11-19T13:10:58Z</time>
      </trkpt>
      <trkpt lat="48.94107" lon="7.87119">
        <ele>182.6</ele>
        <time>2022-11-19T13:10:59Z</time>
      </trkpt>
      <trkpt lat="48.94108" lon="7.87116">
        <ele>182.8</ele>
        <time>2022-11-19T13:11:00Z</time>
      </trkpt>
      <trkpt lat="48.9411" lon="7.87112">
        <ele>183.2</ele>
        <time>2022-11-19T13:11:01Z</time>
      </trkpt>
      <trkpt lat="48.94112" lon="7.87109">
        <ele>183.4</ele>
        <time>2022-11-19T13:11:02Z</time>
      </trkpt>
      <trkpt lat="48.94114" lon="7.87106">
        <ele>183.6</ele>
        <time>2022-11-19T13:11:03Z</time>
      </trkpt>
      <trkpt lat="48.94115" lon="7.87103">
        <ele>183.8</ele>
        <time>2022-11-19T13:11:04Z</time>
      </trkpt>
      <trkpt lat="48.94117" lon="7.871">
        <ele>184</ele>
        <time>2022-11-19T13:11:05Z</time>
      </trkpt>
      <trkpt lat="48.94119" lon="7.87096">
        <ele>184.2</ele>
        <time>2022-11-19T13:11:06Z</time>
      </trkpt>
      <trkpt lat="48.94121" lon="7.87093">
        <ele>184.2</ele>
        <time>2022-11-19T13:11:07Z</time>
      </trkpt>
      <trkpt lat="48.94123" lon="7.8709">
        <ele>184.6</ele>
        <time>2022-11-19T13:11:08Z</time>
      </trkpt>
      <trkpt lat="48.94125" lon="7.87086">
        <ele>184.6</ele>
        <time>2022-11-19T13:11:09Z</time>
      </trkpt>
      <trkpt lat="48.94126" lon="7.87083">
        <ele>184.8</ele>
        <time>2022-11-19T13:11:10Z</time>
      </trkpt>
      <trkpt lat="48.94128" lon="7.87079">
        <ele>184.8</ele>
        <time>2022-11-19T13:11:11Z</time>
      </trkpt>
      <trkpt lat="48.9413" lon="7.87075">
        <ele>185</ele>
        <time>2022-11-19T13:11:12Z</time>
      </trkpt>
      <trkpt lat="48.94132" lon="7.87072">
        <ele>185.2</ele>
        <time>2022-11-19T13:11:13Z</time>
      </trkpt>
      <trkpt lat="48.94133" lon="7.87068">
        <ele>185.4</ele>
        <time>2022-11-19T13:11:14Z</time>
      </trkpt>
      <trkpt lat="48.94135" lon="7.87065">
        <ele>185.6</ele>
        <time>2022-11-19T13:11:15Z</time>
      </trkpt>
      <trkpt lat="48.94137" lon="7.87061">
        <ele>185.6</ele>
        <time>2022-11-19T13:11:16Z</time>
      </trkpt>
      <trkpt lat="48.94139" lon="7.87057">
        <ele>185.8</ele>
        <time>2022-11-19T13:11:17Z</time>
      </trkpt>
      <trkpt lat="48.94141" lon="7.87054">
        <ele>185.8</ele>
        <time>2022-11-19T13:11:18Z</time>
      </trkpt>
      <trkpt lat="48.94142" lon="7.8705">
        <ele>185.8</ele>
        <time>2022-11-19T13:11:19Z</time>
      </trkpt>
      <trkpt lat="48.94144" lon="7.87047">
        <ele>186</ele>
        <time>2022-11-19T13:11:20Z</time>
      </trkpt>
      <trkpt lat="48.94146" lon="7.87043">
        <ele>186</ele>
        <time>2022-11-19T13:11:21Z</time>
      </trkpt>
      <trkpt lat="48.94148" lon="7.8704">
        <ele>186</ele>
        <time>2022-11-19T13:11:22Z</time>
      </trkpt>
      <trkpt lat="48.9415" lon="7.87036">
        <ele>186.2</ele>
        <time>2022-11-19T13:11:23Z</time>
      </trkpt>
      <trkpt lat="48.94152" lon="7.87032">
        <ele>186.2</ele>
        <time>2022-11-19T13:11:24Z</time>
      </trkpt>
      <trkpt lat="48.94154" lon="7.87028">
        <ele>186.2</ele>
        <time>2022-11-19T13:11:25Z</time>
      </trkpt>
      <trkpt lat="48.94156" lon="7.87024">
        <ele>186.2</ele>
        <time>2022-11-19T13:11:26Z</time>
      </trkpt>
      <trkpt lat="48.94158" lon="7.8702">
        <ele>186.4</ele>
        <time>2022-11-19T13:11:27Z</time>
      </trkpt>
      <trkpt lat="48.9416" lon="7.87017">
        <ele>186.4</ele>
        <time>2022-11-19T13:11:28Z</time>
      </trkpt>
      <trkpt lat="48.94163" lon="7.87013">
        <ele>186.4</ele>
        <time>2022-11-19T13:11:29Z</time>
      </trkpt>
      <trkpt lat="48.94165" lon="7.87009">
        <ele>186.4</ele>
        <time>2022-11-19T13:11:30Z</time>
      </trkpt>
      <trkpt lat="48.94167" lon="7.87005">
        <ele>186.4</ele>
        <time>2022-11-19T13:11:31Z</time>
      </trkpt>
      <trkpt lat="48.94169" lon="7.87001">
        <ele>186.4</ele>
        <time>2022-11-19T13:11:32Z</time>
      </trkpt>
      <trkpt lat="48.94172" lon="7.86997">
        <ele>186.4</ele>
        <time>2022-11-19T13:11:33Z</time>
      </trkpt>
      <trkpt lat="48.94174" lon="7.86993">
        <ele>186.4</ele>
        <time>2022-11-19T13:11:34Z</time>
      </trkpt>
      <trkpt lat="48.94179" lon="7.86984">
        <ele>186.4</ele>
        <time>2022-11-19T13:11:36Z</time>
      </trkpt>
      <trkpt lat="48.942" lon="7.86946">
        <ele>185.8</ele>
        <time>2022-11-19T13:11:45Z</time>
      </trkpt>
      <trkpt lat="48.94223" lon="7.86896">
        <ele>185.2</ele>
        <time>2022-11-19T13:11:55Z</time>
      </trkpt>
      <trkpt lat="48.94233" lon="7.86874">
        <ele>185</ele>
        <time>2022-11-19T13:11:59Z</time>
      </trkpt>
      <trkpt lat="48.94237" lon="7.86865">
        <ele>184.6</ele>
        <time>2022-11-19T13:12:01Z</time>
      </trkpt>
      <trkpt lat="48.94241" lon="7.86855">
        <ele>184.2</ele>
        <time>2022-11-19T13:12:03Z</time>
      </trkpt>
      <trkpt lat="48.94246" lon="7.86845">
        <ele>184</ele>
        <time>2022-11-19T13:12:05Z</time>
      </trkpt>
      <trkpt lat="48.94248" lon="7.8684">
        <ele>184</ele>
        <time>2022-11-19T13:12:06Z</time>
      </trkpt>
      <trkpt lat="48.9425" lon="7.86834">
        <ele>183.8</ele>
        <time>2022-11-19T13:12:07Z</time>
      </trkpt>
      <trkpt lat="48.94259" lon="7.86814">
        <ele>183.6</ele>
        <time>2022-11-19T13:12:11Z</time>
      </trkpt>
      <trkpt lat="48.94266" lon="7.86799">
        <ele>183.4</ele>
        <time>2022-11-19T13:12:14Z</time>
      </trkpt>
      <trkpt lat="48.94268" lon="7.86794">
        <ele>183.4</ele>
        <time>2022-11-19T13:12:15Z</time>
      </trkpt>
      <trkpt lat="48.9427" lon="7.8679">
        <ele>183.4</ele>
        <time>2022-11-19T13:12:16Z</time>
      </trkpt>
      <trkpt lat="48.94272" lon="7.86785">
        <ele>183.4</ele>
        <time>2022-11-19T13:12:17Z</time>
      </trkpt>
      <trkpt lat="48.94274" lon="7.86781">
        <ele>183.4</ele>
        <time>2022-11-19T13:12:18Z</time>
      </trkpt>
      <trkpt lat="48.94276" lon="7.86776">
        <ele>183.4</ele>
        <time>2022-11-19T13:12:19Z</time>
      </trkpt>
      <trkpt lat="48.94278" lon="7.86772">
        <ele>183.4</ele>
        <time>2022-11-19T13:12:20Z</time>
      </trkpt>
      <trkpt lat="48.9428" lon="7.86767">
        <ele>183.4</ele>
        <time>2022-11-19T13:12:21Z</time>
      </trkpt>
      <trkpt lat="48.94282" lon="7.86763">
        <ele>183.4</ele>
        <time>2022-11-19T13:12:22Z</time>
      </trkpt>
      <trkpt lat="48.94284" lon="7.8676">
        <ele>183.6</ele>
        <time>2022-11-19T13:12:23Z</time>
      </trkpt>
      <trkpt lat="48.94286" lon="7.86755">
        <ele>183.6</ele>
        <time>2022-11-19T13:12:24Z</time>
      </trkpt>
      <trkpt lat="48.94288" lon="7.86751">
        <ele>183.6</ele>
        <time>2022-11-19T13:12:25Z</time>
      </trkpt>
      <trkpt lat="48.94289" lon="7.86747">
        <ele>183.6</ele>
        <time>2022-11-19T13:12:26Z</time>
      </trkpt>
      <trkpt lat="48.94292" lon="7.86742">
        <ele>183.6</ele>
        <time>2022-11-19T13:12:27Z</time>
      </trkpt>
      <trkpt lat="48.94294" lon="7.86738">
        <ele>183.6</ele>
        <time>2022-11-19T13:12:28Z</time>
      </trkpt>
      <trkpt lat="48.94299" lon="7.86725">
        <ele>183.8</ele>
        <time>2022-11-19T13:12:31Z</time>
      </trkpt>
      <trkpt lat="48.94312" lon="7.86699">
        <ele>184.2</ele>
        <time>2022-11-19T13:12:37Z</time>
      </trkpt>
      <trkpt lat="48.94314" lon="7.86695">
        <ele>184.4</ele>
        <time>2022-11-19T13:12:38Z</time>
      </trkpt>
      <trkpt lat="48.94316" lon="7.86691">
        <ele>184.4</ele>
        <time>2022-11-19T13:12:39Z</time>
      </trkpt>
      <trkpt lat="48.94318" lon="7.86687">
        <ele>184.4</ele>
        <time>2022-11-19T13:12:40Z</time>
      </trkpt>
      <trkpt lat="48.94335" lon="7.86648">
        <ele>185.2</ele>
        <time>2022-11-19T13:12:49Z</time>
      </trkpt>
      <trkpt lat="48.94337" lon="7.86643">
        <ele>185.2</ele>
        <time>2022-11-19T13:12:50Z</time>
      </trkpt>
      <trkpt lat="48.94341" lon="7.86635">
        <ele>185.4</ele>
        <time>2022-11-19T13:12:52Z</time>
      </trkpt>
      <trkpt lat="48.94343" lon="7.86631">
        <ele>185.8</ele>
        <time>2022-11-19T13:12:53Z</time>
      </trkpt>
      <trkpt lat="48.94345" lon="7.86626">
        <ele>186</ele>
        <time>2022-11-19T13:12:54Z</time>
      </trkpt>
      <trkpt lat="48.94347" lon="7.86622">
        <ele>186.2</ele>
        <time>2022-11-19T13:12:55Z</time>
      </trkpt>
      <trkpt lat="48.94356" lon="7.86601">
        <ele>187</ele>
        <time>2022-11-19T13:13:00Z</time>
      </trkpt>
      <trkpt lat="48.9436" lon="7.86593">
        <ele>187.2</ele>
        <time>2022-11-19T13:13:02Z</time>
      </trkpt>
      <trkpt lat="48.94362" lon="7.86589">
        <ele>187.2</ele>
        <time>2022-11-19T13:13:03Z</time>
      </trkpt>
      <trkpt lat="48.94364" lon="7.86586">
        <ele>187.4</ele>
        <time>2022-11-19T13:13:04Z</time>
      </trkpt>
      <trkpt lat="48.94366" lon="7.86582">
        <ele>187.4</ele>
        <time>2022-11-19T13:13:05Z</time>
      </trkpt>
      <trkpt lat="48.94367" lon="7.86578">
        <ele>187.6</ele>
        <time>2022-11-19T13:13:06Z</time>
      </trkpt>
      <trkpt lat="48.94369" lon="7.86574">
        <ele>187.8</ele>
        <time>2022-11-19T13:13:07Z</time>
      </trkpt>
      <trkpt lat="48.94371" lon="7.86569">
        <ele>188</ele>
        <time>2022-11-19T13:13:08Z</time>
      </trkpt>
      <trkpt lat="48.94372" lon="7.86565">
        <ele>188</ele>
        <time>2022-11-19T13:13:09Z</time>
      </trkpt>
      <trkpt lat="48.94373" lon="7.8656">
        <ele>188</ele>
        <time>2022-11-19T13:13:10Z</time>
      </trkpt>
      <trkpt lat="48.94374" lon="7.86556">
        <ele>188.2</ele>
        <time>2022-11-19T13:13:11Z</time>
      </trkpt>
      <trkpt lat="48.94376" lon="7.86551">
        <ele>188.4</ele>
        <time>2022-11-19T13:13:12Z</time>
      </trkpt>
      <trkpt lat="48.94377" lon="7.86547">
        <ele>188.6</ele>
        <time>2022-11-19T13:13:13Z</time>
      </trkpt>
      <trkpt lat="48.94378" lon="7.86543">
        <ele>188.8</ele>
        <time>2022-11-19T13:13:14Z</time>
      </trkpt>
      <trkpt lat="48.94378" lon="7.86538">
        <ele>189</ele>
        <time>2022-11-19T13:13:15Z</time>
      </trkpt>
      <trkpt lat="48.94379" lon="7.86533">
        <ele>189</ele>
        <time>2022-11-19T13:13:16Z</time>
      </trkpt>
      <trkpt lat="48.94379" lon="7.86527">
        <ele>189.4</ele>
        <time>2022-11-19T13:13:17Z</time>
      </trkpt>
      <trkpt lat="48.94379" lon="7.86522">
        <ele>189.6</ele>
        <time>2022-11-19T13:13:18Z</time>
      </trkpt>
      <trkpt lat="48.94379" lon="7.86518">
        <ele>189.6</ele>
        <time>2022-11-19T13:13:19Z</time>
      </trkpt>
      <trkpt lat="48.94379" lon="7.86513">
        <ele>189.8</ele>
        <time>2022-11-19T13:13:20Z</time>
      </trkpt>
      <trkpt lat="48.94379" lon="7.86508">
        <ele>189.8</ele>
        <time>2022-11-19T13:13:21Z</time>
      </trkpt>
      <trkpt lat="48.9438" lon="7.86503">
        <ele>190</ele>
        <time>2022-11-19T13:13:22Z</time>
      </trkpt>
      <trkpt lat="48.9438" lon="7.86498">
        <ele>190.2</ele>
        <time>2022-11-19T13:13:23Z</time>
      </trkpt>
      <trkpt lat="48.9438" lon="7.86493">
        <ele>190.2</ele>
        <time>2022-11-19T13:13:24Z</time>
      </trkpt>
      <trkpt lat="48.94381" lon="7.86488">
        <ele>190.4</ele>
        <time>2022-11-19T13:13:25Z</time>
      </trkpt>
      <trkpt lat="48.94381" lon="7.86483">
        <ele>190.4</ele>
        <time>2022-11-19T13:13:26Z</time>
      </trkpt>
      <trkpt lat="48.94381" lon="7.86478">
        <ele>190.6</ele>
        <time>2022-11-19T13:13:27Z</time>
      </trkpt>
      <trkpt lat="48.94381" lon="7.86473">
        <ele>190.6</ele>
        <time>2022-11-19T13:13:28Z</time>
      </trkpt>
      <trkpt lat="48.94381" lon="7.86467">
        <ele>190.8</ele>
        <time>2022-11-19T13:13:29Z</time>
      </trkpt>
      <trkpt lat="48.94381" lon="7.86462">
        <ele>190.8</ele>
        <time>2022-11-19T13:13:30Z</time>
      </trkpt>
      <trkpt lat="48.94381" lon="7.86457">
        <ele>191</ele>
        <time>2022-11-19T13:13:31Z</time>
      </trkpt>
      <trkpt lat="48.9438" lon="7.86451">
        <ele>191</ele>
        <time>2022-11-19T13:13:32Z</time>
      </trkpt>
      <trkpt lat="48.9438" lon="7.86446">
        <ele>191</ele>
        <time>2022-11-19T13:13:33Z</time>
      </trkpt>
      <trkpt lat="48.9438" lon="7.86441">
        <ele>191</ele>
        <time>2022-11-19T13:13:34Z</time>
      </trkpt>
      <trkpt lat="48.9438" lon="7.86437">
        <ele>191.2</ele>
        <time>2022-11-19T13:13:35Z</time>
      </trkpt>
      <trkpt lat="48.9438" lon="7.86432">
        <ele>191.2</ele>
        <time>2022-11-19T13:13:36Z</time>
      </trkpt>
      <trkpt lat="48.94381" lon="7.86427">
        <ele>191.2</ele>
        <time>2022-11-19T13:13:37Z</time>
      </trkpt>
      <trkpt lat="48.94381" lon="7.86422">
        <ele>191.2</ele>
        <time>2022-11-19T13:13:38Z</time>
      </trkpt>
      <trkpt lat="48.94381" lon="7.86416">
        <ele>191.4</ele>
        <time>2022-11-19T13:13:39Z</time>
      </trkpt>
      <trkpt lat="48.94381" lon="7.86411">
        <ele>191.4</ele>
        <time>2022-11-19T13:13:40Z</time>
      </trkpt>
      <trkpt lat="48.94381" lon="7.86406">
        <ele>191.6</ele>
        <time>2022-11-19T13:13:41Z</time>
      </trkpt>
      <trkpt lat="48.94381" lon="7.86401">
        <ele>191.6</ele>
        <time>2022-11-19T13:13:42Z</time>
      </trkpt>
      <trkpt lat="48.94381" lon="7.86396">
        <ele>191.6</ele>
        <time>2022-11-19T13:13:43Z</time>
      </trkpt>
      <trkpt lat="48.94381" lon="7.86391">
        <ele>191.8</ele>
        <time>2022-11-19T13:13:44Z</time>
      </trkpt>
      <trkpt lat="48.94381" lon="7.86386">
        <ele>192</ele>
        <time>2022-11-19T13:13:45Z</time>
      </trkpt>
      <trkpt lat="48.94382" lon="7.86341">
        <ele>193</ele>
        <time>2022-11-19T13:13:54Z</time>
      </trkpt>
      <trkpt lat="48.94383" lon="7.86336">
        <ele>193.2</ele>
        <time>2022-11-19T13:13:55Z</time>
      </trkpt>
      <trkpt lat="48.94384" lon="7.86316">
        <ele>194.2</ele>
        <time>2022-11-19T13:13:59Z</time>
      </trkpt>
      <trkpt lat="48.94385" lon="7.86306">
        <ele>194.6</ele>
        <time>2022-11-19T13:14:01Z</time>
      </trkpt>
      <trkpt lat="48.94385" lon="7.86302">
        <ele>194.8</ele>
        <time>2022-11-19T13:14:02Z</time>
      </trkpt>
      <trkpt lat="48.94385" lon="7.86297">
        <ele>194.8</ele>
        <time>2022-11-19T13:14:03Z</time>
      </trkpt>
      <trkpt lat="48.94385" lon="7.86292">
        <ele>195</ele>
        <time>2022-11-19T13:14:04Z</time>
      </trkpt>
      <trkpt lat="48.94386" lon="7.86287">
        <ele>195</ele>
        <time>2022-11-19T13:14:05Z</time>
      </trkpt>
      <trkpt lat="48.94386" lon="7.86282">
        <ele>195.2</ele>
        <time>2022-11-19T13:14:06Z</time>
      </trkpt>
      <trkpt lat="48.94386" lon="7.86277">
        <ele>195.2</ele>
        <time>2022-11-19T13:14:07Z</time>
      </trkpt>
      <trkpt lat="48.94387" lon="7.86272">
        <ele>195.4</ele>
        <time>2022-11-19T13:14:08Z</time>
      </trkpt>
      <trkpt lat="48.94387" lon="7.86267">
        <ele>195.4</ele>
        <time>2022-11-19T13:14:09Z</time>
      </trkpt>
      <trkpt lat="48.94387" lon="7.86262">
        <ele>195.6</ele>
        <time>2022-11-19T13:14:10Z</time>
      </trkpt>
      <trkpt lat="48.94387" lon="7.86257">
        <ele>195.6</ele>
        <time>2022-11-19T13:14:11Z</time>
      </trkpt>
      <trkpt lat="48.94387" lon="7.86252">
        <ele>195.6</ele>
        <time>2022-11-19T13:14:12Z</time>
      </trkpt>
      <trkpt lat="48.94387" lon="7.86247">
        <ele>195.8</ele>
        <time>2022-11-19T13:14:13Z</time>
      </trkpt>
      <trkpt lat="48.94388" lon="7.86243">
        <ele>196.2</ele>
        <time>2022-11-19T13:14:14Z</time>
      </trkpt>
      <trkpt lat="48.94389" lon="7.86238">
        <ele>196.4</ele>
        <time>2022-11-19T13:14:15Z</time>
      </trkpt>
      <trkpt lat="48.9439" lon="7.86233">
        <ele>196.4</ele>
        <time>2022-11-19T13:14:16Z</time>
      </trkpt>
      <trkpt lat="48.9439" lon="7.86229">
        <ele>196.6</ele>
        <time>2022-11-19T13:14:17Z</time>
      </trkpt>
      <trkpt lat="48.94391" lon="7.86223">
        <ele>196.8</ele>
        <time>2022-11-19T13:14:18Z</time>
      </trkpt>
      <trkpt lat="48.94391" lon="7.86218">
        <ele>196.8</ele>
        <time>2022-11-19T13:14:19Z</time>
      </trkpt>
      <trkpt lat="48.94391" lon="7.86213">
        <ele>196.8</ele>
        <time>2022-11-19T13:14:20Z</time>
      </trkpt>
      <trkpt lat="48.94391" lon="7.86207">
        <ele>196.8</ele>
        <time>2022-11-19T13:14:21Z</time>
      </trkpt>
      <trkpt lat="48.94391" lon="7.86202">
        <ele>196.8</ele>
        <time>2022-11-19T13:14:22Z</time>
      </trkpt>
      <trkpt lat="48.94392" lon="7.86197">
        <ele>196.8</ele>
        <time>2022-11-19T13:14:23Z</time>
      </trkpt>
      <trkpt lat="48.94392" lon="7.86192">
        <ele>196.8</ele>
        <time>2022-11-19T13:14:24Z</time>
      </trkpt>
      <trkpt lat="48.94392" lon="7.86188">
        <ele>197</ele>
        <time>2022-11-19T13:14:25Z</time>
      </trkpt>
      <trkpt lat="48.94392" lon="7.86183">
        <ele>197</ele>
        <time>2022-11-19T13:14:26Z</time>
      </trkpt>
      <trkpt lat="48.94392" lon="7.86178">
        <ele>197</ele>
        <time>2022-11-19T13:14:27Z</time>
      </trkpt>
      <trkpt lat="48.94392" lon="7.86172">
        <ele>197</ele>
        <time>2022-11-19T13:14:28Z</time>
      </trkpt>
      <trkpt lat="48.94392" lon="7.86167">
        <ele>197</ele>
        <time>2022-11-19T13:14:29Z</time>
      </trkpt>
      <trkpt lat="48.94392" lon="7.86162">
        <ele>197</ele>
        <time>2022-11-19T13:14:30Z</time>
      </trkpt>
      <trkpt lat="48.94392" lon="7.86157">
        <ele>197</ele>
        <time>2022-11-19T13:14:31Z</time>
      </trkpt>
      <trkpt lat="48.94392" lon="7.86153">
        <ele>197</ele>
        <time>2022-11-19T13:14:32Z</time>
      </trkpt>
      <trkpt lat="48.94392" lon="7.86148">
        <ele>197</ele>
        <time>2022-11-19T13:14:33Z</time>
      </trkpt>
      <trkpt lat="48.94392" lon="7.86143">
        <ele>197</ele>
        <time>2022-11-19T13:14:34Z</time>
      </trkpt>
      <trkpt lat="48.94391" lon="7.86138">
        <ele>197</ele>
        <time>2022-11-19T13:14:35Z</time>
      </trkpt>
      <trkpt lat="48.94391" lon="7.8612">
        <ele>197.4</ele>
        <time>2022-11-19T13:14:39Z</time>
      </trkpt>
      <trkpt lat="48.94391" lon="7.86115">
        <ele>197.6</ele>
        <time>2022-11-19T13:14:40Z</time>
      </trkpt>
      <trkpt lat="48.94391" lon="7.86111">
        <ele>197.6</ele>
        <time>2022-11-19T13:14:41Z</time>
      </trkpt>
      <trkpt lat="48.94391" lon="7.86106">
        <ele>197.6</ele>
        <time>2022-11-19T13:14:42Z</time>
      </trkpt>
      <trkpt lat="48.94391" lon="7.86102">
        <ele>197.8</ele>
        <time>2022-11-19T13:14:43Z</time>
      </trkpt>
      <trkpt lat="48.94391" lon="7.86097">
        <ele>197.8</ele>
        <time>2022-11-19T13:14:44Z</time>
      </trkpt>
      <trkpt lat="48.94391" lon="7.86093">
        <ele>197.8</ele>
        <time>2022-11-19T13:14:45Z</time>
      </trkpt>
      <trkpt lat="48.94391" lon="7.86088">
        <ele>198</ele>
        <time>2022-11-19T13:14:46Z</time>
      </trkpt>
      <trkpt lat="48.94391" lon="7.86084">
        <ele>198</ele>
        <time>2022-11-19T13:14:47Z</time>
      </trkpt>
      <trkpt lat="48.94392" lon="7.8608">
        <ele>198</ele>
        <time>2022-11-19T13:14:48Z</time>
      </trkpt>
      <trkpt lat="48.94392" lon="7.86076">
        <ele>198.2</ele>
        <time>2022-11-19T13:14:49Z</time>
      </trkpt>
      <trkpt lat="48.94393" lon="7.86049">
        <ele>198.4</ele>
        <time>2022-11-19T13:14:55Z</time>
      </trkpt>
      <trkpt lat="48.94393" lon="7.86045">
        <ele>198.6</ele>
        <time>2022-11-19T13:14:56Z</time>
      </trkpt>
      <trkpt lat="48.94393" lon="7.86032">
        <ele>199</ele>
        <time>2022-11-19T13:14:59Z</time>
      </trkpt>
      <trkpt lat="48.94393" lon="7.86019">
        <ele>199.4</ele>
        <time>2022-11-19T13:15:02Z</time>
      </trkpt>
      <trkpt lat="48.94393" lon="7.8601">
        <ele>199.8</ele>
        <time>2022-11-19T13:15:04Z</time>
      </trkpt>
      <trkpt lat="48.94394" lon="7.86002">
        <ele>200</ele>
        <time>2022-11-19T13:15:06Z</time>
      </trkpt>
      <trkpt lat="48.94393" lon="7.85985">
        <ele>200.6</ele>
        <time>2022-11-19T13:15:10Z</time>
      </trkpt>
      <trkpt lat="48.94393" lon="7.85982">
        <ele>200.8</ele>
        <time>2022-11-19T13:15:11Z</time>
      </trkpt>
      <trkpt lat="48.94392" lon="7.8598">
        <ele>201</ele>
        <time>2022-11-19T13:15:12Z</time>
      </trkpt>
      <trkpt lat="48.94392" lon="7.8598">
        <ele>201.2</ele>
        <time>2022-11-19T13:15:13Z</time>
      </trkpt>
      <trkpt lat="48.94392" lon="7.8598">
        <ele>201.4</ele>
        <time>2022-11-19T13:15:15Z</time>
      </trkpt>
      <trkpt lat="48.94392" lon="7.85979">
        <ele>202.6</ele>
        <time>2022-11-19T13:17:10Z</time>
      </trkpt>
      <trkpt lat="48.94392" lon="7.85979">
        <ele>202.6</ele>
        <time>2022-11-19T13:17:12Z</time>
      </trkpt>
      <trkpt lat="48.94394" lon="7.85976">
        <ele>203.8</ele>
        <time>2022-11-19T13:17:57Z</time>
      </trkpt>
      <trkpt lat="48.94394" lon="7.85971">
        <ele>203.8</ele>
        <time>2022-11-19T13:17:59Z</time>
      </trkpt>
      <trkpt lat="48.94395" lon="7.85947">
        <ele>203.8</ele>
        <time>2022-11-19T13:18:04Z</time>
      </trkpt>
      <trkpt lat="48.94396" lon="7.85936">
        <ele>203.6</ele>
        <time>2022-11-19T13:18:06Z</time>
      </trkpt>
      <trkpt lat="48.94396" lon="7.85931">
        <ele>203.6</ele>
        <time>2022-11-19T13:18:07Z</time>
      </trkpt>
      <trkpt lat="48.94395" lon="7.85909">
        <ele>203.6</ele>
        <time>2022-11-19T13:18:11Z</time>
      </trkpt>
      <trkpt lat="48.94394" lon="7.85864">
        <ele>203.6</ele>
        <time>2022-11-19T13:18:19Z</time>
      </trkpt>
      <trkpt lat="48.94394" lon="7.85853">
        <ele>203.6</ele>
        <time>2022-11-19T13:18:21Z</time>
      </trkpt>
      <trkpt lat="48.94394" lon="7.85847">
        <ele>203.6</ele>
        <time>2022-11-19T13:18:22Z</time>
      </trkpt>
      <trkpt lat="48.94395" lon="7.85832">
        <ele>203.8</ele>
        <time>2022-11-19T13:18:25Z</time>
      </trkpt>
      <trkpt lat="48.94395" lon="7.85816">
        <ele>203.8</ele>
        <time>2022-11-19T13:18:28Z</time>
      </trkpt>
      <trkpt lat="48.94395" lon="7.85795">
        <ele>204.2</ele>
        <time>2022-11-19T13:18:32Z</time>
      </trkpt>
      <trkpt lat="48.94395" lon="7.85783">
        <ele>204.4</ele>
        <time>2022-11-19T13:18:34Z</time>
      </trkpt>
      <trkpt lat="48.94395" lon="7.85767">
        <ele>204.6</ele>
        <time>2022-11-19T13:18:37Z</time>
      </trkpt>
      <trkpt lat="48.94395" lon="7.8575">
        <ele>205</ele>
        <time>2022-11-19T13:18:40Z</time>
      </trkpt>
      <trkpt lat="48.94396" lon="7.85741">
        <ele>205.2</ele>
        <time>2022-11-19T13:18:42Z</time>
      </trkpt>
      <trkpt lat="48.94397" lon="7.85735">
        <ele>205.2</ele>
        <time>2022-11-19T13:18:43Z</time>
      </trkpt>
      <trkpt lat="48.94399" lon="7.85691">
        <ele>205.4</ele>
        <time>2022-11-19T13:18:51Z</time>
      </trkpt>
      <trkpt lat="48.94401" lon="7.85687">
        <ele>205.4</ele>
        <time>2022-11-19T13:18:52Z</time>
      </trkpt>
      <trkpt lat="48.94403" lon="7.85685">
        <ele>205.4</ele>
        <time>2022-11-19T13:18:53Z</time>
      </trkpt>
      <trkpt lat="48.94407" lon="7.85683">
        <ele>205.4</ele>
        <time>2022-11-19T13:18:54Z</time>
      </trkpt>
      <trkpt lat="48.9441" lon="7.8568">
        <ele>205.6</ele>
        <time>2022-11-19T13:18:55Z</time>
      </trkpt>
      <trkpt lat="48.94413" lon="7.85678">
        <ele>205.6</ele>
        <time>2022-11-19T13:18:56Z</time>
      </trkpt>
      <trkpt lat="48.94423" lon="7.85672">
        <ele>205.8</ele>
        <time>2022-11-19T13:18:59Z</time>
      </trkpt>
      <trkpt lat="48.94427" lon="7.85669">
        <ele>206.2</ele>
        <time>2022-11-19T13:19:00Z</time>
      </trkpt>
      <trkpt lat="48.94436" lon="7.85663">
        <ele>206.6</ele>
        <time>2022-11-19T13:19:03Z</time>
      </trkpt>
      <trkpt lat="48.94438" lon="7.85663">
        <ele>206.6</ele>
        <time>2022-11-19T13:19:04Z</time>
      </trkpt>
      <trkpt lat="48.94441" lon="7.85663">
        <ele>206.6</ele>
        <time>2022-11-19T13:19:05Z</time>
      </trkpt>
      <trkpt lat="48.94443" lon="7.85663">
        <ele>206.6</ele>
        <time>2022-11-19T13:19:06Z</time>
      </trkpt>
      <trkpt lat="48.94446" lon="7.85663">
        <ele>206.6</ele>
        <time>2022-11-19T13:19:07Z</time>
      </trkpt>
      <trkpt lat="48.94456" lon="7.85662">
        <ele>206.6</ele>
        <time>2022-11-19T13:19:10Z</time>
      </trkpt>
      <trkpt lat="48.94466" lon="7.8566">
        <ele>206.8</ele>
        <time>2022-11-19T13:19:13Z</time>
      </trkpt>
      <trkpt lat="48.94469" lon="7.85659">
        <ele>206.8</ele>
        <time>2022-11-19T13:19:14Z</time>
      </trkpt>
      <trkpt lat="48.94475" lon="7.85657">
        <ele>206.8</ele>
        <time>2022-11-19T13:19:16Z</time>
      </trkpt>
      <trkpt lat="48.94495" lon="7.85645">
        <ele>206.2</ele>
        <time>2022-11-19T13:19:21Z</time>
      </trkpt>
      <trkpt lat="48.945" lon="7.85643">
        <ele>206.2</ele>
        <time>2022-11-19T13:19:22Z</time>
      </trkpt>
      <trkpt lat="48.94504" lon="7.8564">
        <ele>206</ele>
        <time>2022-11-19T13:19:23Z</time>
      </trkpt>
      <trkpt lat="48.94526" lon="7.85626">
        <ele>205.2</ele>
        <time>2022-11-19T13:19:27Z</time>
      </trkpt>
      <trkpt lat="48.9453" lon="7.85623">
        <ele>204.8</ele>
        <time>2022-11-19T13:19:28Z</time>
      </trkpt>
      <trkpt lat="48.94535" lon="7.85621">
        <ele>204.6</ele>
        <time>2022-11-19T13:19:29Z</time>
      </trkpt>
      <trkpt lat="48.9454" lon="7.85618">
        <ele>204.2</ele>
        <time>2022-11-19T13:19:30Z</time>
      </trkpt>
      <trkpt lat="48.94545" lon="7.85615">
        <ele>203.8</ele>
        <time>2022-11-19T13:19:31Z</time>
      </trkpt>
      <trkpt lat="48.94555" lon="7.85608">
        <ele>203</ele>
        <time>2022-11-19T13:19:33Z</time>
      </trkpt>
      <trkpt lat="48.9456" lon="7.85604">
        <ele>202.6</ele>
        <time>2022-11-19T13:19:34Z</time>
      </trkpt>
      <trkpt lat="48.94565" lon="7.856">
        <ele>202.2</ele>
        <time>2022-11-19T13:19:35Z</time>
      </trkpt>
      <trkpt lat="48.94569" lon="7.85595">
        <ele>202</ele>
        <time>2022-11-19T13:19:36Z</time>
      </trkpt>
      <trkpt lat="48.94573" lon="7.85589">
        <ele>201.6</ele>
        <time>2022-11-19T13:19:37Z</time>
      </trkpt>
      <trkpt lat="48.94577" lon="7.85584">
        <ele>201.4</ele>
        <time>2022-11-19T13:19:38Z</time>
      </trkpt>
      <trkpt lat="48.94583" lon="7.85574">
        <ele>200.8</ele>
        <time>2022-11-19T13:19:40Z</time>
      </trkpt>
      <trkpt lat="48.94586" lon="7.85568">
        <ele>200.4</ele>
        <time>2022-11-19T13:19:41Z</time>
      </trkpt>
      <trkpt lat="48.94589" lon="7.85564">
        <ele>200</ele>
        <time>2022-11-19T13:19:42Z</time>
      </trkpt>
      <trkpt lat="48.94593" lon="7.85558">
        <ele>199.8</ele>
        <time>2022-11-19T13:19:43Z</time>
      </trkpt>
      <trkpt lat="48.94596" lon="7.85553">
        <ele>199.6</ele>
        <time>2022-11-19T13:19:44Z</time>
      </trkpt>
      <trkpt lat="48.94599" lon="7.85549">
        <ele>199.2</ele>
        <time>2022-11-19T13:19:45Z</time>
      </trkpt>
      <trkpt lat="48.94602" lon="7.85545">
        <ele>199</ele>
        <time>2022-11-19T13:19:46Z</time>
      </trkpt>
      <trkpt lat="48.94607" lon="7.8554">
        <ele>199</ele>
        <time>2022-11-19T13:19:47Z</time>
      </trkpt>
      <trkpt lat="48.94609" lon="7.85538">
        <ele>199</ele>
        <time>2022-11-19T13:19:48Z</time>
      </trkpt>
      <trkpt lat="48.94611" lon="7.85536">
        <ele>199</ele>
        <time>2022-11-19T13:19:49Z</time>
      </trkpt>
      <trkpt lat="48.94613" lon="7.85533">
        <ele>198.8</ele>
        <time>2022-11-19T13:19:50Z</time>
      </trkpt>
      <trkpt lat="48.94613" lon="7.85531">
        <ele>198.8</ele>
        <time>2022-11-19T13:19:51Z</time>
      </trkpt>
      <trkpt lat="48.94614" lon="7.85528">
        <ele>198.8</ele>
        <time>2022-11-19T13:19:52Z</time>
      </trkpt>
      <trkpt lat="48.94619" lon="7.85521">
        <ele>198.8</ele>
        <time>2022-11-19T13:19:55Z</time>
      </trkpt>
      <trkpt lat="48.94621" lon="7.85518">
        <ele>199</ele>
        <time>2022-11-19T13:19:56Z</time>
      </trkpt>
      <trkpt lat="48.94623" lon="7.85515">
        <ele>199</ele>
        <time>2022-11-19T13:19:57Z</time>
      </trkpt>
      <trkpt lat="48.94624" lon="7.85512">
        <ele>199</ele>
        <time>2022-11-19T13:19:58Z</time>
      </trkpt>
      <trkpt lat="48.94626" lon="7.85509">
        <ele>199</ele>
        <time>2022-11-19T13:19:59Z</time>
      </trkpt>
      <trkpt lat="48.94634" lon="7.85496">
        <ele>199</ele>
        <time>2022-11-19T13:20:03Z</time>
      </trkpt>
      <trkpt lat="48.94649" lon="7.85476">
        <ele>198.8</ele>
        <time>2022-11-19T13:20:10Z</time>
      </trkpt>
      <trkpt lat="48.9465" lon="7.85475">
        <ele>198.8</ele>
        <time>2022-11-19T13:20:11Z</time>
      </trkpt>
      <trkpt lat="48.94652" lon="7.85474">
        <ele>198.8</ele>
        <time>2022-11-19T13:20:12Z</time>
      </trkpt>
      <trkpt lat="48.94654" lon="7.85472">
        <ele>198.8</ele>
        <time>2022-11-19T13:20:13Z</time>
      </trkpt>
      <trkpt lat="48.94657" lon="7.85471">
        <ele>198.8</ele>
        <time>2022-11-19T13:20:14Z</time>
      </trkpt>
      <trkpt lat="48.94659" lon="7.85471">
        <ele>198.6</ele>
        <time>2022-11-19T13:20:15Z</time>
      </trkpt>
      <trkpt lat="48.94661" lon="7.8547">
        <ele>198.6</ele>
        <time>2022-11-19T13:20:16Z</time>
      </trkpt>
      <trkpt lat="48.94665" lon="7.85466">
        <ele>198.6</ele>
        <time>2022-11-19T13:20:18Z</time>
      </trkpt>
      <trkpt lat="48.94666" lon="7.85463">
        <ele>198.6</ele>
        <time>2022-11-19T13:20:19Z</time>
      </trkpt>
      <trkpt lat="48.94678" lon="7.85436">
        <ele>198.8</ele>
        <time>2022-11-19T13:20:25Z</time>
      </trkpt>
      <trkpt lat="48.94692" lon="7.85404">
        <ele>198.6</ele>
        <time>2022-11-19T13:20:32Z</time>
      </trkpt>
      <trkpt lat="48.94705" lon="7.85384">
        <ele>198.6</ele>
        <time>2022-11-19T13:20:37Z</time>
      </trkpt>
      <trkpt lat="48.94708" lon="7.85379">
        <ele>198.2</ele>
        <time>2022-11-19T13:20:38Z</time>
      </trkpt>
      <trkpt lat="48.94711" lon="7.85374">
        <ele>198.2</ele>
        <time>2022-11-19T13:20:39Z</time>
      </trkpt>
      <trkpt lat="48.9472" lon="7.85361">
        <ele>197.8</ele>
        <time>2022-11-19T13:20:42Z</time>
      </trkpt>
      <trkpt lat="48.94735" lon="7.85336">
        <ele>197</ele>
        <time>2022-11-19T13:20:47Z</time>
      </trkpt>
      <trkpt lat="48.94741" lon="7.85326">
        <ele>196.8</ele>
        <time>2022-11-19T13:20:49Z</time>
      </trkpt>
      <trkpt lat="48.94757" lon="7.85302">
        <ele>196</ele>
        <time>2022-11-19T13:20:54Z</time>
      </trkpt>
      <trkpt lat="48.94768" lon="7.85289">
        <ele>196</ele>
        <time>2022-11-19T13:20:57Z</time>
      </trkpt>
      <trkpt lat="48.94775" lon="7.8528">
        <ele>195.8</ele>
        <time>2022-11-19T13:20:59Z</time>
      </trkpt>
      <trkpt lat="48.94777" lon="7.85275">
        <ele>195.8</ele>
        <time>2022-11-19T13:21:00Z</time>
      </trkpt>
      <trkpt lat="48.9478" lon="7.8527">
        <ele>195.6</ele>
        <time>2022-11-19T13:21:01Z</time>
      </trkpt>
      <trkpt lat="48.94782" lon="7.85265">
        <ele>195.6</ele>
        <time>2022-11-19T13:21:02Z</time>
      </trkpt>
      <trkpt lat="48.94784" lon="7.8526">
        <ele>195.4</ele>
        <time>2022-11-19T13:21:03Z</time>
      </trkpt>
      <trkpt lat="48.94786" lon="7.85255">
        <ele>195.4</ele>
        <time>2022-11-19T13:21:04Z</time>
      </trkpt>
      <trkpt lat="48.94788" lon="7.85251">
        <ele>195.4</ele>
        <time>2022-11-19T13:21:05Z</time>
      </trkpt>
      <trkpt lat="48.9479" lon="7.85247">
        <ele>195.4</ele>
        <time>2022-11-19T13:21:06Z</time>
      </trkpt>
      <trkpt lat="48.94792" lon="7.85243">
        <ele>195.4</ele>
        <time>2022-11-19T13:21:07Z</time>
      </trkpt>
      <trkpt lat="48.94794" lon="7.85237">
        <ele>195.4</ele>
        <time>2022-11-19T13:21:08Z</time>
      </trkpt>
      <trkpt lat="48.94796" lon="7.85232">
        <ele>195.4</ele>
        <time>2022-11-19T13:21:09Z</time>
      </trkpt>
      <trkpt lat="48.94797" lon="7.85227">
        <ele>195.4</ele>
        <time>2022-11-19T13:21:10Z</time>
      </trkpt>
      <trkpt lat="48.94799" lon="7.85222">
        <ele>195.4</ele>
        <time>2022-11-19T13:21:11Z</time>
      </trkpt>
      <trkpt lat="48.94801" lon="7.85217">
        <ele>195.4</ele>
        <time>2022-11-19T13:21:12Z</time>
      </trkpt>
      <trkpt lat="48.94804" lon="7.85213">
        <ele>195.4</ele>
        <time>2022-11-19T13:21:13Z</time>
      </trkpt>
      <trkpt lat="48.94806" lon="7.85208">
        <ele>195.4</ele>
        <time>2022-11-19T13:21:14Z</time>
      </trkpt>
      <trkpt lat="48.94808" lon="7.85204">
        <ele>195.4</ele>
        <time>2022-11-19T13:21:15Z</time>
      </trkpt>
      <trkpt lat="48.94822" lon="7.85177">
        <ele>195.6</ele>
        <time>2022-11-19T13:21:21Z</time>
      </trkpt>
      <trkpt lat="48.94835" lon="7.85146">
        <ele>197</ele>
        <time>2022-11-19T13:21:27Z</time>
      </trkpt>
      <trkpt lat="48.94838" lon="7.85141">
        <ele>197.2</ele>
        <time>2022-11-19T13:21:28Z</time>
      </trkpt>
      <trkpt lat="48.94844" lon="7.85125">
        <ele>197.6</ele>
        <time>2022-11-19T13:21:31Z</time>
      </trkpt>
      <trkpt lat="48.94858" lon="7.85096">
        <ele>198</ele>
        <time>2022-11-19T13:21:37Z</time>
      </trkpt>
      <trkpt lat="48.94865" lon="7.85082">
        <ele>198.2</ele>
        <time>2022-11-19T13:21:40Z</time>
      </trkpt>
      <trkpt lat="48.94867" lon="7.85077">
        <ele>198.2</ele>
        <time>2022-11-19T13:21:41Z</time>
      </trkpt>
      <trkpt lat="48.94871" lon="7.85068">
        <ele>198.4</ele>
        <time>2022-11-19T13:21:43Z</time>
      </trkpt>
      <trkpt lat="48.94873" lon="7.85064">
        <ele>198.8</ele>
        <time>2022-11-19T13:21:44Z</time>
      </trkpt>
      <trkpt lat="48.94875" lon="7.8506">
        <ele>198.8</ele>
        <time>2022-11-19T13:21:45Z</time>
      </trkpt>
      <trkpt lat="48.94877" lon="7.85055">
        <ele>198.8</ele>
        <time>2022-11-19T13:21:46Z</time>
      </trkpt>
      <trkpt lat="48.94879" lon="7.85051">
        <ele>199</ele>
        <time>2022-11-19T13:21:47Z</time>
      </trkpt>
      <trkpt lat="48.94881" lon="7.85047">
        <ele>199.2</ele>
        <time>2022-11-19T13:21:48Z</time>
      </trkpt>
      <trkpt lat="48.94883" lon="7.85043">
        <ele>199.2</ele>
        <time>2022-11-19T13:21:49Z</time>
      </trkpt>
      <trkpt lat="48.94885" lon="7.85039">
        <ele>199.4</ele>
        <time>2022-11-19T13:21:50Z</time>
      </trkpt>
      <trkpt lat="48.94887" lon="7.85035">
        <ele>199.6</ele>
        <time>2022-11-19T13:21:51Z</time>
      </trkpt>
      <trkpt lat="48.94889" lon="7.85031">
        <ele>199.8</ele>
        <time>2022-11-19T13:21:52Z</time>
      </trkpt>
      <trkpt lat="48.94891" lon="7.85027">
        <ele>200.2</ele>
        <time>2022-11-19T13:21:53Z</time>
      </trkpt>
      <trkpt lat="48.94893" lon="7.85022">
        <ele>200.4</ele>
        <time>2022-11-19T13:21:54Z</time>
      </trkpt>
      <trkpt lat="48.94894" lon="7.85018">
        <ele>200.4</ele>
        <time>2022-11-19T13:21:55Z</time>
      </trkpt>
      <trkpt lat="48.94896" lon="7.85014">
        <ele>200.6</ele>
        <time>2022-11-19T13:21:56Z</time>
      </trkpt>
      <trkpt lat="48.94898" lon="7.8501">
        <ele>201</ele>
        <time>2022-11-19T13:21:57Z</time>
      </trkpt>
      <trkpt lat="48.949" lon="7.85005">
        <ele>201</ele>
        <time>2022-11-19T13:21:58Z</time>
      </trkpt>
      <trkpt lat="48.94901" lon="7.85001">
        <ele>201.2</ele>
        <time>2022-11-19T13:21:59Z</time>
      </trkpt>
      <trkpt lat="48.94903" lon="7.84996">
        <ele>201.4</ele>
        <time>2022-11-19T13:22:00Z</time>
      </trkpt>
      <trkpt lat="48.94904" lon="7.84993">
        <ele>201.6</ele>
        <time>2022-11-19T13:22:01Z</time>
      </trkpt>
      <trkpt lat="48.94907" lon="7.84988">
        <ele>201.8</ele>
        <time>2022-11-19T13:22:02Z</time>
      </trkpt>
      <trkpt lat="48.94909" lon="7.84984">
        <ele>202</ele>
        <time>2022-11-19T13:22:03Z</time>
      </trkpt>
      <trkpt lat="48.9491" lon="7.8498">
        <ele>202.2</ele>
        <time>2022-11-19T13:22:04Z</time>
      </trkpt>
      <trkpt lat="48.94912" lon="7.84976">
        <ele>202.4</ele>
        <time>2022-11-19T13:22:05Z</time>
      </trkpt>
      <trkpt lat="48.94914" lon="7.84973">
        <ele>202.6</ele>
        <time>2022-11-19T13:22:06Z</time>
      </trkpt>
      <trkpt lat="48.94916" lon="7.84969">
        <ele>202.6</ele>
        <time>2022-11-19T13:22:07Z</time>
      </trkpt>
      <trkpt lat="48.94917" lon="7.84965">
        <ele>202.8</ele>
        <time>2022-11-19T13:22:08Z</time>
      </trkpt>
      <trkpt lat="48.94919" lon="7.84961">
        <ele>202.8</ele>
        <time>2022-11-19T13:22:09Z</time>
      </trkpt>
      <trkpt lat="48.94921" lon="7.84957">
        <ele>203</ele>
        <time>2022-11-19T13:22:10Z</time>
      </trkpt>
      <trkpt lat="48.94923" lon="7.84952">
        <ele>203.2</ele>
        <time>2022-11-19T13:22:11Z</time>
      </trkpt>
      <trkpt lat="48.94925" lon="7.84948">
        <ele>203.2</ele>
        <time>2022-11-19T13:22:12Z</time>
      </trkpt>
      <trkpt lat="48.94928" lon="7.84943">
        <ele>203.2</ele>
        <time>2022-11-19T13:22:13Z</time>
      </trkpt>
      <trkpt lat="48.9493" lon="7.84939">
        <ele>203.2</ele>
        <time>2022-11-19T13:22:14Z</time>
      </trkpt>
      <trkpt lat="48.94933" lon="7.84934">
        <ele>203.4</ele>
        <time>2022-11-19T13:22:15Z</time>
      </trkpt>
      <trkpt lat="48.94936" lon="7.84929">
        <ele>203.4</ele>
        <time>2022-11-19T13:22:16Z</time>
      </trkpt>
      <trkpt lat="48.94938" lon="7.84924">
        <ele>203.4</ele>
        <time>2022-11-19T13:22:17Z</time>
      </trkpt>
      <trkpt lat="48.94941" lon="7.84919">
        <ele>203.4</ele>
        <time>2022-11-19T13:22:18Z</time>
      </trkpt>
      <trkpt lat="48.94944" lon="7.84914">
        <ele>203.4</ele>
        <time>2022-11-19T13:22:19Z</time>
      </trkpt>
      <trkpt lat="48.94948" lon="7.8491">
        <ele>203.2</ele>
        <time>2022-11-19T13:22:20Z</time>
      </trkpt>
      <trkpt lat="48.94951" lon="7.84905">
        <ele>203.2</ele>
        <time>2022-11-19T13:22:21Z</time>
      </trkpt>
      <trkpt lat="48.94953" lon="7.84899">
        <ele>203</ele>
        <time>2022-11-19T13:22:22Z</time>
      </trkpt>
      <trkpt lat="48.94956" lon="7.84894">
        <ele>203</ele>
        <time>2022-11-19T13:22:23Z</time>
      </trkpt>
      <trkpt lat="48.94959" lon="7.84889">
        <ele>202.8</ele>
        <time>2022-11-19T13:22:24Z</time>
      </trkpt>
      <trkpt lat="48.94968" lon="7.84874">
        <ele>202.2</ele>
        <time>2022-11-19T13:22:27Z</time>
      </trkpt>
      <trkpt lat="48.94973" lon="7.84863">
        <ele>202</ele>
        <time>2022-11-19T13:22:29Z</time>
      </trkpt>
      <trkpt lat="48.94977" lon="7.84858">
        <ele>201.8</ele>
        <time>2022-11-19T13:22:30Z</time>
      </trkpt>
      <trkpt lat="48.94979" lon="7.84854">
        <ele>201.6</ele>
        <time>2022-11-19T13:22:31Z</time>
      </trkpt>
      <trkpt lat="48.94982" lon="7.8485">
        <ele>201.6</ele>
        <time>2022-11-19T13:22:32Z</time>
      </trkpt>
      <trkpt lat="48.94986" lon="7.84845">
        <ele>201.6</ele>
        <time>2022-11-19T13:22:33Z</time>
      </trkpt>
      <trkpt lat="48.94989" lon="7.84841">
        <ele>201.4</ele>
        <time>2022-11-19T13:22:34Z</time>
      </trkpt>
      <trkpt lat="48.94995" lon="7.84833">
        <ele>201.4</ele>
        <time>2022-11-19T13:22:36Z</time>
      </trkpt>
      <trkpt lat="48.94996" lon="7.8483">
        <ele>201.4</ele>
        <time>2022-11-19T13:22:37Z</time>
      </trkpt>
      <trkpt lat="48.94999" lon="7.84826">
        <ele>201.4</ele>
        <time>2022-11-19T13:22:38Z</time>
      </trkpt>
      <trkpt lat="48.95002" lon="7.84822">
        <ele>201.4</ele>
        <time>2022-11-19T13:22:39Z</time>
      </trkpt>
      <trkpt lat="48.95006" lon="7.84818">
        <ele>201.4</ele>
        <time>2022-11-19T13:22:40Z</time>
      </trkpt>
      <trkpt lat="48.95009" lon="7.84816">
        <ele>201.4</ele>
        <time>2022-11-19T13:22:41Z</time>
      </trkpt>
      <trkpt lat="48.95012" lon="7.84812">
        <ele>201.4</ele>
        <time>2022-11-19T13:22:42Z</time>
      </trkpt>
      <trkpt lat="48.95016" lon="7.84808">
        <ele>201.4</ele>
        <time>2022-11-19T13:22:43Z</time>
      </trkpt>
      <trkpt lat="48.9503" lon="7.84792">
        <ele>201.4</ele>
        <time>2022-11-19T13:22:48Z</time>
      </trkpt>
      <trkpt lat="48.95055" lon="7.84763">
        <ele>201.6</ele>
        <time>2022-11-19T13:22:56Z</time>
      </trkpt>
      <trkpt lat="48.95072" lon="7.84739">
        <ele>201.8</ele>
        <time>2022-11-19T13:23:02Z</time>
      </trkpt>
      <trkpt lat="48.95078" lon="7.8473">
        <ele>201.8</ele>
        <time>2022-11-19T13:23:04Z</time>
      </trkpt>
      <trkpt lat="48.95089" lon="7.84711">
        <ele>202.4</ele>
        <time>2022-11-19T13:23:08Z</time>
      </trkpt>
      <trkpt lat="48.95092" lon="7.84707">
        <ele>202.6</ele>
        <time>2022-11-19T13:23:09Z</time>
      </trkpt>
      <trkpt lat="48.95095" lon="7.84703">
        <ele>202.8</ele>
        <time>2022-11-19T13:23:10Z</time>
      </trkpt>
      <trkpt lat="48.95097" lon="7.84698">
        <ele>203</ele>
        <time>2022-11-19T13:23:11Z</time>
      </trkpt>
      <trkpt lat="48.951" lon="7.84694">
        <ele>203</ele>
        <time>2022-11-19T13:23:12Z</time>
      </trkpt>
      <trkpt lat="48.95118" lon="7.84668">
        <ele>203.8</ele>
        <time>2022-11-19T13:23:18Z</time>
      </trkpt>
      <trkpt lat="48.9512" lon="7.84663">
        <ele>203.8</ele>
        <time>2022-11-19T13:23:19Z</time>
      </trkpt>
      <trkpt lat="48.95127" lon="7.84652">
        <ele>204</ele>
        <time>2022-11-19T13:23:22Z</time>
      </trkpt>
      <trkpt lat="48.95133" lon="7.84645">
        <ele>204.4</ele>
        <time>2022-11-19T13:23:24Z</time>
      </trkpt>
      <trkpt lat="48.95135" lon="7.84642">
        <ele>204.6</ele>
        <time>2022-11-19T13:23:25Z</time>
      </trkpt>
      <trkpt lat="48.95137" lon="7.84638">
        <ele>205</ele>
        <time>2022-11-19T13:23:26Z</time>
      </trkpt>
      <trkpt lat="48.95139" lon="7.84634">
        <ele>205.4</ele>
        <time>2022-11-19T13:23:27Z</time>
      </trkpt>
      <trkpt lat="48.95141" lon="7.8463">
        <ele>205.4</ele>
        <time>2022-11-19T13:23:28Z</time>
      </trkpt>
      <trkpt lat="48.95143" lon="7.84626">
        <ele>205.6</ele>
        <time>2022-11-19T13:23:29Z</time>
      </trkpt>
      <trkpt lat="48.95144" lon="7.84622">
        <ele>205.8</ele>
        <time>2022-11-19T13:23:30Z</time>
      </trkpt>
      <trkpt lat="48.95147" lon="7.84619">
        <ele>206.2</ele>
        <time>2022-11-19T13:23:31Z</time>
      </trkpt>
      <trkpt lat="48.95149" lon="7.84616">
        <ele>206.4</ele>
        <time>2022-11-19T13:23:32Z</time>
      </trkpt>
      <trkpt lat="48.9515" lon="7.84613">
        <ele>206.8</ele>
        <time>2022-11-19T13:23:33Z</time>
      </trkpt>
      <trkpt lat="48.95151" lon="7.8461">
        <ele>207.2</ele>
        <time>2022-11-19T13:23:34Z</time>
      </trkpt>
      <trkpt lat="48.95153" lon="7.84607">
        <ele>207.4</ele>
        <time>2022-11-19T13:23:35Z</time>
      </trkpt>
      <trkpt lat="48.95155" lon="7.84604">
        <ele>207.8</ele>
        <time>2022-11-19T13:23:36Z</time>
      </trkpt>
      <trkpt lat="48.95157" lon="7.84601">
        <ele>208.2</ele>
        <time>2022-11-19T13:23:37Z</time>
      </trkpt>
      <trkpt lat="48.95159" lon="7.84597">
        <ele>208.4</ele>
        <time>2022-11-19T13:23:38Z</time>
      </trkpt>
      <trkpt lat="48.95161" lon="7.84594">
        <ele>208.6</ele>
        <time>2022-11-19T13:23:39Z</time>
      </trkpt>
      <trkpt lat="48.95163" lon="7.84591">
        <ele>208.8</ele>
        <time>2022-11-19T13:23:40Z</time>
      </trkpt>
      <trkpt lat="48.95165" lon="7.84588">
        <ele>209</ele>
        <time>2022-11-19T13:23:41Z</time>
      </trkpt>
      <trkpt lat="48.95167" lon="7.84584">
        <ele>209.2</ele>
        <time>2022-11-19T13:23:42Z</time>
      </trkpt>
      <trkpt lat="48.95169" lon="7.8458">
        <ele>209.4</ele>
        <time>2022-11-19T13:23:43Z</time>
      </trkpt>
      <trkpt lat="48.95171" lon="7.84577">
        <ele>209.4</ele>
        <time>2022-11-19T13:23:44Z</time>
      </trkpt>
      <trkpt lat="48.95173" lon="7.84573">
        <ele>209.6</ele>
        <time>2022-11-19T13:23:45Z</time>
      </trkpt>
      <trkpt lat="48.95175" lon="7.8457">
        <ele>209.6</ele>
        <time>2022-11-19T13:23:46Z</time>
      </trkpt>
      <trkpt lat="48.95177" lon="7.84566">
        <ele>210</ele>
        <time>2022-11-19T13:23:47Z</time>
      </trkpt>
      <trkpt lat="48.95179" lon="7.84563">
        <ele>210.2</ele>
        <time>2022-11-19T13:23:48Z</time>
      </trkpt>
      <trkpt lat="48.9518" lon="7.8456">
        <ele>210.2</ele>
        <time>2022-11-19T13:23:49Z</time>
      </trkpt>
      <trkpt lat="48.95182" lon="7.84556">
        <ele>210.4</ele>
        <time>2022-11-19T13:23:50Z</time>
      </trkpt>
      <trkpt lat="48.95184" lon="7.84553">
        <ele>210.6</ele>
        <time>2022-11-19T13:23:51Z</time>
      </trkpt>
      <trkpt lat="48.95186" lon="7.8455">
        <ele>210.6</ele>
        <time>2022-11-19T13:23:52Z</time>
      </trkpt>
      <trkpt lat="48.95188" lon="7.84547">
        <ele>210.8</ele>
        <time>2022-11-19T13:23:53Z</time>
      </trkpt>
      <trkpt lat="48.9519" lon="7.84544">
        <ele>211</ele>
        <time>2022-11-19T13:23:54Z</time>
      </trkpt>
      <trkpt lat="48.95191" lon="7.84539">
        <ele>211</ele>
        <time>2022-11-19T13:23:55Z</time>
      </trkpt>
      <trkpt lat="48.95193" lon="7.84535">
        <ele>211.2</ele>
        <time>2022-11-19T13:23:56Z</time>
      </trkpt>
      <trkpt lat="48.95194" lon="7.84531">
        <ele>211.4</ele>
        <time>2022-11-19T13:23:57Z</time>
      </trkpt>
      <trkpt lat="48.95196" lon="7.84527">
        <ele>211.4</ele>
        <time>2022-11-19T13:23:58Z</time>
      </trkpt>
      <trkpt lat="48.95199" lon="7.84523">
        <ele>211.6</ele>
        <time>2022-11-19T13:23:59Z</time>
      </trkpt>
      <trkpt lat="48.95201" lon="7.84519">
        <ele>211.6</ele>
        <time>2022-11-19T13:24:00Z</time>
      </trkpt>
      <trkpt lat="48.95203" lon="7.84515">
        <ele>211.8</ele>
        <time>2022-11-19T13:24:01Z</time>
      </trkpt>
      <trkpt lat="48.95205" lon="7.8451">
        <ele>212</ele>
        <time>2022-11-19T13:24:02Z</time>
      </trkpt>
      <trkpt lat="48.95207" lon="7.84506">
        <ele>212.2</ele>
        <time>2022-11-19T13:24:03Z</time>
      </trkpt>
      <trkpt lat="48.9521" lon="7.84501">
        <ele>212.4</ele>
        <time>2022-11-19T13:24:04Z</time>
      </trkpt>
      <trkpt lat="48.95212" lon="7.84496">
        <ele>212.6</ele>
        <time>2022-11-19T13:24:05Z</time>
      </trkpt>
      <trkpt lat="48.95213" lon="7.84491">
        <ele>212.6</ele>
        <time>2022-11-19T13:24:06Z</time>
      </trkpt>
      <trkpt lat="48.95215" lon="7.84486">
        <ele>212.8</ele>
        <time>2022-11-19T13:24:07Z</time>
      </trkpt>
      <trkpt lat="48.95217" lon="7.84482">
        <ele>212.8</ele>
        <time>2022-11-19T13:24:08Z</time>
      </trkpt>
      <trkpt lat="48.95219" lon="7.84477">
        <ele>213</ele>
        <time>2022-11-19T13:24:09Z</time>
      </trkpt>
      <trkpt lat="48.95221" lon="7.84472">
        <ele>213</ele>
        <time>2022-11-19T13:24:10Z</time>
      </trkpt>
      <trkpt lat="48.95224" lon="7.84468">
        <ele>213.2</ele>
        <time>2022-11-19T13:24:11Z</time>
      </trkpt>
      <trkpt lat="48.95226" lon="7.84463">
        <ele>213.2</ele>
        <time>2022-11-19T13:24:12Z</time>
      </trkpt>
      <trkpt lat="48.95228" lon="7.84458">
        <ele>213.4</ele>
        <time>2022-11-19T13:24:13Z</time>
      </trkpt>
      <trkpt lat="48.9523" lon="7.84453">
        <ele>213.4</ele>
        <time>2022-11-19T13:24:14Z</time>
      </trkpt>
      <trkpt lat="48.95232" lon="7.84449">
        <ele>213.4</ele>
        <time>2022-11-19T13:24:15Z</time>
      </trkpt>
      <trkpt lat="48.95234" lon="7.84444">
        <ele>213.4</ele>
        <time>2022-11-19T13:24:16Z</time>
      </trkpt>
      <trkpt lat="48.95235" lon="7.84439">
        <ele>213.4</ele>
        <time>2022-11-19T13:24:17Z</time>
      </trkpt>
      <trkpt lat="48.95237" lon="7.84434">
        <ele>213.4</ele>
        <time>2022-11-19T13:24:18Z</time>
      </trkpt>
      <trkpt lat="48.95239" lon="7.8443">
        <ele>213.4</ele>
        <time>2022-11-19T13:24:19Z</time>
      </trkpt>
      <trkpt lat="48.95241" lon="7.84425">
        <ele>213.4</ele>
        <time>2022-11-19T13:24:20Z</time>
      </trkpt>
      <trkpt lat="48.95243" lon="7.8442">
        <ele>213.4</ele>
        <time>2022-11-19T13:24:21Z</time>
      </trkpt>
      <trkpt lat="48.95245" lon="7.84416">
        <ele>213.6</ele>
        <time>2022-11-19T13:24:22Z</time>
      </trkpt>
      <trkpt lat="48.95247" lon="7.8441">
        <ele>213.6</ele>
        <time>2022-11-19T13:24:23Z</time>
      </trkpt>
      <trkpt lat="48.95249" lon="7.84405">
        <ele>213.8</ele>
        <time>2022-11-19T13:24:24Z</time>
      </trkpt>
      <trkpt lat="48.95251" lon="7.844">
        <ele>213.8</ele>
        <time>2022-11-19T13:24:25Z</time>
      </trkpt>
      <trkpt lat="48.95256" lon="7.8439">
        <ele>213.8</ele>
        <time>2022-11-19T13:24:27Z</time>
      </trkpt>
      <trkpt lat="48.95266" lon="7.84367">
        <ele>213.8</ele>
        <time>2022-11-19T13:24:32Z</time>
      </trkpt>
      <trkpt lat="48.95277" lon="7.84327">
        <ele>213.8</ele>
        <time>2022-11-19T13:24:40Z</time>
      </trkpt>
      <trkpt lat="48.95285" lon="7.843">
        <ele>213.6</ele>
        <time>2022-11-19T13:24:45Z</time>
      </trkpt>
      <trkpt lat="48.95304" lon="7.84254">
        <ele>212.4</ele>
        <time>2022-11-19T13:24:54Z</time>
      </trkpt>
      <trkpt lat="48.95306" lon="7.84249">
        <ele>212.4</ele>
        <time>2022-11-19T13:24:55Z</time>
      </trkpt>
      <trkpt lat="48.95308" lon="7.84244">
        <ele>212.2</ele>
        <time>2022-11-19T13:24:56Z</time>
      </trkpt>
      <trkpt lat="48.95311" lon="7.8424">
        <ele>212</ele>
        <time>2022-11-19T13:24:57Z</time>
      </trkpt>
      <trkpt lat="48.95313" lon="7.84235">
        <ele>211.8</ele>
        <time>2022-11-19T13:24:58Z</time>
      </trkpt>
      <trkpt lat="48.95319" lon="7.84226">
        <ele>211.4</ele>
        <time>2022-11-19T13:25:00Z</time>
      </trkpt>
      <trkpt lat="48.95329" lon="7.84213">
        <ele>211.2</ele>
        <time>2022-11-19T13:25:03Z</time>
      </trkpt>
      <trkpt lat="48.95343" lon="7.84189">
        <ele>211</ele>
        <time>2022-11-19T13:25:08Z</time>
      </trkpt>
      <trkpt lat="48.95361" lon="7.84167">
        <ele>210.8</ele>
        <time>2022-11-19T13:25:13Z</time>
      </trkpt>
      <trkpt lat="48.95364" lon="7.84164">
        <ele>210.8</ele>
        <time>2022-11-19T13:25:14Z</time>
      </trkpt>
      <trkpt lat="48.95384" lon="7.84141">
        <ele>210.4</ele>
        <time>2022-11-19T13:25:20Z</time>
      </trkpt>
      <trkpt lat="48.95386" lon="7.8414">
        <ele>210.4</ele>
        <time>2022-11-19T13:25:21Z</time>
      </trkpt>
      <trkpt lat="48.95389" lon="7.84139">
        <ele>210.4</ele>
        <time>2022-11-19T13:25:22Z</time>
      </trkpt>
      <trkpt lat="48.95391" lon="7.8414">
        <ele>210.4</ele>
        <time>2022-11-19T13:25:23Z</time>
      </trkpt>
      <trkpt lat="48.95393" lon="7.84141">
        <ele>210.2</ele>
        <time>2022-11-19T13:25:24Z</time>
      </trkpt>
      <trkpt lat="48.95396" lon="7.84142">
        <ele>210.2</ele>
        <time>2022-11-19T13:25:25Z</time>
      </trkpt>
      <trkpt lat="48.95398" lon="7.84142">
        <ele>210.2</ele>
        <time>2022-11-19T13:25:26Z</time>
      </trkpt>
      <trkpt lat="48.954" lon="7.84141">
        <ele>210.2</ele>
        <time>2022-11-19T13:25:27Z</time>
      </trkpt>
      <trkpt lat="48.95403" lon="7.84141">
        <ele>210</ele>
        <time>2022-11-19T13:25:28Z</time>
      </trkpt>
      <trkpt lat="48.95409" lon="7.84142">
        <ele>210</ele>
        <time>2022-11-19T13:25:30Z</time>
      </trkpt>
      <trkpt lat="48.95415" lon="7.84142">
        <ele>209.6</ele>
        <time>2022-11-19T13:25:32Z</time>
      </trkpt>
      <trkpt lat="48.95424" lon="7.84142">
        <ele>209.4</ele>
        <time>2022-11-19T13:25:35Z</time>
      </trkpt>
      <trkpt lat="48.95427" lon="7.84143">
        <ele>209.2</ele>
        <time>2022-11-19T13:25:36Z</time>
      </trkpt>
      <trkpt lat="48.95432" lon="7.84145">
        <ele>209</ele>
        <time>2022-11-19T13:25:38Z</time>
      </trkpt>
      <trkpt lat="48.95435" lon="7.84145">
        <ele>209</ele>
        <time>2022-11-19T13:25:39Z</time>
      </trkpt>
      <trkpt lat="48.95437" lon="7.84145">
        <ele>209</ele>
        <time>2022-11-19T13:25:40Z</time>
      </trkpt>
      <trkpt lat="48.95445" lon="7.84144">
        <ele>208.8</ele>
        <time>2022-11-19T13:25:42Z</time>
      </trkpt>
      <trkpt lat="48.95459" lon="7.84146">
        <ele>208.8</ele>
        <time>2022-11-19T13:25:46Z</time>
      </trkpt>
      <trkpt lat="48.95463" lon="7.84147">
        <ele>208.8</ele>
        <time>2022-11-19T13:25:47Z</time>
      </trkpt>
      <trkpt lat="48.95466" lon="7.84147">
        <ele>209</ele>
        <time>2022-11-19T13:25:48Z</time>
      </trkpt>
      <trkpt lat="48.95469" lon="7.84148">
        <ele>209.2</ele>
        <time>2022-11-19T13:25:49Z</time>
      </trkpt>
      <trkpt lat="48.95472" lon="7.84148">
        <ele>209.2</ele>
        <time>2022-11-19T13:25:50Z</time>
      </trkpt>
      <trkpt lat="48.95478" lon="7.84151">
        <ele>209.6</ele>
        <time>2022-11-19T13:25:52Z</time>
      </trkpt>
      <trkpt lat="48.95482" lon="7.8415">
        <ele>209.6</ele>
        <time>2022-11-19T13:25:53Z</time>
      </trkpt>
      <trkpt lat="48.95485" lon="7.84149">
        <ele>210</ele>
        <time>2022-11-19T13:25:54Z</time>
      </trkpt>
      <trkpt lat="48.95488" lon="7.84148">
        <ele>210.2</ele>
        <time>2022-11-19T13:25:55Z</time>
      </trkpt>
      <trkpt lat="48.95493" lon="7.84149">
        <ele>210.4</ele>
        <time>2022-11-19T13:25:56Z</time>
      </trkpt>
      <trkpt lat="48.95497" lon="7.84148">
        <ele>210.6</ele>
        <time>2022-11-19T13:25:57Z</time>
      </trkpt>
      <trkpt lat="48.95499" lon="7.84149">
        <ele>210.6</ele>
        <time>2022-11-19T13:25:58Z</time>
      </trkpt>
      <trkpt lat="48.95501" lon="7.8415">
        <ele>210.8</ele>
        <time>2022-11-19T13:25:59Z</time>
      </trkpt>
      <trkpt lat="48.95503" lon="7.8415">
        <ele>210.8</ele>
        <time>2022-11-19T13:26:00Z</time>
      </trkpt>
      <trkpt lat="48.95504" lon="7.84151">
        <ele>211</ele>
        <time>2022-11-19T13:26:01Z</time>
      </trkpt>
      <trkpt lat="48.95506" lon="7.8415">
        <ele>211.4</ele>
        <time>2022-11-19T13:26:02Z</time>
      </trkpt>
      <trkpt lat="48.95517" lon="7.84153">
        <ele>212</ele>
        <time>2022-11-19T13:26:06Z</time>
      </trkpt>
      <trkpt lat="48.95519" lon="7.84156">
        <ele>212</ele>
        <time>2022-11-19T13:26:07Z</time>
      </trkpt>
      <trkpt lat="48.95522" lon="7.84159">
        <ele>212</ele>
        <time>2022-11-19T13:26:08Z</time>
      </trkpt>
      <trkpt lat="48.95524" lon="7.84161">
        <ele>212.2</ele>
        <time>2022-11-19T13:26:09Z</time>
      </trkpt>
      <trkpt lat="48.95527" lon="7.84162">
        <ele>212.2</ele>
        <time>2022-11-19T13:26:10Z</time>
      </trkpt>
      <trkpt lat="48.9553" lon="7.84162">
        <ele>212.2</ele>
        <time>2022-11-19T13:26:11Z</time>
      </trkpt>
      <trkpt lat="48.95534" lon="7.84164">
        <ele>212.4</ele>
        <time>2022-11-19T13:26:12Z</time>
      </trkpt>
      <trkpt lat="48.95538" lon="7.84165">
        <ele>212.4</ele>
        <time>2022-11-19T13:26:13Z</time>
      </trkpt>
      <trkpt lat="48.9554" lon="7.84166">
        <ele>212.4</ele>
        <time>2022-11-19T13:26:14Z</time>
      </trkpt>
      <trkpt lat="48.95543" lon="7.84167">
        <ele>212.6</ele>
        <time>2022-11-19T13:26:15Z</time>
      </trkpt>
      <trkpt lat="48.95546" lon="7.84167">
        <ele>212.8</ele>
        <time>2022-11-19T13:26:16Z</time>
      </trkpt>
      <trkpt lat="48.95548" lon="7.84168">
        <ele>212.8</ele>
        <time>2022-11-19T13:26:17Z</time>
      </trkpt>
      <trkpt lat="48.95551" lon="7.84169">
        <ele>213</ele>
        <time>2022-11-19T13:26:18Z</time>
      </trkpt>
      <trkpt lat="48.95554" lon="7.84169">
        <ele>213</ele>
        <time>2022-11-19T13:26:19Z</time>
      </trkpt>
      <trkpt lat="48.95557" lon="7.8417">
        <ele>213.2</ele>
        <time>2022-11-19T13:26:20Z</time>
      </trkpt>
      <trkpt lat="48.95559" lon="7.84171">
        <ele>213.2</ele>
        <time>2022-11-19T13:26:21Z</time>
      </trkpt>
      <trkpt lat="48.95561" lon="7.84171">
        <ele>213.2</ele>
        <time>2022-11-19T13:26:22Z</time>
      </trkpt>
      <trkpt lat="48.95563" lon="7.84172">
        <ele>213.4</ele>
        <time>2022-11-19T13:26:23Z</time>
      </trkpt>
      <trkpt lat="48.95565" lon="7.84174">
        <ele>213.4</ele>
        <time>2022-11-19T13:26:24Z</time>
      </trkpt>
      <trkpt lat="48.95567" lon="7.84174">
        <ele>213.4</ele>
        <time>2022-11-19T13:26:25Z</time>
      </trkpt>
      <trkpt lat="48.95569" lon="7.84174">
        <ele>213.4</ele>
        <time>2022-11-19T13:26:26Z</time>
      </trkpt>
      <trkpt lat="48.9557" lon="7.84175">
        <ele>213.6</ele>
        <time>2022-11-19T13:26:27Z</time>
      </trkpt>
      <trkpt lat="48.95572" lon="7.84177">
        <ele>213.6</ele>
        <time>2022-11-19T13:26:28Z</time>
      </trkpt>
      <trkpt lat="48.95574" lon="7.84179">
        <ele>213.6</ele>
        <time>2022-11-19T13:26:29Z</time>
      </trkpt>
      <trkpt lat="48.9558" lon="7.84189">
        <ele>213.8</ele>
        <time>2022-11-19T13:26:32Z</time>
      </trkpt>
      <trkpt lat="48.95583" lon="7.84193">
        <ele>213.8</ele>
        <time>2022-11-19T13:26:34Z</time>
      </trkpt>
      <trkpt lat="48.95586" lon="7.84198">
        <ele>213.8</ele>
        <time>2022-11-19T13:26:36Z</time>
      </trkpt>
      <trkpt lat="48.95587" lon="7.842">
        <ele>213.8</ele>
        <time>2022-11-19T13:26:37Z</time>
      </trkpt>
      <trkpt lat="48.95593" lon="7.84208">
        <ele>213.6</ele>
        <time>2022-11-19T13:26:40Z</time>
      </trkpt>
      <trkpt lat="48.95595" lon="7.84211">
        <ele>213.6</ele>
        <time>2022-11-19T13:26:41Z</time>
      </trkpt>
      <trkpt lat="48.95596" lon="7.84212">
        <ele>213.6</ele>
        <time>2022-11-19T13:26:42Z</time>
      </trkpt>
      <trkpt lat="48.95598" lon="7.84215">
        <ele>213.6</ele>
        <time>2022-11-19T13:26:43Z</time>
      </trkpt>
      <trkpt lat="48.956" lon="7.84217">
        <ele>213.6</ele>
        <time>2022-11-19T13:26:44Z</time>
      </trkpt>
      <trkpt lat="48.95602" lon="7.84218">
        <ele>213.4</ele>
        <time>2022-11-19T13:26:45Z</time>
      </trkpt>
      <trkpt lat="48.95609" lon="7.84221">
        <ele>213.4</ele>
        <time>2022-11-19T13:26:47Z</time>
      </trkpt>
      <trkpt lat="48.95611" lon="7.84224">
        <ele>213.4</ele>
        <time>2022-11-19T13:26:48Z</time>
      </trkpt>
      <trkpt lat="48.95613" lon="7.84226">
        <ele>213.4</ele>
        <time>2022-11-19T13:26:49Z</time>
      </trkpt>
      <trkpt lat="48.95616" lon="7.84229">
        <ele>213.4</ele>
        <time>2022-11-19T13:26:50Z</time>
      </trkpt>
      <trkpt lat="48.95625" lon="7.84239">
        <ele>213.2</ele>
        <time>2022-11-19T13:26:53Z</time>
      </trkpt>
      <trkpt lat="48.95633" lon="7.84244">
        <ele>213.2</ele>
        <time>2022-11-19T13:26:55Z</time>
      </trkpt>
      <trkpt lat="48.95636" lon="7.84245">
        <ele>213.2</ele>
        <time>2022-11-19T13:26:56Z</time>
      </trkpt>
      <trkpt lat="48.95639" lon="7.84247">
        <ele>213</ele>
        <time>2022-11-19T13:26:57Z</time>
      </trkpt>
      <trkpt lat="48.95641" lon="7.84248">
        <ele>213.2</ele>
        <time>2022-11-19T13:26:58Z</time>
      </trkpt>
      <trkpt lat="48.95643" lon="7.84249">
        <ele>213</ele>
        <time>2022-11-19T13:26:59Z</time>
      </trkpt>
      <trkpt lat="48.95647" lon="7.84253">
        <ele>213</ele>
        <time>2022-11-19T13:27:00Z</time>
      </trkpt>
      <trkpt lat="48.95649" lon="7.84256">
        <ele>213</ele>
        <time>2022-11-19T13:27:01Z</time>
      </trkpt>
      <trkpt lat="48.9565" lon="7.8426">
        <ele>213</ele>
        <time>2022-11-19T13:27:02Z</time>
      </trkpt>
      <trkpt lat="48.95653" lon="7.84262">
        <ele>213</ele>
        <time>2022-11-19T13:27:03Z</time>
      </trkpt>
      <trkpt lat="48.95666" lon="7.84278">
        <ele>213</ele>
        <time>2022-11-19T13:27:08Z</time>
      </trkpt>
      <trkpt lat="48.95672" lon="7.8428">
        <ele>212.8</ele>
        <time>2022-11-19T13:27:10Z</time>
      </trkpt>
      <trkpt lat="48.95677" lon="7.84277">
        <ele>212.8</ele>
        <time>2022-11-19T13:27:12Z</time>
      </trkpt>
      <trkpt lat="48.9568" lon="7.84276">
        <ele>212.8</ele>
        <time>2022-11-19T13:27:13Z</time>
      </trkpt>
      <trkpt lat="48.95683" lon="7.84274">
        <ele>212.8</ele>
        <time>2022-11-19T13:27:14Z</time>
      </trkpt>
      <trkpt lat="48.95685" lon="7.84275">
        <ele>212.8</ele>
        <time>2022-11-19T13:27:15Z</time>
      </trkpt>
      <trkpt lat="48.95688" lon="7.84275">
        <ele>212.8</ele>
        <time>2022-11-19T13:27:16Z</time>
      </trkpt>
      <trkpt lat="48.9569" lon="7.84275">
        <ele>212.6</ele>
        <time>2022-11-19T13:27:17Z</time>
      </trkpt>
      <trkpt lat="48.9571" lon="7.84272">
        <ele>212.2</ele>
        <time>2022-11-19T13:27:23Z</time>
      </trkpt>
      <trkpt lat="48.95722" lon="7.8427">
        <ele>212.2</ele>
        <time>2022-11-19T13:27:26Z</time>
      </trkpt>
      <trkpt lat="48.95732" lon="7.84269">
        <ele>212</ele>
        <time>2022-11-19T13:27:28Z</time>
      </trkpt>
      <trkpt lat="48.95748" lon="7.84267">
        <ele>211.6</ele>
        <time>2022-11-19T13:27:31Z</time>
      </trkpt>
      <trkpt lat="48.95764" lon="7.84266">
        <ele>210.8</ele>
        <time>2022-11-19T13:27:34Z</time>
      </trkpt>
      <trkpt lat="48.95769" lon="7.84266">
        <ele>210.6</ele>
        <time>2022-11-19T13:27:35Z</time>
      </trkpt>
      <trkpt lat="48.95783" lon="7.84266">
        <ele>210</ele>
        <time>2022-11-19T13:27:38Z</time>
      </trkpt>
      <trkpt lat="48.95787" lon="7.84265">
        <ele>209.6</ele>
        <time>2022-11-19T13:27:39Z</time>
      </trkpt>
      <trkpt lat="48.9579" lon="7.84266">
        <ele>209.2</ele>
        <time>2022-11-19T13:27:40Z</time>
      </trkpt>
      <trkpt lat="48.95793" lon="7.84266">
        <ele>209.2</ele>
        <time>2022-11-19T13:27:41Z</time>
      </trkpt>
      <trkpt lat="48.95796" lon="7.84267">
        <ele>209</ele>
        <time>2022-11-19T13:27:42Z</time>
      </trkpt>
      <trkpt lat="48.95796" lon="7.84267">
        <ele>209</ele>
        <time>2022-11-19T13:27:43Z</time>
      </trkpt>
      <trkpt lat="48.95796" lon="7.84267">
        <ele>208.8</ele>
        <time>2022-11-19T13:27:44Z</time>
      </trkpt>
      <trkpt lat="48.95796" lon="7.84267">
        <ele>208.8</ele>
        <time>2022-11-19T13:27:45Z</time>
      </trkpt>
      <trkpt lat="48.95796" lon="7.84267">
        <ele>208</ele>
        <time>2022-11-19T13:30:48Z</time>
      </trkpt>
      <trkpt lat="48.95802" lon="7.84264">
        <ele>208.6</ele>
        <time>2022-11-19T13:30:51Z</time>
      </trkpt>
      <trkpt lat="48.95804" lon="7.84263">
        <ele>208.6</ele>
        <time>2022-11-19T13:30:52Z</time>
      </trkpt>
      <trkpt lat="48.95812" lon="7.84263">
        <ele>208.6</ele>
        <time>2022-11-19T13:30:55Z</time>
      </trkpt>
      <trkpt lat="48.95816" lon="7.84264">
        <ele>208.6</ele>
        <time>2022-11-19T13:30:56Z</time>
      </trkpt>
      <trkpt lat="48.95825" lon="7.84265">
        <ele>208.6</ele>
        <time>2022-11-19T13:30:59Z</time>
      </trkpt>
      <trkpt lat="48.9584" lon="7.84263">
        <ele>208.8</ele>
        <time>2022-11-19T13:31:03Z</time>
      </trkpt>
      <trkpt lat="48.95852" lon="7.84261">
        <ele>208.8</ele>
        <time>2022-11-19T13:31:06Z</time>
      </trkpt>
      <trkpt lat="48.9586" lon="7.8426">
        <ele>208.8</ele>
        <time>2022-11-19T13:31:08Z</time>
      </trkpt>
      <trkpt lat="48.95867" lon="7.84256">
        <ele>209</ele>
        <time>2022-11-19T13:31:10Z</time>
      </trkpt>
      <trkpt lat="48.9587" lon="7.84253">
        <ele>209</ele>
        <time>2022-11-19T13:31:11Z</time>
      </trkpt>
      <trkpt lat="48.95872" lon="7.8425">
        <ele>209</ele>
        <time>2022-11-19T13:31:12Z</time>
      </trkpt>
      <trkpt lat="48.95875" lon="7.84246">
        <ele>209</ele>
        <time>2022-11-19T13:31:13Z</time>
      </trkpt>
      <trkpt lat="48.9588" lon="7.84238">
        <ele>209</ele>
        <time>2022-11-19T13:31:15Z</time>
      </trkpt>
      <trkpt lat="48.95895" lon="7.84226">
        <ele>209</ele>
        <time>2022-11-19T13:31:19Z</time>
      </trkpt>
      <trkpt lat="48.95903" lon="7.84218">
        <ele>208.8</ele>
        <time>2022-11-19T13:31:21Z</time>
      </trkpt>
      <trkpt lat="48.95909" lon="7.8421">
        <ele>208.8</ele>
        <time>2022-11-19T13:31:23Z</time>
      </trkpt>
      <trkpt lat="48.95915" lon="7.84202">
        <ele>208.6</ele>
        <time>2022-11-19T13:31:25Z</time>
      </trkpt>
      <trkpt lat="48.95918" lon="7.84198">
        <ele>208.6</ele>
        <time>2022-11-19T13:31:26Z</time>
      </trkpt>
      <trkpt lat="48.9592" lon="7.84194">
        <ele>208.6</ele>
        <time>2022-11-19T13:31:27Z</time>
      </trkpt>
      <trkpt lat="48.95922" lon="7.8419">
        <ele>208.6</ele>
        <time>2022-11-19T13:31:28Z</time>
      </trkpt>
      <trkpt lat="48.95924" lon="7.84186">
        <ele>208.6</ele>
        <time>2022-11-19T13:31:29Z</time>
      </trkpt>
      <trkpt lat="48.95926" lon="7.84182">
        <ele>208.6</ele>
        <time>2022-11-19T13:31:30Z</time>
      </trkpt>
      <trkpt lat="48.95928" lon="7.84179">
        <ele>208.6</ele>
        <time>2022-11-19T13:31:31Z</time>
      </trkpt>
      <trkpt lat="48.95931" lon="7.84177">
        <ele>208.6</ele>
        <time>2022-11-19T13:31:32Z</time>
      </trkpt>
      <trkpt lat="48.95935" lon="7.84175">
        <ele>208.6</ele>
        <time>2022-11-19T13:31:33Z</time>
      </trkpt>
      <trkpt lat="48.95938" lon="7.84174">
        <ele>208.8</ele>
        <time>2022-11-19T13:31:34Z</time>
      </trkpt>
      <trkpt lat="48.95942" lon="7.84172">
        <ele>209</ele>
        <time>2022-11-19T13:31:35Z</time>
      </trkpt>
      <trkpt lat="48.95944" lon="7.8417">
        <ele>209</ele>
        <time>2022-11-19T13:31:36Z</time>
      </trkpt>
      <trkpt lat="48.95947" lon="7.84168">
        <ele>209</ele>
        <time>2022-11-19T13:31:37Z</time>
      </trkpt>
      <trkpt lat="48.9595" lon="7.84167">
        <ele>209.2</ele>
        <time>2022-11-19T13:31:38Z</time>
      </trkpt>
      <trkpt lat="48.95952" lon="7.84166">
        <ele>209.4</ele>
        <time>2022-11-19T13:31:39Z</time>
      </trkpt>
      <trkpt lat="48.9596" lon="7.84161">
        <ele>210</ele>
        <time>2022-11-19T13:31:42Z</time>
      </trkpt>
      <trkpt lat="48.95962" lon="7.84159">
        <ele>210.2</ele>
        <time>2022-11-19T13:31:43Z</time>
      </trkpt>
      <trkpt lat="48.95965" lon="7.84156">
        <ele>210.4</ele>
        <time>2022-11-19T13:31:44Z</time>
      </trkpt>
      <trkpt lat="48.95967" lon="7.84154">
        <ele>210.6</ele>
        <time>2022-11-19T13:31:45Z</time>
      </trkpt>
      <trkpt lat="48.9597" lon="7.84151">
        <ele>210.8</ele>
        <time>2022-11-19T13:31:46Z</time>
      </trkpt>
      <trkpt lat="48.95976" lon="7.84146">
        <ele>211.2</ele>
        <time>2022-11-19T13:31:48Z</time>
      </trkpt>
      <trkpt lat="48.95984" lon="7.84138">
        <ele>212</ele>
        <time>2022-11-19T13:31:51Z</time>
      </trkpt>
      <trkpt lat="48.95987" lon="7.84135">
        <ele>212</ele>
        <time>2022-11-19T13:31:52Z</time>
      </trkpt>
      <trkpt lat="48.95989" lon="7.84132">
        <ele>212.2</ele>
        <time>2022-11-19T13:31:53Z</time>
      </trkpt>
      <trkpt lat="48.95992" lon="7.84128">
        <ele>212.4</ele>
        <time>2022-11-19T13:31:54Z</time>
      </trkpt>
      <trkpt lat="48.95995" lon="7.84125">
        <ele>212.4</ele>
        <time>2022-11-19T13:31:55Z</time>
      </trkpt>
      <trkpt lat="48.95997" lon="7.84122">
        <ele>212.6</ele>
        <time>2022-11-19T13:31:56Z</time>
      </trkpt>
      <trkpt lat="48.95999" lon="7.84119">
        <ele>212.8</ele>
        <time>2022-11-19T13:31:57Z</time>
      </trkpt>
      <trkpt lat="48.96002" lon="7.84116">
        <ele>213</ele>
        <time>2022-11-19T13:31:58Z</time>
      </trkpt>
      <trkpt lat="48.96005" lon="7.84113">
        <ele>213.2</ele>
        <time>2022-11-19T13:31:59Z</time>
      </trkpt>
      <trkpt lat="48.96008" lon="7.8411">
        <ele>213.4</ele>
        <time>2022-11-19T13:32:00Z</time>
      </trkpt>
      <trkpt lat="48.96011" lon="7.84107">
        <ele>213.6</ele>
        <time>2022-11-19T13:32:01Z</time>
      </trkpt>
      <trkpt lat="48.96014" lon="7.84103">
        <ele>213.8</ele>
        <time>2022-11-19T13:32:02Z</time>
      </trkpt>
      <trkpt lat="48.96017" lon="7.841">
        <ele>214</ele>
        <time>2022-11-19T13:32:03Z</time>
      </trkpt>
      <trkpt lat="48.9602" lon="7.84097">
        <ele>214.4</ele>
        <time>2022-11-19T13:32:04Z</time>
      </trkpt>
      <trkpt lat="48.96024" lon="7.84093">
        <ele>214.4</ele>
        <time>2022-11-19T13:32:05Z</time>
      </trkpt>
      <trkpt lat="48.96027" lon="7.8409">
        <ele>214.4</ele>
        <time>2022-11-19T13:32:06Z</time>
      </trkpt>
      <trkpt lat="48.9603" lon="7.84087">
        <ele>214.6</ele>
        <time>2022-11-19T13:32:07Z</time>
      </trkpt>
      <trkpt lat="48.96032" lon="7.84084">
        <ele>214.8</ele>
        <time>2022-11-19T13:32:08Z</time>
      </trkpt>
      <trkpt lat="48.96034" lon="7.84081">
        <ele>214.8</ele>
        <time>2022-11-19T13:32:09Z</time>
      </trkpt>
      <trkpt lat="48.96037" lon="7.84076">
        <ele>214.8</ele>
        <time>2022-11-19T13:32:10Z</time>
      </trkpt>
      <trkpt lat="48.96038" lon="7.84071">
        <ele>215</ele>
        <time>2022-11-19T13:32:11Z</time>
      </trkpt>
      <trkpt lat="48.9604" lon="7.84067">
        <ele>215</ele>
        <time>2022-11-19T13:32:12Z</time>
      </trkpt>
      <trkpt lat="48.96042" lon="7.84062">
        <ele>215.2</ele>
        <time>2022-11-19T13:32:13Z</time>
      </trkpt>
      <trkpt lat="48.96042" lon="7.84057">
        <ele>215.4</ele>
        <time>2022-11-19T13:32:14Z</time>
      </trkpt>
      <trkpt lat="48.96043" lon="7.84052">
        <ele>215.6</ele>
        <time>2022-11-19T13:32:15Z</time>
      </trkpt>
      <trkpt lat="48.96044" lon="7.84047">
        <ele>215.6</ele>
        <time>2022-11-19T13:32:16Z</time>
      </trkpt>
      <trkpt lat="48.96045" lon="7.84043">
        <ele>215.6</ele>
        <time>2022-11-19T13:32:17Z</time>
      </trkpt>
      <trkpt lat="48.96046" lon="7.84038">
        <ele>215.8</ele>
        <time>2022-11-19T13:32:18Z</time>
      </trkpt>
      <trkpt lat="48.96047" lon="7.84035">
        <ele>215.8</ele>
        <time>2022-11-19T13:32:19Z</time>
      </trkpt>
      <trkpt lat="48.96048" lon="7.84031">
        <ele>215.8</ele>
        <time>2022-11-19T13:32:20Z</time>
      </trkpt>
      <trkpt lat="48.9605" lon="7.84027">
        <ele>216</ele>
        <time>2022-11-19T13:32:21Z</time>
      </trkpt>
      <trkpt lat="48.9605" lon="7.84023">
        <ele>216</ele>
        <time>2022-11-19T13:32:22Z</time>
      </trkpt>
      <trkpt lat="48.9605" lon="7.84018">
        <ele>216.2</ele>
        <time>2022-11-19T13:32:23Z</time>
      </trkpt>
      <trkpt lat="48.96052" lon="7.84014">
        <ele>216.2</ele>
        <time>2022-11-19T13:32:24Z</time>
      </trkpt>
      <trkpt lat="48.96053" lon="7.8401">
        <ele>216.4</ele>
        <time>2022-11-19T13:32:25Z</time>
      </trkpt>
      <trkpt lat="48.96054" lon="7.84005">
        <ele>216.4</ele>
        <time>2022-11-19T13:32:26Z</time>
      </trkpt>
      <trkpt lat="48.96053" lon="7.84">
        <ele>216.6</ele>
        <time>2022-11-19T13:32:27Z</time>
      </trkpt>
      <trkpt lat="48.96054" lon="7.83996">
        <ele>216.6</ele>
        <time>2022-11-19T13:32:28Z</time>
      </trkpt>
      <trkpt lat="48.96055" lon="7.8399">
        <ele>216.6</ele>
        <time>2022-11-19T13:32:29Z</time>
      </trkpt>
      <trkpt lat="48.96055" lon="7.83985">
        <ele>216.6</ele>
        <time>2022-11-19T13:32:30Z</time>
      </trkpt>
      <trkpt lat="48.96057" lon="7.83981">
        <ele>216.8</ele>
        <time>2022-11-19T13:32:31Z</time>
      </trkpt>
      <trkpt lat="48.96058" lon="7.83977">
        <ele>216.8</ele>
        <time>2022-11-19T13:32:32Z</time>
      </trkpt>
      <trkpt lat="48.9606" lon="7.83973">
        <ele>216.8</ele>
        <time>2022-11-19T13:32:33Z</time>
      </trkpt>
      <trkpt lat="48.96063" lon="7.83971">
        <ele>217</ele>
        <time>2022-11-19T13:32:34Z</time>
      </trkpt>
      <trkpt lat="48.96066" lon="7.83969">
        <ele>217</ele>
        <time>2022-11-19T13:32:35Z</time>
      </trkpt>
      <trkpt lat="48.96068" lon="7.83968">
        <ele>217.2</ele>
        <time>2022-11-19T13:32:36Z</time>
      </trkpt>
      <trkpt lat="48.96071" lon="7.83968">
        <ele>217.2</ele>
        <time>2022-11-19T13:32:37Z</time>
      </trkpt>
      <trkpt lat="48.96074" lon="7.83968">
        <ele>217.4</ele>
        <time>2022-11-19T13:32:38Z</time>
      </trkpt>
      <trkpt lat="48.96077" lon="7.83967">
        <ele>217.4</ele>
        <time>2022-11-19T13:32:39Z</time>
      </trkpt>
      <trkpt lat="48.9608" lon="7.83967">
        <ele>217.6</ele>
        <time>2022-11-19T13:32:40Z</time>
      </trkpt>
      <trkpt lat="48.96082" lon="7.83966">
        <ele>217.6</ele>
        <time>2022-11-19T13:32:41Z</time>
      </trkpt>
      <trkpt lat="48.96084" lon="7.83965">
        <ele>217.8</ele>
        <time>2022-11-19T13:32:42Z</time>
      </trkpt>
      <trkpt lat="48.96095" lon="7.83963">
        <ele>217.8</ele>
        <time>2022-11-19T13:32:46Z</time>
      </trkpt>
      <trkpt lat="48.96098" lon="7.83961">
        <ele>218</ele>
        <time>2022-11-19T13:32:47Z</time>
      </trkpt>
      <trkpt lat="48.96101" lon="7.83953">
        <ele>218</ele>
        <time>2022-11-19T13:32:49Z</time>
      </trkpt>
      <trkpt lat="48.96101" lon="7.83948">
        <ele>218</ele>
        <time>2022-11-19T13:32:50Z</time>
      </trkpt>
      <trkpt lat="48.96102" lon="7.83943">
        <ele>218</ele>
        <time>2022-11-19T13:32:51Z</time>
      </trkpt>
      <trkpt lat="48.96104" lon="7.83939">
        <ele>218</ele>
        <time>2022-11-19T13:32:52Z</time>
      </trkpt>
      <trkpt lat="48.96106" lon="7.83934">
        <ele>218</ele>
        <time>2022-11-19T13:32:53Z</time>
      </trkpt>
      <trkpt lat="48.96108" lon="7.83931">
        <ele>218</ele>
        <time>2022-11-19T13:32:54Z</time>
      </trkpt>
      <trkpt lat="48.96116" lon="7.83913">
        <ele>218</ele>
        <time>2022-11-19T13:32:58Z</time>
      </trkpt>
      <trkpt lat="48.96124" lon="7.83891">
        <ele>218</ele>
        <time>2022-11-19T13:33:02Z</time>
      </trkpt>
      <trkpt lat="48.96131" lon="7.83874">
        <ele>218.2</ele>
        <time>2022-11-19T13:33:06Z</time>
      </trkpt>
      <trkpt lat="48.96136" lon="7.83867">
        <ele>218.4</ele>
        <time>2022-11-19T13:33:08Z</time>
      </trkpt>
      <trkpt lat="48.96138" lon="7.83865">
        <ele>218.4</ele>
        <time>2022-11-19T13:33:09Z</time>
      </trkpt>
      <trkpt lat="48.96142" lon="7.8386">
        <ele>218.4</ele>
        <time>2022-11-19T13:33:11Z</time>
      </trkpt>
      <trkpt lat="48.96142" lon="7.83858">
        <ele>218.4</ele>
        <time>2022-11-19T13:33:12Z</time>
      </trkpt>
      <trkpt lat="48.96143" lon="7.83855">
        <ele>218.4</ele>
        <time>2022-11-19T13:33:13Z</time>
      </trkpt>
      <trkpt lat="48.96146" lon="7.83845">
        <ele>218.6</ele>
        <time>2022-11-19T13:33:16Z</time>
      </trkpt>
      <trkpt lat="48.96146" lon="7.83842">
        <ele>218.8</ele>
        <time>2022-11-19T13:33:17Z</time>
      </trkpt>
      <trkpt lat="48.96148" lon="7.83834">
        <ele>219</ele>
        <time>2022-11-19T13:33:19Z</time>
      </trkpt>
      <trkpt lat="48.96147" lon="7.83831">
        <ele>219</ele>
        <time>2022-11-19T13:33:20Z</time>
      </trkpt>
      <trkpt lat="48.96147" lon="7.83828">
        <ele>219</ele>
        <time>2022-11-19T13:33:21Z</time>
      </trkpt>
      <trkpt lat="48.96147" lon="7.83825">
        <ele>219</ele>
        <time>2022-11-19T13:33:22Z</time>
      </trkpt>
      <trkpt lat="48.96146" lon="7.83823">
        <ele>219</ele>
        <time>2022-11-19T13:33:23Z</time>
      </trkpt>
      <trkpt lat="48.96146" lon="7.8382">
        <ele>219</ele>
        <time>2022-11-19T13:33:24Z</time>
      </trkpt>
      <trkpt lat="48.96147" lon="7.83813">
        <ele>219.2</ele>
        <time>2022-11-19T13:33:27Z</time>
      </trkpt>
      <trkpt lat="48.96147" lon="7.83811">
        <ele>219.4</ele>
        <time>2022-11-19T13:33:28Z</time>
      </trkpt>
      <trkpt lat="48.96147" lon="7.83807">
        <ele>219.4</ele>
        <time>2022-11-19T13:33:29Z</time>
      </trkpt>
      <trkpt lat="48.96148" lon="7.83801">
        <ele>219.8</ele>
        <time>2022-11-19T13:33:31Z</time>
      </trkpt>
      <trkpt lat="48.96148" lon="7.83791">
        <ele>220.2</ele>
        <time>2022-11-19T13:33:34Z</time>
      </trkpt>
      <trkpt lat="48.96146" lon="7.83789">
        <ele>220.4</ele>
        <time>2022-11-19T13:33:35Z</time>
      </trkpt>
      <trkpt lat="48.96144" lon="7.83787">
        <ele>220.4</ele>
        <time>2022-11-19T13:33:36Z</time>
      </trkpt>
      <trkpt lat="48.96143" lon="7.83785">
        <ele>220.6</ele>
        <time>2022-11-19T13:33:37Z</time>
      </trkpt>
      <trkpt lat="48.96141" lon="7.83783">
        <ele>220.6</ele>
        <time>2022-11-19T13:33:38Z</time>
      </trkpt>
      <trkpt lat="48.96134" lon="7.83775">
        <ele>221</ele>
        <time>2022-11-19T13:33:42Z</time>
      </trkpt>
      <trkpt lat="48.96133" lon="7.83772">
        <ele>221.2</ele>
        <time>2022-11-19T13:33:43Z</time>
      </trkpt>
      <trkpt lat="48.96133" lon="7.83769">
        <ele>221.2</ele>
        <time>2022-11-19T13:33:44Z</time>
      </trkpt>
      <trkpt lat="48.96134" lon="7.83766">
        <ele>221.4</ele>
        <time>2022-11-19T13:33:45Z</time>
      </trkpt>
      <trkpt lat="48.96133" lon="7.83762">
        <ele>221.4</ele>
        <time>2022-11-19T13:33:46Z</time>
      </trkpt>
      <trkpt lat="48.96133" lon="7.83759">
        <ele>221.4</ele>
        <time>2022-11-19T13:33:47Z</time>
      </trkpt>
      <trkpt lat="48.96133" lon="7.83756">
        <ele>221.6</ele>
        <time>2022-11-19T13:33:48Z</time>
      </trkpt>
      <trkpt lat="48.96134" lon="7.83753">
        <ele>221.8</ele>
        <time>2022-11-19T13:33:49Z</time>
      </trkpt>
      <trkpt lat="48.96135" lon="7.83751">
        <ele>221.8</ele>
        <time>2022-11-19T13:33:50Z</time>
      </trkpt>
      <trkpt lat="48.96136" lon="7.83751">
        <ele>222</ele>
        <time>2022-11-19T13:33:51Z</time>
      </trkpt>
      <trkpt lat="48.9614" lon="7.83751">
        <ele>222</ele>
        <time>2022-11-19T13:33:53Z</time>
      </trkpt>
      <trkpt lat="48.96145" lon="7.83745">
        <ele>222.2</ele>
        <time>2022-11-19T13:33:55Z</time>
      </trkpt>
      <trkpt lat="48.96147" lon="7.83742">
        <ele>222.2</ele>
        <time>2022-11-19T13:33:56Z</time>
      </trkpt>
      <trkpt lat="48.96148" lon="7.83739">
        <ele>222.2</ele>
        <time>2022-11-19T13:33:57Z</time>
      </trkpt>
      <trkpt lat="48.96151" lon="7.83734">
        <ele>222.4</ele>
        <time>2022-11-19T13:33:59Z</time>
      </trkpt>
      <trkpt lat="48.96156" lon="7.83725">
        <ele>222.6</ele>
        <time>2022-11-19T13:34:02Z</time>
      </trkpt>
      <trkpt lat="48.9616" lon="7.83713">
        <ele>222.6</ele>
        <time>2022-11-19T13:34:06Z</time>
      </trkpt>
      <trkpt lat="48.96161" lon="7.83704">
        <ele>222.8</ele>
        <time>2022-11-19T13:34:09Z</time>
      </trkpt>
      <trkpt lat="48.96161" lon="7.83701">
        <ele>222.8</ele>
        <time>2022-11-19T13:34:10Z</time>
      </trkpt>
      <trkpt lat="48.9616" lon="7.83698">
        <ele>223</ele>
        <time>2022-11-19T13:34:11Z</time>
      </trkpt>
      <trkpt lat="48.9616" lon="7.83695">
        <ele>223.2</ele>
        <time>2022-11-19T13:34:12Z</time>
      </trkpt>
      <trkpt lat="48.96159" lon="7.83692">
        <ele>223.2</ele>
        <time>2022-11-19T13:34:13Z</time>
      </trkpt>
      <trkpt lat="48.96159" lon="7.83688">
        <ele>223.4</ele>
        <time>2022-11-19T13:34:14Z</time>
      </trkpt>
      <trkpt lat="48.96154" lon="7.83669">
        <ele>224.2</ele>
        <time>2022-11-19T13:34:20Z</time>
      </trkpt>
      <trkpt lat="48.96151" lon="7.83647">
        <ele>224.4</ele>
        <time>2022-11-19T13:34:26Z</time>
      </trkpt>
      <trkpt lat="48.9615" lon="7.83643">
        <ele>224.6</ele>
        <time>2022-11-19T13:34:27Z</time>
      </trkpt>
      <trkpt lat="48.96151" lon="7.83632">
        <ele>224.8</ele>
        <time>2022-11-19T13:34:30Z</time>
      </trkpt>
      <trkpt lat="48.96153" lon="7.83629">
        <ele>225</ele>
        <time>2022-11-19T13:34:31Z</time>
      </trkpt>
      <trkpt lat="48.96155" lon="7.83627">
        <ele>225</ele>
        <time>2022-11-19T13:34:32Z</time>
      </trkpt>
      <trkpt lat="48.96163" lon="7.83623">
        <ele>225.2</ele>
        <time>2022-11-19T13:34:35Z</time>
      </trkpt>
      <trkpt lat="48.96165" lon="7.83623">
        <ele>225.2</ele>
        <time>2022-11-19T13:34:36Z</time>
      </trkpt>
      <trkpt lat="48.96171" lon="7.83621">
        <ele>225.6</ele>
        <time>2022-11-19T13:34:38Z</time>
      </trkpt>
      <trkpt lat="48.96174" lon="7.8362">
        <ele>225.8</ele>
        <time>2022-11-19T13:34:39Z</time>
      </trkpt>
      <trkpt lat="48.96195" lon="7.8361">
        <ele>226.4</ele>
        <time>2022-11-19T13:34:47Z</time>
      </trkpt>
      <trkpt lat="48.96201" lon="7.83606">
        <ele>226.8</ele>
        <time>2022-11-19T13:34:49Z</time>
      </trkpt>
      <trkpt lat="48.96217" lon="7.83591">
        <ele>227.2</ele>
        <time>2022-11-19T13:34:55Z</time>
      </trkpt>
      <trkpt lat="48.96244" lon="7.8357">
        <ele>227.8</ele>
        <time>2022-11-19T13:35:05Z</time>
      </trkpt>
      <trkpt lat="48.96246" lon="7.83568">
        <ele>227.8</ele>
        <time>2022-11-19T13:35:06Z</time>
      </trkpt>
      <trkpt lat="48.96259" lon="7.83558">
        <ele>228.4</ele>
        <time>2022-11-19T13:35:11Z</time>
      </trkpt>
      <trkpt lat="48.96264" lon="7.83553">
        <ele>228.6</ele>
        <time>2022-11-19T13:35:13Z</time>
      </trkpt>
      <trkpt lat="48.9627" lon="7.83549">
        <ele>228.8</ele>
        <time>2022-11-19T13:35:15Z</time>
      </trkpt>
      <trkpt lat="48.96286" lon="7.83536">
        <ele>229.2</ele>
        <time>2022-11-19T13:35:21Z</time>
      </trkpt>
      <trkpt lat="48.96305" lon="7.83521">
        <ele>229.6</ele>
        <time>2022-11-19T13:35:28Z</time>
      </trkpt>
      <trkpt lat="48.96319" lon="7.83509">
        <ele>230</ele>
        <time>2022-11-19T13:35:33Z</time>
      </trkpt>
      <trkpt lat="48.96327" lon="7.83503">
        <ele>230.2</ele>
        <time>2022-11-19T13:35:36Z</time>
      </trkpt>
      <trkpt lat="48.96349" lon="7.83484">
        <ele>231.2</ele>
        <time>2022-11-19T13:35:44Z</time>
      </trkpt>
      <trkpt lat="48.9638" lon="7.83458">
        <ele>231.6</ele>
        <time>2022-11-19T13:35:54Z</time>
      </trkpt>
      <trkpt lat="48.96406" lon="7.83435">
        <ele>232.2</ele>
        <time>2022-11-19T13:36:02Z</time>
      </trkpt>
      <trkpt lat="48.9641" lon="7.83433">
        <ele>232.2</ele>
        <time>2022-11-19T13:36:03Z</time>
      </trkpt>
      <trkpt lat="48.96425" lon="7.83419">
        <ele>232.4</ele>
        <time>2022-11-19T13:36:08Z</time>
      </trkpt>
      <trkpt lat="48.96431" lon="7.83413">
        <ele>232.2</ele>
        <time>2022-11-19T13:36:10Z</time>
      </trkpt>
      <trkpt lat="48.96434" lon="7.83412">
        <ele>232.2</ele>
        <time>2022-11-19T13:36:11Z</time>
      </trkpt>
      <trkpt lat="48.96437" lon="7.83411">
        <ele>232.2</ele>
        <time>2022-11-19T13:36:12Z</time>
      </trkpt>
      <trkpt lat="48.9644" lon="7.8341">
        <ele>232.2</ele>
        <time>2022-11-19T13:36:13Z</time>
      </trkpt>
      <trkpt lat="48.96443" lon="7.83408">
        <ele>232</ele>
        <time>2022-11-19T13:36:14Z</time>
      </trkpt>
      <trkpt lat="48.9646" lon="7.83394">
        <ele>232</ele>
        <time>2022-11-19T13:36:19Z</time>
      </trkpt>
      <trkpt lat="48.96487" lon="7.83375">
        <ele>232.4</ele>
        <time>2022-11-19T13:36:27Z</time>
      </trkpt>
      <trkpt lat="48.9649" lon="7.83373">
        <ele>232.4</ele>
        <time>2022-11-19T13:36:28Z</time>
      </trkpt>
      <trkpt lat="48.96493" lon="7.83371">
        <ele>232.6</ele>
        <time>2022-11-19T13:36:29Z</time>
      </trkpt>
      <trkpt lat="48.96496" lon="7.83369">
        <ele>232.6</ele>
        <time>2022-11-19T13:36:30Z</time>
      </trkpt>
      <trkpt lat="48.96499" lon="7.83366">
        <ele>232.6</ele>
        <time>2022-11-19T13:36:31Z</time>
      </trkpt>
      <trkpt lat="48.96502" lon="7.83364">
        <ele>232.6</ele>
        <time>2022-11-19T13:36:32Z</time>
      </trkpt>
      <trkpt lat="48.96505" lon="7.83362">
        <ele>232.6</ele>
        <time>2022-11-19T13:36:33Z</time>
      </trkpt>
      <trkpt lat="48.96508" lon="7.8336">
        <ele>232.8</ele>
        <time>2022-11-19T13:36:34Z</time>
      </trkpt>
      <trkpt lat="48.9651" lon="7.83358">
        <ele>232.8</ele>
        <time>2022-11-19T13:36:35Z</time>
      </trkpt>
      <trkpt lat="48.96513" lon="7.83357">
        <ele>232.8</ele>
        <time>2022-11-19T13:36:36Z</time>
      </trkpt>
      <trkpt lat="48.96516" lon="7.83355">
        <ele>232.8</ele>
        <time>2022-11-19T13:36:37Z</time>
      </trkpt>
      <trkpt lat="48.96519" lon="7.83353">
        <ele>233</ele>
        <time>2022-11-19T13:36:38Z</time>
      </trkpt>
      <trkpt lat="48.96522" lon="7.83352">
        <ele>233</ele>
        <time>2022-11-19T13:36:39Z</time>
      </trkpt>
      <trkpt lat="48.96524" lon="7.83351">
        <ele>233</ele>
        <time>2022-11-19T13:36:40Z</time>
      </trkpt>
      <trkpt lat="48.96527" lon="7.8335">
        <ele>233.2</ele>
        <time>2022-11-19T13:36:41Z</time>
      </trkpt>
      <trkpt lat="48.96529" lon="7.83348">
        <ele>233.2</ele>
        <time>2022-11-19T13:36:42Z</time>
      </trkpt>
      <trkpt lat="48.96532" lon="7.83347">
        <ele>233.4</ele>
        <time>2022-11-19T13:36:43Z</time>
      </trkpt>
      <trkpt lat="48.96535" lon="7.83346">
        <ele>233.4</ele>
        <time>2022-11-19T13:36:44Z</time>
      </trkpt>
      <trkpt lat="48.96538" lon="7.83344">
        <ele>233.4</ele>
        <time>2022-11-19T13:36:45Z</time>
      </trkpt>
      <trkpt lat="48.9654" lon="7.83343">
        <ele>233.6</ele>
        <time>2022-11-19T13:36:46Z</time>
      </trkpt>
      <trkpt lat="48.96543" lon="7.83342">
        <ele>233.6</ele>
        <time>2022-11-19T13:36:47Z</time>
      </trkpt>
      <trkpt lat="48.96545" lon="7.83341">
        <ele>233.8</ele>
        <time>2022-11-19T13:36:48Z</time>
      </trkpt>
      <trkpt lat="48.96548" lon="7.83339">
        <ele>233.8</ele>
        <time>2022-11-19T13:36:49Z</time>
      </trkpt>
      <trkpt lat="48.96556" lon="7.83337">
        <ele>234.2</ele>
        <time>2022-11-19T13:36:52Z</time>
      </trkpt>
      <trkpt lat="48.96559" lon="7.83336">
        <ele>234.4</ele>
        <time>2022-11-19T13:36:53Z</time>
      </trkpt>
      <trkpt lat="48.96578" lon="7.83329">
        <ele>234.8</ele>
        <time>2022-11-19T13:37:00Z</time>
      </trkpt>
      <trkpt lat="48.96591" lon="7.83322">
        <ele>235</ele>
        <time>2022-11-19T13:37:05Z</time>
      </trkpt>
      <trkpt lat="48.96603" lon="7.83317">
        <ele>235.2</ele>
        <time>2022-11-19T13:37:10Z</time>
      </trkpt>
      <trkpt lat="48.96606" lon="7.83316">
        <ele>235.4</ele>
        <time>2022-11-19T13:37:11Z</time>
      </trkpt>
      <trkpt lat="48.96608" lon="7.83314">
        <ele>235.4</ele>
        <time>2022-11-19T13:37:12Z</time>
      </trkpt>
      <trkpt lat="48.96615" lon="7.8331">
        <ele>235.8</ele>
        <time>2022-11-19T13:37:15Z</time>
      </trkpt>
      <trkpt lat="48.96618" lon="7.83309">
        <ele>235.8</ele>
        <time>2022-11-19T13:37:16Z</time>
      </trkpt>
      <trkpt lat="48.9662" lon="7.83308">
        <ele>235.8</ele>
        <time>2022-11-19T13:37:17Z</time>
      </trkpt>
      <trkpt lat="48.96622" lon="7.83307">
        <ele>236</ele>
        <time>2022-11-19T13:37:18Z</time>
      </trkpt>
      <trkpt lat="48.96629" lon="7.83303">
        <ele>236.2</ele>
        <time>2022-11-19T13:37:21Z</time>
      </trkpt>
      <trkpt lat="48.96631" lon="7.83301">
        <ele>236.4</ele>
        <time>2022-11-19T13:37:22Z</time>
      </trkpt>
      <trkpt lat="48.96633" lon="7.83299">
        <ele>236.4</ele>
        <time>2022-11-19T13:37:23Z</time>
      </trkpt>
      <trkpt lat="48.96635" lon="7.83298">
        <ele>236.6</ele>
        <time>2022-11-19T13:37:24Z</time>
      </trkpt>
      <trkpt lat="48.96637" lon="7.83296">
        <ele>236.6</ele>
        <time>2022-11-19T13:37:25Z</time>
      </trkpt>
      <trkpt lat="48.96647" lon="7.83291">
        <ele>237.2</ele>
        <time>2022-11-19T13:37:29Z</time>
      </trkpt>
      <trkpt lat="48.9665" lon="7.83288">
        <ele>237.4</ele>
        <time>2022-11-19T13:37:31Z</time>
      </trkpt>
      <trkpt lat="48.96654" lon="7.83286">
        <ele>237.6</ele>
        <time>2022-11-19T13:37:33Z</time>
      </trkpt>
      <trkpt lat="48.96656" lon="7.83284">
        <ele>237.6</ele>
        <time>2022-11-19T13:37:34Z</time>
      </trkpt>
      <trkpt lat="48.96658" lon="7.83283">
        <ele>237.8</ele>
        <time>2022-11-19T13:37:35Z</time>
      </trkpt>
      <trkpt lat="48.96661" lon="7.83281">
        <ele>237.8</ele>
        <time>2022-11-19T13:37:36Z</time>
      </trkpt>
      <trkpt lat="48.96668" lon="7.83277">
        <ele>238.2</ele>
        <time>2022-11-19T13:37:39Z</time>
      </trkpt>
      <trkpt lat="48.9667" lon="7.83275">
        <ele>238.2</ele>
        <time>2022-11-19T13:37:40Z</time>
      </trkpt>
      <trkpt lat="48.96673" lon="7.83274">
        <ele>238.4</ele>
        <time>2022-11-19T13:37:41Z</time>
      </trkpt>
      <trkpt lat="48.96675" lon="7.83273">
        <ele>238.4</ele>
        <time>2022-11-19T13:37:42Z</time>
      </trkpt>
      <trkpt lat="48.96678" lon="7.83273">
        <ele>238.4</ele>
        <time>2022-11-19T13:37:43Z</time>
      </trkpt>
      <trkpt lat="48.96681" lon="7.83272">
        <ele>238.6</ele>
        <time>2022-11-19T13:37:44Z</time>
      </trkpt>
      <trkpt lat="48.96684" lon="7.83271">
        <ele>238.6</ele>
        <time>2022-11-19T13:37:45Z</time>
      </trkpt>
      <trkpt lat="48.96686" lon="7.83269">
        <ele>238.8</ele>
        <time>2022-11-19T13:37:46Z</time>
      </trkpt>
      <trkpt lat="48.96689" lon="7.83268">
        <ele>239</ele>
        <time>2022-11-19T13:37:47Z</time>
      </trkpt>
      <trkpt lat="48.96692" lon="7.83267">
        <ele>239.2</ele>
        <time>2022-11-19T13:37:48Z</time>
      </trkpt>
      <trkpt lat="48.96696" lon="7.83265">
        <ele>239.2</ele>
        <time>2022-11-19T13:37:49Z</time>
      </trkpt>
      <trkpt lat="48.96699" lon="7.83263">
        <ele>239.4</ele>
        <time>2022-11-19T13:37:50Z</time>
      </trkpt>
      <trkpt lat="48.96701" lon="7.83262">
        <ele>239.4</ele>
        <time>2022-11-19T13:37:51Z</time>
      </trkpt>
      <trkpt lat="48.96704" lon="7.8326">
        <ele>239.6</ele>
        <time>2022-11-19T13:37:52Z</time>
      </trkpt>
      <trkpt lat="48.96707" lon="7.83259">
        <ele>239.6</ele>
        <time>2022-11-19T13:37:53Z</time>
      </trkpt>
      <trkpt lat="48.96711" lon="7.83258">
        <ele>239.6</ele>
        <time>2022-11-19T13:37:54Z</time>
      </trkpt>
      <trkpt lat="48.96714" lon="7.83257">
        <ele>239.8</ele>
        <time>2022-11-19T13:37:55Z</time>
      </trkpt>
      <trkpt lat="48.96717" lon="7.83255">
        <ele>239.8</ele>
        <time>2022-11-19T13:37:56Z</time>
      </trkpt>
      <trkpt lat="48.9672" lon="7.83254">
        <ele>240</ele>
        <time>2022-11-19T13:37:57Z</time>
      </trkpt>
      <trkpt lat="48.96724" lon="7.83252">
        <ele>240.2</ele>
        <time>2022-11-19T13:37:58Z</time>
      </trkpt>
      <trkpt lat="48.96727" lon="7.8325">
        <ele>240.2</ele>
        <time>2022-11-19T13:37:59Z</time>
      </trkpt>
      <trkpt lat="48.9673" lon="7.83248">
        <ele>240.2</ele>
        <time>2022-11-19T13:38:00Z</time>
      </trkpt>
      <trkpt lat="48.96733" lon="7.83247">
        <ele>240</ele>
        <time>2022-11-19T13:38:01Z</time>
      </trkpt>
      <trkpt lat="48.9676" lon="7.83234">
        <ele>240.6</ele>
        <time>2022-11-19T13:38:10Z</time>
      </trkpt>
      <trkpt lat="48.96771" lon="7.83227">
        <ele>240.8</ele>
        <time>2022-11-19T13:38:14Z</time>
      </trkpt>
      <trkpt lat="48.96774" lon="7.83225">
        <ele>240.8</ele>
        <time>2022-11-19T13:38:15Z</time>
      </trkpt>
      <trkpt lat="48.96776" lon="7.83223">
        <ele>241</ele>
        <time>2022-11-19T13:38:16Z</time>
      </trkpt>
      <trkpt lat="48.96779" lon="7.8322">
        <ele>241</ele>
        <time>2022-11-19T13:38:17Z</time>
      </trkpt>
      <trkpt lat="48.96798" lon="7.83191">
        <ele>241.6</ele>
        <time>2022-11-19T13:38:26Z</time>
      </trkpt>
      <trkpt lat="48.968" lon="7.83187">
        <ele>241.8</ele>
        <time>2022-11-19T13:38:27Z</time>
      </trkpt>
      <trkpt lat="48.96802" lon="7.83183">
        <ele>242</ele>
        <time>2022-11-19T13:38:28Z</time>
      </trkpt>
      <trkpt lat="48.96808" lon="7.83167">
        <ele>242.6</ele>
        <time>2022-11-19T13:38:32Z</time>
      </trkpt>
      <trkpt lat="48.96812" lon="7.83159">
        <ele>242.8</ele>
        <time>2022-11-19T13:38:34Z</time>
      </trkpt>
      <trkpt lat="48.96813" lon="7.83155">
        <ele>243</ele>
        <time>2022-11-19T13:38:35Z</time>
      </trkpt>
      <trkpt lat="48.96815" lon="7.83151">
        <ele>243.2</ele>
        <time>2022-11-19T13:38:36Z</time>
      </trkpt>
      <trkpt lat="48.96819" lon="7.83144">
        <ele>243.6</ele>
        <time>2022-11-19T13:38:39Z</time>
      </trkpt>
      <trkpt lat="48.96823" lon="7.83135">
        <ele>243.6</ele>
        <time>2022-11-19T13:38:40Z</time>
      </trkpt>
      <trkpt lat="48.96824" lon="7.83131">
        <ele>243.8</ele>
        <time>2022-11-19T13:38:41Z</time>
      </trkpt>
      <trkpt lat="48.96826" lon="7.83128">
        <ele>244</ele>
        <time>2022-11-19T13:38:42Z</time>
      </trkpt>
      <trkpt lat="48.96827" lon="7.83124">
        <ele>244</ele>
        <time>2022-11-19T13:38:43Z</time>
      </trkpt>
      <trkpt lat="48.96829" lon="7.8312">
        <ele>244.2</ele>
        <time>2022-11-19T13:38:44Z</time>
      </trkpt>
      <trkpt lat="48.96831" lon="7.83116">
        <ele>244.4</ele>
        <time>2022-11-19T13:38:45Z</time>
      </trkpt>
      <trkpt lat="48.96833" lon="7.83112">
        <ele>244.6</ele>
        <time>2022-11-19T13:38:46Z</time>
      </trkpt>
      <trkpt lat="48.96834" lon="7.83108">
        <ele>244.8</ele>
        <time>2022-11-19T13:38:47Z</time>
      </trkpt>
      <trkpt lat="48.96836" lon="7.83104">
        <ele>244.8</ele>
        <time>2022-11-19T13:38:48Z</time>
      </trkpt>
      <trkpt lat="48.96837" lon="7.83101">
        <ele>245</ele>
        <time>2022-11-19T13:38:49Z</time>
      </trkpt>
      <trkpt lat="48.96839" lon="7.83097">
        <ele>245</ele>
        <time>2022-11-19T13:38:50Z</time>
      </trkpt>
      <trkpt lat="48.9684" lon="7.83093">
        <ele>245</ele>
        <time>2022-11-19T13:38:51Z</time>
      </trkpt>
      <trkpt lat="48.96842" lon="7.83088">
        <ele>245</ele>
        <time>2022-11-19T13:38:52Z</time>
      </trkpt>
      <trkpt lat="48.96843" lon="7.83085">
        <ele>245</ele>
        <time>2022-11-19T13:38:53Z</time>
      </trkpt>
      <trkpt lat="48.96845" lon="7.8308">
        <ele>245.2</ele>
        <time>2022-11-19T13:38:54Z</time>
      </trkpt>
      <trkpt lat="48.96846" lon="7.83076">
        <ele>245.2</ele>
        <time>2022-11-19T13:38:55Z</time>
      </trkpt>
      <trkpt lat="48.96848" lon="7.83072">
        <ele>245.2</ele>
        <time>2022-11-19T13:38:56Z</time>
      </trkpt>
      <trkpt lat="48.96849" lon="7.83068">
        <ele>245.4</ele>
        <time>2022-11-19T13:38:57Z</time>
      </trkpt>
      <trkpt lat="48.96851" lon="7.83063">
        <ele>245.4</ele>
        <time>2022-11-19T13:38:58Z</time>
      </trkpt>
      <trkpt lat="48.96852" lon="7.8306">
        <ele>245.4</ele>
        <time>2022-11-19T13:38:59Z</time>
      </trkpt>
      <trkpt lat="48.96853" lon="7.83056">
        <ele>245.6</ele>
        <time>2022-11-19T13:39:00Z</time>
      </trkpt>
      <trkpt lat="48.96855" lon="7.83052">
        <ele>245.8</ele>
        <time>2022-11-19T13:39:01Z</time>
      </trkpt>
      <trkpt lat="48.96856" lon="7.83047">
        <ele>245.8</ele>
        <time>2022-11-19T13:39:02Z</time>
      </trkpt>
      <trkpt lat="48.96862" lon="7.83036">
        <ele>246</ele>
        <time>2022-11-19T13:39:05Z</time>
      </trkpt>
      <trkpt lat="48.96865" lon="7.83028">
        <ele>246.2</ele>
        <time>2022-11-19T13:39:07Z</time>
      </trkpt>
      <trkpt lat="48.96866" lon="7.83024">
        <ele>246.4</ele>
        <time>2022-11-19T13:39:08Z</time>
      </trkpt>
      <trkpt lat="48.9688" lon="7.82991">
        <ele>246.6</ele>
        <time>2022-11-19T13:39:16Z</time>
      </trkpt>
      <trkpt lat="48.96885" lon="7.82979">
        <ele>246.8</ele>
        <time>2022-11-19T13:39:19Z</time>
      </trkpt>
      <trkpt lat="48.96887" lon="7.82976">
        <ele>247</ele>
        <time>2022-11-19T13:39:20Z</time>
      </trkpt>
      <trkpt lat="48.96894" lon="7.8296">
        <ele>247.4</ele>
        <time>2022-11-19T13:39:24Z</time>
      </trkpt>
      <trkpt lat="48.96897" lon="7.82952">
        <ele>247.6</ele>
        <time>2022-11-19T13:39:26Z</time>
      </trkpt>
      <trkpt lat="48.96899" lon="7.8295">
        <ele>247.8</ele>
        <time>2022-11-19T13:39:27Z</time>
      </trkpt>
      <trkpt lat="48.96901" lon="7.82948">
        <ele>248</ele>
        <time>2022-11-19T13:39:28Z</time>
      </trkpt>
      <trkpt lat="48.96903" lon="7.82946">
        <ele>248.2</ele>
        <time>2022-11-19T13:39:29Z</time>
      </trkpt>
      <trkpt lat="48.96906" lon="7.82945">
        <ele>248.4</ele>
        <time>2022-11-19T13:39:30Z</time>
      </trkpt>
      <trkpt lat="48.96908" lon="7.82944">
        <ele>248.6</ele>
        <time>2022-11-19T13:39:31Z</time>
      </trkpt>
      <trkpt lat="48.96917" lon="7.82941">
        <ele>249</ele>
        <time>2022-11-19T13:39:34Z</time>
      </trkpt>
      <trkpt lat="48.9692" lon="7.8294">
        <ele>249.2</ele>
        <time>2022-11-19T13:39:35Z</time>
      </trkpt>
      <trkpt lat="48.96923" lon="7.82939">
        <ele>249.2</ele>
        <time>2022-11-19T13:39:36Z</time>
      </trkpt>
      <trkpt lat="48.96926" lon="7.82939">
        <ele>249.2</ele>
        <time>2022-11-19T13:39:37Z</time>
      </trkpt>
      <trkpt lat="48.96929" lon="7.82938">
        <ele>249.2</ele>
        <time>2022-11-19T13:39:38Z</time>
      </trkpt>
      <trkpt lat="48.96933" lon="7.82938">
        <ele>249.2</ele>
        <time>2022-11-19T13:39:39Z</time>
      </trkpt>
      <trkpt lat="48.96936" lon="7.82937">
        <ele>249.2</ele>
        <time>2022-11-19T13:39:40Z</time>
      </trkpt>
      <trkpt lat="48.96939" lon="7.82937">
        <ele>249.2</ele>
        <time>2022-11-19T13:39:41Z</time>
      </trkpt>
      <trkpt lat="48.96942" lon="7.82936">
        <ele>249.2</ele>
        <time>2022-11-19T13:39:42Z</time>
      </trkpt>
      <trkpt lat="48.96946" lon="7.82935">
        <ele>249.2</ele>
        <time>2022-11-19T13:39:43Z</time>
      </trkpt>
      <trkpt lat="48.9695" lon="7.82934">
        <ele>249.2</ele>
        <time>2022-11-19T13:39:44Z</time>
      </trkpt>
      <trkpt lat="48.96953" lon="7.82933">
        <ele>249.2</ele>
        <time>2022-11-19T13:39:45Z</time>
      </trkpt>
      <trkpt lat="48.96969" lon="7.82932">
        <ele>248.8</ele>
        <time>2022-11-19T13:39:49Z</time>
      </trkpt>
      <trkpt lat="48.96971" lon="7.82934">
        <ele>248.6</ele>
        <time>2022-11-19T13:39:50Z</time>
      </trkpt>
      <trkpt lat="48.96973" lon="7.82937">
        <ele>248.4</ele>
        <time>2022-11-19T13:39:51Z</time>
      </trkpt>
      <trkpt lat="48.96975" lon="7.8294">
        <ele>248.2</ele>
        <time>2022-11-19T13:39:52Z</time>
      </trkpt>
      <trkpt lat="48.96977" lon="7.82943">
        <ele>248</ele>
        <time>2022-11-19T13:39:53Z</time>
      </trkpt>
      <trkpt lat="48.96979" lon="7.82946">
        <ele>247.8</ele>
        <time>2022-11-19T13:39:54Z</time>
      </trkpt>
      <trkpt lat="48.96981" lon="7.82948">
        <ele>247.4</ele>
        <time>2022-11-19T13:39:55Z</time>
      </trkpt>
      <trkpt lat="48.96983" lon="7.82948">
        <ele>247.2</ele>
        <time>2022-11-19T13:39:56Z</time>
      </trkpt>
      <trkpt lat="48.96985" lon="7.82946">
        <ele>247</ele>
        <time>2022-11-19T13:39:57Z</time>
      </trkpt>
      <trkpt lat="48.96991" lon="7.8294">
        <ele>246.6</ele>
        <time>2022-11-19T13:39:59Z</time>
      </trkpt>
      <trkpt lat="48.96994" lon="7.82938">
        <ele>246.4</ele>
        <time>2022-11-19T13:40:00Z</time>
      </trkpt>
      <trkpt lat="48.96996" lon="7.82935">
        <ele>246.4</ele>
        <time>2022-11-19T13:40:01Z</time>
      </trkpt>
      <trkpt lat="48.96999" lon="7.82934">
        <ele>246.4</ele>
        <time>2022-11-19T13:40:02Z</time>
      </trkpt>
      <trkpt lat="48.97003" lon="7.82933">
        <ele>246.2</ele>
        <time>2022-11-19T13:40:03Z</time>
      </trkpt>
      <trkpt lat="48.97006" lon="7.82932">
        <ele>246.2</ele>
        <time>2022-11-19T13:40:04Z</time>
      </trkpt>
      <trkpt lat="48.9701" lon="7.82933">
        <ele>246</ele>
        <time>2022-11-19T13:40:05Z</time>
      </trkpt>
      <trkpt lat="48.97012" lon="7.82935">
        <ele>245.8</ele>
        <time>2022-11-19T13:40:06Z</time>
      </trkpt>
      <trkpt lat="48.97015" lon="7.82938">
        <ele>245.8</ele>
        <time>2022-11-19T13:40:07Z</time>
      </trkpt>
      <trkpt lat="48.97017" lon="7.82941">
        <ele>245.8</ele>
        <time>2022-11-19T13:40:08Z</time>
      </trkpt>
      <trkpt lat="48.9702" lon="7.82945">
        <ele>245.8</ele>
        <time>2022-11-19T13:40:09Z</time>
      </trkpt>
      <trkpt lat="48.97022" lon="7.82948">
        <ele>245.8</ele>
        <time>2022-11-19T13:40:10Z</time>
      </trkpt>
      <trkpt lat="48.97024" lon="7.82951">
        <ele>245.8</ele>
        <time>2022-11-19T13:40:11Z</time>
      </trkpt>
      <trkpt lat="48.97026" lon="7.82954">
        <ele>245.8</ele>
        <time>2022-11-19T13:40:12Z</time>
      </trkpt>
      <trkpt lat="48.97028" lon="7.82958">
        <ele>245.8</ele>
        <time>2022-11-19T13:40:13Z</time>
      </trkpt>
      <trkpt lat="48.97039" lon="7.82975">
        <ele>246.2</ele>
        <time>2022-11-19T13:40:18Z</time>
      </trkpt>
      <trkpt lat="48.97041" lon="7.82978">
        <ele>246.2</ele>
        <time>2022-11-19T13:40:19Z</time>
      </trkpt>
      <trkpt lat="48.97061" lon="7.82991">
        <ele>246.8</ele>
        <time>2022-11-19T13:40:26Z</time>
      </trkpt>
      <trkpt lat="48.97064" lon="7.82992">
        <ele>246.8</ele>
        <time>2022-11-19T13:40:27Z</time>
      </trkpt>
      <trkpt lat="48.97067" lon="7.82991">
        <ele>246.8</ele>
        <time>2022-11-19T13:40:28Z</time>
      </trkpt>
      <trkpt lat="48.97069" lon="7.8299">
        <ele>247</ele>
        <time>2022-11-19T13:40:29Z</time>
      </trkpt>
      <trkpt lat="48.9707" lon="7.8299">
        <ele>247</ele>
        <time>2022-11-19T13:40:30Z</time>
      </trkpt>
      <trkpt lat="48.97072" lon="7.82989">
        <ele>247</ele>
        <time>2022-11-19T13:40:31Z</time>
      </trkpt>
      <trkpt lat="48.97073" lon="7.82986">
        <ele>247</ele>
        <time>2022-11-19T13:40:32Z</time>
      </trkpt>
      <trkpt lat="48.97074" lon="7.82983">
        <ele>247.2</ele>
        <time>2022-11-19T13:40:33Z</time>
      </trkpt>
      <trkpt lat="48.97075" lon="7.82979">
        <ele>247.2</ele>
        <time>2022-11-19T13:40:34Z</time>
      </trkpt>
      <trkpt lat="48.97076" lon="7.82975">
        <ele>247.4</ele>
        <time>2022-11-19T13:40:35Z</time>
      </trkpt>
      <trkpt lat="48.97077" lon="7.82971">
        <ele>247.6</ele>
        <time>2022-11-19T13:40:36Z</time>
      </trkpt>
      <trkpt lat="48.97078" lon="7.82967">
        <ele>247.8</ele>
        <time>2022-11-19T13:40:37Z</time>
      </trkpt>
      <trkpt lat="48.97078" lon="7.82964">
        <ele>248.2</ele>
        <time>2022-11-19T13:40:38Z</time>
      </trkpt>
      <trkpt lat="48.9708" lon="7.82954">
        <ele>249.2</ele>
        <time>2022-11-19T13:40:41Z</time>
      </trkpt>
      <trkpt lat="48.97081" lon="7.82946">
        <ele>249.4</ele>
        <time>2022-11-19T13:40:43Z</time>
      </trkpt>
      <trkpt lat="48.97084" lon="7.82936">
        <ele>250</ele>
        <time>2022-11-19T13:40:46Z</time>
      </trkpt>
      <trkpt lat="48.97086" lon="7.82933">
        <ele>250.2</ele>
        <time>2022-11-19T13:40:47Z</time>
      </trkpt>
      <trkpt lat="48.97087" lon="7.8293">
        <ele>250.6</ele>
        <time>2022-11-19T13:40:48Z</time>
      </trkpt>
      <trkpt lat="48.97088" lon="7.82927">
        <ele>250.8</ele>
        <time>2022-11-19T13:40:49Z</time>
      </trkpt>
      <trkpt lat="48.97089" lon="7.82924">
        <ele>251</ele>
        <time>2022-11-19T13:40:50Z</time>
      </trkpt>
      <trkpt lat="48.9709" lon="7.8292">
        <ele>251.2</ele>
        <time>2022-11-19T13:40:51Z</time>
      </trkpt>
      <trkpt lat="48.9709" lon="7.82917">
        <ele>251.4</ele>
        <time>2022-11-19T13:40:52Z</time>
      </trkpt>
      <trkpt lat="48.9709" lon="7.82916">
        <ele>251.6</ele>
        <time>2022-11-19T13:40:53Z</time>
      </trkpt>
      <trkpt lat="48.97091" lon="7.82916">
        <ele>252</ele>
        <time>2022-11-19T13:40:54Z</time>
      </trkpt>
      <trkpt lat="48.97092" lon="7.82916">
        <ele>252</ele>
        <time>2022-11-19T13:40:55Z</time>
      </trkpt>
      <trkpt lat="48.97094" lon="7.82915">
        <ele>252.2</ele>
        <time>2022-11-19T13:40:56Z</time>
      </trkpt>
      <trkpt lat="48.97095" lon="7.82916">
        <ele>252.4</ele>
        <time>2022-11-19T13:40:57Z</time>
      </trkpt>
      <trkpt lat="48.97097" lon="7.82916">
        <ele>252.8</ele>
        <time>2022-11-19T13:40:58Z</time>
      </trkpt>
      <trkpt lat="48.97098" lon="7.82917">
        <ele>253</ele>
        <time>2022-11-19T13:40:59Z</time>
      </trkpt>
      <trkpt lat="48.971" lon="7.82918">
        <ele>253.2</ele>
        <time>2022-11-19T13:41:00Z</time>
      </trkpt>
      <trkpt lat="48.97102" lon="7.82918">
        <ele>253.4</ele>
        <time>2022-11-19T13:41:01Z</time>
      </trkpt>
      <trkpt lat="48.97103" lon="7.82919">
        <ele>253.8</ele>
        <time>2022-11-19T13:41:02Z</time>
      </trkpt>
      <trkpt lat="48.97105" lon="7.82919">
        <ele>253.8</ele>
        <time>2022-11-19T13:41:03Z</time>
      </trkpt>
      <trkpt lat="48.97107" lon="7.8292">
        <ele>254</ele>
        <time>2022-11-19T13:41:04Z</time>
      </trkpt>
      <trkpt lat="48.97109" lon="7.82921">
        <ele>254</ele>
        <time>2022-11-19T13:41:05Z</time>
      </trkpt>
      <trkpt lat="48.9711" lon="7.82923">
        <ele>254.2</ele>
        <time>2022-11-19T13:41:06Z</time>
      </trkpt>
      <trkpt lat="48.97112" lon="7.82924">
        <ele>254.2</ele>
        <time>2022-11-19T13:41:07Z</time>
      </trkpt>
      <trkpt lat="48.97113" lon="7.82925">
        <ele>254.4</ele>
        <time>2022-11-19T13:41:08Z</time>
      </trkpt>
      <trkpt lat="48.97115" lon="7.82926">
        <ele>254.4</ele>
        <time>2022-11-19T13:41:09Z</time>
      </trkpt>
      <trkpt lat="48.97117" lon="7.82927">
        <ele>254.4</ele>
        <time>2022-11-19T13:41:10Z</time>
      </trkpt>
      <trkpt lat="48.97119" lon="7.82927">
        <ele>254.6</ele>
        <time>2022-11-19T13:41:11Z</time>
      </trkpt>
      <trkpt lat="48.97121" lon="7.82928">
        <ele>254.6</ele>
        <time>2022-11-19T13:41:12Z</time>
      </trkpt>
      <trkpt lat="48.97123" lon="7.82928">
        <ele>254.6</ele>
        <time>2022-11-19T13:41:13Z</time>
      </trkpt>
      <trkpt lat="48.97124" lon="7.82929">
        <ele>254.6</ele>
        <time>2022-11-19T13:41:14Z</time>
      </trkpt>
      <trkpt lat="48.97126" lon="7.8293">
        <ele>254.6</ele>
        <time>2022-11-19T13:41:15Z</time>
      </trkpt>
      <trkpt lat="48.97128" lon="7.82931">
        <ele>254.6</ele>
        <time>2022-11-19T13:41:16Z</time>
      </trkpt>
      <trkpt lat="48.9713" lon="7.82932">
        <ele>254.8</ele>
        <time>2022-11-19T13:41:17Z</time>
      </trkpt>
      <trkpt lat="48.97132" lon="7.82933">
        <ele>254.8</ele>
        <time>2022-11-19T13:41:18Z</time>
      </trkpt>
      <trkpt lat="48.97134" lon="7.82935">
        <ele>254.8</ele>
        <time>2022-11-19T13:41:19Z</time>
      </trkpt>
      <trkpt lat="48.97137" lon="7.82936">
        <ele>255</ele>
        <time>2022-11-19T13:41:20Z</time>
      </trkpt>
      <trkpt lat="48.9714" lon="7.82938">
        <ele>255</ele>
        <time>2022-11-19T13:41:21Z</time>
      </trkpt>
      <trkpt lat="48.97143" lon="7.8294">
        <ele>255</ele>
        <time>2022-11-19T13:41:22Z</time>
      </trkpt>
      <trkpt lat="48.97146" lon="7.82942">
        <ele>255</ele>
        <time>2022-11-19T13:41:23Z</time>
      </trkpt>
      <trkpt lat="48.97147" lon="7.82944">
        <ele>255</ele>
        <time>2022-11-19T13:41:24Z</time>
      </trkpt>
      <trkpt lat="48.97149" lon="7.82946">
        <ele>255.2</ele>
        <time>2022-11-19T13:41:25Z</time>
      </trkpt>
      <trkpt lat="48.97151" lon="7.82947">
        <ele>255.2</ele>
        <time>2022-11-19T13:41:26Z</time>
      </trkpt>
      <trkpt lat="48.97153" lon="7.82948">
        <ele>255.2</ele>
        <time>2022-11-19T13:41:27Z</time>
      </trkpt>
      <trkpt lat="48.97156" lon="7.8295">
        <ele>255.4</ele>
        <time>2022-11-19T13:41:28Z</time>
      </trkpt>
      <trkpt lat="48.97158" lon="7.82951">
        <ele>255.4</ele>
        <time>2022-11-19T13:41:29Z</time>
      </trkpt>
      <trkpt lat="48.9717" lon="7.82961">
        <ele>256</ele>
        <time>2022-11-19T13:41:34Z</time>
      </trkpt>
      <trkpt lat="48.97174" lon="7.82965">
        <ele>256</ele>
        <time>2022-11-19T13:41:36Z</time>
      </trkpt>
      <trkpt lat="48.97176" lon="7.82968">
        <ele>256</ele>
        <time>2022-11-19T13:41:37Z</time>
      </trkpt>
      <trkpt lat="48.9718" lon="7.82974">
        <ele>256.2</ele>
        <time>2022-11-19T13:41:39Z</time>
      </trkpt>
      <trkpt lat="48.97181" lon="7.82977">
        <ele>256.2</ele>
        <time>2022-11-19T13:41:40Z</time>
      </trkpt>
      <trkpt lat="48.97189" lon="7.82989">
        <ele>256.4</ele>
        <time>2022-11-19T13:41:45Z</time>
      </trkpt>
      <trkpt lat="48.97189" lon="7.82991">
        <ele>256.4</ele>
        <time>2022-11-19T13:41:46Z</time>
      </trkpt>
      <trkpt lat="48.97191" lon="7.82994">
        <ele>256.6</ele>
        <time>2022-11-19T13:41:47Z</time>
      </trkpt>
      <trkpt lat="48.97192" lon="7.82996">
        <ele>256.6</ele>
        <time>2022-11-19T13:41:48Z</time>
      </trkpt>
      <trkpt lat="48.97193" lon="7.82998">
        <ele>256.8</ele>
        <time>2022-11-19T13:41:49Z</time>
      </trkpt>
      <trkpt lat="48.97196" lon="7.83004">
        <ele>257</ele>
        <time>2022-11-19T13:41:51Z</time>
      </trkpt>
      <trkpt lat="48.97197" lon="7.83007">
        <ele>257</ele>
        <time>2022-11-19T13:41:52Z</time>
      </trkpt>
      <trkpt lat="48.97199" lon="7.8301">
        <ele>257</ele>
        <time>2022-11-19T13:41:53Z</time>
      </trkpt>
      <trkpt lat="48.972" lon="7.83012">
        <ele>257.2</ele>
        <time>2022-11-19T13:41:54Z</time>
      </trkpt>
      <trkpt lat="48.97205" lon="7.83022">
        <ele>257.6</ele>
        <time>2022-11-19T13:41:58Z</time>
      </trkpt>
      <trkpt lat="48.97207" lon="7.83027">
        <ele>257.8</ele>
        <time>2022-11-19T13:42:00Z</time>
      </trkpt>
      <trkpt lat="48.97209" lon="7.8303">
        <ele>258</ele>
        <time>2022-11-19T13:42:01Z</time>
      </trkpt>
      <trkpt lat="48.9721" lon="7.83032">
        <ele>258</ele>
        <time>2022-11-19T13:42:02Z</time>
      </trkpt>
      <trkpt lat="48.97212" lon="7.83034">
        <ele>258.2</ele>
        <time>2022-11-19T13:42:03Z</time>
      </trkpt>
      <trkpt lat="48.97214" lon="7.83037">
        <ele>258.4</ele>
        <time>2022-11-19T13:42:04Z</time>
      </trkpt>
      <trkpt lat="48.97228" lon="7.83056">
        <ele>259</ele>
        <time>2022-11-19T13:42:11Z</time>
      </trkpt>
      <trkpt lat="48.97234" lon="7.83064">
        <ele>259.2</ele>
        <time>2022-11-19T13:42:14Z</time>
      </trkpt>
      <trkpt lat="48.97236" lon="7.83066">
        <ele>259.4</ele>
        <time>2022-11-19T13:42:15Z</time>
      </trkpt>
      <trkpt lat="48.97237" lon="7.83068">
        <ele>259.6</ele>
        <time>2022-11-19T13:42:16Z</time>
      </trkpt>
      <trkpt lat="48.97238" lon="7.83071">
        <ele>259.8</ele>
        <time>2022-11-19T13:42:17Z</time>
      </trkpt>
      <trkpt lat="48.97246" lon="7.83084">
        <ele>260.2</ele>
        <time>2022-11-19T13:42:21Z</time>
      </trkpt>
      <trkpt lat="48.97248" lon="7.83087">
        <ele>260.2</ele>
        <time>2022-11-19T13:42:22Z</time>
      </trkpt>
      <trkpt lat="48.9725" lon="7.83089">
        <ele>260.2</ele>
        <time>2022-11-19T13:42:23Z</time>
      </trkpt>
      <trkpt lat="48.97252" lon="7.83091">
        <ele>260.4</ele>
        <time>2022-11-19T13:42:24Z</time>
      </trkpt>
      <trkpt lat="48.97254" lon="7.83095">
        <ele>260.4</ele>
        <time>2022-11-19T13:42:25Z</time>
      </trkpt>
      <trkpt lat="48.9726" lon="7.83106">
        <ele>260.8</ele>
        <time>2022-11-19T13:42:28Z</time>
      </trkpt>
      <trkpt lat="48.97262" lon="7.83109">
        <ele>260.8</ele>
        <time>2022-11-19T13:42:29Z</time>
      </trkpt>
      <trkpt lat="48.97265" lon="7.83117">
        <ele>261</ele>
        <time>2022-11-19T13:42:31Z</time>
      </trkpt>
      <trkpt lat="48.97271" lon="7.83131">
        <ele>261.2</ele>
        <time>2022-11-19T13:42:35Z</time>
      </trkpt>
      <trkpt lat="48.97272" lon="7.83135">
        <ele>261.2</ele>
        <time>2022-11-19T13:42:36Z</time>
      </trkpt>
      <trkpt lat="48.97273" lon="7.83138">
        <ele>261.2</ele>
        <time>2022-11-19T13:42:37Z</time>
      </trkpt>
      <trkpt lat="48.97281" lon="7.83157">
        <ele>261.6</ele>
        <time>2022-11-19T13:42:43Z</time>
      </trkpt>
      <trkpt lat="48.97289" lon="7.83182">
        <ele>261.8</ele>
        <time>2022-11-19T13:42:50Z</time>
      </trkpt>
      <trkpt lat="48.97291" lon="7.83191">
        <ele>262</ele>
        <time>2022-11-19T13:42:52Z</time>
      </trkpt>
      <trkpt lat="48.97294" lon="7.83207">
        <ele>262.4</ele>
        <time>2022-11-19T13:42:56Z</time>
      </trkpt>
      <trkpt lat="48.97295" lon="7.83211">
        <ele>262.4</ele>
        <time>2022-11-19T13:42:57Z</time>
      </trkpt>
      <trkpt lat="48.97297" lon="7.83215">
        <ele>262.6</ele>
        <time>2022-11-19T13:42:58Z</time>
      </trkpt>
      <trkpt lat="48.97304" lon="7.8323">
        <ele>262.8</ele>
        <time>2022-11-19T13:43:02Z</time>
      </trkpt>
      <trkpt lat="48.97314" lon="7.83257">
        <ele>263</ele>
        <time>2022-11-19T13:43:08Z</time>
      </trkpt>
      <trkpt lat="48.9732" lon="7.83271">
        <ele>263.4</ele>
        <time>2022-11-19T13:43:11Z</time>
      </trkpt>
      <trkpt lat="48.97325" lon="7.83283">
        <ele>263.4</ele>
        <time>2022-11-19T13:43:14Z</time>
      </trkpt>
      <trkpt lat="48.97327" lon="7.83288">
        <ele>263.6</ele>
        <time>2022-11-19T13:43:15Z</time>
      </trkpt>
      <trkpt lat="48.97327" lon="7.83292">
        <ele>263.6</ele>
        <time>2022-11-19T13:43:16Z</time>
      </trkpt>
      <trkpt lat="48.97329" lon="7.833">
        <ele>263.8</ele>
        <time>2022-11-19T13:43:18Z</time>
      </trkpt>
      <trkpt lat="48.97333" lon="7.83308">
        <ele>264.2</ele>
        <time>2022-11-19T13:43:20Z</time>
      </trkpt>
      <trkpt lat="48.97338" lon="7.83327">
        <ele>264.6</ele>
        <time>2022-11-19T13:43:25Z</time>
      </trkpt>
      <trkpt lat="48.9734" lon="7.83331">
        <ele>264.8</ele>
        <time>2022-11-19T13:43:26Z</time>
      </trkpt>
      <trkpt lat="48.9734" lon="7.83334">
        <ele>265</ele>
        <time>2022-11-19T13:43:27Z</time>
      </trkpt>
      <trkpt lat="48.97343" lon="7.83342">
        <ele>265.2</ele>
        <time>2022-11-19T13:43:29Z</time>
      </trkpt>
      <trkpt lat="48.97344" lon="7.83346">
        <ele>265.2</ele>
        <time>2022-11-19T13:43:30Z</time>
      </trkpt>
      <trkpt lat="48.97345" lon="7.83349">
        <ele>265.2</ele>
        <time>2022-11-19T13:43:31Z</time>
      </trkpt>
      <trkpt lat="48.97347" lon="7.83353">
        <ele>265.2</ele>
        <time>2022-11-19T13:43:32Z</time>
      </trkpt>
      <trkpt lat="48.97357" lon="7.83373">
        <ele>265.8</ele>
        <time>2022-11-19T13:43:37Z</time>
      </trkpt>
      <trkpt lat="48.9736" lon="7.83375">
        <ele>265.8</ele>
        <time>2022-11-19T13:43:38Z</time>
      </trkpt>
      <trkpt lat="48.97373" lon="7.8339">
        <ele>266</ele>
        <time>2022-11-19T13:43:43Z</time>
      </trkpt>
      <trkpt lat="48.97378" lon="7.83396">
        <ele>266</ele>
        <time>2022-11-19T13:43:45Z</time>
      </trkpt>
      <trkpt lat="48.9738" lon="7.83398">
        <ele>266</ele>
        <time>2022-11-19T13:43:46Z</time>
      </trkpt>
      <trkpt lat="48.97382" lon="7.83399">
        <ele>266</ele>
        <time>2022-11-19T13:43:47Z</time>
      </trkpt>
      <trkpt lat="48.97384" lon="7.83401">
        <ele>266.2</ele>
        <time>2022-11-19T13:43:48Z</time>
      </trkpt>
      <trkpt lat="48.97387" lon="7.83403">
        <ele>266.2</ele>
        <time>2022-11-19T13:43:49Z</time>
      </trkpt>
      <trkpt lat="48.9739" lon="7.83405">
        <ele>266.2</ele>
        <time>2022-11-19T13:43:50Z</time>
      </trkpt>
      <trkpt lat="48.97396" lon="7.83408">
        <ele>266.6</ele>
        <time>2022-11-19T13:43:52Z</time>
      </trkpt>
      <trkpt lat="48.97399" lon="7.8341">
        <ele>266.8</ele>
        <time>2022-11-19T13:43:53Z</time>
      </trkpt>
      <trkpt lat="48.97403" lon="7.83411">
        <ele>267</ele>
        <time>2022-11-19T13:43:54Z</time>
      </trkpt>
      <trkpt lat="48.97428" lon="7.83423">
        <ele>267.8</ele>
        <time>2022-11-19T13:44:01Z</time>
      </trkpt>
      <trkpt lat="48.97431" lon="7.83424">
        <ele>268</ele>
        <time>2022-11-19T13:44:02Z</time>
      </trkpt>
      <trkpt lat="48.97441" lon="7.83428">
        <ele>268.4</ele>
        <time>2022-11-19T13:44:05Z</time>
      </trkpt>
      <trkpt lat="48.97445" lon="7.83429">
        <ele>268.6</ele>
        <time>2022-11-19T13:44:06Z</time>
      </trkpt>
      <trkpt lat="48.97449" lon="7.8343">
        <ele>268.6</ele>
        <time>2022-11-19T13:44:07Z</time>
      </trkpt>
      <trkpt lat="48.97452" lon="7.83432">
        <ele>268.8</ele>
        <time>2022-11-19T13:44:08Z</time>
      </trkpt>
      <trkpt lat="48.97455" lon="7.83435">
        <ele>268.8</ele>
        <time>2022-11-19T13:44:09Z</time>
      </trkpt>
      <trkpt lat="48.97458" lon="7.83436">
        <ele>268.8</ele>
        <time>2022-11-19T13:44:10Z</time>
      </trkpt>
      <trkpt lat="48.97462" lon="7.83438">
        <ele>269</ele>
        <time>2022-11-19T13:44:11Z</time>
      </trkpt>
      <trkpt lat="48.97464" lon="7.83439">
        <ele>269.2</ele>
        <time>2022-11-19T13:44:12Z</time>
      </trkpt>
      <trkpt lat="48.97468" lon="7.8344">
        <ele>269.4</ele>
        <time>2022-11-19T13:44:13Z</time>
      </trkpt>
      <trkpt lat="48.97472" lon="7.83441">
        <ele>269.6</ele>
        <time>2022-11-19T13:44:14Z</time>
      </trkpt>
      <trkpt lat="48.97476" lon="7.83442">
        <ele>270</ele>
        <time>2022-11-19T13:44:15Z</time>
      </trkpt>
      <trkpt lat="48.9748" lon="7.83443">
        <ele>270</ele>
        <time>2022-11-19T13:44:16Z</time>
      </trkpt>
      <trkpt lat="48.97483" lon="7.83445">
        <ele>270</ele>
        <time>2022-11-19T13:44:17Z</time>
      </trkpt>
      <trkpt lat="48.97488" lon="7.83447">
        <ele>270.2</ele>
        <time>2022-11-19T13:44:18Z</time>
      </trkpt>
      <trkpt lat="48.97491" lon="7.83448">
        <ele>270.2</ele>
        <time>2022-11-19T13:44:19Z</time>
      </trkpt>
      <trkpt lat="48.97495" lon="7.8345">
        <ele>270.4</ele>
        <time>2022-11-19T13:44:20Z</time>
      </trkpt>
      <trkpt lat="48.97497" lon="7.83451">
        <ele>270.4</ele>
        <time>2022-11-19T13:44:21Z</time>
      </trkpt>
      <trkpt lat="48.97499" lon="7.83452">
        <ele>270.4</ele>
        <time>2022-11-19T13:44:22Z</time>
      </trkpt>
      <trkpt lat="48.97502" lon="7.83453">
        <ele>270.6</ele>
        <time>2022-11-19T13:44:23Z</time>
      </trkpt>
      <trkpt lat="48.97505" lon="7.83455">
        <ele>270.6</ele>
        <time>2022-11-19T13:44:24Z</time>
      </trkpt>
      <trkpt lat="48.97507" lon="7.83457">
        <ele>270.6</ele>
        <time>2022-11-19T13:44:25Z</time>
      </trkpt>
      <trkpt lat="48.97512" lon="7.83459">
        <ele>270.8</ele>
        <time>2022-11-19T13:44:26Z</time>
      </trkpt>
      <trkpt lat="48.97516" lon="7.8346">
        <ele>270.8</ele>
        <time>2022-11-19T13:44:27Z</time>
      </trkpt>
      <trkpt lat="48.97518" lon="7.83461">
        <ele>271</ele>
        <time>2022-11-19T13:44:28Z</time>
      </trkpt>
      <trkpt lat="48.97521" lon="7.83462">
        <ele>271</ele>
        <time>2022-11-19T13:44:29Z</time>
      </trkpt>
      <trkpt lat="48.97523" lon="7.83463">
        <ele>271.2</ele>
        <time>2022-11-19T13:44:30Z</time>
      </trkpt>
      <trkpt lat="48.97526" lon="7.83465">
        <ele>271.2</ele>
        <time>2022-11-19T13:44:31Z</time>
      </trkpt>
      <trkpt lat="48.97529" lon="7.83466">
        <ele>271.4</ele>
        <time>2022-11-19T13:44:32Z</time>
      </trkpt>
      <trkpt lat="48.97532" lon="7.83468">
        <ele>271.4</ele>
        <time>2022-11-19T13:44:33Z</time>
      </trkpt>
      <trkpt lat="48.97536" lon="7.8347">
        <ele>271.6</ele>
        <time>2022-11-19T13:44:34Z</time>
      </trkpt>
      <trkpt lat="48.9754" lon="7.83473">
        <ele>271.8</ele>
        <time>2022-11-19T13:44:35Z</time>
      </trkpt>
      <trkpt lat="48.97543" lon="7.83475">
        <ele>272</ele>
        <time>2022-11-19T13:44:36Z</time>
      </trkpt>
      <trkpt lat="48.97545" lon="7.83478">
        <ele>272</ele>
        <time>2022-11-19T13:44:37Z</time>
      </trkpt>
      <trkpt lat="48.97548" lon="7.83481">
        <ele>272</ele>
        <time>2022-11-19T13:44:38Z</time>
      </trkpt>
      <trkpt lat="48.9755" lon="7.83484">
        <ele>272.4</ele>
        <time>2022-11-19T13:44:39Z</time>
      </trkpt>
      <trkpt lat="48.97553" lon="7.83487">
        <ele>272.6</ele>
        <time>2022-11-19T13:44:40Z</time>
      </trkpt>
      <trkpt lat="48.97556" lon="7.8349">
        <ele>272.8</ele>
        <time>2022-11-19T13:44:41Z</time>
      </trkpt>
      <trkpt lat="48.97559" lon="7.83493">
        <ele>272.8</ele>
        <time>2022-11-19T13:44:42Z</time>
      </trkpt>
      <trkpt lat="48.97563" lon="7.83496">
        <ele>273</ele>
        <time>2022-11-19T13:44:43Z</time>
      </trkpt>
      <trkpt lat="48.97565" lon="7.83499">
        <ele>273.2</ele>
        <time>2022-11-19T13:44:44Z</time>
      </trkpt>
      <trkpt lat="48.97569" lon="7.83503">
        <ele>273.2</ele>
        <time>2022-11-19T13:44:45Z</time>
      </trkpt>
      <trkpt lat="48.97572" lon="7.83506">
        <ele>273.2</ele>
        <time>2022-11-19T13:44:46Z</time>
      </trkpt>
      <trkpt lat="48.97575" lon="7.83509">
        <ele>273.4</ele>
        <time>2022-11-19T13:44:47Z</time>
      </trkpt>
      <trkpt lat="48.97578" lon="7.83513">
        <ele>273.4</ele>
        <time>2022-11-19T13:44:48Z</time>
      </trkpt>
      <trkpt lat="48.97581" lon="7.83516">
        <ele>273.4</ele>
        <time>2022-11-19T13:44:49Z</time>
      </trkpt>
      <trkpt lat="48.97583" lon="7.83519">
        <ele>273.4</ele>
        <time>2022-11-19T13:44:50Z</time>
      </trkpt>
      <trkpt lat="48.97586" lon="7.83523">
        <ele>273.6</ele>
        <time>2022-11-19T13:44:51Z</time>
      </trkpt>
      <trkpt lat="48.97588" lon="7.83527">
        <ele>273.6</ele>
        <time>2022-11-19T13:44:52Z</time>
      </trkpt>
      <trkpt lat="48.97592" lon="7.8353">
        <ele>273.6</ele>
        <time>2022-11-19T13:44:53Z</time>
      </trkpt>
      <trkpt lat="48.97595" lon="7.83534">
        <ele>273.8</ele>
        <time>2022-11-19T13:44:54Z</time>
      </trkpt>
      <trkpt lat="48.97598" lon="7.83538">
        <ele>273.8</ele>
        <time>2022-11-19T13:44:55Z</time>
      </trkpt>
      <trkpt lat="48.97599" lon="7.83542">
        <ele>273.8</ele>
        <time>2022-11-19T13:44:56Z</time>
      </trkpt>
      <trkpt lat="48.97602" lon="7.83545">
        <ele>273.8</ele>
        <time>2022-11-19T13:44:57Z</time>
      </trkpt>
      <trkpt lat="48.97603" lon="7.83547">
        <ele>273.8</ele>
        <time>2022-11-19T13:44:58Z</time>
      </trkpt>
      <trkpt lat="48.97604" lon="7.8355">
        <ele>274</ele>
        <time>2022-11-19T13:44:59Z</time>
      </trkpt>
      <trkpt lat="48.97606" lon="7.83553">
        <ele>274</ele>
        <time>2022-11-19T13:45:00Z</time>
      </trkpt>
      <trkpt lat="48.9762" lon="7.83572">
        <ele>274</ele>
        <time>2022-11-19T13:45:05Z</time>
      </trkpt>
      <trkpt lat="48.97636" lon="7.83596">
        <ele>274</ele>
        <time>2022-11-19T13:45:12Z</time>
      </trkpt>
      <trkpt lat="48.97646" lon="7.83612">
        <ele>274</ele>
        <time>2022-11-19T13:45:16Z</time>
      </trkpt>
      <trkpt lat="48.97651" lon="7.8362">
        <ele>273.8</ele>
        <time>2022-11-19T13:45:18Z</time>
      </trkpt>
      <trkpt lat="48.97668" lon="7.83642">
        <ele>273.8</ele>
        <time>2022-11-19T13:45:24Z</time>
      </trkpt>
      <trkpt lat="48.97673" lon="7.83649">
        <ele>273.8</ele>
        <time>2022-11-19T13:45:26Z</time>
      </trkpt>
      <trkpt lat="48.97675" lon="7.83653">
        <ele>273.8</ele>
        <time>2022-11-19T13:45:27Z</time>
      </trkpt>
      <trkpt lat="48.97676" lon="7.83656">
        <ele>274</ele>
        <time>2022-11-19T13:45:28Z</time>
      </trkpt>
      <trkpt lat="48.97679" lon="7.8366">
        <ele>274</ele>
        <time>2022-11-19T13:45:29Z</time>
      </trkpt>
      <trkpt lat="48.97692" lon="7.83679">
        <ele>274.4</ele>
        <time>2022-11-19T13:45:34Z</time>
      </trkpt>
      <trkpt lat="48.97698" lon="7.83687">
        <ele>274.8</ele>
        <time>2022-11-19T13:45:36Z</time>
      </trkpt>
      <trkpt lat="48.97708" lon="7.83697">
        <ele>275.4</ele>
        <time>2022-11-19T13:45:39Z</time>
      </trkpt>
      <trkpt lat="48.97722" lon="7.83716">
        <ele>276</ele>
        <time>2022-11-19T13:45:44Z</time>
      </trkpt>
      <trkpt lat="48.97728" lon="7.83724">
        <ele>276.2</ele>
        <time>2022-11-19T13:45:46Z</time>
      </trkpt>
      <trkpt lat="48.97741" lon="7.83739">
        <ele>276.8</ele>
        <time>2022-11-19T13:45:51Z</time>
      </trkpt>
      <trkpt lat="48.97747" lon="7.83745">
        <ele>277</ele>
        <time>2022-11-19T13:45:53Z</time>
      </trkpt>
      <trkpt lat="48.97751" lon="7.83748">
        <ele>277.2</ele>
        <time>2022-11-19T13:45:54Z</time>
      </trkpt>
      <trkpt lat="48.97754" lon="7.83754">
        <ele>277.2</ele>
        <time>2022-11-19T13:45:56Z</time>
      </trkpt>
      <trkpt lat="48.9776" lon="7.83759">
        <ele>277.4</ele>
        <time>2022-11-19T13:45:58Z</time>
      </trkpt>
      <trkpt lat="48.97764" lon="7.83761">
        <ele>277.4</ele>
        <time>2022-11-19T13:45:59Z</time>
      </trkpt>
      <trkpt lat="48.97767" lon="7.83763">
        <ele>277.6</ele>
        <time>2022-11-19T13:46:00Z</time>
      </trkpt>
      <trkpt lat="48.9777" lon="7.83766">
        <ele>277.8</ele>
        <time>2022-11-19T13:46:01Z</time>
      </trkpt>
      <trkpt lat="48.97776" lon="7.83769">
        <ele>278.2</ele>
        <time>2022-11-19T13:46:03Z</time>
      </trkpt>
      <trkpt lat="48.97782" lon="7.83775">
        <ele>278.4</ele>
        <time>2022-11-19T13:46:05Z</time>
      </trkpt>
      <trkpt lat="48.97785" lon="7.83778">
        <ele>278.4</ele>
        <time>2022-11-19T13:46:06Z</time>
      </trkpt>
      <trkpt lat="48.97788" lon="7.83781">
        <ele>278.6</ele>
        <time>2022-11-19T13:46:07Z</time>
      </trkpt>
      <trkpt lat="48.97791" lon="7.83783">
        <ele>278.6</ele>
        <time>2022-11-19T13:46:08Z</time>
      </trkpt>
      <trkpt lat="48.97794" lon="7.83785">
        <ele>278.6</ele>
        <time>2022-11-19T13:46:09Z</time>
      </trkpt>
      <trkpt lat="48.97797" lon="7.83788">
        <ele>278.6</ele>
        <time>2022-11-19T13:46:10Z</time>
      </trkpt>
      <trkpt lat="48.978" lon="7.8379">
        <ele>278.8</ele>
        <time>2022-11-19T13:46:11Z</time>
      </trkpt>
      <trkpt lat="48.97803" lon="7.83792">
        <ele>279</ele>
        <time>2022-11-19T13:46:12Z</time>
      </trkpt>
      <trkpt lat="48.97806" lon="7.83794">
        <ele>279</ele>
        <time>2022-11-19T13:46:13Z</time>
      </trkpt>
      <trkpt lat="48.97809" lon="7.83797">
        <ele>279.2</ele>
        <time>2022-11-19T13:46:14Z</time>
      </trkpt>
      <trkpt lat="48.97812" lon="7.83799">
        <ele>279.4</ele>
        <time>2022-11-19T13:46:15Z</time>
      </trkpt>
      <trkpt lat="48.97816" lon="7.83801">
        <ele>279.4</ele>
        <time>2022-11-19T13:46:16Z</time>
      </trkpt>
      <trkpt lat="48.97819" lon="7.83804">
        <ele>279.6</ele>
        <time>2022-11-19T13:46:17Z</time>
      </trkpt>
      <trkpt lat="48.97822" lon="7.83807">
        <ele>279.6</ele>
        <time>2022-11-19T13:46:18Z</time>
      </trkpt>
      <trkpt lat="48.97825" lon="7.8381">
        <ele>279.6</ele>
        <time>2022-11-19T13:46:19Z</time>
      </trkpt>
      <trkpt lat="48.97827" lon="7.83813">
        <ele>279.8</ele>
        <time>2022-11-19T13:46:20Z</time>
      </trkpt>
      <trkpt lat="48.97829" lon="7.83815">
        <ele>279.8</ele>
        <time>2022-11-19T13:46:21Z</time>
      </trkpt>
      <trkpt lat="48.97831" lon="7.83817">
        <ele>279.8</ele>
        <time>2022-11-19T13:46:22Z</time>
      </trkpt>
      <trkpt lat="48.97833" lon="7.83819">
        <ele>280</ele>
        <time>2022-11-19T13:46:23Z</time>
      </trkpt>
      <trkpt lat="48.97835" lon="7.83821">
        <ele>280</ele>
        <time>2022-11-19T13:46:24Z</time>
      </trkpt>
      <trkpt lat="48.97838" lon="7.83822">
        <ele>280</ele>
        <time>2022-11-19T13:46:25Z</time>
      </trkpt>
      <trkpt lat="48.97841" lon="7.83824">
        <ele>280.2</ele>
        <time>2022-11-19T13:46:26Z</time>
      </trkpt>
      <trkpt lat="48.97843" lon="7.83826">
        <ele>280.2</ele>
        <time>2022-11-19T13:46:27Z</time>
      </trkpt>
      <trkpt lat="48.97846" lon="7.83828">
        <ele>280.2</ele>
        <time>2022-11-19T13:46:28Z</time>
      </trkpt>
      <trkpt lat="48.97856" lon="7.83835">
        <ele>280.4</ele>
        <time>2022-11-19T13:46:31Z</time>
      </trkpt>
      <trkpt lat="48.97868" lon="7.83845">
        <ele>280.6</ele>
        <time>2022-11-19T13:46:35Z</time>
      </trkpt>
      <trkpt lat="48.97885" lon="7.83859">
        <ele>280.8</ele>
        <time>2022-11-19T13:46:40Z</time>
      </trkpt>
      <trkpt lat="48.97889" lon="7.83861">
        <ele>281</ele>
        <time>2022-11-19T13:46:41Z</time>
      </trkpt>
      <trkpt lat="48.97892" lon="7.83864">
        <ele>281</ele>
        <time>2022-11-19T13:46:42Z</time>
      </trkpt>
      <trkpt lat="48.97899" lon="7.8387">
        <ele>281</ele>
        <time>2022-11-19T13:46:44Z</time>
      </trkpt>
      <trkpt lat="48.97902" lon="7.83872">
        <ele>281</ele>
        <time>2022-11-19T13:46:45Z</time>
      </trkpt>
      <trkpt lat="48.97917" lon="7.83882">
        <ele>281.4</ele>
        <time>2022-11-19T13:46:49Z</time>
      </trkpt>
      <trkpt lat="48.97926" lon="7.83892">
        <ele>281.6</ele>
        <time>2022-11-19T13:46:52Z</time>
      </trkpt>
      <trkpt lat="48.97933" lon="7.83898">
        <ele>281.8</ele>
        <time>2022-11-19T13:46:54Z</time>
      </trkpt>
      <trkpt lat="48.97936" lon="7.839">
        <ele>281.8</ele>
        <time>2022-11-19T13:46:55Z</time>
      </trkpt>
      <trkpt lat="48.97946" lon="7.83907">
        <ele>282</ele>
        <time>2022-11-19T13:46:58Z</time>
      </trkpt>
      <trkpt lat="48.97954" lon="7.83909">
        <ele>282.2</ele>
        <time>2022-11-19T13:47:00Z</time>
      </trkpt>
      <trkpt lat="48.9797" lon="7.83921">
        <ele>282.6</ele>
        <time>2022-11-19T13:47:05Z</time>
      </trkpt>
      <trkpt lat="48.97974" lon="7.83924">
        <ele>282.6</ele>
        <time>2022-11-19T13:47:06Z</time>
      </trkpt>
      <trkpt lat="48.97978" lon="7.83926">
        <ele>282.8</ele>
        <time>2022-11-19T13:47:07Z</time>
      </trkpt>
      <trkpt lat="48.97981" lon="7.83928">
        <ele>282.8</ele>
        <time>2022-11-19T13:47:08Z</time>
      </trkpt>
      <trkpt lat="48.97984" lon="7.8393">
        <ele>283</ele>
        <time>2022-11-19T13:47:09Z</time>
      </trkpt>
      <trkpt lat="48.97986" lon="7.83929">
        <ele>283</ele>
        <time>2022-11-19T13:47:10Z</time>
      </trkpt>
      <trkpt lat="48.97986" lon="7.83929">
        <ele>283</ele>
        <time>2022-11-19T13:47:11Z</time>
      </trkpt>
      <trkpt lat="48.97986" lon="7.83929">
        <ele>283.2</ele>
        <time>2022-11-19T13:47:12Z</time>
      </trkpt>
      <trkpt lat="48.97986" lon="7.83929">
        <ele>283.2</ele>
        <time>2022-11-19T13:47:13Z</time>
      </trkpt>
      <trkpt lat="48.97989" lon="7.83928">
        <ele>283.2</ele>
        <time>2022-11-19T13:50:21Z</time>
      </trkpt>
      <trkpt lat="48.97989" lon="7.83928">
        <ele>283.4</ele>
        <time>2022-11-19T13:50:22Z</time>
      </trkpt>
      <trkpt lat="48.97989" lon="7.83925">
        <ele>283.4</ele>
        <time>2022-11-19T13:50:24Z</time>
      </trkpt>
      <trkpt lat="48.97988" lon="7.83924">
        <ele>283.4</ele>
        <time>2022-11-19T13:50:25Z</time>
      </trkpt>
      <trkpt lat="48.97985" lon="7.83922">
        <ele>283.6</ele>
        <time>2022-11-19T13:50:27Z</time>
      </trkpt>
      <trkpt lat="48.97982" lon="7.83921">
        <ele>283.6</ele>
        <time>2022-11-19T13:50:28Z</time>
      </trkpt>
      <trkpt lat="48.97979" lon="7.83919">
        <ele>283.8</ele>
        <time>2022-11-19T13:50:29Z</time>
      </trkpt>
      <trkpt lat="48.97977" lon="7.83917">
        <ele>283.8</ele>
        <time>2022-11-19T13:50:30Z</time>
      </trkpt>
      <trkpt lat="48.97975" lon="7.83914">
        <ele>283.8</ele>
        <time>2022-11-19T13:50:31Z</time>
      </trkpt>
      <trkpt lat="48.97974" lon="7.83912">
        <ele>284</ele>
        <time>2022-11-19T13:50:32Z</time>
      </trkpt>
      <trkpt lat="48.97972" lon="7.83909">
        <ele>284</ele>
        <time>2022-11-19T13:50:33Z</time>
      </trkpt>
      <trkpt lat="48.9796" lon="7.83887">
        <ele>284.8</ele>
        <time>2022-11-19T13:50:40Z</time>
      </trkpt>
      <trkpt lat="48.97958" lon="7.83883">
        <ele>285</ele>
        <time>2022-11-19T13:50:41Z</time>
      </trkpt>
      <trkpt lat="48.97954" lon="7.83876">
        <ele>285.4</ele>
        <time>2022-11-19T13:50:43Z</time>
      </trkpt>
      <trkpt lat="48.97953" lon="7.83871">
        <ele>285.4</ele>
        <time>2022-11-19T13:50:44Z</time>
      </trkpt>
      <trkpt lat="48.97952" lon="7.83867">
        <ele>285.6</ele>
        <time>2022-11-19T13:50:45Z</time>
      </trkpt>
      <trkpt lat="48.97951" lon="7.83863">
        <ele>285.6</ele>
        <time>2022-11-19T13:50:46Z</time>
      </trkpt>
      <trkpt lat="48.97947" lon="7.83851">
        <ele>286</ele>
        <time>2022-11-19T13:50:49Z</time>
      </trkpt>
      <trkpt lat="48.97942" lon="7.83839">
        <ele>286.2</ele>
        <time>2022-11-19T13:50:52Z</time>
      </trkpt>
      <trkpt lat="48.97941" lon="7.83835">
        <ele>286.4</ele>
        <time>2022-11-19T13:50:53Z</time>
      </trkpt>
      <trkpt lat="48.9793" lon="7.83813">
        <ele>286.8</ele>
        <time>2022-11-19T13:50:59Z</time>
      </trkpt>
      <trkpt lat="48.97929" lon="7.8381">
        <ele>286.8</ele>
        <time>2022-11-19T13:51:00Z</time>
      </trkpt>
      <trkpt lat="48.97927" lon="7.83805">
        <ele>286.8</ele>
        <time>2022-11-19T13:51:01Z</time>
      </trkpt>
      <trkpt lat="48.97927" lon="7.83802">
        <ele>287</ele>
        <time>2022-11-19T13:51:02Z</time>
      </trkpt>
      <trkpt lat="48.97925" lon="7.83798">
        <ele>287</ele>
        <time>2022-11-19T13:51:03Z</time>
      </trkpt>
      <trkpt lat="48.97924" lon="7.83795">
        <ele>287.2</ele>
        <time>2022-11-19T13:51:04Z</time>
      </trkpt>
      <trkpt lat="48.97921" lon="7.83792">
        <ele>287.2</ele>
        <time>2022-11-19T13:51:05Z</time>
      </trkpt>
      <trkpt lat="48.97917" lon="7.83788">
        <ele>287.4</ele>
        <time>2022-11-19T13:51:06Z</time>
      </trkpt>
      <trkpt lat="48.97914" lon="7.83785">
        <ele>287.4</ele>
        <time>2022-11-19T13:51:07Z</time>
      </trkpt>
      <trkpt lat="48.97905" lon="7.83775">
        <ele>287.4</ele>
        <time>2022-11-19T13:51:10Z</time>
      </trkpt>
      <trkpt lat="48.97889" lon="7.83763">
        <ele>287.6</ele>
        <time>2022-11-19T13:51:15Z</time>
      </trkpt>
      <trkpt lat="48.97886" lon="7.83761">
        <ele>287.6</ele>
        <time>2022-11-19T13:51:16Z</time>
      </trkpt>
      <trkpt lat="48.97883" lon="7.83758">
        <ele>287.6</ele>
        <time>2022-11-19T13:51:17Z</time>
      </trkpt>
      <trkpt lat="48.97876" lon="7.8375">
        <ele>288.2</ele>
        <time>2022-11-19T13:51:20Z</time>
      </trkpt>
      <trkpt lat="48.97873" lon="7.83746">
        <ele>288.4</ele>
        <time>2022-11-19T13:51:21Z</time>
      </trkpt>
      <trkpt lat="48.97863" lon="7.83732">
        <ele>289.2</ele>
        <time>2022-11-19T13:51:25Z</time>
      </trkpt>
      <trkpt lat="48.9786" lon="7.83729">
        <ele>289.4</ele>
        <time>2022-11-19T13:51:26Z</time>
      </trkpt>
      <trkpt lat="48.97856" lon="7.83726">
        <ele>289.4</ele>
        <time>2022-11-19T13:51:27Z</time>
      </trkpt>
      <trkpt lat="48.97849" lon="7.8372">
        <ele>289.6</ele>
        <time>2022-11-19T13:51:30Z</time>
      </trkpt>
      <trkpt lat="48.97847" lon="7.83718">
        <ele>289.6</ele>
        <time>2022-11-19T13:51:31Z</time>
      </trkpt>
      <trkpt lat="48.97843" lon="7.83716">
        <ele>289.8</ele>
        <time>2022-11-19T13:51:32Z</time>
      </trkpt>
      <trkpt lat="48.9784" lon="7.83713">
        <ele>289.8</ele>
        <time>2022-11-19T13:51:33Z</time>
      </trkpt>
      <trkpt lat="48.97838" lon="7.83712">
        <ele>290.2</ele>
        <time>2022-11-19T13:51:34Z</time>
      </trkpt>
      <trkpt lat="48.97835" lon="7.8371">
        <ele>290.2</ele>
        <time>2022-11-19T13:51:35Z</time>
      </trkpt>
      <trkpt lat="48.97833" lon="7.83708">
        <ele>290.4</ele>
        <time>2022-11-19T13:51:36Z</time>
      </trkpt>
      <trkpt lat="48.97831" lon="7.83706">
        <ele>290.4</ele>
        <time>2022-11-19T13:51:37Z</time>
      </trkpt>
      <trkpt lat="48.97829" lon="7.83704">
        <ele>290.4</ele>
        <time>2022-11-19T13:51:38Z</time>
      </trkpt>
      <trkpt lat="48.97827" lon="7.83702">
        <ele>290.4</ele>
        <time>2022-11-19T13:51:39Z</time>
      </trkpt>
      <trkpt lat="48.97826" lon="7.83698">
        <ele>290.6</ele>
        <time>2022-11-19T13:51:40Z</time>
      </trkpt>
      <trkpt lat="48.97825" lon="7.83695">
        <ele>290.6</ele>
        <time>2022-11-19T13:51:41Z</time>
      </trkpt>
      <trkpt lat="48.97826" lon="7.83693">
        <ele>290.6</ele>
        <time>2022-11-19T13:51:42Z</time>
      </trkpt>
      <trkpt lat="48.97825" lon="7.8369">
        <ele>290.6</ele>
        <time>2022-11-19T13:51:43Z</time>
      </trkpt>
      <trkpt lat="48.97825" lon="7.83688">
        <ele>290.8</ele>
        <time>2022-11-19T13:51:44Z</time>
      </trkpt>
      <trkpt lat="48.97825" lon="7.83686">
        <ele>290.8</ele>
        <time>2022-11-19T13:51:45Z</time>
      </trkpt>
      <trkpt lat="48.97827" lon="7.83684">
        <ele>290.8</ele>
        <time>2022-11-19T13:51:46Z</time>
      </trkpt>
      <trkpt lat="48.97829" lon="7.83681">
        <ele>291</ele>
        <time>2022-11-19T13:51:47Z</time>
      </trkpt>
      <trkpt lat="48.97831" lon="7.83678">
        <ele>291</ele>
        <time>2022-11-19T13:51:48Z</time>
      </trkpt>
      <trkpt lat="48.97832" lon="7.83677">
        <ele>291</ele>
        <time>2022-11-19T13:51:49Z</time>
      </trkpt>
      <trkpt lat="48.97833" lon="7.83677">
        <ele>291.2</ele>
        <time>2022-11-19T13:51:50Z</time>
      </trkpt>
      <trkpt lat="48.97836" lon="7.83675">
        <ele>291.2</ele>
        <time>2022-11-19T13:51:51Z</time>
      </trkpt>
      <trkpt lat="48.97842" lon="7.83672">
        <ele>291.4</ele>
        <time>2022-11-19T13:51:52Z</time>
      </trkpt>
      <trkpt lat="48.97846" lon="7.83668">
        <ele>291.8</ele>
        <time>2022-11-19T13:51:54Z</time>
      </trkpt>
      <trkpt lat="48.97849" lon="7.83666">
        <ele>292</ele>
        <time>2022-11-19T13:51:55Z</time>
      </trkpt>
      <trkpt lat="48.97851" lon="7.83664">
        <ele>292.4</ele>
        <time>2022-11-19T13:51:56Z</time>
      </trkpt>
      <trkpt lat="48.97852" lon="7.83663">
        <ele>292.8</ele>
        <time>2022-11-19T13:51:57Z</time>
      </trkpt>
      <trkpt lat="48.97854" lon="7.83661">
        <ele>293</ele>
        <time>2022-11-19T13:51:58Z</time>
      </trkpt>
      <trkpt lat="48.97856" lon="7.8366">
        <ele>293.4</ele>
        <time>2022-11-19T13:51:59Z</time>
      </trkpt>
      <trkpt lat="48.97858" lon="7.83658">
        <ele>293.8</ele>
        <time>2022-11-19T13:52:00Z</time>
      </trkpt>
      <trkpt lat="48.97859" lon="7.83658">
        <ele>294</ele>
        <time>2022-11-19T13:52:01Z</time>
      </trkpt>
      <trkpt lat="48.97861" lon="7.83659">
        <ele>294.2</ele>
        <time>2022-11-19T13:52:02Z</time>
      </trkpt>
      <trkpt lat="48.97863" lon="7.83658">
        <ele>294.4</ele>
        <time>2022-11-19T13:52:03Z</time>
      </trkpt>
      <trkpt lat="48.97864" lon="7.83657">
        <ele>294.6</ele>
        <time>2022-11-19T13:52:04Z</time>
      </trkpt>
      <trkpt lat="48.97865" lon="7.83656">
        <ele>295</ele>
        <time>2022-11-19T13:52:05Z</time>
      </trkpt>
      <trkpt lat="48.97866" lon="7.83654">
        <ele>295.2</ele>
        <time>2022-11-19T13:52:06Z</time>
      </trkpt>
      <trkpt lat="48.97868" lon="7.83653">
        <ele>295.4</ele>
        <time>2022-11-19T13:52:07Z</time>
      </trkpt>
      <trkpt lat="48.97869" lon="7.83652">
        <ele>295.4</ele>
        <time>2022-11-19T13:52:08Z</time>
      </trkpt>
      <trkpt lat="48.97871" lon="7.83651">
        <ele>295.6</ele>
        <time>2022-11-19T13:52:09Z</time>
      </trkpt>
      <trkpt lat="48.97872" lon="7.8365">
        <ele>296</ele>
        <time>2022-11-19T13:52:10Z</time>
      </trkpt>
      <trkpt lat="48.97874" lon="7.83649">
        <ele>296</ele>
        <time>2022-11-19T13:52:11Z</time>
      </trkpt>
      <trkpt lat="48.97875" lon="7.83648">
        <ele>296.2</ele>
        <time>2022-11-19T13:52:12Z</time>
      </trkpt>
      <trkpt lat="48.97876" lon="7.83648">
        <ele>296.4</ele>
        <time>2022-11-19T13:52:13Z</time>
      </trkpt>
      <trkpt lat="48.97878" lon="7.83648">
        <ele>296.8</ele>
        <time>2022-11-19T13:52:14Z</time>
      </trkpt>
      <trkpt lat="48.97879" lon="7.83648">
        <ele>296.8</ele>
        <time>2022-11-19T13:52:15Z</time>
      </trkpt>
      <trkpt lat="48.9788" lon="7.83648">
        <ele>297</ele>
        <time>2022-11-19T13:52:16Z</time>
      </trkpt>
      <trkpt lat="48.97881" lon="7.83648">
        <ele>297.2</ele>
        <time>2022-11-19T13:52:17Z</time>
      </trkpt>
      <trkpt lat="48.97882" lon="7.83648">
        <ele>297.4</ele>
        <time>2022-11-19T13:52:18Z</time>
      </trkpt>
      <trkpt lat="48.97884" lon="7.83648">
        <ele>297.6</ele>
        <time>2022-11-19T13:52:19Z</time>
      </trkpt>
      <trkpt lat="48.97885" lon="7.83647">
        <ele>298.2</ele>
        <time>2022-11-19T13:52:20Z</time>
      </trkpt>
      <trkpt lat="48.97886" lon="7.83647">
        <ele>298.2</ele>
        <time>2022-11-19T13:52:21Z</time>
      </trkpt>
      <trkpt lat="48.97888" lon="7.83646">
        <ele>298.6</ele>
        <time>2022-11-19T13:52:22Z</time>
      </trkpt>
      <trkpt lat="48.97889" lon="7.83646">
        <ele>298.8</ele>
        <time>2022-11-19T13:52:23Z</time>
      </trkpt>
      <trkpt lat="48.9789" lon="7.83645">
        <ele>299.2</ele>
        <time>2022-11-19T13:52:24Z</time>
      </trkpt>
      <trkpt lat="48.97892" lon="7.83645">
        <ele>299.2</ele>
        <time>2022-11-19T13:52:25Z</time>
      </trkpt>
      <trkpt lat="48.97893" lon="7.83644">
        <ele>299.4</ele>
        <time>2022-11-19T13:52:26Z</time>
      </trkpt>
      <trkpt lat="48.97894" lon="7.83644">
        <ele>299.6</ele>
        <time>2022-11-19T13:52:27Z</time>
      </trkpt>
      <trkpt lat="48.97896" lon="7.83644">
        <ele>299.8</ele>
        <time>2022-11-19T13:52:28Z</time>
      </trkpt>
      <trkpt lat="48.97898" lon="7.83644">
        <ele>300</ele>
        <time>2022-11-19T13:52:29Z</time>
      </trkpt>
      <trkpt lat="48.97899" lon="7.83643">
        <ele>300.2</ele>
        <time>2022-11-19T13:52:30Z</time>
      </trkpt>
      <trkpt lat="48.97901" lon="7.83642">
        <ele>300.4</ele>
        <time>2022-11-19T13:52:31Z</time>
      </trkpt>
      <trkpt lat="48.97902" lon="7.83641">
        <ele>300.6</ele>
        <time>2022-11-19T13:52:32Z</time>
      </trkpt>
      <trkpt lat="48.97903" lon="7.8364">
        <ele>300.8</ele>
        <time>2022-11-19T13:52:33Z</time>
      </trkpt>
      <trkpt lat="48.97905" lon="7.8364">
        <ele>301</ele>
        <time>2022-11-19T13:52:34Z</time>
      </trkpt>
      <trkpt lat="48.97907" lon="7.83639">
        <ele>301.2</ele>
        <time>2022-11-19T13:52:35Z</time>
      </trkpt>
      <trkpt lat="48.97909" lon="7.83638">
        <ele>301.4</ele>
        <time>2022-11-19T13:52:36Z</time>
      </trkpt>
      <trkpt lat="48.97911" lon="7.83637">
        <ele>301.6</ele>
        <time>2022-11-19T13:52:37Z</time>
      </trkpt>
      <trkpt lat="48.97913" lon="7.83637">
        <ele>301.8</ele>
        <time>2022-11-19T13:52:38Z</time>
      </trkpt>
      <trkpt lat="48.97914" lon="7.83637">
        <ele>302.2</ele>
        <time>2022-11-19T13:52:39Z</time>
      </trkpt>
      <trkpt lat="48.97916" lon="7.83637">
        <ele>302.4</ele>
        <time>2022-11-19T13:52:40Z</time>
      </trkpt>
      <trkpt lat="48.97917" lon="7.83637">
        <ele>302.6</ele>
        <time>2022-11-19T13:52:41Z</time>
      </trkpt>
      <trkpt lat="48.97919" lon="7.83637">
        <ele>303</ele>
        <time>2022-11-19T13:52:42Z</time>
      </trkpt>
      <trkpt lat="48.9792" lon="7.83637">
        <ele>303.2</ele>
        <time>2022-11-19T13:52:43Z</time>
      </trkpt>
      <trkpt lat="48.97921" lon="7.83636">
        <ele>303.6</ele>
        <time>2022-11-19T13:52:44Z</time>
      </trkpt>
      <trkpt lat="48.97923" lon="7.83637">
        <ele>304</ele>
        <time>2022-11-19T13:52:45Z</time>
      </trkpt>
      <trkpt lat="48.97924" lon="7.83638">
        <ele>304.4</ele>
        <time>2022-11-19T13:52:46Z</time>
      </trkpt>
      <trkpt lat="48.97925" lon="7.83638">
        <ele>304.6</ele>
        <time>2022-11-19T13:52:47Z</time>
      </trkpt>
      <trkpt lat="48.97926" lon="7.8364">
        <ele>304.8</ele>
        <time>2022-11-19T13:52:48Z</time>
      </trkpt>
      <trkpt lat="48.97926" lon="7.83641">
        <ele>305.2</ele>
        <time>2022-11-19T13:52:49Z</time>
      </trkpt>
      <trkpt lat="48.97928" lon="7.83642">
        <ele>305.4</ele>
        <time>2022-11-19T13:52:50Z</time>
      </trkpt>
      <trkpt lat="48.97929" lon="7.83643">
        <ele>305.8</ele>
        <time>2022-11-19T13:52:51Z</time>
      </trkpt>
      <trkpt lat="48.9793" lon="7.83644">
        <ele>306</ele>
        <time>2022-11-19T13:52:52Z</time>
      </trkpt>
      <trkpt lat="48.97931" lon="7.83645">
        <ele>306</ele>
        <time>2022-11-19T13:52:53Z</time>
      </trkpt>
      <trkpt lat="48.97932" lon="7.83645">
        <ele>306.2</ele>
        <time>2022-11-19T13:52:54Z</time>
      </trkpt>
      <trkpt lat="48.97933" lon="7.83646">
        <ele>306.2</ele>
        <time>2022-11-19T13:52:55Z</time>
      </trkpt>
      <trkpt lat="48.97934" lon="7.83647">
        <ele>306.2</ele>
        <time>2022-11-19T13:52:56Z</time>
      </trkpt>
      <trkpt lat="48.97935" lon="7.83646">
        <ele>306.4</ele>
        <time>2022-11-19T13:52:57Z</time>
      </trkpt>
      <trkpt lat="48.97937" lon="7.83647">
        <ele>306.4</ele>
        <time>2022-11-19T13:52:58Z</time>
      </trkpt>
      <trkpt lat="48.97938" lon="7.83648">
        <ele>306.6</ele>
        <time>2022-11-19T13:52:59Z</time>
      </trkpt>
      <trkpt lat="48.9794" lon="7.83648">
        <ele>306.8</ele>
        <time>2022-11-19T13:53:00Z</time>
      </trkpt>
      <trkpt lat="48.97941" lon="7.83649">
        <ele>307.2</ele>
        <time>2022-11-19T13:53:01Z</time>
      </trkpt>
      <trkpt lat="48.97943" lon="7.83649">
        <ele>307.4</ele>
        <time>2022-11-19T13:53:02Z</time>
      </trkpt>
      <trkpt lat="48.97945" lon="7.83651">
        <ele>307.6</ele>
        <time>2022-11-19T13:53:03Z</time>
      </trkpt>
      <trkpt lat="48.97945" lon="7.83651">
        <ele>307.8</ele>
        <time>2022-11-19T13:53:04Z</time>
      </trkpt>
      <trkpt lat="48.97946" lon="7.83653">
        <ele>308.2</ele>
        <time>2022-11-19T13:53:05Z</time>
      </trkpt>
      <trkpt lat="48.97946" lon="7.83655">
        <ele>308.4</ele>
        <time>2022-11-19T13:53:06Z</time>
      </trkpt>
      <trkpt lat="48.97947" lon="7.83657">
        <ele>308.6</ele>
        <time>2022-11-19T13:53:07Z</time>
      </trkpt>
      <trkpt lat="48.97948" lon="7.83658">
        <ele>308.6</ele>
        <time>2022-11-19T13:53:08Z</time>
      </trkpt>
      <trkpt lat="48.97949" lon="7.83658">
        <ele>308.8</ele>
        <time>2022-11-19T13:53:09Z</time>
      </trkpt>
      <trkpt lat="48.97951" lon="7.8366">
        <ele>309</ele>
        <time>2022-11-19T13:53:10Z</time>
      </trkpt>
      <trkpt lat="48.97955" lon="7.8366">
        <ele>309.2</ele>
        <time>2022-11-19T13:53:11Z</time>
      </trkpt>
      <trkpt lat="48.97958" lon="7.83664">
        <ele>309.4</ele>
        <time>2022-11-19T13:53:12Z</time>
      </trkpt>
      <trkpt lat="48.9796" lon="7.83665">
        <ele>309.6</ele>
        <time>2022-11-19T13:53:13Z</time>
      </trkpt>
      <trkpt lat="48.97962" lon="7.83666">
        <ele>309.6</ele>
        <time>2022-11-19T13:53:14Z</time>
      </trkpt>
      <trkpt lat="48.97963" lon="7.83667">
        <ele>309.6</ele>
        <time>2022-11-19T13:53:15Z</time>
      </trkpt>
      <trkpt lat="48.97966" lon="7.83669">
        <ele>309.8</ele>
        <time>2022-11-19T13:53:16Z</time>
      </trkpt>
      <trkpt lat="48.97967" lon="7.83671">
        <ele>310</ele>
        <time>2022-11-19T13:53:17Z</time>
      </trkpt>
      <trkpt lat="48.97968" lon="7.83672">
        <ele>310.2</ele>
        <time>2022-11-19T13:53:18Z</time>
      </trkpt>
      <trkpt lat="48.97967" lon="7.83673">
        <ele>310.4</ele>
        <time>2022-11-19T13:53:19Z</time>
      </trkpt>
      <trkpt lat="48.97967" lon="7.83674">
        <ele>310.6</ele>
        <time>2022-11-19T13:53:20Z</time>
      </trkpt>
      <trkpt lat="48.97967" lon="7.83675">
        <ele>310.6</ele>
        <time>2022-11-19T13:53:21Z</time>
      </trkpt>
      <trkpt lat="48.97968" lon="7.83677">
        <ele>310.8</ele>
        <time>2022-11-19T13:53:22Z</time>
      </trkpt>
      <trkpt lat="48.9797" lon="7.83677">
        <ele>311</ele>
        <time>2022-11-19T13:53:23Z</time>
      </trkpt>
      <trkpt lat="48.97971" lon="7.83677">
        <ele>311</ele>
        <time>2022-11-19T13:53:24Z</time>
      </trkpt>
      <trkpt lat="48.97972" lon="7.83677">
        <ele>311.2</ele>
        <time>2022-11-19T13:53:25Z</time>
      </trkpt>
      <trkpt lat="48.97973" lon="7.83678">
        <ele>311.4</ele>
        <time>2022-11-19T13:53:26Z</time>
      </trkpt>
      <trkpt lat="48.97974" lon="7.83679">
        <ele>311.6</ele>
        <time>2022-11-19T13:53:27Z</time>
      </trkpt>
      <trkpt lat="48.97975" lon="7.8368">
        <ele>311.8</ele>
        <time>2022-11-19T13:53:28Z</time>
      </trkpt>
      <trkpt lat="48.97976" lon="7.83681">
        <ele>312</ele>
        <time>2022-11-19T13:53:29Z</time>
      </trkpt>
      <trkpt lat="48.97978" lon="7.83682">
        <ele>312.2</ele>
        <time>2022-11-19T13:53:30Z</time>
      </trkpt>
      <trkpt lat="48.97979" lon="7.83683">
        <ele>312.4</ele>
        <time>2022-11-19T13:53:31Z</time>
      </trkpt>
      <trkpt lat="48.9798" lon="7.83683">
        <ele>312.6</ele>
        <time>2022-11-19T13:53:32Z</time>
      </trkpt>
      <trkpt lat="48.97981" lon="7.83684">
        <ele>313</ele>
        <time>2022-11-19T13:53:33Z</time>
      </trkpt>
      <trkpt lat="48.97983" lon="7.83684">
        <ele>313.2</ele>
        <time>2022-11-19T13:53:34Z</time>
      </trkpt>
      <trkpt lat="48.97983" lon="7.83685">
        <ele>313.4</ele>
        <time>2022-11-19T13:53:35Z</time>
      </trkpt>
      <trkpt lat="48.97984" lon="7.83686">
        <ele>313.6</ele>
        <time>2022-11-19T13:53:36Z</time>
      </trkpt>
      <trkpt lat="48.97984" lon="7.83686">
        <ele>313.8</ele>
        <time>2022-11-19T13:53:37Z</time>
      </trkpt>
      <trkpt lat="48.97986" lon="7.83687">
        <ele>314</ele>
        <time>2022-11-19T13:53:38Z</time>
      </trkpt>
      <trkpt lat="48.97987" lon="7.83688">
        <ele>314.2</ele>
        <time>2022-11-19T13:53:39Z</time>
      </trkpt>
      <trkpt lat="48.97988" lon="7.83689">
        <ele>314.4</ele>
        <time>2022-11-19T13:53:40Z</time>
      </trkpt>
      <trkpt lat="48.97989" lon="7.8369">
        <ele>314.6</ele>
        <time>2022-11-19T13:53:41Z</time>
      </trkpt>
      <trkpt lat="48.9799" lon="7.83692">
        <ele>314.6</ele>
        <time>2022-11-19T13:53:42Z</time>
      </trkpt>
      <trkpt lat="48.97991" lon="7.83692">
        <ele>314.8</ele>
        <time>2022-11-19T13:53:43Z</time>
      </trkpt>
      <trkpt lat="48.97992" lon="7.83694">
        <ele>314.8</ele>
        <time>2022-11-19T13:53:44Z</time>
      </trkpt>
      <trkpt lat="48.97994" lon="7.83694">
        <ele>315</ele>
        <time>2022-11-19T13:53:45Z</time>
      </trkpt>
      <trkpt lat="48.97994" lon="7.83696">
        <ele>315.2</ele>
        <time>2022-11-19T13:53:46Z</time>
      </trkpt>
      <trkpt lat="48.97995" lon="7.83698">
        <ele>315.2</ele>
        <time>2022-11-19T13:53:47Z</time>
      </trkpt>
      <trkpt lat="48.97996" lon="7.83699">
        <ele>315.4</ele>
        <time>2022-11-19T13:53:48Z</time>
      </trkpt>
      <trkpt lat="48.97997" lon="7.83701">
        <ele>315.6</ele>
        <time>2022-11-19T13:53:49Z</time>
      </trkpt>
      <trkpt lat="48.97998" lon="7.83702">
        <ele>315.8</ele>
        <time>2022-11-19T13:53:50Z</time>
      </trkpt>
      <trkpt lat="48.98" lon="7.83704">
        <ele>316</ele>
        <time>2022-11-19T13:53:51Z</time>
      </trkpt>
      <trkpt lat="48.98" lon="7.83707">
        <ele>316.2</ele>
        <time>2022-11-19T13:53:52Z</time>
      </trkpt>
      <trkpt lat="48.98001" lon="7.83709">
        <ele>316.4</ele>
        <time>2022-11-19T13:53:53Z</time>
      </trkpt>
      <trkpt lat="48.98001" lon="7.83711">
        <ele>316.6</ele>
        <time>2022-11-19T13:53:54Z</time>
      </trkpt>
      <trkpt lat="48.98002" lon="7.83713">
        <ele>316.8</ele>
        <time>2022-11-19T13:53:55Z</time>
      </trkpt>
      <trkpt lat="48.98003" lon="7.83715">
        <ele>317</ele>
        <time>2022-11-19T13:53:56Z</time>
      </trkpt>
      <trkpt lat="48.98003" lon="7.83715">
        <ele>317.2</ele>
        <time>2022-11-19T13:53:57Z</time>
      </trkpt>
      <trkpt lat="48.98005" lon="7.83715">
        <ele>317.4</ele>
        <time>2022-11-19T13:53:58Z</time>
      </trkpt>
      <trkpt lat="48.98006" lon="7.83715">
        <ele>317.6</ele>
        <time>2022-11-19T13:53:59Z</time>
      </trkpt>
      <trkpt lat="48.98008" lon="7.83715">
        <ele>317.8</ele>
        <time>2022-11-19T13:54:00Z</time>
      </trkpt>
      <trkpt lat="48.98009" lon="7.83717">
        <ele>318</ele>
        <time>2022-11-19T13:54:01Z</time>
      </trkpt>
      <trkpt lat="48.9801" lon="7.83718">
        <ele>318</ele>
        <time>2022-11-19T13:54:02Z</time>
      </trkpt>
      <trkpt lat="48.98011" lon="7.83718">
        <ele>318.4</ele>
        <time>2022-11-19T13:54:03Z</time>
      </trkpt>
      <trkpt lat="48.98012" lon="7.83719">
        <ele>318.4</ele>
        <time>2022-11-19T13:54:04Z</time>
      </trkpt>
      <trkpt lat="48.98013" lon="7.8372">
        <ele>318.6</ele>
        <time>2022-11-19T13:54:05Z</time>
      </trkpt>
      <trkpt lat="48.98014" lon="7.8372">
        <ele>318.8</ele>
        <time>2022-11-19T13:54:06Z</time>
      </trkpt>
      <trkpt lat="48.98015" lon="7.8372">
        <ele>319.2</ele>
        <time>2022-11-19T13:54:07Z</time>
      </trkpt>
      <trkpt lat="48.98015" lon="7.83722">
        <ele>319.2</ele>
        <time>2022-11-19T13:54:08Z</time>
      </trkpt>
      <trkpt lat="48.98016" lon="7.83723">
        <ele>319.2</ele>
        <time>2022-11-19T13:54:09Z</time>
      </trkpt>
      <trkpt lat="48.98017" lon="7.83724">
        <ele>319.4</ele>
        <time>2022-11-19T13:54:10Z</time>
      </trkpt>
      <trkpt lat="48.98018" lon="7.83725">
        <ele>319.6</ele>
        <time>2022-11-19T13:54:11Z</time>
      </trkpt>
      <trkpt lat="48.98019" lon="7.83726">
        <ele>319.8</ele>
        <time>2022-11-19T13:54:12Z</time>
      </trkpt>
      <trkpt lat="48.9802" lon="7.83727">
        <ele>320</ele>
        <time>2022-11-19T13:54:13Z</time>
      </trkpt>
      <trkpt lat="48.9802" lon="7.83729">
        <ele>320.2</ele>
        <time>2022-11-19T13:54:14Z</time>
      </trkpt>
      <trkpt lat="48.98021" lon="7.8373">
        <ele>320.4</ele>
        <time>2022-11-19T13:54:15Z</time>
      </trkpt>
      <trkpt lat="48.98023" lon="7.83731">
        <ele>320.4</ele>
        <time>2022-11-19T13:54:16Z</time>
      </trkpt>
      <trkpt lat="48.98024" lon="7.83732">
        <ele>320.6</ele>
        <time>2022-11-19T13:54:17Z</time>
      </trkpt>
      <trkpt lat="48.98025" lon="7.83733">
        <ele>320.6</ele>
        <time>2022-11-19T13:54:18Z</time>
      </trkpt>
      <trkpt lat="48.98026" lon="7.83734">
        <ele>320.8</ele>
        <time>2022-11-19T13:54:19Z</time>
      </trkpt>
      <trkpt lat="48.98027" lon="7.83736">
        <ele>321</ele>
        <time>2022-11-19T13:54:20Z</time>
      </trkpt>
      <trkpt lat="48.98029" lon="7.83737">
        <ele>321.2</ele>
        <time>2022-11-19T13:54:21Z</time>
      </trkpt>
      <trkpt lat="48.9803" lon="7.8374">
        <ele>321.4</ele>
        <time>2022-11-19T13:54:22Z</time>
      </trkpt>
      <trkpt lat="48.9803" lon="7.83741">
        <ele>321.6</ele>
        <time>2022-11-19T13:54:23Z</time>
      </trkpt>
      <trkpt lat="48.98032" lon="7.83741">
        <ele>322</ele>
        <time>2022-11-19T13:54:24Z</time>
      </trkpt>
      <trkpt lat="48.98033" lon="7.83742">
        <ele>322.2</ele>
        <time>2022-11-19T13:54:25Z</time>
      </trkpt>
      <trkpt lat="48.98036" lon="7.8374">
        <ele>322.4</ele>
        <time>2022-11-19T13:54:26Z</time>
      </trkpt>
      <trkpt lat="48.98038" lon="7.8374">
        <ele>322.6</ele>
        <time>2022-11-19T13:54:27Z</time>
      </trkpt>
      <trkpt lat="48.98039" lon="7.83741">
        <ele>323</ele>
        <time>2022-11-19T13:54:28Z</time>
      </trkpt>
      <trkpt lat="48.9804" lon="7.83743">
        <ele>323.2</ele>
        <time>2022-11-19T13:54:29Z</time>
      </trkpt>
      <trkpt lat="48.98041" lon="7.83744">
        <ele>323.4</ele>
        <time>2022-11-19T13:54:30Z</time>
      </trkpt>
      <trkpt lat="48.98041" lon="7.83745">
        <ele>323.6</ele>
        <time>2022-11-19T13:54:31Z</time>
      </trkpt>
      <trkpt lat="48.98042" lon="7.83746">
        <ele>323.8</ele>
        <time>2022-11-19T13:54:32Z</time>
      </trkpt>
      <trkpt lat="48.98043" lon="7.83747">
        <ele>324</ele>
        <time>2022-11-19T13:54:33Z</time>
      </trkpt>
      <trkpt lat="48.98044" lon="7.83747">
        <ele>324.2</ele>
        <time>2022-11-19T13:54:34Z</time>
      </trkpt>
      <trkpt lat="48.98046" lon="7.83747">
        <ele>324.4</ele>
        <time>2022-11-19T13:54:35Z</time>
      </trkpt>
      <trkpt lat="48.98047" lon="7.83747">
        <ele>324.8</ele>
        <time>2022-11-19T13:54:36Z</time>
      </trkpt>
      <trkpt lat="48.98048" lon="7.83748">
        <ele>325</ele>
        <time>2022-11-19T13:54:37Z</time>
      </trkpt>
      <trkpt lat="48.9805" lon="7.83749">
        <ele>325.2</ele>
        <time>2022-11-19T13:54:38Z</time>
      </trkpt>
      <trkpt lat="48.98051" lon="7.8375">
        <ele>325.4</ele>
        <time>2022-11-19T13:54:39Z</time>
      </trkpt>
      <trkpt lat="48.98051" lon="7.83752">
        <ele>325.6</ele>
        <time>2022-11-19T13:54:40Z</time>
      </trkpt>
      <trkpt lat="48.98052" lon="7.83753">
        <ele>325.8</ele>
        <time>2022-11-19T13:54:41Z</time>
      </trkpt>
      <trkpt lat="48.98053" lon="7.83754">
        <ele>326</ele>
        <time>2022-11-19T13:54:42Z</time>
      </trkpt>
      <trkpt lat="48.98054" lon="7.83755">
        <ele>326.2</ele>
        <time>2022-11-19T13:54:43Z</time>
      </trkpt>
      <trkpt lat="48.98055" lon="7.83756">
        <ele>326.4</ele>
        <time>2022-11-19T13:54:44Z</time>
      </trkpt>
      <trkpt lat="48.98057" lon="7.83757">
        <ele>326.4</ele>
        <time>2022-11-19T13:54:45Z</time>
      </trkpt>
      <trkpt lat="48.98058" lon="7.83757">
        <ele>326.6</ele>
        <time>2022-11-19T13:54:46Z</time>
      </trkpt>
      <trkpt lat="48.9806" lon="7.83758">
        <ele>326.8</ele>
        <time>2022-11-19T13:54:47Z</time>
      </trkpt>
      <trkpt lat="48.98061" lon="7.83759">
        <ele>327</ele>
        <time>2022-11-19T13:54:48Z</time>
      </trkpt>
      <trkpt lat="48.98062" lon="7.8376">
        <ele>327.2</ele>
        <time>2022-11-19T13:54:49Z</time>
      </trkpt>
      <trkpt lat="48.98063" lon="7.83761">
        <ele>327.4</ele>
        <time>2022-11-19T13:54:50Z</time>
      </trkpt>
      <trkpt lat="48.98064" lon="7.83762">
        <ele>327.4</ele>
        <time>2022-11-19T13:54:51Z</time>
      </trkpt>
      <trkpt lat="48.98065" lon="7.83763">
        <ele>327.6</ele>
        <time>2022-11-19T13:54:52Z</time>
      </trkpt>
      <trkpt lat="48.98067" lon="7.83765">
        <ele>328</ele>
        <time>2022-11-19T13:54:53Z</time>
      </trkpt>
      <trkpt lat="48.98068" lon="7.83766">
        <ele>328.2</ele>
        <time>2022-11-19T13:54:54Z</time>
      </trkpt>
      <trkpt lat="48.98069" lon="7.83767">
        <ele>328.4</ele>
        <time>2022-11-19T13:54:55Z</time>
      </trkpt>
      <trkpt lat="48.9807" lon="7.83769">
        <ele>328.8</ele>
        <time>2022-11-19T13:54:56Z</time>
      </trkpt>
      <trkpt lat="48.98071" lon="7.83771">
        <ele>329</ele>
        <time>2022-11-19T13:54:57Z</time>
      </trkpt>
      <trkpt lat="48.98072" lon="7.83772">
        <ele>329.2</ele>
        <time>2022-11-19T13:54:58Z</time>
      </trkpt>
      <trkpt lat="48.98073" lon="7.83773">
        <ele>329.6</ele>
        <time>2022-11-19T13:54:59Z</time>
      </trkpt>
      <trkpt lat="48.98074" lon="7.83774">
        <ele>329.8</ele>
        <time>2022-11-19T13:55:00Z</time>
      </trkpt>
      <trkpt lat="48.98075" lon="7.83775">
        <ele>329.8</ele>
        <time>2022-11-19T13:55:01Z</time>
      </trkpt>
      <trkpt lat="48.98076" lon="7.83777">
        <ele>329.8</ele>
        <time>2022-11-19T13:55:02Z</time>
      </trkpt>
      <trkpt lat="48.98077" lon="7.83777">
        <ele>330</ele>
        <time>2022-11-19T13:55:03Z</time>
      </trkpt>
      <trkpt lat="48.98079" lon="7.83778">
        <ele>330.4</ele>
        <time>2022-11-19T13:55:04Z</time>
      </trkpt>
      <trkpt lat="48.9808" lon="7.8378">
        <ele>330.8</ele>
        <time>2022-11-19T13:55:05Z</time>
      </trkpt>
      <trkpt lat="48.9808" lon="7.83783">
        <ele>331</ele>
        <time>2022-11-19T13:55:06Z</time>
      </trkpt>
      <trkpt lat="48.98082" lon="7.83785">
        <ele>331</ele>
        <time>2022-11-19T13:55:07Z</time>
      </trkpt>
      <trkpt lat="48.98083" lon="7.83785">
        <ele>331.4</ele>
        <time>2022-11-19T13:55:08Z</time>
      </trkpt>
      <trkpt lat="48.98085" lon="7.83786">
        <ele>331.4</ele>
        <time>2022-11-19T13:55:09Z</time>
      </trkpt>
      <trkpt lat="48.98086" lon="7.83787">
        <ele>331.6</ele>
        <time>2022-11-19T13:55:10Z</time>
      </trkpt>
      <trkpt lat="48.98088" lon="7.83787">
        <ele>331.8</ele>
        <time>2022-11-19T13:55:11Z</time>
      </trkpt>
      <trkpt lat="48.98089" lon="7.83788">
        <ele>332</ele>
        <time>2022-11-19T13:55:12Z</time>
      </trkpt>
      <trkpt lat="48.98089" lon="7.83789">
        <ele>332.2</ele>
        <time>2022-11-19T13:55:13Z</time>
      </trkpt>
      <trkpt lat="48.9809" lon="7.83791">
        <ele>332.2</ele>
        <time>2022-11-19T13:55:14Z</time>
      </trkpt>
      <trkpt lat="48.98092" lon="7.83793">
        <ele>332.4</ele>
        <time>2022-11-19T13:55:15Z</time>
      </trkpt>
      <trkpt lat="48.98093" lon="7.83794">
        <ele>332.6</ele>
        <time>2022-11-19T13:55:16Z</time>
      </trkpt>
      <trkpt lat="48.98095" lon="7.83795">
        <ele>332.8</ele>
        <time>2022-11-19T13:55:17Z</time>
      </trkpt>
      <trkpt lat="48.98097" lon="7.83797">
        <ele>333</ele>
        <time>2022-11-19T13:55:18Z</time>
      </trkpt>
      <trkpt lat="48.98099" lon="7.83797">
        <ele>333.2</ele>
        <time>2022-11-19T13:55:19Z</time>
      </trkpt>
      <trkpt lat="48.98102" lon="7.83796">
        <ele>333.6</ele>
        <time>2022-11-19T13:55:20Z</time>
      </trkpt>
      <trkpt lat="48.98103" lon="7.83797">
        <ele>333.8</ele>
        <time>2022-11-19T13:55:21Z</time>
      </trkpt>
      <trkpt lat="48.98105" lon="7.83798">
        <ele>333.8</ele>
        <time>2022-11-19T13:55:22Z</time>
      </trkpt>
      <trkpt lat="48.98106" lon="7.83799">
        <ele>334</ele>
        <time>2022-11-19T13:55:23Z</time>
      </trkpt>
      <trkpt lat="48.98107" lon="7.838">
        <ele>334.2</ele>
        <time>2022-11-19T13:55:24Z</time>
      </trkpt>
      <trkpt lat="48.98108" lon="7.83801">
        <ele>334.6</ele>
        <time>2022-11-19T13:55:25Z</time>
      </trkpt>
      <trkpt lat="48.98109" lon="7.83802">
        <ele>334.8</ele>
        <time>2022-11-19T13:55:26Z</time>
      </trkpt>
      <trkpt lat="48.98111" lon="7.83802">
        <ele>335</ele>
        <time>2022-11-19T13:55:27Z</time>
      </trkpt>
      <trkpt lat="48.98114" lon="7.83802">
        <ele>335.2</ele>
        <time>2022-11-19T13:55:28Z</time>
      </trkpt>
      <trkpt lat="48.98115" lon="7.83804">
        <ele>335.4</ele>
        <time>2022-11-19T13:55:29Z</time>
      </trkpt>
      <trkpt lat="48.98117" lon="7.83806">
        <ele>335.6</ele>
        <time>2022-11-19T13:55:30Z</time>
      </trkpt>
      <trkpt lat="48.98119" lon="7.83804">
        <ele>335.6</ele>
        <time>2022-11-19T13:55:31Z</time>
      </trkpt>
      <trkpt lat="48.9812" lon="7.83805">
        <ele>335.8</ele>
        <time>2022-11-19T13:55:32Z</time>
      </trkpt>
      <trkpt lat="48.98123" lon="7.83807">
        <ele>336</ele>
        <time>2022-11-19T13:55:33Z</time>
      </trkpt>
      <trkpt lat="48.98124" lon="7.83807">
        <ele>336.2</ele>
        <time>2022-11-19T13:55:34Z</time>
      </trkpt>
      <trkpt lat="48.98125" lon="7.83808">
        <ele>336.4</ele>
        <time>2022-11-19T13:55:35Z</time>
      </trkpt>
      <trkpt lat="48.98125" lon="7.83809">
        <ele>336.6</ele>
        <time>2022-11-19T13:55:36Z</time>
      </trkpt>
      <trkpt lat="48.98126" lon="7.83811">
        <ele>336.8</ele>
        <time>2022-11-19T13:55:37Z</time>
      </trkpt>
      <trkpt lat="48.98127" lon="7.83813">
        <ele>337</ele>
        <time>2022-11-19T13:55:38Z</time>
      </trkpt>
      <trkpt lat="48.98128" lon="7.83814">
        <ele>337.2</ele>
        <time>2022-11-19T13:55:39Z</time>
      </trkpt>
      <trkpt lat="48.98128" lon="7.83814">
        <ele>337.2</ele>
        <time>2022-11-19T13:55:40Z</time>
      </trkpt>
      <trkpt lat="48.9813" lon="7.83814">
        <ele>337.4</ele>
        <time>2022-11-19T13:55:41Z</time>
      </trkpt>
      <trkpt lat="48.98132" lon="7.83813">
        <ele>337.6</ele>
        <time>2022-11-19T13:55:42Z</time>
      </trkpt>
      <trkpt lat="48.98133" lon="7.83812">
        <ele>338</ele>
        <time>2022-11-19T13:55:43Z</time>
      </trkpt>
      <trkpt lat="48.98133" lon="7.83814">
        <ele>338.2</ele>
        <time>2022-11-19T13:55:44Z</time>
      </trkpt>
      <trkpt lat="48.98134" lon="7.83817">
        <ele>338.4</ele>
        <time>2022-11-19T13:55:45Z</time>
      </trkpt>
      <trkpt lat="48.98135" lon="7.83818">
        <ele>338.6</ele>
        <time>2022-11-19T13:55:46Z</time>
      </trkpt>
      <trkpt lat="48.98135" lon="7.83821">
        <ele>338.8</ele>
        <time>2022-11-19T13:55:47Z</time>
      </trkpt>
      <trkpt lat="48.98137" lon="7.83819">
        <ele>339</ele>
        <time>2022-11-19T13:55:48Z</time>
      </trkpt>
      <trkpt lat="48.98139" lon="7.8382">
        <ele>339.2</ele>
        <time>2022-11-19T13:55:49Z</time>
      </trkpt>
      <trkpt lat="48.9814" lon="7.83821">
        <ele>339.6</ele>
        <time>2022-11-19T13:55:50Z</time>
      </trkpt>
      <trkpt lat="48.98141" lon="7.83821">
        <ele>339.6</ele>
        <time>2022-11-19T13:55:51Z</time>
      </trkpt>
      <trkpt lat="48.98142" lon="7.83822">
        <ele>340</ele>
        <time>2022-11-19T13:55:52Z</time>
      </trkpt>
      <trkpt lat="48.98143" lon="7.83822">
        <ele>340.2</ele>
        <time>2022-11-19T13:55:53Z</time>
      </trkpt>
      <trkpt lat="48.98144" lon="7.83823">
        <ele>340.2</ele>
        <time>2022-11-19T13:55:54Z</time>
      </trkpt>
      <trkpt lat="48.98145" lon="7.83824">
        <ele>340.4</ele>
        <time>2022-11-19T13:55:55Z</time>
      </trkpt>
      <trkpt lat="48.98147" lon="7.83823">
        <ele>340.6</ele>
        <time>2022-11-19T13:55:56Z</time>
      </trkpt>
      <trkpt lat="48.98149" lon="7.83823">
        <ele>340.6</ele>
        <time>2022-11-19T13:55:57Z</time>
      </trkpt>
      <trkpt lat="48.9815" lon="7.83824">
        <ele>340.8</ele>
        <time>2022-11-19T13:55:58Z</time>
      </trkpt>
      <trkpt lat="48.98151" lon="7.83824">
        <ele>341</ele>
        <time>2022-11-19T13:55:59Z</time>
      </trkpt>
      <trkpt lat="48.98151" lon="7.83824">
        <ele>341.4</ele>
        <time>2022-11-19T13:56:00Z</time>
      </trkpt>
      <trkpt lat="48.98152" lon="7.83824">
        <ele>341.6</ele>
        <time>2022-11-19T13:56:01Z</time>
      </trkpt>
      <trkpt lat="48.98153" lon="7.83824">
        <ele>341.8</ele>
        <time>2022-11-19T13:56:02Z</time>
      </trkpt>
      <trkpt lat="48.98154" lon="7.83825">
        <ele>341.8</ele>
        <time>2022-11-19T13:56:03Z</time>
      </trkpt>
      <trkpt lat="48.98155" lon="7.83826">
        <ele>342.2</ele>
        <time>2022-11-19T13:56:04Z</time>
      </trkpt>
      <trkpt lat="48.98156" lon="7.83827">
        <ele>342.4</ele>
        <time>2022-11-19T13:56:05Z</time>
      </trkpt>
      <trkpt lat="48.98157" lon="7.83829">
        <ele>342.6</ele>
        <time>2022-11-19T13:56:06Z</time>
      </trkpt>
      <trkpt lat="48.98158" lon="7.8383">
        <ele>342.8</ele>
        <time>2022-11-19T13:56:07Z</time>
      </trkpt>
      <trkpt lat="48.98159" lon="7.83831">
        <ele>343</ele>
        <time>2022-11-19T13:56:08Z</time>
      </trkpt>
      <trkpt lat="48.9816" lon="7.83832">
        <ele>343.2</ele>
        <time>2022-11-19T13:56:09Z</time>
      </trkpt>
      <trkpt lat="48.98162" lon="7.83833">
        <ele>343.4</ele>
        <time>2022-11-19T13:56:10Z</time>
      </trkpt>
      <trkpt lat="48.98163" lon="7.83835">
        <ele>343.6</ele>
        <time>2022-11-19T13:56:11Z</time>
      </trkpt>
      <trkpt lat="48.98164" lon="7.83837">
        <ele>343.8</ele>
        <time>2022-11-19T13:56:12Z</time>
      </trkpt>
      <trkpt lat="48.98165" lon="7.83838">
        <ele>344.2</ele>
        <time>2022-11-19T13:56:13Z</time>
      </trkpt>
      <trkpt lat="48.98166" lon="7.83839">
        <ele>344.2</ele>
        <time>2022-11-19T13:56:14Z</time>
      </trkpt>
      <trkpt lat="48.98167" lon="7.83841">
        <ele>344.4</ele>
        <time>2022-11-19T13:56:15Z</time>
      </trkpt>
      <trkpt lat="48.98168" lon="7.83842">
        <ele>344.6</ele>
        <time>2022-11-19T13:56:16Z</time>
      </trkpt>
      <trkpt lat="48.98169" lon="7.83843">
        <ele>344.8</ele>
        <time>2022-11-19T13:56:17Z</time>
      </trkpt>
      <trkpt lat="48.98171" lon="7.83845">
        <ele>345</ele>
        <time>2022-11-19T13:56:18Z</time>
      </trkpt>
      <trkpt lat="48.98172" lon="7.83846">
        <ele>345.2</ele>
        <time>2022-11-19T13:56:19Z</time>
      </trkpt>
      <trkpt lat="48.98173" lon="7.83847">
        <ele>345.4</ele>
        <time>2022-11-19T13:56:20Z</time>
      </trkpt>
      <trkpt lat="48.98174" lon="7.83848">
        <ele>345.6</ele>
        <time>2022-11-19T13:56:21Z</time>
      </trkpt>
      <trkpt lat="48.98176" lon="7.83848">
        <ele>345.8</ele>
        <time>2022-11-19T13:56:22Z</time>
      </trkpt>
      <trkpt lat="48.98178" lon="7.83849">
        <ele>346</ele>
        <time>2022-11-19T13:56:23Z</time>
      </trkpt>
      <trkpt lat="48.9818" lon="7.8385">
        <ele>346.2</ele>
        <time>2022-11-19T13:56:24Z</time>
      </trkpt>
      <trkpt lat="48.98181" lon="7.83851">
        <ele>346.4</ele>
        <time>2022-11-19T13:56:25Z</time>
      </trkpt>
      <trkpt lat="48.98182" lon="7.83851">
        <ele>346.6</ele>
        <time>2022-11-19T13:56:26Z</time>
      </trkpt>
      <trkpt lat="48.98182" lon="7.83852">
        <ele>346.6</ele>
        <time>2022-11-19T13:56:27Z</time>
      </trkpt>
      <trkpt lat="48.98182" lon="7.83852">
        <ele>347</ele>
        <time>2022-11-19T13:56:28Z</time>
      </trkpt>
      <trkpt lat="48.98182" lon="7.83852">
        <ele>347.2</ele>
        <time>2022-11-19T13:56:29Z</time>
      </trkpt>
      <trkpt lat="48.98185" lon="7.83857">
        <ele>348.4</ele>
        <time>2022-11-19T13:56:37Z</time>
      </trkpt>
      <trkpt lat="48.98186" lon="7.83858">
        <ele>348.4</ele>
        <time>2022-11-19T13:56:38Z</time>
      </trkpt>
      <trkpt lat="48.98188" lon="7.83862">
        <ele>348.6</ele>
        <time>2022-11-19T13:56:39Z</time>
      </trkpt>
      <trkpt lat="48.9819" lon="7.83866">
        <ele>348.6</ele>
        <time>2022-11-19T13:56:40Z</time>
      </trkpt>
      <trkpt lat="48.98191" lon="7.83867">
        <ele>348.6</ele>
        <time>2022-11-19T13:56:41Z</time>
      </trkpt>
      <trkpt lat="48.98193" lon="7.83867">
        <ele>348.6</ele>
        <time>2022-11-19T13:56:42Z</time>
      </trkpt>
      <trkpt lat="48.98196" lon="7.83866">
        <ele>348.6</ele>
        <time>2022-11-19T13:56:43Z</time>
      </trkpt>
      <trkpt lat="48.98197" lon="7.83867">
        <ele>348.6</ele>
        <time>2022-11-19T13:56:44Z</time>
      </trkpt>
      <trkpt lat="48.98197" lon="7.83869">
        <ele>348.8</ele>
        <time>2022-11-19T13:56:45Z</time>
      </trkpt>
      <trkpt lat="48.98198" lon="7.83871">
        <ele>349</ele>
        <time>2022-11-19T13:56:46Z</time>
      </trkpt>
      <trkpt lat="48.98198" lon="7.83872">
        <ele>349</ele>
        <time>2022-11-19T13:56:47Z</time>
      </trkpt>
      <trkpt lat="48.98196" lon="7.83875">
        <ele>349.2</ele>
        <time>2022-11-19T13:56:48Z</time>
      </trkpt>
      <trkpt lat="48.98197" lon="7.83878">
        <ele>349.4</ele>
        <time>2022-11-19T13:56:49Z</time>
      </trkpt>
      <trkpt lat="48.98198" lon="7.8388">
        <ele>349.6</ele>
        <time>2022-11-19T13:56:50Z</time>
      </trkpt>
      <trkpt lat="48.982" lon="7.83881">
        <ele>349.8</ele>
        <time>2022-11-19T13:56:51Z</time>
      </trkpt>
      <trkpt lat="48.98202" lon="7.83879">
        <ele>350</ele>
        <time>2022-11-19T13:56:52Z</time>
      </trkpt>
      <trkpt lat="48.98205" lon="7.83878">
        <ele>350.2</ele>
        <time>2022-11-19T13:56:53Z</time>
      </trkpt>
      <trkpt lat="48.98207" lon="7.83879">
        <ele>350.4</ele>
        <time>2022-11-19T13:56:54Z</time>
      </trkpt>
      <trkpt lat="48.98208" lon="7.83879">
        <ele>350.6</ele>
        <time>2022-11-19T13:56:55Z</time>
      </trkpt>
      <trkpt lat="48.9821" lon="7.83879">
        <ele>350.8</ele>
        <time>2022-11-19T13:56:56Z</time>
      </trkpt>
      <trkpt lat="48.98211" lon="7.8388">
        <ele>350.8</ele>
        <time>2022-11-19T13:56:57Z</time>
      </trkpt>
      <trkpt lat="48.98212" lon="7.83882">
        <ele>351</ele>
        <time>2022-11-19T13:56:58Z</time>
      </trkpt>
      <trkpt lat="48.98213" lon="7.83883">
        <ele>351.4</ele>
        <time>2022-11-19T13:56:59Z</time>
      </trkpt>
      <trkpt lat="48.98214" lon="7.83885">
        <ele>351.6</ele>
        <time>2022-11-19T13:57:00Z</time>
      </trkpt>
      <trkpt lat="48.98216" lon="7.83886">
        <ele>351.8</ele>
        <time>2022-11-19T13:57:01Z</time>
      </trkpt>
      <trkpt lat="48.98217" lon="7.83886">
        <ele>352</ele>
        <time>2022-11-19T13:57:02Z</time>
      </trkpt>
      <trkpt lat="48.98218" lon="7.83887">
        <ele>352.4</ele>
        <time>2022-11-19T13:57:03Z</time>
      </trkpt>
      <trkpt lat="48.9822" lon="7.83887">
        <ele>352.6</ele>
        <time>2022-11-19T13:57:04Z</time>
      </trkpt>
      <trkpt lat="48.98221" lon="7.83888">
        <ele>352.8</ele>
        <time>2022-11-19T13:57:05Z</time>
      </trkpt>
      <trkpt lat="48.98222" lon="7.83889">
        <ele>353</ele>
        <time>2022-11-19T13:57:06Z</time>
      </trkpt>
      <trkpt lat="48.98224" lon="7.8389">
        <ele>353.2</ele>
        <time>2022-11-19T13:57:07Z</time>
      </trkpt>
      <trkpt lat="48.98225" lon="7.83891">
        <ele>353.4</ele>
        <time>2022-11-19T13:57:08Z</time>
      </trkpt>
      <trkpt lat="48.98226" lon="7.83892">
        <ele>353.8</ele>
        <time>2022-11-19T13:57:09Z</time>
      </trkpt>
      <trkpt lat="48.98227" lon="7.83894">
        <ele>353.8</ele>
        <time>2022-11-19T13:57:10Z</time>
      </trkpt>
      <trkpt lat="48.98228" lon="7.83896">
        <ele>354</ele>
        <time>2022-11-19T13:57:11Z</time>
      </trkpt>
      <trkpt lat="48.9823" lon="7.83896">
        <ele>354.4</ele>
        <time>2022-11-19T13:57:12Z</time>
      </trkpt>
      <trkpt lat="48.98232" lon="7.83896">
        <ele>354.6</ele>
        <time>2022-11-19T13:57:13Z</time>
      </trkpt>
      <trkpt lat="48.98233" lon="7.83897">
        <ele>354.8</ele>
        <time>2022-11-19T13:57:14Z</time>
      </trkpt>
      <trkpt lat="48.98234" lon="7.83899">
        <ele>355</ele>
        <time>2022-11-19T13:57:15Z</time>
      </trkpt>
      <trkpt lat="48.98235" lon="7.83901">
        <ele>355.2</ele>
        <time>2022-11-19T13:57:16Z</time>
      </trkpt>
      <trkpt lat="48.98236" lon="7.83902">
        <ele>355.4</ele>
        <time>2022-11-19T13:57:17Z</time>
      </trkpt>
      <trkpt lat="48.98237" lon="7.83903">
        <ele>355.8</ele>
        <time>2022-11-19T13:57:18Z</time>
      </trkpt>
      <trkpt lat="48.98239" lon="7.83903">
        <ele>356</ele>
        <time>2022-11-19T13:57:19Z</time>
      </trkpt>
      <trkpt lat="48.98241" lon="7.83904">
        <ele>356</ele>
        <time>2022-11-19T13:57:20Z</time>
      </trkpt>
      <trkpt lat="48.98243" lon="7.83904">
        <ele>356.2</ele>
        <time>2022-11-19T13:57:21Z</time>
      </trkpt>
      <trkpt lat="48.98245" lon="7.83903">
        <ele>356.2</ele>
        <time>2022-11-19T13:57:22Z</time>
      </trkpt>
      <trkpt lat="48.98247" lon="7.83904">
        <ele>356.6</ele>
        <time>2022-11-19T13:57:23Z</time>
      </trkpt>
      <trkpt lat="48.98248" lon="7.83906">
        <ele>356.8</ele>
        <time>2022-11-19T13:57:24Z</time>
      </trkpt>
      <trkpt lat="48.98249" lon="7.83906">
        <ele>357</ele>
        <time>2022-11-19T13:57:25Z</time>
      </trkpt>
      <trkpt lat="48.98251" lon="7.83908">
        <ele>357.2</ele>
        <time>2022-11-19T13:57:26Z</time>
      </trkpt>
      <trkpt lat="48.98253" lon="7.8391">
        <ele>357.4</ele>
        <time>2022-11-19T13:57:27Z</time>
      </trkpt>
      <trkpt lat="48.98254" lon="7.83911">
        <ele>357.4</ele>
        <time>2022-11-19T13:57:28Z</time>
      </trkpt>
      <trkpt lat="48.98255" lon="7.83913">
        <ele>357.6</ele>
        <time>2022-11-19T13:57:29Z</time>
      </trkpt>
      <trkpt lat="48.98255" lon="7.83914">
        <ele>357.8</ele>
        <time>2022-11-19T13:57:30Z</time>
      </trkpt>
      <trkpt lat="48.98256" lon="7.83916">
        <ele>358.2</ele>
        <time>2022-11-19T13:57:31Z</time>
      </trkpt>
      <trkpt lat="48.98258" lon="7.83917">
        <ele>358.4</ele>
        <time>2022-11-19T13:57:32Z</time>
      </trkpt>
      <trkpt lat="48.98259" lon="7.83919">
        <ele>358.6</ele>
        <time>2022-11-19T13:57:33Z</time>
      </trkpt>
      <trkpt lat="48.9826" lon="7.83921">
        <ele>358.8</ele>
        <time>2022-11-19T13:57:34Z</time>
      </trkpt>
      <trkpt lat="48.98261" lon="7.83922">
        <ele>359</ele>
        <time>2022-11-19T13:57:35Z</time>
      </trkpt>
      <trkpt lat="48.98262" lon="7.83923">
        <ele>359.2</ele>
        <time>2022-11-19T13:57:36Z</time>
      </trkpt>
      <trkpt lat="48.98263" lon="7.83924">
        <ele>359.4</ele>
        <time>2022-11-19T13:57:37Z</time>
      </trkpt>
      <trkpt lat="48.98263" lon="7.83926">
        <ele>359.8</ele>
        <time>2022-11-19T13:57:38Z</time>
      </trkpt>
      <trkpt lat="48.98263" lon="7.83928">
        <ele>359.8</ele>
        <time>2022-11-19T13:57:39Z</time>
      </trkpt>
      <trkpt lat="48.98263" lon="7.83932">
        <ele>360</ele>
        <time>2022-11-19T13:57:40Z</time>
      </trkpt>
      <trkpt lat="48.98264" lon="7.83933">
        <ele>360.2</ele>
        <time>2022-11-19T13:57:41Z</time>
      </trkpt>
      <trkpt lat="48.98265" lon="7.83935">
        <ele>360.4</ele>
        <time>2022-11-19T13:57:42Z</time>
      </trkpt>
      <trkpt lat="48.98267" lon="7.83936">
        <ele>360.6</ele>
        <time>2022-11-19T13:57:43Z</time>
      </trkpt>
      <trkpt lat="48.98268" lon="7.83937">
        <ele>360.6</ele>
        <time>2022-11-19T13:57:44Z</time>
      </trkpt>
      <trkpt lat="48.9827" lon="7.83938">
        <ele>360.8</ele>
        <time>2022-11-19T13:57:45Z</time>
      </trkpt>
      <trkpt lat="48.98271" lon="7.83938">
        <ele>361.2</ele>
        <time>2022-11-19T13:57:46Z</time>
      </trkpt>
      <trkpt lat="48.98273" lon="7.83939">
        <ele>361.2</ele>
        <time>2022-11-19T13:57:47Z</time>
      </trkpt>
      <trkpt lat="48.98273" lon="7.83939">
        <ele>361.4</ele>
        <time>2022-11-19T13:57:48Z</time>
      </trkpt>
      <trkpt lat="48.98274" lon="7.83941">
        <ele>361.6</ele>
        <time>2022-11-19T13:57:49Z</time>
      </trkpt>
      <trkpt lat="48.98274" lon="7.83943">
        <ele>361.8</ele>
        <time>2022-11-19T13:57:50Z</time>
      </trkpt>
      <trkpt lat="48.98276" lon="7.83943">
        <ele>362.4</ele>
        <time>2022-11-19T13:57:51Z</time>
      </trkpt>
      <trkpt lat="48.98276" lon="7.83943">
        <ele>362.6</ele>
        <time>2022-11-19T13:57:52Z</time>
      </trkpt>
      <trkpt lat="48.98276" lon="7.83944">
        <ele>363</ele>
        <time>2022-11-19T13:57:53Z</time>
      </trkpt>
      <trkpt lat="48.98277" lon="7.83944">
        <ele>363</ele>
        <time>2022-11-19T13:57:54Z</time>
      </trkpt>
      <trkpt lat="48.98278" lon="7.83945">
        <ele>363.2</ele>
        <time>2022-11-19T13:57:55Z</time>
      </trkpt>
      <trkpt lat="48.98279" lon="7.83946">
        <ele>363.4</ele>
        <time>2022-11-19T13:57:56Z</time>
      </trkpt>
      <trkpt lat="48.9828" lon="7.83947">
        <ele>363.6</ele>
        <time>2022-11-19T13:57:57Z</time>
      </trkpt>
      <trkpt lat="48.98281" lon="7.83947">
        <ele>364</ele>
        <time>2022-11-19T13:57:58Z</time>
      </trkpt>
      <trkpt lat="48.98282" lon="7.83948">
        <ele>364.2</ele>
        <time>2022-11-19T13:57:59Z</time>
      </trkpt>
      <trkpt lat="48.98283" lon="7.83949">
        <ele>364.4</ele>
        <time>2022-11-19T13:58:00Z</time>
      </trkpt>
      <trkpt lat="48.98284" lon="7.8395">
        <ele>364.6</ele>
        <time>2022-11-19T13:58:01Z</time>
      </trkpt>
      <trkpt lat="48.98285" lon="7.8395">
        <ele>364.8</ele>
        <time>2022-11-19T13:58:02Z</time>
      </trkpt>
      <trkpt lat="48.98286" lon="7.8395">
        <ele>364.8</ele>
        <time>2022-11-19T13:58:03Z</time>
      </trkpt>
      <trkpt lat="48.98288" lon="7.83951">
        <ele>365</ele>
        <time>2022-11-19T13:58:04Z</time>
      </trkpt>
      <trkpt lat="48.98289" lon="7.83951">
        <ele>365.2</ele>
        <time>2022-11-19T13:58:05Z</time>
      </trkpt>
      <trkpt lat="48.9829" lon="7.83951">
        <ele>365.4</ele>
        <time>2022-11-19T13:58:06Z</time>
      </trkpt>
      <trkpt lat="48.98291" lon="7.83952">
        <ele>365.6</ele>
        <time>2022-11-19T13:58:07Z</time>
      </trkpt>
      <trkpt lat="48.98293" lon="7.83952">
        <ele>365.6</ele>
        <time>2022-11-19T13:58:08Z</time>
      </trkpt>
      <trkpt lat="48.98295" lon="7.83953">
        <ele>365.8</ele>
        <time>2022-11-19T13:58:09Z</time>
      </trkpt>
      <trkpt lat="48.98296" lon="7.83954">
        <ele>366</ele>
        <time>2022-11-19T13:58:10Z</time>
      </trkpt>
      <trkpt lat="48.98298" lon="7.83956">
        <ele>366</ele>
        <time>2022-11-19T13:58:11Z</time>
      </trkpt>
      <trkpt lat="48.98299" lon="7.83956">
        <ele>366.2</ele>
        <time>2022-11-19T13:58:12Z</time>
      </trkpt>
      <trkpt lat="48.983" lon="7.83957">
        <ele>366.6</ele>
        <time>2022-11-19T13:58:13Z</time>
      </trkpt>
      <trkpt lat="48.98301" lon="7.83958">
        <ele>366.8</ele>
        <time>2022-11-19T13:58:14Z</time>
      </trkpt>
      <trkpt lat="48.98302" lon="7.8396">
        <ele>367</ele>
        <time>2022-11-19T13:58:15Z</time>
      </trkpt>
      <trkpt lat="48.98303" lon="7.83961">
        <ele>367.2</ele>
        <time>2022-11-19T13:58:16Z</time>
      </trkpt>
      <trkpt lat="48.98304" lon="7.83961">
        <ele>367.4</ele>
        <time>2022-11-19T13:58:17Z</time>
      </trkpt>
      <trkpt lat="48.98306" lon="7.83961">
        <ele>367.4</ele>
        <time>2022-11-19T13:58:18Z</time>
      </trkpt>
      <trkpt lat="48.98307" lon="7.83962">
        <ele>367.6</ele>
        <time>2022-11-19T13:58:19Z</time>
      </trkpt>
      <trkpt lat="48.98307" lon="7.83962">
        <ele>368</ele>
        <time>2022-11-19T13:58:21Z</time>
      </trkpt>
      <trkpt lat="48.98309" lon="7.83964">
        <ele>369</ele>
        <time>2022-11-19T13:58:43Z</time>
      </trkpt>
      <trkpt lat="48.98314" lon="7.83966">
        <ele>369</ele>
        <time>2022-11-19T13:58:46Z</time>
      </trkpt>
      <trkpt lat="48.98316" lon="7.83967">
        <ele>369</ele>
        <time>2022-11-19T13:58:47Z</time>
      </trkpt>
      <trkpt lat="48.98317" lon="7.83968">
        <ele>369</ele>
        <time>2022-11-19T13:58:48Z</time>
      </trkpt>
      <trkpt lat="48.98319" lon="7.8397">
        <ele>369</ele>
        <time>2022-11-19T13:58:49Z</time>
      </trkpt>
      <trkpt lat="48.9832" lon="7.83971">
        <ele>369.2</ele>
        <time>2022-11-19T13:58:50Z</time>
      </trkpt>
      <trkpt lat="48.98325" lon="7.83976">
        <ele>369.8</ele>
        <time>2022-11-19T13:58:53Z</time>
      </trkpt>
      <trkpt lat="48.98328" lon="7.83978">
        <ele>370.2</ele>
        <time>2022-11-19T13:58:55Z</time>
      </trkpt>
      <trkpt lat="48.98331" lon="7.8398">
        <ele>370.8</ele>
        <time>2022-11-19T13:58:57Z</time>
      </trkpt>
      <trkpt lat="48.98334" lon="7.83983">
        <ele>371.2</ele>
        <time>2022-11-19T13:58:59Z</time>
      </trkpt>
      <trkpt lat="48.98336" lon="7.83984">
        <ele>371.4</ele>
        <time>2022-11-19T13:59:00Z</time>
      </trkpt>
      <trkpt lat="48.98337" lon="7.83986">
        <ele>371.6</ele>
        <time>2022-11-19T13:59:01Z</time>
      </trkpt>
      <trkpt lat="48.98339" lon="7.83987">
        <ele>372.2</ele>
        <time>2022-11-19T13:59:03Z</time>
      </trkpt>
      <trkpt lat="48.9834" lon="7.83988">
        <ele>372.4</ele>
        <time>2022-11-19T13:59:04Z</time>
      </trkpt>
      <trkpt lat="48.98342" lon="7.8399">
        <ele>372.6</ele>
        <time>2022-11-19T13:59:05Z</time>
      </trkpt>
      <trkpt lat="48.98344" lon="7.83992">
        <ele>373</ele>
        <time>2022-11-19T13:59:06Z</time>
      </trkpt>
      <trkpt lat="48.98346" lon="7.83994">
        <ele>373.4</ele>
        <time>2022-11-19T13:59:07Z</time>
      </trkpt>
      <trkpt lat="48.98348" lon="7.83995">
        <ele>373.6</ele>
        <time>2022-11-19T13:59:08Z</time>
      </trkpt>
      <trkpt lat="48.9835" lon="7.83996">
        <ele>374</ele>
        <time>2022-11-19T13:59:09Z</time>
      </trkpt>
      <trkpt lat="48.98351" lon="7.83997">
        <ele>374.2</ele>
        <time>2022-11-19T13:59:10Z</time>
      </trkpt>
      <trkpt lat="48.98352" lon="7.83999">
        <ele>374.4</ele>
        <time>2022-11-19T13:59:11Z</time>
      </trkpt>
      <trkpt lat="48.98353" lon="7.84001">
        <ele>374.6</ele>
        <time>2022-11-19T13:59:12Z</time>
      </trkpt>
      <trkpt lat="48.98354" lon="7.84002">
        <ele>375</ele>
        <time>2022-11-19T13:59:13Z</time>
      </trkpt>
      <trkpt lat="48.98356" lon="7.84004">
        <ele>375.2</ele>
        <time>2022-11-19T13:59:14Z</time>
      </trkpt>
      <trkpt lat="48.98357" lon="7.84005">
        <ele>375.4</ele>
        <time>2022-11-19T13:59:15Z</time>
      </trkpt>
      <trkpt lat="48.98358" lon="7.84006">
        <ele>375.6</ele>
        <time>2022-11-19T13:59:16Z</time>
      </trkpt>
      <trkpt lat="48.9836" lon="7.84008">
        <ele>375.8</ele>
        <time>2022-11-19T13:59:17Z</time>
      </trkpt>
      <trkpt lat="48.98361" lon="7.84009">
        <ele>376</ele>
        <time>2022-11-19T13:59:18Z</time>
      </trkpt>
      <trkpt lat="48.98364" lon="7.84007">
        <ele>376.2</ele>
        <time>2022-11-19T13:59:19Z</time>
      </trkpt>
      <trkpt lat="48.98367" lon="7.84005">
        <ele>376.4</ele>
        <time>2022-11-19T13:59:20Z</time>
      </trkpt>
      <trkpt lat="48.98369" lon="7.84005">
        <ele>376.6</ele>
        <time>2022-11-19T13:59:21Z</time>
      </trkpt>
      <trkpt lat="48.98371" lon="7.84004">
        <ele>376.8</ele>
        <time>2022-11-19T13:59:22Z</time>
      </trkpt>
      <trkpt lat="48.98373" lon="7.84005">
        <ele>377</ele>
        <time>2022-11-19T13:59:23Z</time>
      </trkpt>
      <trkpt lat="48.98374" lon="7.84007">
        <ele>377.2</ele>
        <time>2022-11-19T13:59:24Z</time>
      </trkpt>
      <trkpt lat="48.98376" lon="7.84007">
        <ele>377.4</ele>
        <time>2022-11-19T13:59:25Z</time>
      </trkpt>
      <trkpt lat="48.98377" lon="7.84009">
        <ele>377.6</ele>
        <time>2022-11-19T13:59:26Z</time>
      </trkpt>
      <trkpt lat="48.98378" lon="7.84011">
        <ele>377.8</ele>
        <time>2022-11-19T13:59:27Z</time>
      </trkpt>
      <trkpt lat="48.98378" lon="7.84013">
        <ele>377.8</ele>
        <time>2022-11-19T13:59:28Z</time>
      </trkpt>
      <trkpt lat="48.98379" lon="7.84013">
        <ele>378</ele>
        <time>2022-11-19T13:59:29Z</time>
      </trkpt>
      <trkpt lat="48.9838" lon="7.84015">
        <ele>378.2</ele>
        <time>2022-11-19T13:59:30Z</time>
      </trkpt>
      <trkpt lat="48.98381" lon="7.84015">
        <ele>378.4</ele>
        <time>2022-11-19T13:59:31Z</time>
      </trkpt>
      <trkpt lat="48.98381" lon="7.84018">
        <ele>378.6</ele>
        <time>2022-11-19T13:59:32Z</time>
      </trkpt>
      <trkpt lat="48.98382" lon="7.84019">
        <ele>378.8</ele>
        <time>2022-11-19T13:59:33Z</time>
      </trkpt>
      <trkpt lat="48.98384" lon="7.8402">
        <ele>379</ele>
        <time>2022-11-19T13:59:34Z</time>
      </trkpt>
      <trkpt lat="48.98384" lon="7.8402">
        <ele>379.2</ele>
        <time>2022-11-19T13:59:35Z</time>
      </trkpt>
      <trkpt lat="48.98385" lon="7.84021">
        <ele>379.4</ele>
        <time>2022-11-19T13:59:36Z</time>
      </trkpt>
      <trkpt lat="48.98388" lon="7.84022">
        <ele>379.4</ele>
        <time>2022-11-19T13:59:37Z</time>
      </trkpt>
      <trkpt lat="48.98389" lon="7.84021">
        <ele>379.8</ele>
        <time>2022-11-19T13:59:38Z</time>
      </trkpt>
      <trkpt lat="48.98391" lon="7.84019">
        <ele>380</ele>
        <time>2022-11-19T13:59:39Z</time>
      </trkpt>
      <trkpt lat="48.98391" lon="7.8402">
        <ele>380.2</ele>
        <time>2022-11-19T13:59:40Z</time>
      </trkpt>
      <trkpt lat="48.9839" lon="7.84021">
        <ele>380.4</ele>
        <time>2022-11-19T13:59:41Z</time>
      </trkpt>
      <trkpt lat="48.98391" lon="7.84024">
        <ele>380.6</ele>
        <time>2022-11-19T13:59:42Z</time>
      </trkpt>
      <trkpt lat="48.98392" lon="7.84027">
        <ele>380.8</ele>
        <time>2022-11-19T13:59:43Z</time>
      </trkpt>
      <trkpt lat="48.98392" lon="7.84027">
        <ele>380.8</ele>
        <time>2022-11-19T13:59:44Z</time>
      </trkpt>
      <trkpt lat="48.98393" lon="7.84028">
        <ele>381</ele>
        <time>2022-11-19T13:59:45Z</time>
      </trkpt>
      <trkpt lat="48.98394" lon="7.84029">
        <ele>381</ele>
        <time>2022-11-19T13:59:46Z</time>
      </trkpt>
      <trkpt lat="48.98396" lon="7.84029">
        <ele>381.2</ele>
        <time>2022-11-19T13:59:47Z</time>
      </trkpt>
      <trkpt lat="48.98398" lon="7.84029">
        <ele>381.4</ele>
        <time>2022-11-19T13:59:48Z</time>
      </trkpt>
      <trkpt lat="48.984" lon="7.84029">
        <ele>381.6</ele>
        <time>2022-11-19T13:59:49Z</time>
      </trkpt>
      <trkpt lat="48.98402" lon="7.8403">
        <ele>381.8</ele>
        <time>2022-11-19T13:59:50Z</time>
      </trkpt>
      <trkpt lat="48.98405" lon="7.84029">
        <ele>382</ele>
        <time>2022-11-19T13:59:51Z</time>
      </trkpt>
      <trkpt lat="48.98409" lon="7.84031">
        <ele>382.2</ele>
        <time>2022-11-19T13:59:52Z</time>
      </trkpt>
      <trkpt lat="48.98413" lon="7.84033">
        <ele>382.4</ele>
        <time>2022-11-19T13:59:53Z</time>
      </trkpt>
      <trkpt lat="48.98415" lon="7.84034">
        <ele>382.6</ele>
        <time>2022-11-19T13:59:54Z</time>
      </trkpt>
      <trkpt lat="48.98417" lon="7.84034">
        <ele>383</ele>
        <time>2022-11-19T13:59:55Z</time>
      </trkpt>
      <trkpt lat="48.98419" lon="7.84035">
        <ele>383.2</ele>
        <time>2022-11-19T13:59:56Z</time>
      </trkpt>
      <trkpt lat="48.98421" lon="7.84035">
        <ele>383.4</ele>
        <time>2022-11-19T13:59:57Z</time>
      </trkpt>
      <trkpt lat="48.98422" lon="7.84038">
        <ele>383.6</ele>
        <time>2022-11-19T13:59:58Z</time>
      </trkpt>
      <trkpt lat="48.98422" lon="7.84039">
        <ele>383.8</ele>
        <time>2022-11-19T13:59:59Z</time>
      </trkpt>
      <trkpt lat="48.98423" lon="7.84039">
        <ele>384</ele>
        <time>2022-11-19T14:00:00Z</time>
      </trkpt>
      <trkpt lat="48.98424" lon="7.84039">
        <ele>384.2</ele>
        <time>2022-11-19T14:00:01Z</time>
      </trkpt>
      <trkpt lat="48.98424" lon="7.84041">
        <ele>384.4</ele>
        <time>2022-11-19T14:00:02Z</time>
      </trkpt>
      <trkpt lat="48.98425" lon="7.84041">
        <ele>384.6</ele>
        <time>2022-11-19T14:00:03Z</time>
      </trkpt>
      <trkpt lat="48.98425" lon="7.84041">
        <ele>384.8</ele>
        <time>2022-11-19T14:00:04Z</time>
      </trkpt>
      <trkpt lat="48.98425" lon="7.84041">
        <ele>385.2</ele>
        <time>2022-11-19T14:00:05Z</time>
      </trkpt>
      <trkpt lat="48.98425" lon="7.84041">
        <ele>385.4</ele>
        <time>2022-11-19T14:00:06Z</time>
      </trkpt>
      <trkpt lat="48.98425" lon="7.84041">
        <ele>385.6</ele>
        <time>2022-11-19T14:00:07Z</time>
      </trkpt>
      <trkpt lat="48.98425" lon="7.84042">
        <ele>386.2</ele>
        <time>2022-11-19T14:00:09Z</time>
      </trkpt>
      <trkpt lat="48.98426" lon="7.84042">
        <ele>386.6</ele>
        <time>2022-11-19T14:00:10Z</time>
      </trkpt>
      <trkpt lat="48.98426" lon="7.84043">
        <ele>386.8</ele>
        <time>2022-11-19T14:00:11Z</time>
      </trkpt>
      <trkpt lat="48.98426" lon="7.84043">
        <ele>387</ele>
        <time>2022-11-19T14:00:12Z</time>
      </trkpt>
      <trkpt lat="48.98426" lon="7.84043">
        <ele>387.2</ele>
        <time>2022-11-19T14:00:13Z</time>
      </trkpt>
      <trkpt lat="48.98427" lon="7.84044">
        <ele>387.2</ele>
        <time>2022-11-19T14:00:14Z</time>
      </trkpt>
      <trkpt lat="48.98427" lon="7.84044">
        <ele>387.4</ele>
        <time>2022-11-19T14:00:15Z</time>
      </trkpt>
      <trkpt lat="48.98427" lon="7.84044">
        <ele>387.4</ele>
        <time>2022-11-19T14:00:17Z</time>
      </trkpt>
      <trkpt lat="48.98428" lon="7.84044">
        <ele>387.8</ele>
        <time>2022-11-19T14:00:21Z</time>
      </trkpt>
      <trkpt lat="48.98428" lon="7.84044">
        <ele>388</ele>
        <time>2022-11-19T14:00:22Z</time>
      </trkpt>
      <trkpt lat="48.98428" lon="7.84044">
        <ele>388.4</ele>
        <time>2022-11-19T14:00:23Z</time>
      </trkpt>
      <trkpt lat="48.98431" lon="7.84046">
        <ele>390.4</ele>
        <time>2022-11-19T14:01:15Z</time>
      </trkpt>
      <trkpt lat="48.98433" lon="7.84048">
        <ele>390.4</ele>
        <time>2022-11-19T14:01:17Z</time>
      </trkpt>
      <trkpt lat="48.98434" lon="7.84049">
        <ele>390.4</ele>
        <time>2022-11-19T14:01:18Z</time>
      </trkpt>
      <trkpt lat="48.98434" lon="7.84049">
        <ele>390.4</ele>
        <time>2022-11-19T14:01:19Z</time>
      </trkpt>
      <trkpt lat="48.98434" lon="7.84049">
        <ele>390.4</ele>
        <time>2022-11-19T14:01:21Z</time>
      </trkpt>
      <trkpt lat="48.98436" lon="7.84051">
        <ele>390.6</ele>
        <time>2022-11-19T14:02:07Z</time>
      </trkpt>
      <trkpt lat="48.98436" lon="7.84053">
        <ele>390.6</ele>
        <time>2022-11-19T14:02:09Z</time>
      </trkpt>
      <trkpt lat="48.98436" lon="7.84053">
        <ele>390.6</ele>
        <time>2022-11-19T14:02:11Z</time>
      </trkpt>
      <trkpt lat="48.98437" lon="7.84054">
        <ele>391</ele>
        <time>2022-11-19T14:02:35Z</time>
      </trkpt>
      <trkpt lat="48.9844" lon="7.84056">
        <ele>391</ele>
        <time>2022-11-19T14:02:37Z</time>
      </trkpt>
      <trkpt lat="48.98443" lon="7.84058">
        <ele>391</ele>
        <time>2022-11-19T14:02:39Z</time>
      </trkpt>
      <trkpt lat="48.98445" lon="7.8406">
        <ele>391</ele>
        <time>2022-11-19T14:02:40Z</time>
      </trkpt>
      <trkpt lat="48.98447" lon="7.84062">
        <ele>391</ele>
        <time>2022-11-19T14:02:41Z</time>
      </trkpt>
      <trkpt lat="48.9845" lon="7.84067">
        <ele>391</ele>
        <time>2022-11-19T14:02:43Z</time>
      </trkpt>
      <trkpt lat="48.98456" lon="7.84073">
        <ele>391</ele>
        <time>2022-11-19T14:02:46Z</time>
      </trkpt>
      <trkpt lat="48.98458" lon="7.84079">
        <ele>391.2</ele>
        <time>2022-11-19T14:02:48Z</time>
      </trkpt>
      <trkpt lat="48.9846" lon="7.84081">
        <ele>391.4</ele>
        <time>2022-11-19T14:02:49Z</time>
      </trkpt>
      <trkpt lat="48.98468" lon="7.84091">
        <ele>391.8</ele>
        <time>2022-11-19T14:02:54Z</time>
      </trkpt>
      <trkpt lat="48.98469" lon="7.84093">
        <ele>391.8</ele>
        <time>2022-11-19T14:02:55Z</time>
      </trkpt>
      <trkpt lat="48.98471" lon="7.84096">
        <ele>391.8</ele>
        <time>2022-11-19T14:02:56Z</time>
      </trkpt>
      <trkpt lat="48.98474" lon="7.84097">
        <ele>392</ele>
        <time>2022-11-19T14:02:57Z</time>
      </trkpt>
      <trkpt lat="48.98476" lon="7.841">
        <ele>392</ele>
        <time>2022-11-19T14:02:58Z</time>
      </trkpt>
      <trkpt lat="48.98478" lon="7.84102">
        <ele>392</ele>
        <time>2022-11-19T14:02:59Z</time>
      </trkpt>
      <trkpt lat="48.9848" lon="7.84105">
        <ele>392.2</ele>
        <time>2022-11-19T14:03:00Z</time>
      </trkpt>
      <trkpt lat="48.98482" lon="7.84108">
        <ele>392.2</ele>
        <time>2022-11-19T14:03:01Z</time>
      </trkpt>
      <trkpt lat="48.98492" lon="7.84118">
        <ele>392.2</ele>
        <time>2022-11-19T14:03:05Z</time>
      </trkpt>
      <trkpt lat="48.98502" lon="7.84134">
        <ele>392.4</ele>
        <time>2022-11-19T14:03:10Z</time>
      </trkpt>
      <trkpt lat="48.98504" lon="7.84137">
        <ele>392.4</ele>
        <time>2022-11-19T14:03:11Z</time>
      </trkpt>
      <trkpt lat="48.9851" lon="7.84147">
        <ele>392.4</ele>
        <time>2022-11-19T14:03:14Z</time>
      </trkpt>
      <trkpt lat="48.98512" lon="7.84153">
        <ele>392.4</ele>
        <time>2022-11-19T14:03:15Z</time>
      </trkpt>
      <trkpt lat="48.98514" lon="7.84156">
        <ele>392.4</ele>
        <time>2022-11-19T14:03:16Z</time>
      </trkpt>
      <trkpt lat="48.9853" lon="7.84172">
        <ele>392.4</ele>
        <time>2022-11-19T14:03:23Z</time>
      </trkpt>
      <trkpt lat="48.98536" lon="7.84175">
        <ele>392.2</ele>
        <time>2022-11-19T14:03:25Z</time>
      </trkpt>
      <trkpt lat="48.98539" lon="7.84176">
        <ele>392.2</ele>
        <time>2022-11-19T14:03:26Z</time>
      </trkpt>
      <trkpt lat="48.98549" lon="7.8418">
        <ele>392</ele>
        <time>2022-11-19T14:03:29Z</time>
      </trkpt>
      <trkpt lat="48.98551" lon="7.84182">
        <ele>392</ele>
        <time>2022-11-19T14:03:30Z</time>
      </trkpt>
      <trkpt lat="48.98554" lon="7.84184">
        <ele>392</ele>
        <time>2022-11-19T14:03:31Z</time>
      </trkpt>
      <trkpt lat="48.9856" lon="7.84187">
        <ele>392</ele>
        <time>2022-11-19T14:03:33Z</time>
      </trkpt>
      <trkpt lat="48.98562" lon="7.84189">
        <ele>392</ele>
        <time>2022-11-19T14:03:34Z</time>
      </trkpt>
      <trkpt lat="48.98565" lon="7.84191">
        <ele>392</ele>
        <time>2022-11-19T14:03:35Z</time>
      </trkpt>
      <trkpt lat="48.98575" lon="7.84196">
        <ele>392</ele>
        <time>2022-11-19T14:03:38Z</time>
      </trkpt>
      <trkpt lat="48.98578" lon="7.84197">
        <ele>392</ele>
        <time>2022-11-19T14:03:39Z</time>
      </trkpt>
      <trkpt lat="48.98581" lon="7.84198">
        <ele>392</ele>
        <time>2022-11-19T14:03:40Z</time>
      </trkpt>
      <trkpt lat="48.98584" lon="7.842">
        <ele>392.2</ele>
        <time>2022-11-19T14:03:41Z</time>
      </trkpt>
      <trkpt lat="48.98586" lon="7.84203">
        <ele>392.2</ele>
        <time>2022-11-19T14:03:42Z</time>
      </trkpt>
      <trkpt lat="48.98588" lon="7.84206">
        <ele>392</ele>
        <time>2022-11-19T14:03:43Z</time>
      </trkpt>
      <trkpt lat="48.9859" lon="7.8421">
        <ele>392</ele>
        <time>2022-11-19T14:03:44Z</time>
      </trkpt>
      <trkpt lat="48.98598" lon="7.84221">
        <ele>392</ele>
        <time>2022-11-19T14:03:47Z</time>
      </trkpt>
      <trkpt lat="48.986" lon="7.84225">
        <ele>392</ele>
        <time>2022-11-19T14:03:48Z</time>
      </trkpt>
      <trkpt lat="48.9861" lon="7.84245">
        <ele>391.8</ele>
        <time>2022-11-19T14:03:53Z</time>
      </trkpt>
      <trkpt lat="48.98613" lon="7.84253">
        <ele>391.8</ele>
        <time>2022-11-19T14:03:55Z</time>
      </trkpt>
      <trkpt lat="48.98615" lon="7.84255">
        <ele>391.8</ele>
        <time>2022-11-19T14:03:56Z</time>
      </trkpt>
      <trkpt lat="48.98615" lon="7.84259">
        <ele>391.6</ele>
        <time>2022-11-19T14:03:57Z</time>
      </trkpt>
      <trkpt lat="48.98616" lon="7.84261">
        <ele>391.6</ele>
        <time>2022-11-19T14:03:58Z</time>
      </trkpt>
      <trkpt lat="48.98615" lon="7.84265">
        <ele>391.6</ele>
        <time>2022-11-19T14:03:59Z</time>
      </trkpt>
      <trkpt lat="48.98615" lon="7.8427">
        <ele>391.6</ele>
        <time>2022-11-19T14:04:00Z</time>
      </trkpt>
      <trkpt lat="48.98614" lon="7.84274">
        <ele>391.6</ele>
        <time>2022-11-19T14:04:01Z</time>
      </trkpt>
      <trkpt lat="48.98614" lon="7.84291">
        <ele>391.4</ele>
        <time>2022-11-19T14:04:04Z</time>
      </trkpt>
      <trkpt lat="48.98615" lon="7.84294">
        <ele>391.4</ele>
        <time>2022-11-19T14:04:05Z</time>
      </trkpt>
      <trkpt lat="48.98618" lon="7.84301">
        <ele>391.4</ele>
        <time>2022-11-19T14:04:06Z</time>
      </trkpt>
      <trkpt lat="48.98621" lon="7.84306">
        <ele>391</ele>
        <time>2022-11-19T14:04:07Z</time>
      </trkpt>
      <trkpt lat="48.98627" lon="7.84321">
        <ele>389.4</ele>
        <time>2022-11-19T14:04:09Z</time>
      </trkpt>
      <trkpt lat="48.98629" lon="7.84327">
        <ele>388.2</ele>
        <time>2022-11-19T14:04:10Z</time>
      </trkpt>
      <trkpt lat="48.9863" lon="7.84334">
        <ele>386.8</ele>
        <time>2022-11-19T14:04:11Z</time>
      </trkpt>
      <trkpt lat="48.98631" lon="7.84342">
        <ele>385.8</ele>
        <time>2022-11-19T14:04:12Z</time>
      </trkpt>
      <trkpt lat="48.98631" lon="7.84351">
        <ele>385</ele>
        <time>2022-11-19T14:04:13Z</time>
      </trkpt>
      <trkpt lat="48.9863" lon="7.84361">
        <ele>384</ele>
        <time>2022-11-19T14:04:14Z</time>
      </trkpt>
      <trkpt lat="48.98631" lon="7.84371">
        <ele>383.2</ele>
        <time>2022-11-19T14:04:15Z</time>
      </trkpt>
      <trkpt lat="48.98633" lon="7.84379">
        <ele>382.4</ele>
        <time>2022-11-19T14:04:16Z</time>
      </trkpt>
      <trkpt lat="48.98636" lon="7.84387">
        <ele>381.4</ele>
        <time>2022-11-19T14:04:17Z</time>
      </trkpt>
      <trkpt lat="48.9864" lon="7.84395">
        <ele>380.8</ele>
        <time>2022-11-19T14:04:18Z</time>
      </trkpt>
      <trkpt lat="48.98642" lon="7.84402">
        <ele>380.2</ele>
        <time>2022-11-19T14:04:19Z</time>
      </trkpt>
      <trkpt lat="48.98645" lon="7.84409">
        <ele>380</ele>
        <time>2022-11-19T14:04:20Z</time>
      </trkpt>
      <trkpt lat="48.98646" lon="7.84418">
        <ele>379</ele>
        <time>2022-11-19T14:04:21Z</time>
      </trkpt>
      <trkpt lat="48.98648" lon="7.84427">
        <ele>377.6</ele>
        <time>2022-11-19T14:04:22Z</time>
      </trkpt>
      <trkpt lat="48.98651" lon="7.84433">
        <ele>376.8</ele>
        <time>2022-11-19T14:04:23Z</time>
      </trkpt>
      <trkpt lat="48.98653" lon="7.84437">
        <ele>376</ele>
        <time>2022-11-19T14:04:24Z</time>
      </trkpt>
      <trkpt lat="48.98656" lon="7.8444">
        <ele>375.4</ele>
        <time>2022-11-19T14:04:25Z</time>
      </trkpt>
      <trkpt lat="48.98659" lon="7.84442">
        <ele>375</ele>
        <time>2022-11-19T14:04:26Z</time>
      </trkpt>
      <trkpt lat="48.98663" lon="7.84444">
        <ele>374.8</ele>
        <time>2022-11-19T14:04:27Z</time>
      </trkpt>
      <trkpt lat="48.98666" lon="7.84445">
        <ele>374.8</ele>
        <time>2022-11-19T14:04:28Z</time>
      </trkpt>
      <trkpt lat="48.98668" lon="7.84447">
        <ele>374.8</ele>
        <time>2022-11-19T14:04:29Z</time>
      </trkpt>
      <trkpt lat="48.9867" lon="7.84451">
        <ele>374.8</ele>
        <time>2022-11-19T14:04:30Z</time>
      </trkpt>
      <trkpt lat="48.98672" lon="7.84454">
        <ele>374.8</ele>
        <time>2022-11-19T14:04:31Z</time>
      </trkpt>
      <trkpt lat="48.98685" lon="7.84468">
        <ele>374.8</ele>
        <time>2022-11-19T14:04:35Z</time>
      </trkpt>
      <trkpt lat="48.98688" lon="7.8447">
        <ele>375</ele>
        <time>2022-11-19T14:04:36Z</time>
      </trkpt>
      <trkpt lat="48.98692" lon="7.84473">
        <ele>375.4</ele>
        <time>2022-11-19T14:04:37Z</time>
      </trkpt>
      <trkpt lat="48.98695" lon="7.84475">
        <ele>375.8</ele>
        <time>2022-11-19T14:04:38Z</time>
      </trkpt>
      <trkpt lat="48.98698" lon="7.84477">
        <ele>376</ele>
        <time>2022-11-19T14:04:39Z</time>
      </trkpt>
      <trkpt lat="48.98702" lon="7.84478">
        <ele>376.2</ele>
        <time>2022-11-19T14:04:40Z</time>
      </trkpt>
      <trkpt lat="48.98708" lon="7.84482">
        <ele>376.6</ele>
        <time>2022-11-19T14:04:42Z</time>
      </trkpt>
      <trkpt lat="48.98709" lon="7.84486">
        <ele>377.2</ele>
        <time>2022-11-19T14:04:43Z</time>
      </trkpt>
      <trkpt lat="48.98711" lon="7.84489">
        <ele>377.6</ele>
        <time>2022-11-19T14:04:44Z</time>
      </trkpt>
      <trkpt lat="48.98713" lon="7.84492">
        <ele>378.2</ele>
        <time>2022-11-19T14:04:45Z</time>
      </trkpt>
      <trkpt lat="48.98716" lon="7.84495">
        <ele>378.6</ele>
        <time>2022-11-19T14:04:46Z</time>
      </trkpt>
      <trkpt lat="48.98719" lon="7.84494">
        <ele>379</ele>
        <time>2022-11-19T14:04:47Z</time>
      </trkpt>
      <trkpt lat="48.98724" lon="7.84498">
        <ele>379.6</ele>
        <time>2022-11-19T14:04:49Z</time>
      </trkpt>
      <trkpt lat="48.98727" lon="7.84499">
        <ele>380</ele>
        <time>2022-11-19T14:04:50Z</time>
      </trkpt>
      <trkpt lat="48.98729" lon="7.84501">
        <ele>380</ele>
        <time>2022-11-19T14:04:51Z</time>
      </trkpt>
      <trkpt lat="48.98731" lon="7.84503">
        <ele>380.2</ele>
        <time>2022-11-19T14:04:52Z</time>
      </trkpt>
      <trkpt lat="48.98733" lon="7.84508">
        <ele>380.2</ele>
        <time>2022-11-19T14:04:53Z</time>
      </trkpt>
      <trkpt lat="48.98735" lon="7.84511">
        <ele>380.2</ele>
        <time>2022-11-19T14:04:54Z</time>
      </trkpt>
      <trkpt lat="48.98737" lon="7.84514">
        <ele>380.4</ele>
        <time>2022-11-19T14:04:55Z</time>
      </trkpt>
      <trkpt lat="48.98738" lon="7.84516">
        <ele>380.4</ele>
        <time>2022-11-19T14:04:56Z</time>
      </trkpt>
      <trkpt lat="48.98741" lon="7.84518">
        <ele>380.4</ele>
        <time>2022-11-19T14:04:57Z</time>
      </trkpt>
      <trkpt lat="48.98743" lon="7.8452">
        <ele>380.4</ele>
        <time>2022-11-19T14:04:58Z</time>
      </trkpt>
      <trkpt lat="48.98745" lon="7.84521">
        <ele>380.4</ele>
        <time>2022-11-19T14:04:59Z</time>
      </trkpt>
      <trkpt lat="48.98747" lon="7.84523">
        <ele>380.4</ele>
        <time>2022-11-19T14:05:00Z</time>
      </trkpt>
      <trkpt lat="48.98749" lon="7.84525">
        <ele>380.6</ele>
        <time>2022-11-19T14:05:01Z</time>
      </trkpt>
      <trkpt lat="48.98752" lon="7.84527">
        <ele>380.6</ele>
        <time>2022-11-19T14:05:02Z</time>
      </trkpt>
      <trkpt lat="48.98754" lon="7.84526">
        <ele>380.6</ele>
        <time>2022-11-19T14:05:03Z</time>
      </trkpt>
      <trkpt lat="48.98756" lon="7.84526">
        <ele>380.6</ele>
        <time>2022-11-19T14:05:04Z</time>
      </trkpt>
      <trkpt lat="48.98757" lon="7.84526">
        <ele>380.6</ele>
        <time>2022-11-19T14:05:05Z</time>
      </trkpt>
      <trkpt lat="48.98759" lon="7.84528">
        <ele>380.6</ele>
        <time>2022-11-19T14:05:06Z</time>
      </trkpt>
      <trkpt lat="48.9876" lon="7.84529">
        <ele>380.6</ele>
        <time>2022-11-19T14:05:07Z</time>
      </trkpt>
      <trkpt lat="48.9876" lon="7.84529">
        <ele>380.8</ele>
        <time>2022-11-19T14:05:08Z</time>
      </trkpt>
      <trkpt lat="48.9876" lon="7.84529">
        <ele>380.6</ele>
        <time>2022-11-19T14:05:09Z</time>
      </trkpt>
      <trkpt lat="48.9876" lon="7.84529">
        <ele>380.6</ele>
        <time>2022-11-19T14:05:10Z</time>
      </trkpt>
      <trkpt lat="48.98763" lon="7.84531">
        <ele>380.2</ele>
        <time>2022-11-19T14:05:59Z</time>
      </trkpt>
      <trkpt lat="48.98769" lon="7.84533">
        <ele>380.2</ele>
        <time>2022-11-19T14:06:01Z</time>
      </trkpt>
      <trkpt lat="48.98791" lon="7.84541">
        <ele>379.6</ele>
        <time>2022-11-19T14:06:06Z</time>
      </trkpt>
      <trkpt lat="48.98799" lon="7.84548">
        <ele>378.6</ele>
        <time>2022-11-19T14:06:08Z</time>
      </trkpt>
      <trkpt lat="48.98801" lon="7.84554">
        <ele>378</ele>
        <time>2022-11-19T14:06:09Z</time>
      </trkpt>
      <trkpt lat="48.98803" lon="7.84559">
        <ele>377.2</ele>
        <time>2022-11-19T14:06:10Z</time>
      </trkpt>
      <trkpt lat="48.98804" lon="7.84563">
        <ele>376.2</ele>
        <time>2022-11-19T14:06:11Z</time>
      </trkpt>
      <trkpt lat="48.98804" lon="7.84566">
        <ele>375.2</ele>
        <time>2022-11-19T14:06:12Z</time>
      </trkpt>
      <trkpt lat="48.98806" lon="7.84569">
        <ele>374</ele>
        <time>2022-11-19T14:06:13Z</time>
      </trkpt>
      <trkpt lat="48.98807" lon="7.84572">
        <ele>373.4</ele>
        <time>2022-11-19T14:06:14Z</time>
      </trkpt>
      <trkpt lat="48.98808" lon="7.84574">
        <ele>373</ele>
        <time>2022-11-19T14:06:15Z</time>
      </trkpt>
      <trkpt lat="48.98809" lon="7.84575">
        <ele>372</ele>
        <time>2022-11-19T14:06:16Z</time>
      </trkpt>
      <trkpt lat="48.98811" lon="7.84576">
        <ele>371.2</ele>
        <time>2022-11-19T14:06:17Z</time>
      </trkpt>
      <trkpt lat="48.98812" lon="7.84575">
        <ele>370.8</ele>
        <time>2022-11-19T14:06:18Z</time>
      </trkpt>
      <trkpt lat="48.98814" lon="7.84573">
        <ele>370.6</ele>
        <time>2022-11-19T14:06:19Z</time>
      </trkpt>
      <trkpt lat="48.9882" lon="7.84567">
        <ele>370.4</ele>
        <time>2022-11-19T14:06:22Z</time>
      </trkpt>
      <trkpt lat="48.98827" lon="7.84558">
        <ele>370.4</ele>
        <time>2022-11-19T14:06:26Z</time>
      </trkpt>
      <trkpt lat="48.98828" lon="7.84556">
        <ele>370.4</ele>
        <time>2022-11-19T14:06:27Z</time>
      </trkpt>
      <trkpt lat="48.98834" lon="7.84547">
        <ele>370.6</ele>
        <time>2022-11-19T14:06:30Z</time>
      </trkpt>
      <trkpt lat="48.98838" lon="7.84538">
        <ele>371.2</ele>
        <time>2022-11-19T14:06:33Z</time>
      </trkpt>
      <trkpt lat="48.98848" lon="7.8452">
        <ele>372.4</ele>
        <time>2022-11-19T14:06:39Z</time>
      </trkpt>
      <trkpt lat="48.98849" lon="7.84517">
        <ele>372.6</ele>
        <time>2022-11-19T14:06:40Z</time>
      </trkpt>
      <trkpt lat="48.98857" lon="7.84502">
        <ele>373.6</ele>
        <time>2022-11-19T14:06:45Z</time>
      </trkpt>
      <trkpt lat="48.9886" lon="7.84497">
        <ele>374</ele>
        <time>2022-11-19T14:06:47Z</time>
      </trkpt>
      <trkpt lat="48.98861" lon="7.84494">
        <ele>374.2</ele>
        <time>2022-11-19T14:06:48Z</time>
      </trkpt>
      <trkpt lat="48.98864" lon="7.84492">
        <ele>374.4</ele>
        <time>2022-11-19T14:06:49Z</time>
      </trkpt>
      <trkpt lat="48.98865" lon="7.84489">
        <ele>374.6</ele>
        <time>2022-11-19T14:06:50Z</time>
      </trkpt>
      <trkpt lat="48.98866" lon="7.84487">
        <ele>374.6</ele>
        <time>2022-11-19T14:06:51Z</time>
      </trkpt>
      <trkpt lat="48.98868" lon="7.84484">
        <ele>374.8</ele>
        <time>2022-11-19T14:06:52Z</time>
      </trkpt>
      <trkpt lat="48.9887" lon="7.84482">
        <ele>375</ele>
        <time>2022-11-19T14:06:53Z</time>
      </trkpt>
      <trkpt lat="48.98872" lon="7.84479">
        <ele>375</ele>
        <time>2022-11-19T14:06:54Z</time>
      </trkpt>
      <trkpt lat="48.98873" lon="7.84478">
        <ele>375.2</ele>
        <time>2022-11-19T14:06:55Z</time>
      </trkpt>
      <trkpt lat="48.98875" lon="7.84477">
        <ele>375.4</ele>
        <time>2022-11-19T14:06:56Z</time>
      </trkpt>
      <trkpt lat="48.98876" lon="7.84476">
        <ele>375.6</ele>
        <time>2022-11-19T14:06:57Z</time>
      </trkpt>
      <trkpt lat="48.98878" lon="7.84474">
        <ele>375.8</ele>
        <time>2022-11-19T14:06:58Z</time>
      </trkpt>
      <trkpt lat="48.9888" lon="7.84474">
        <ele>376</ele>
        <time>2022-11-19T14:06:59Z</time>
      </trkpt>
      <trkpt lat="48.98883" lon="7.84473">
        <ele>376</ele>
        <time>2022-11-19T14:07:00Z</time>
      </trkpt>
      <trkpt lat="48.98885" lon="7.84474">
        <ele>376.2</ele>
        <time>2022-11-19T14:07:01Z</time>
      </trkpt>
      <trkpt lat="48.98889" lon="7.84474">
        <ele>376.4</ele>
        <time>2022-11-19T14:07:02Z</time>
      </trkpt>
      <trkpt lat="48.98894" lon="7.84473">
        <ele>376.6</ele>
        <time>2022-11-19T14:07:03Z</time>
      </trkpt>
      <trkpt lat="48.98896" lon="7.84472">
        <ele>376.6</ele>
        <time>2022-11-19T14:07:04Z</time>
      </trkpt>
      <trkpt lat="48.98898" lon="7.84473">
        <ele>376.6</ele>
        <time>2022-11-19T14:07:05Z</time>
      </trkpt>
      <trkpt lat="48.98899" lon="7.84472">
        <ele>376.6</ele>
        <time>2022-11-19T14:07:06Z</time>
      </trkpt>
      <trkpt lat="48.98902" lon="7.84471">
        <ele>376.6</ele>
        <time>2022-11-19T14:07:07Z</time>
      </trkpt>
      <trkpt lat="48.98906" lon="7.8447">
        <ele>376.6</ele>
        <time>2022-11-19T14:07:08Z</time>
      </trkpt>
      <trkpt lat="48.9891" lon="7.8447">
        <ele>376.6</ele>
        <time>2022-11-19T14:07:09Z</time>
      </trkpt>
      <trkpt lat="48.98913" lon="7.8447">
        <ele>376.6</ele>
        <time>2022-11-19T14:07:10Z</time>
      </trkpt>
      <trkpt lat="48.98916" lon="7.8447">
        <ele>376.6</ele>
        <time>2022-11-19T14:07:11Z</time>
      </trkpt>
      <trkpt lat="48.9892" lon="7.8447">
        <ele>376.6</ele>
        <time>2022-11-19T14:07:12Z</time>
      </trkpt>
      <trkpt lat="48.98924" lon="7.84469">
        <ele>376.6</ele>
        <time>2022-11-19T14:07:13Z</time>
      </trkpt>
      <trkpt lat="48.98927" lon="7.84468">
        <ele>376.4</ele>
        <time>2022-11-19T14:07:14Z</time>
      </trkpt>
      <trkpt lat="48.98931" lon="7.84467">
        <ele>376.2</ele>
        <time>2022-11-19T14:07:15Z</time>
      </trkpt>
      <trkpt lat="48.98935" lon="7.84467">
        <ele>376</ele>
        <time>2022-11-19T14:07:16Z</time>
      </trkpt>
      <trkpt lat="48.98939" lon="7.84465">
        <ele>375.8</ele>
        <time>2022-11-19T14:07:17Z</time>
      </trkpt>
      <trkpt lat="48.98963" lon="7.84467">
        <ele>375</ele>
        <time>2022-11-19T14:07:23Z</time>
      </trkpt>
      <trkpt lat="48.98985" lon="7.84465">
        <ele>374.6</ele>
        <time>2022-11-19T14:07:28Z</time>
      </trkpt>
      <trkpt lat="48.99013" lon="7.84459">
        <ele>373.6</ele>
        <time>2022-11-19T14:07:33Z</time>
      </trkpt>
      <trkpt lat="48.99018" lon="7.84459">
        <ele>373.4</ele>
        <time>2022-11-19T14:07:34Z</time>
      </trkpt>
      <trkpt lat="48.99023" lon="7.84459">
        <ele>373.4</ele>
        <time>2022-11-19T14:07:35Z</time>
      </trkpt>
      <trkpt lat="48.99029" lon="7.84459">
        <ele>373.2</ele>
        <time>2022-11-19T14:07:36Z</time>
      </trkpt>
      <trkpt lat="48.9904" lon="7.84458">
        <ele>372.8</ele>
        <time>2022-11-19T14:07:38Z</time>
      </trkpt>
      <trkpt lat="48.99045" lon="7.84459">
        <ele>372.6</ele>
        <time>2022-11-19T14:07:39Z</time>
      </trkpt>
      <trkpt lat="48.9905" lon="7.8446">
        <ele>372.6</ele>
        <time>2022-11-19T14:07:40Z</time>
      </trkpt>
      <trkpt lat="48.99055" lon="7.8446">
        <ele>372.2</ele>
        <time>2022-11-19T14:07:41Z</time>
      </trkpt>
      <trkpt lat="48.99068" lon="7.84463">
        <ele>371.8</ele>
        <time>2022-11-19T14:07:44Z</time>
      </trkpt>
      <trkpt lat="48.99077" lon="7.84467">
        <ele>371.6</ele>
        <time>2022-11-19T14:07:46Z</time>
      </trkpt>
      <trkpt lat="48.99081" lon="7.84471">
        <ele>371.6</ele>
        <time>2022-11-19T14:07:47Z</time>
      </trkpt>
      <trkpt lat="48.99084" lon="7.84476">
        <ele>371.6</ele>
        <time>2022-11-19T14:07:48Z</time>
      </trkpt>
      <trkpt lat="48.99087" lon="7.84481">
        <ele>371.6</ele>
        <time>2022-11-19T14:07:49Z</time>
      </trkpt>
      <trkpt lat="48.99095" lon="7.84494">
        <ele>371.6</ele>
        <time>2022-11-19T14:07:52Z</time>
      </trkpt>
      <trkpt lat="48.99098" lon="7.84498">
        <ele>371.6</ele>
        <time>2022-11-19T14:07:53Z</time>
      </trkpt>
      <trkpt lat="48.99104" lon="7.84507">
        <ele>371.6</ele>
        <time>2022-11-19T14:07:55Z</time>
      </trkpt>
      <trkpt lat="48.99106" lon="7.84511">
        <ele>371.8</ele>
        <time>2022-11-19T14:07:56Z</time>
      </trkpt>
      <trkpt lat="48.99107" lon="7.84515">
        <ele>372</ele>
        <time>2022-11-19T14:07:57Z</time>
      </trkpt>
      <trkpt lat="48.99109" lon="7.84519">
        <ele>372</ele>
        <time>2022-11-19T14:07:58Z</time>
      </trkpt>
      <trkpt lat="48.9911" lon="7.84523">
        <ele>372</ele>
        <time>2022-11-19T14:07:59Z</time>
      </trkpt>
      <trkpt lat="48.99111" lon="7.84527">
        <ele>372.2</ele>
        <time>2022-11-19T14:08:00Z</time>
      </trkpt>
      <trkpt lat="48.99112" lon="7.84532">
        <ele>372.2</ele>
        <time>2022-11-19T14:08:01Z</time>
      </trkpt>
      <trkpt lat="48.99114" lon="7.84536">
        <ele>372.2</ele>
        <time>2022-11-19T14:08:02Z</time>
      </trkpt>
      <trkpt lat="48.99115" lon="7.84541">
        <ele>372.2</ele>
        <time>2022-11-19T14:08:03Z</time>
      </trkpt>
      <trkpt lat="48.99116" lon="7.84545">
        <ele>372.2</ele>
        <time>2022-11-19T14:08:04Z</time>
      </trkpt>
      <trkpt lat="48.99116" lon="7.84549">
        <ele>372.2</ele>
        <time>2022-11-19T14:08:05Z</time>
      </trkpt>
      <trkpt lat="48.99116" lon="7.84553">
        <ele>372.4</ele>
        <time>2022-11-19T14:08:06Z</time>
      </trkpt>
      <trkpt lat="48.99117" lon="7.84557">
        <ele>372.6</ele>
        <time>2022-11-19T14:08:07Z</time>
      </trkpt>
      <trkpt lat="48.99117" lon="7.84561">
        <ele>372.6</ele>
        <time>2022-11-19T14:08:08Z</time>
      </trkpt>
      <trkpt lat="48.99118" lon="7.84566">
        <ele>372.6</ele>
        <time>2022-11-19T14:08:09Z</time>
      </trkpt>
      <trkpt lat="48.99119" lon="7.8457">
        <ele>372.6</ele>
        <time>2022-11-19T14:08:10Z</time>
      </trkpt>
      <trkpt lat="48.99121" lon="7.84573">
        <ele>372.8</ele>
        <time>2022-11-19T14:08:11Z</time>
      </trkpt>
      <trkpt lat="48.99122" lon="7.84574">
        <ele>372.8</ele>
        <time>2022-11-19T14:08:12Z</time>
      </trkpt>
      <trkpt lat="48.99124" lon="7.84574">
        <ele>373</ele>
        <time>2022-11-19T14:08:13Z</time>
      </trkpt>
      <trkpt lat="48.99126" lon="7.84572">
        <ele>373</ele>
        <time>2022-11-19T14:08:14Z</time>
      </trkpt>
      <trkpt lat="48.99129" lon="7.84569">
        <ele>373.2</ele>
        <time>2022-11-19T14:08:16Z</time>
      </trkpt>
      <trkpt lat="48.99131" lon="7.84567">
        <ele>373.4</ele>
        <time>2022-11-19T14:08:17Z</time>
      </trkpt>
      <trkpt lat="48.99133" lon="7.84565">
        <ele>373.8</ele>
        <time>2022-11-19T14:08:18Z</time>
      </trkpt>
      <trkpt lat="48.99136" lon="7.84564">
        <ele>374.4</ele>
        <time>2022-11-19T14:08:19Z</time>
      </trkpt>
      <trkpt lat="48.99137" lon="7.84563">
        <ele>374.8</ele>
        <time>2022-11-19T14:08:20Z</time>
      </trkpt>
      <trkpt lat="48.99139" lon="7.84561">
        <ele>375</ele>
        <time>2022-11-19T14:08:21Z</time>
      </trkpt>
      <trkpt lat="48.99143" lon="7.84557">
        <ele>375.4</ele>
        <time>2022-11-19T14:08:23Z</time>
      </trkpt>
      <trkpt lat="48.99145" lon="7.84555">
        <ele>375.8</ele>
        <time>2022-11-19T14:08:24Z</time>
      </trkpt>
      <trkpt lat="48.99147" lon="7.84552">
        <ele>376</ele>
        <time>2022-11-19T14:08:25Z</time>
      </trkpt>
      <trkpt lat="48.99148" lon="7.84549">
        <ele>376.4</ele>
        <time>2022-11-19T14:08:26Z</time>
      </trkpt>
      <trkpt lat="48.9915" lon="7.84547">
        <ele>376.6</ele>
        <time>2022-11-19T14:08:27Z</time>
      </trkpt>
      <trkpt lat="48.9915" lon="7.84547">
        <ele>376.8</ele>
        <time>2022-11-19T14:08:28Z</time>
      </trkpt>
      <trkpt lat="48.9915" lon="7.84547">
        <ele>377.2</ele>
        <time>2022-11-19T14:08:29Z</time>
      </trkpt>
      <trkpt lat="48.99151" lon="7.84546">
        <ele>377.4</ele>
        <time>2022-11-19T14:08:30Z</time>
      </trkpt>
      <trkpt lat="48.99151" lon="7.84545">
        <ele>377.6</ele>
        <time>2022-11-19T14:08:31Z</time>
      </trkpt>
      <trkpt lat="48.99151" lon="7.84544">
        <ele>378</ele>
        <time>2022-11-19T14:08:32Z</time>
      </trkpt>
      <trkpt lat="48.99152" lon="7.84543">
        <ele>378</ele>
        <time>2022-11-19T14:08:33Z</time>
      </trkpt>
      <trkpt lat="48.99153" lon="7.84543">
        <ele>378</ele>
        <time>2022-11-19T14:08:34Z</time>
      </trkpt>
      <trkpt lat="48.99154" lon="7.84543">
        <ele>378.4</ele>
        <time>2022-11-19T14:08:35Z</time>
      </trkpt>
      <trkpt lat="48.99157" lon="7.84544">
        <ele>378.6</ele>
        <time>2022-11-19T14:08:36Z</time>
      </trkpt>
      <trkpt lat="48.99158" lon="7.84546">
        <ele>378.6</ele>
        <time>2022-11-19T14:08:37Z</time>
      </trkpt>
      <trkpt lat="48.99159" lon="7.84549">
        <ele>378.8</ele>
        <time>2022-11-19T14:08:38Z</time>
      </trkpt>
      <trkpt lat="48.99161" lon="7.84552">
        <ele>378.8</ele>
        <time>2022-11-19T14:08:39Z</time>
      </trkpt>
      <trkpt lat="48.99162" lon="7.84556">
        <ele>378.8</ele>
        <time>2022-11-19T14:08:40Z</time>
      </trkpt>
      <trkpt lat="48.99163" lon="7.84559">
        <ele>378.8</ele>
        <time>2022-11-19T14:08:41Z</time>
      </trkpt>
      <trkpt lat="48.99164" lon="7.84561">
        <ele>378.8</ele>
        <time>2022-11-19T14:08:42Z</time>
      </trkpt>
      <trkpt lat="48.99165" lon="7.84563">
        <ele>378.8</ele>
        <time>2022-11-19T14:08:43Z</time>
      </trkpt>
      <trkpt lat="48.99166" lon="7.84565">
        <ele>379</ele>
        <time>2022-11-19T14:08:44Z</time>
      </trkpt>
      <trkpt lat="48.99167" lon="7.84568">
        <ele>379</ele>
        <time>2022-11-19T14:08:45Z</time>
      </trkpt>
      <trkpt lat="48.99167" lon="7.8457">
        <ele>378.8</ele>
        <time>2022-11-19T14:08:46Z</time>
      </trkpt>
      <trkpt lat="48.99167" lon="7.84572">
        <ele>379</ele>
        <time>2022-11-19T14:08:47Z</time>
      </trkpt>
      <trkpt lat="48.99167" lon="7.84574">
        <ele>379</ele>
        <time>2022-11-19T14:08:48Z</time>
      </trkpt>
      <trkpt lat="48.99167" lon="7.84574">
        <ele>379</ele>
        <time>2022-11-19T14:08:49Z</time>
      </trkpt>
      <trkpt lat="48.99167" lon="7.84574">
        <ele>379.2</ele>
        <time>2022-11-19T14:08:50Z</time>
      </trkpt>
      <trkpt lat="48.99167" lon="7.84574">
        <ele>379.6</ele>
        <time>2022-11-19T14:08:52Z</time>
      </trkpt>
      <trkpt lat="48.99166" lon="7.84577">
        <ele>380.8</ele>
        <time>2022-11-19T14:09:26Z</time>
      </trkpt>
      <trkpt lat="48.99164" lon="7.84584">
        <ele>381</ele>
        <time>2022-11-19T14:09:28Z</time>
      </trkpt>
      <trkpt lat="48.99163" lon="7.84592">
        <ele>381</ele>
        <time>2022-11-19T14:09:30Z</time>
      </trkpt>
      <trkpt lat="48.99163" lon="7.84597">
        <ele>381</ele>
        <time>2022-11-19T14:09:31Z</time>
      </trkpt>
      <trkpt lat="48.99162" lon="7.846">
        <ele>381</ele>
        <time>2022-11-19T14:09:32Z</time>
      </trkpt>
      <trkpt lat="48.99162" lon="7.84603">
        <ele>381</ele>
        <time>2022-11-19T14:09:33Z</time>
      </trkpt>
      <trkpt lat="48.99161" lon="7.84606">
        <ele>381.2</ele>
        <time>2022-11-19T14:09:34Z</time>
      </trkpt>
      <trkpt lat="48.9916" lon="7.84608">
        <ele>381.2</ele>
        <time>2022-11-19T14:09:35Z</time>
      </trkpt>
      <trkpt lat="48.99159" lon="7.84615">
        <ele>381.4</ele>
        <time>2022-11-19T14:09:37Z</time>
      </trkpt>
      <trkpt lat="48.99158" lon="7.84619">
        <ele>381.4</ele>
        <time>2022-11-19T14:09:38Z</time>
      </trkpt>
      <trkpt lat="48.99158" lon="7.84622">
        <ele>381.6</ele>
        <time>2022-11-19T14:09:39Z</time>
      </trkpt>
      <trkpt lat="48.99158" lon="7.84624">
        <ele>382</ele>
        <time>2022-11-19T14:09:40Z</time>
      </trkpt>
      <trkpt lat="48.99158" lon="7.84626">
        <ele>382.2</ele>
        <time>2022-11-19T14:09:41Z</time>
      </trkpt>
      <trkpt lat="48.99158" lon="7.84629">
        <ele>382.4</ele>
        <time>2022-11-19T14:09:42Z</time>
      </trkpt>
      <trkpt lat="48.99158" lon="7.84631">
        <ele>382.6</ele>
        <time>2022-11-19T14:09:43Z</time>
      </trkpt>
      <trkpt lat="48.99158" lon="7.84634">
        <ele>382.8</ele>
        <time>2022-11-19T14:09:44Z</time>
      </trkpt>
      <trkpt lat="48.99159" lon="7.84636">
        <ele>383</ele>
        <time>2022-11-19T14:09:45Z</time>
      </trkpt>
      <trkpt lat="48.99159" lon="7.84639">
        <ele>383</ele>
        <time>2022-11-19T14:09:46Z</time>
      </trkpt>
      <trkpt lat="48.99159" lon="7.84642">
        <ele>383.2</ele>
        <time>2022-11-19T14:09:47Z</time>
      </trkpt>
      <trkpt lat="48.99159" lon="7.84644">
        <ele>383.2</ele>
        <time>2022-11-19T14:09:48Z</time>
      </trkpt>
      <trkpt lat="48.99159" lon="7.84645">
        <ele>383.4</ele>
        <time>2022-11-19T14:09:49Z</time>
      </trkpt>
      <trkpt lat="48.99158" lon="7.84646">
        <ele>383.6</ele>
        <time>2022-11-19T14:09:50Z</time>
      </trkpt>
      <trkpt lat="48.99157" lon="7.84648">
        <ele>383.6</ele>
        <time>2022-11-19T14:09:51Z</time>
      </trkpt>
      <trkpt lat="48.99156" lon="7.84651">
        <ele>383.8</ele>
        <time>2022-11-19T14:09:52Z</time>
      </trkpt>
      <trkpt lat="48.99153" lon="7.84654">
        <ele>384</ele>
        <time>2022-11-19T14:09:53Z</time>
      </trkpt>
      <trkpt lat="48.99151" lon="7.84656">
        <ele>384.2</ele>
        <time>2022-11-19T14:09:54Z</time>
      </trkpt>
      <trkpt lat="48.99149" lon="7.84658">
        <ele>384.4</ele>
        <time>2022-11-19T14:09:55Z</time>
      </trkpt>
      <trkpt lat="48.99147" lon="7.8466">
        <ele>384.6</ele>
        <time>2022-11-19T14:09:56Z</time>
      </trkpt>
      <trkpt lat="48.99146" lon="7.84662">
        <ele>384.8</ele>
        <time>2022-11-19T14:09:57Z</time>
      </trkpt>
      <trkpt lat="48.99144" lon="7.84666">
        <ele>384.8</ele>
        <time>2022-11-19T14:09:58Z</time>
      </trkpt>
      <trkpt lat="48.99143" lon="7.84671">
        <ele>384.8</ele>
        <time>2022-11-19T14:09:59Z</time>
      </trkpt>
      <trkpt lat="48.99142" lon="7.84677">
        <ele>384.8</ele>
        <time>2022-11-19T14:10:00Z</time>
      </trkpt>
      <trkpt lat="48.99141" lon="7.84682">
        <ele>385</ele>
        <time>2022-11-19T14:10:01Z</time>
      </trkpt>
      <trkpt lat="48.99141" lon="7.84685">
        <ele>385</ele>
        <time>2022-11-19T14:10:02Z</time>
      </trkpt>
      <trkpt lat="48.99141" lon="7.84688">
        <ele>385</ele>
        <time>2022-11-19T14:10:03Z</time>
      </trkpt>
      <trkpt lat="48.99141" lon="7.84691">
        <ele>385.2</ele>
        <time>2022-11-19T14:10:04Z</time>
      </trkpt>
      <trkpt lat="48.99141" lon="7.84695">
        <ele>385.4</ele>
        <time>2022-11-19T14:10:05Z</time>
      </trkpt>
      <trkpt lat="48.99142" lon="7.84698">
        <ele>385.4</ele>
        <time>2022-11-19T14:10:06Z</time>
      </trkpt>
      <trkpt lat="48.99142" lon="7.84701">
        <ele>385.6</ele>
        <time>2022-11-19T14:10:07Z</time>
      </trkpt>
      <trkpt lat="48.99141" lon="7.84703">
        <ele>385.6</ele>
        <time>2022-11-19T14:10:08Z</time>
      </trkpt>
      <trkpt lat="48.99141" lon="7.84704">
        <ele>385.6</ele>
        <time>2022-11-19T14:10:09Z</time>
      </trkpt>
      <trkpt lat="48.9914" lon="7.84707">
        <ele>385.8</ele>
        <time>2022-11-19T14:10:11Z</time>
      </trkpt>
      <trkpt lat="48.99139" lon="7.84717">
        <ele>386</ele>
        <time>2022-11-19T14:10:13Z</time>
      </trkpt>
      <trkpt lat="48.99139" lon="7.84721">
        <ele>386.2</ele>
        <time>2022-11-19T14:10:14Z</time>
      </trkpt>
      <trkpt lat="48.99138" lon="7.84724">
        <ele>386.2</ele>
        <time>2022-11-19T14:10:15Z</time>
      </trkpt>
      <trkpt lat="48.99137" lon="7.84727">
        <ele>386.2</ele>
        <time>2022-11-19T14:10:16Z</time>
      </trkpt>
      <trkpt lat="48.99136" lon="7.8473">
        <ele>386.4</ele>
        <time>2022-11-19T14:10:17Z</time>
      </trkpt>
      <trkpt lat="48.99135" lon="7.84734">
        <ele>386.4</ele>
        <time>2022-11-19T14:10:18Z</time>
      </trkpt>
      <trkpt lat="48.99135" lon="7.84737">
        <ele>386.6</ele>
        <time>2022-11-19T14:10:19Z</time>
      </trkpt>
      <trkpt lat="48.99135" lon="7.8474">
        <ele>386.8</ele>
        <time>2022-11-19T14:10:20Z</time>
      </trkpt>
      <trkpt lat="48.99134" lon="7.84745">
        <ele>386.8</ele>
        <time>2022-11-19T14:10:22Z</time>
      </trkpt>
      <trkpt lat="48.99134" lon="7.84751">
        <ele>387</ele>
        <time>2022-11-19T14:10:24Z</time>
      </trkpt>
      <trkpt lat="48.99132" lon="7.84754">
        <ele>387</ele>
        <time>2022-11-19T14:10:25Z</time>
      </trkpt>
      <trkpt lat="48.99132" lon="7.84754">
        <ele>387.2</ele>
        <time>2022-11-19T14:10:26Z</time>
      </trkpt>
      <trkpt lat="48.99131" lon="7.84756">
        <ele>387.2</ele>
        <time>2022-11-19T14:10:27Z</time>
      </trkpt>
      <trkpt lat="48.9913" lon="7.84757">
        <ele>387.2</ele>
        <time>2022-11-19T14:10:28Z</time>
      </trkpt>
      <trkpt lat="48.9913" lon="7.84757">
        <ele>387.4</ele>
        <time>2022-11-19T14:10:29Z</time>
      </trkpt>
      <trkpt lat="48.9913" lon="7.84757">
        <ele>387.4</ele>
        <time>2022-11-19T14:10:31Z</time>
      </trkpt>
      <trkpt lat="48.99129" lon="7.8476">
        <ele>387.4</ele>
        <time>2022-11-19T14:10:57Z</time>
      </trkpt>
      <trkpt lat="48.99129" lon="7.84768">
        <ele>387.4</ele>
        <time>2022-11-19T14:11:00Z</time>
      </trkpt>
      <trkpt lat="48.99129" lon="7.8477">
        <ele>387.4</ele>
        <time>2022-11-19T14:11:01Z</time>
      </trkpt>
      <trkpt lat="48.99129" lon="7.84773">
        <ele>387.4</ele>
        <time>2022-11-19T14:11:02Z</time>
      </trkpt>
      <trkpt lat="48.99129" lon="7.84775">
        <ele>387.4</ele>
        <time>2022-11-19T14:11:03Z</time>
      </trkpt>
      <trkpt lat="48.99128" lon="7.84777">
        <ele>387.4</ele>
        <time>2022-11-19T14:11:04Z</time>
      </trkpt>
      <trkpt lat="48.99127" lon="7.84778">
        <ele>387.4</ele>
        <time>2022-11-19T14:11:05Z</time>
      </trkpt>
      <trkpt lat="48.99127" lon="7.8478">
        <ele>387.4</ele>
        <time>2022-11-19T14:11:06Z</time>
      </trkpt>
      <trkpt lat="48.99127" lon="7.84782">
        <ele>387.4</ele>
        <time>2022-11-19T14:11:07Z</time>
      </trkpt>
      <trkpt lat="48.99127" lon="7.84784">
        <ele>387.4</ele>
        <time>2022-11-19T14:11:08Z</time>
      </trkpt>
      <trkpt lat="48.99126" lon="7.84787">
        <ele>387.4</ele>
        <time>2022-11-19T14:11:09Z</time>
      </trkpt>
      <trkpt lat="48.99126" lon="7.84789">
        <ele>387.4</ele>
        <time>2022-11-19T14:11:10Z</time>
      </trkpt>
      <trkpt lat="48.99126" lon="7.84792">
        <ele>387.4</ele>
        <time>2022-11-19T14:11:11Z</time>
      </trkpt>
      <trkpt lat="48.99126" lon="7.84798">
        <ele>387.4</ele>
        <time>2022-11-19T14:11:13Z</time>
      </trkpt>
      <trkpt lat="48.99125" lon="7.84801">
        <ele>387.6</ele>
        <time>2022-11-19T14:11:14Z</time>
      </trkpt>
      <trkpt lat="48.99125" lon="7.84804">
        <ele>387.6</ele>
        <time>2022-11-19T14:11:15Z</time>
      </trkpt>
      <trkpt lat="48.99124" lon="7.84808">
        <ele>387.8</ele>
        <time>2022-11-19T14:11:16Z</time>
      </trkpt>
      <trkpt lat="48.99122" lon="7.84815">
        <ele>387.8</ele>
        <time>2022-11-19T14:11:18Z</time>
      </trkpt>
      <trkpt lat="48.99118" lon="7.84831">
        <ele>388.4</ele>
        <time>2022-11-19T14:11:24Z</time>
      </trkpt>
      <trkpt lat="48.99117" lon="7.84834">
        <ele>388.4</ele>
        <time>2022-11-19T14:11:25Z</time>
      </trkpt>
      <trkpt lat="48.99114" lon="7.84837">
        <ele>388.6</ele>
        <time>2022-11-19T14:11:26Z</time>
      </trkpt>
      <trkpt lat="48.99111" lon="7.8484">
        <ele>388.6</ele>
        <time>2022-11-19T14:11:27Z</time>
      </trkpt>
      <trkpt lat="48.99111" lon="7.84841">
        <ele>388.6</ele>
        <time>2022-11-19T14:11:28Z</time>
      </trkpt>
      <trkpt lat="48.99109" lon="7.84844">
        <ele>388.8</ele>
        <time>2022-11-19T14:11:29Z</time>
      </trkpt>
      <trkpt lat="48.99109" lon="7.84846">
        <ele>389</ele>
        <time>2022-11-19T14:11:30Z</time>
      </trkpt>
      <trkpt lat="48.99109" lon="7.84849">
        <ele>389.2</ele>
        <time>2022-11-19T14:11:31Z</time>
      </trkpt>
      <trkpt lat="48.99107" lon="7.84855">
        <ele>389.2</ele>
        <time>2022-11-19T14:11:32Z</time>
      </trkpt>
      <trkpt lat="48.99106" lon="7.84859">
        <ele>389.4</ele>
        <time>2022-11-19T14:11:33Z</time>
      </trkpt>
      <trkpt lat="48.99105" lon="7.8486">
        <ele>389.6</ele>
        <time>2022-11-19T14:11:34Z</time>
      </trkpt>
      <trkpt lat="48.99105" lon="7.8486">
        <ele>389.6</ele>
        <time>2022-11-19T14:11:35Z</time>
      </trkpt>
      <trkpt lat="48.99107" lon="7.84861">
        <ele>389.8</ele>
        <time>2022-11-19T14:11:39Z</time>
      </trkpt>
      <trkpt lat="48.99106" lon="7.84862">
        <ele>390</ele>
        <time>2022-11-19T14:11:42Z</time>
      </trkpt>
      <trkpt lat="48.99104" lon="7.84863">
        <ele>390</ele>
        <time>2022-11-19T14:11:43Z</time>
      </trkpt>
      <trkpt lat="48.99104" lon="7.84864">
        <ele>390</ele>
        <time>2022-11-19T14:11:44Z</time>
      </trkpt>
      <trkpt lat="48.99103" lon="7.84864">
        <ele>390.2</ele>
        <time>2022-11-19T14:11:49Z</time>
      </trkpt>
      <trkpt lat="48.99103" lon="7.84864">
        <ele>390.4</ele>
        <time>2022-11-19T14:11:51Z</time>
      </trkpt>
      <trkpt lat="48.99103" lon="7.84866">
        <ele>390.6</ele>
        <time>2022-11-19T14:11:54Z</time>
      </trkpt>
      <trkpt lat="48.99102" lon="7.84868">
        <ele>390.6</ele>
        <time>2022-11-19T14:11:55Z</time>
      </trkpt>
      <trkpt lat="48.99102" lon="7.84871">
        <ele>390.6</ele>
        <time>2022-11-19T14:11:57Z</time>
      </trkpt>
      <trkpt lat="48.99101" lon="7.84873">
        <ele>390.8</ele>
        <time>2022-11-19T14:11:58Z</time>
      </trkpt>
      <trkpt lat="48.991" lon="7.84875">
        <ele>390.8</ele>
        <time>2022-11-19T14:11:59Z</time>
      </trkpt>
      <trkpt lat="48.99099" lon="7.84878">
        <ele>390.8</ele>
        <time>2022-11-19T14:12:00Z</time>
      </trkpt>
      <trkpt lat="48.99098" lon="7.84881">
        <ele>390.8</ele>
        <time>2022-11-19T14:12:01Z</time>
      </trkpt>
      <trkpt lat="48.99097" lon="7.84884">
        <ele>390.8</ele>
        <time>2022-11-19T14:12:02Z</time>
      </trkpt>
      <trkpt lat="48.99096" lon="7.84887">
        <ele>390.8</ele>
        <time>2022-11-19T14:12:04Z</time>
      </trkpt>
      <trkpt lat="48.99095" lon="7.84891">
        <ele>391</ele>
        <time>2022-11-19T14:12:06Z</time>
      </trkpt>
      <trkpt lat="48.99093" lon="7.84893">
        <ele>391</ele>
        <time>2022-11-19T14:12:07Z</time>
      </trkpt>
      <trkpt lat="48.99087" lon="7.84903">
        <ele>391.4</ele>
        <time>2022-11-19T14:12:11Z</time>
      </trkpt>
      <trkpt lat="48.99085" lon="7.84906">
        <ele>391.4</ele>
        <time>2022-11-19T14:12:12Z</time>
      </trkpt>
      <trkpt lat="48.99085" lon="7.84906">
        <ele>391.6</ele>
        <time>2022-11-19T14:12:13Z</time>
      </trkpt>
      <trkpt lat="48.99084" lon="7.84906">
        <ele>391.6</ele>
        <time>2022-11-19T14:12:14Z</time>
      </trkpt>
      <trkpt lat="48.99083" lon="7.84906">
        <ele>391.8</ele>
        <time>2022-11-19T14:12:15Z</time>
      </trkpt>
      <trkpt lat="48.99082" lon="7.84907">
        <ele>391.8</ele>
        <time>2022-11-19T14:12:16Z</time>
      </trkpt>
      <trkpt lat="48.9908" lon="7.84907">
        <ele>391.8</ele>
        <time>2022-11-19T14:12:17Z</time>
      </trkpt>
      <trkpt lat="48.99078" lon="7.84909">
        <ele>391.8</ele>
        <time>2022-11-19T14:12:18Z</time>
      </trkpt>
      <trkpt lat="48.99075" lon="7.84912">
        <ele>391.8</ele>
        <time>2022-11-19T14:12:19Z</time>
      </trkpt>
      <trkpt lat="48.99074" lon="7.84915">
        <ele>391.8</ele>
        <time>2022-11-19T14:12:20Z</time>
      </trkpt>
      <trkpt lat="48.99073" lon="7.84918">
        <ele>391.8</ele>
        <time>2022-11-19T14:12:21Z</time>
      </trkpt>
      <trkpt lat="48.99073" lon="7.84922">
        <ele>391.8</ele>
        <time>2022-11-19T14:12:22Z</time>
      </trkpt>
      <trkpt lat="48.99071" lon="7.84925">
        <ele>391.8</ele>
        <time>2022-11-19T14:12:23Z</time>
      </trkpt>
      <trkpt lat="48.9907" lon="7.84931">
        <ele>391.8</ele>
        <time>2022-11-19T14:12:25Z</time>
      </trkpt>
      <trkpt lat="48.9907" lon="7.84934">
        <ele>391.8</ele>
        <time>2022-11-19T14:12:26Z</time>
      </trkpt>
      <trkpt lat="48.99069" lon="7.84943">
        <ele>392.2</ele>
        <time>2022-11-19T14:12:29Z</time>
      </trkpt>
      <trkpt lat="48.99066" lon="7.84946">
        <ele>392.2</ele>
        <time>2022-11-19T14:12:30Z</time>
      </trkpt>
      <trkpt lat="48.99063" lon="7.84949">
        <ele>392.2</ele>
        <time>2022-11-19T14:12:31Z</time>
      </trkpt>
      <trkpt lat="48.99062" lon="7.84951">
        <ele>392.2</ele>
        <time>2022-11-19T14:12:32Z</time>
      </trkpt>
      <trkpt lat="48.99062" lon="7.84953">
        <ele>392.2</ele>
        <time>2022-11-19T14:12:33Z</time>
      </trkpt>
      <trkpt lat="48.99062" lon="7.84955">
        <ele>392.2</ele>
        <time>2022-11-19T14:12:34Z</time>
      </trkpt>
      <trkpt lat="48.99061" lon="7.84956">
        <ele>392.4</ele>
        <time>2022-11-19T14:12:35Z</time>
      </trkpt>
      <trkpt lat="48.99061" lon="7.84957">
        <ele>392.4</ele>
        <time>2022-11-19T14:12:36Z</time>
      </trkpt>
      <trkpt lat="48.99061" lon="7.84957">
        <ele>392.8</ele>
        <time>2022-11-19T14:12:37Z</time>
      </trkpt>
      <trkpt lat="48.99061" lon="7.84958">
        <ele>392.8</ele>
        <time>2022-11-19T14:12:38Z</time>
      </trkpt>
      <trkpt lat="48.99062" lon="7.8496">
        <ele>393</ele>
        <time>2022-11-19T14:12:39Z</time>
      </trkpt>
      <trkpt lat="48.99062" lon="7.8496">
        <ele>393.2</ele>
        <time>2022-11-19T14:12:40Z</time>
      </trkpt>
      <trkpt lat="48.99063" lon="7.84959">
        <ele>393.4</ele>
        <time>2022-11-19T14:12:41Z</time>
      </trkpt>
      <trkpt lat="48.99064" lon="7.84957">
        <ele>393.6</ele>
        <time>2022-11-19T14:12:42Z</time>
      </trkpt>
      <trkpt lat="48.99069" lon="7.84937">
        <ele>393.6</ele>
        <time>2022-11-19T14:12:47Z</time>
      </trkpt>
      <trkpt lat="48.99071" lon="7.8493">
        <ele>393.6</ele>
        <time>2022-11-19T14:12:48Z</time>
      </trkpt>
      <trkpt lat="48.99075" lon="7.84911">
        <ele>393.6</ele>
        <time>2022-11-19T14:12:51Z</time>
      </trkpt>
      <trkpt lat="48.99076" lon="7.84904">
        <ele>393.2</ele>
        <time>2022-11-19T14:12:52Z</time>
      </trkpt>
      <trkpt lat="48.99083" lon="7.8488">
        <ele>391.6</ele>
        <time>2022-11-19T14:12:55Z</time>
      </trkpt>
      <trkpt lat="48.99089" lon="7.84861">
        <ele>390.6</ele>
        <time>2022-11-19T14:12:57Z</time>
      </trkpt>
      <trkpt lat="48.9909" lon="7.84853">
        <ele>390.2</ele>
        <time>2022-11-19T14:12:58Z</time>
      </trkpt>
      <trkpt lat="48.99091" lon="7.84845">
        <ele>389.8</ele>
        <time>2022-11-19T14:12:59Z</time>
      </trkpt>
      <trkpt lat="48.9909" lon="7.84839">
        <ele>389.2</ele>
        <time>2022-11-19T14:13:00Z</time>
      </trkpt>
      <trkpt lat="48.9909" lon="7.84835">
        <ele>388.6</ele>
        <time>2022-11-19T14:13:01Z</time>
      </trkpt>
      <trkpt lat="48.99089" lon="7.84833">
        <ele>388</ele>
        <time>2022-11-19T14:13:02Z</time>
      </trkpt>
      <trkpt lat="48.99088" lon="7.84833">
        <ele>387.4</ele>
        <time>2022-11-19T14:13:03Z</time>
      </trkpt>
      <trkpt lat="48.99087" lon="7.84834">
        <ele>386.8</ele>
        <time>2022-11-19T14:13:04Z</time>
      </trkpt>
      <trkpt lat="48.99086" lon="7.84836">
        <ele>386.4</ele>
        <time>2022-11-19T14:13:05Z</time>
      </trkpt>
      <trkpt lat="48.99084" lon="7.84836">
        <ele>386</ele>
        <time>2022-11-19T14:13:06Z</time>
      </trkpt>
      <trkpt lat="48.99084" lon="7.84837">
        <ele>385.8</ele>
        <time>2022-11-19T14:13:07Z</time>
      </trkpt>
      <trkpt lat="48.99084" lon="7.84837">
        <ele>385.6</ele>
        <time>2022-11-19T14:13:08Z</time>
      </trkpt>
      <trkpt lat="48.99083" lon="7.84837">
        <ele>385.6</ele>
        <time>2022-11-19T14:13:09Z</time>
      </trkpt>
      <trkpt lat="48.99082" lon="7.84837">
        <ele>385</ele>
        <time>2022-11-19T14:13:11Z</time>
      </trkpt>
      <trkpt lat="48.99082" lon="7.84838">
        <ele>384.6</ele>
        <time>2022-11-19T14:13:12Z</time>
      </trkpt>
      <trkpt lat="48.99082" lon="7.84838">
        <ele>384.2</ele>
        <time>2022-11-19T14:13:13Z</time>
      </trkpt>
      <trkpt lat="48.99082" lon="7.84838">
        <ele>384</ele>
        <time>2022-11-19T14:13:15Z</time>
      </trkpt>
      <trkpt lat="48.99082" lon="7.84838">
        <ele>383.8</ele>
        <time>2022-11-19T14:13:16Z</time>
      </trkpt>
      <trkpt lat="48.99081" lon="7.84839">
        <ele>383.6</ele>
        <time>2022-11-19T14:13:19Z</time>
      </trkpt>
      <trkpt lat="48.99078" lon="7.8484">
        <ele>383.2</ele>
        <time>2022-11-19T14:13:22Z</time>
      </trkpt>
      <trkpt lat="48.99076" lon="7.84841">
        <ele>383.2</ele>
        <time>2022-11-19T14:13:23Z</time>
      </trkpt>
      <trkpt lat="48.99074" lon="7.84841">
        <ele>383</ele>
        <time>2022-11-19T14:13:24Z</time>
      </trkpt>
      <trkpt lat="48.99072" lon="7.84843">
        <ele>382.8</ele>
        <time>2022-11-19T14:13:25Z</time>
      </trkpt>
      <trkpt lat="48.9907" lon="7.84845">
        <ele>382.6</ele>
        <time>2022-11-19T14:13:26Z</time>
      </trkpt>
      <trkpt lat="48.99065" lon="7.84848">
        <ele>382.4</ele>
        <time>2022-11-19T14:13:28Z</time>
      </trkpt>
      <trkpt lat="48.99063" lon="7.84851">
        <ele>382.4</ele>
        <time>2022-11-19T14:13:29Z</time>
      </trkpt>
      <trkpt lat="48.99042" lon="7.84869">
        <ele>381.4</ele>
        <time>2022-11-19T14:13:34Z</time>
      </trkpt>
      <trkpt lat="48.99028" lon="7.84885">
        <ele>380.4</ele>
        <time>2022-11-19T14:13:37Z</time>
      </trkpt>
      <trkpt lat="48.99023" lon="7.84891">
        <ele>380</ele>
        <time>2022-11-19T14:13:38Z</time>
      </trkpt>
      <trkpt lat="48.99019" lon="7.84898">
        <ele>379</ele>
        <time>2022-11-19T14:13:39Z</time>
      </trkpt>
      <trkpt lat="48.99015" lon="7.84903">
        <ele>378.2</ele>
        <time>2022-11-19T14:13:40Z</time>
      </trkpt>
      <trkpt lat="48.9901" lon="7.84908">
        <ele>377.2</ele>
        <time>2022-11-19T14:13:41Z</time>
      </trkpt>
      <trkpt lat="48.99004" lon="7.84914">
        <ele>376.2</ele>
        <time>2022-11-19T14:13:42Z</time>
      </trkpt>
      <trkpt lat="48.98998" lon="7.84922">
        <ele>375</ele>
        <time>2022-11-19T14:13:43Z</time>
      </trkpt>
      <trkpt lat="48.98984" lon="7.84937">
        <ele>373.6</ele>
        <time>2022-11-19T14:13:45Z</time>
      </trkpt>
      <trkpt lat="48.98974" lon="7.84952">
        <ele>372.8</ele>
        <time>2022-11-19T14:13:47Z</time>
      </trkpt>
      <trkpt lat="48.98969" lon="7.8496">
        <ele>372.2</ele>
        <time>2022-11-19T14:13:48Z</time>
      </trkpt>
      <trkpt lat="48.98965" lon="7.84968">
        <ele>371.4</ele>
        <time>2022-11-19T14:13:49Z</time>
      </trkpt>
      <trkpt lat="48.98961" lon="7.84976">
        <ele>370</ele>
        <time>2022-11-19T14:13:50Z</time>
      </trkpt>
      <trkpt lat="48.98958" lon="7.8498">
        <ele>368.8</ele>
        <time>2022-11-19T14:13:51Z</time>
      </trkpt>
      <trkpt lat="48.98954" lon="7.84982">
        <ele>367.6</ele>
        <time>2022-11-19T14:13:52Z</time>
      </trkpt>
      <trkpt lat="48.98951" lon="7.84983">
        <ele>366.4</ele>
        <time>2022-11-19T14:13:53Z</time>
      </trkpt>
      <trkpt lat="48.98947" lon="7.84983">
        <ele>365.4</ele>
        <time>2022-11-19T14:13:54Z</time>
      </trkpt>
      <trkpt lat="48.98944" lon="7.84983">
        <ele>364.6</ele>
        <time>2022-11-19T14:13:55Z</time>
      </trkpt>
      <trkpt lat="48.98941" lon="7.84983">
        <ele>364</ele>
        <time>2022-11-19T14:13:56Z</time>
      </trkpt>
      <trkpt lat="48.98932" lon="7.84987">
        <ele>363.4</ele>
        <time>2022-11-19T14:13:58Z</time>
      </trkpt>
      <trkpt lat="48.98928" lon="7.84989">
        <ele>363.2</ele>
        <time>2022-11-19T14:13:59Z</time>
      </trkpt>
      <trkpt lat="48.98926" lon="7.8499">
        <ele>362.4</ele>
        <time>2022-11-19T14:14:00Z</time>
      </trkpt>
      <trkpt lat="48.98925" lon="7.84992">
        <ele>362</ele>
        <time>2022-11-19T14:14:01Z</time>
      </trkpt>
      <trkpt lat="48.98924" lon="7.84995">
        <ele>361</ele>
        <time>2022-11-19T14:14:02Z</time>
      </trkpt>
      <trkpt lat="48.98923" lon="7.84998">
        <ele>360</ele>
        <time>2022-11-19T14:14:03Z</time>
      </trkpt>
      <trkpt lat="48.98922" lon="7.85002">
        <ele>359</ele>
        <time>2022-11-19T14:14:04Z</time>
      </trkpt>
      <trkpt lat="48.98919" lon="7.85007">
        <ele>358.6</ele>
        <time>2022-11-19T14:14:05Z</time>
      </trkpt>
      <trkpt lat="48.98916" lon="7.85012">
        <ele>358.2</ele>
        <time>2022-11-19T14:14:06Z</time>
      </trkpt>
      <trkpt lat="48.98908" lon="7.8503">
        <ele>357.2</ele>
        <time>2022-11-19T14:14:09Z</time>
      </trkpt>
      <trkpt lat="48.98906" lon="7.85034">
        <ele>357</ele>
        <time>2022-11-19T14:14:10Z</time>
      </trkpt>
      <trkpt lat="48.98894" lon="7.85048">
        <ele>356.2</ele>
        <time>2022-11-19T14:14:14Z</time>
      </trkpt>
      <trkpt lat="48.98893" lon="7.85049">
        <ele>355.8</ele>
        <time>2022-11-19T14:14:15Z</time>
      </trkpt>
      <trkpt lat="48.98892" lon="7.85048">
        <ele>355.8</ele>
        <time>2022-11-19T14:14:16Z</time>
      </trkpt>
      <trkpt lat="48.98891" lon="7.85047">
        <ele>355.4</ele>
        <time>2022-11-19T14:14:17Z</time>
      </trkpt>
      <trkpt lat="48.9889" lon="7.85046">
        <ele>354.8</ele>
        <time>2022-11-19T14:14:18Z</time>
      </trkpt>
      <trkpt lat="48.9889" lon="7.85043">
        <ele>354.2</ele>
        <time>2022-11-19T14:14:19Z</time>
      </trkpt>
      <trkpt lat="48.9889" lon="7.85039">
        <ele>353.6</ele>
        <time>2022-11-19T14:14:20Z</time>
      </trkpt>
      <trkpt lat="48.9889" lon="7.85034">
        <ele>353.2</ele>
        <time>2022-11-19T14:14:21Z</time>
      </trkpt>
      <trkpt lat="48.98891" lon="7.8503">
        <ele>352.8</ele>
        <time>2022-11-19T14:14:22Z</time>
      </trkpt>
      <trkpt lat="48.98891" lon="7.85027">
        <ele>352.4</ele>
        <time>2022-11-19T14:14:23Z</time>
      </trkpt>
      <trkpt lat="48.98892" lon="7.85023">
        <ele>352</ele>
        <time>2022-11-19T14:14:24Z</time>
      </trkpt>
      <trkpt lat="48.98891" lon="7.85019">
        <ele>351.2</ele>
        <time>2022-11-19T14:14:25Z</time>
      </trkpt>
      <trkpt lat="48.98892" lon="7.85015">
        <ele>350.6</ele>
        <time>2022-11-19T14:14:26Z</time>
      </trkpt>
      <trkpt lat="48.98893" lon="7.85009">
        <ele>350</ele>
        <time>2022-11-19T14:14:27Z</time>
      </trkpt>
      <trkpt lat="48.98896" lon="7.84995">
        <ele>348.8</ele>
        <time>2022-11-19T14:14:29Z</time>
      </trkpt>
      <trkpt lat="48.98898" lon="7.8499">
        <ele>348.4</ele>
        <time>2022-11-19T14:14:30Z</time>
      </trkpt>
      <trkpt lat="48.98902" lon="7.84979">
        <ele>347.4</ele>
        <time>2022-11-19T14:14:32Z</time>
      </trkpt>
      <trkpt lat="48.98905" lon="7.84965">
        <ele>346.8</ele>
        <time>2022-11-19T14:14:34Z</time>
      </trkpt>
      <trkpt lat="48.98905" lon="7.84959">
        <ele>346.4</ele>
        <time>2022-11-19T14:14:35Z</time>
      </trkpt>
      <trkpt lat="48.98905" lon="7.84954">
        <ele>346.2</ele>
        <time>2022-11-19T14:14:36Z</time>
      </trkpt>
      <trkpt lat="48.98903" lon="7.84952">
        <ele>345.6</ele>
        <time>2022-11-19T14:14:37Z</time>
      </trkpt>
      <trkpt lat="48.98902" lon="7.84952">
        <ele>345.4</ele>
        <time>2022-11-19T14:14:38Z</time>
      </trkpt>
      <trkpt lat="48.98902" lon="7.84952">
        <ele>345.2</ele>
        <time>2022-11-19T14:14:39Z</time>
      </trkpt>
      <trkpt lat="48.98903" lon="7.84949">
        <ele>344.6</ele>
        <time>2022-11-19T14:15:55Z</time>
      </trkpt>
      <trkpt lat="48.98907" lon="7.84943">
        <ele>344.6</ele>
        <time>2022-11-19T14:15:57Z</time>
      </trkpt>
      <trkpt lat="48.98911" lon="7.84933">
        <ele>344.6</ele>
        <time>2022-11-19T14:16:00Z</time>
      </trkpt>
      <trkpt lat="48.98915" lon="7.84924">
        <ele>344.6</ele>
        <time>2022-11-19T14:16:02Z</time>
      </trkpt>
      <trkpt lat="48.98921" lon="7.84908">
        <ele>345</ele>
        <time>2022-11-19T14:16:07Z</time>
      </trkpt>
      <trkpt lat="48.98921" lon="7.84905">
        <ele>345.4</ele>
        <time>2022-11-19T14:16:08Z</time>
      </trkpt>
      <trkpt lat="48.98921" lon="7.84902">
        <ele>345.6</ele>
        <time>2022-11-19T14:16:09Z</time>
      </trkpt>
      <trkpt lat="48.98922" lon="7.84899">
        <ele>345.8</ele>
        <time>2022-11-19T14:16:10Z</time>
      </trkpt>
      <trkpt lat="48.98927" lon="7.84886">
        <ele>346.6</ele>
        <time>2022-11-19T14:16:13Z</time>
      </trkpt>
      <trkpt lat="48.98927" lon="7.84883">
        <ele>346.6</ele>
        <time>2022-11-19T14:16:14Z</time>
      </trkpt>
      <trkpt lat="48.98927" lon="7.8488">
        <ele>346.6</ele>
        <time>2022-11-19T14:16:15Z</time>
      </trkpt>
      <trkpt lat="48.98925" lon="7.84878">
        <ele>346.6</ele>
        <time>2022-11-19T14:16:16Z</time>
      </trkpt>
      <trkpt lat="48.98923" lon="7.84879">
        <ele>346.6</ele>
        <time>2022-11-19T14:16:17Z</time>
      </trkpt>
      <trkpt lat="48.98916" lon="7.84889">
        <ele>346.6</ele>
        <time>2022-11-19T14:16:20Z</time>
      </trkpt>
      <trkpt lat="48.98914" lon="7.84892">
        <ele>346.4</ele>
        <time>2022-11-19T14:16:21Z</time>
      </trkpt>
      <trkpt lat="48.98911" lon="7.84899">
        <ele>346.2</ele>
        <time>2022-11-19T14:16:23Z</time>
      </trkpt>
      <trkpt lat="48.9891" lon="7.84902">
        <ele>345.6</ele>
        <time>2022-11-19T14:16:24Z</time>
      </trkpt>
      <trkpt lat="48.98907" lon="7.84911">
        <ele>344.6</ele>
        <time>2022-11-19T14:16:26Z</time>
      </trkpt>
      <trkpt lat="48.98904" lon="7.84916">
        <ele>344.2</ele>
        <time>2022-11-19T14:16:27Z</time>
      </trkpt>
      <trkpt lat="48.98894" lon="7.84927">
        <ele>344</ele>
        <time>2022-11-19T14:16:29Z</time>
      </trkpt>
      <trkpt lat="48.98891" lon="7.84933">
        <ele>343.8</ele>
        <time>2022-11-19T14:16:30Z</time>
      </trkpt>
      <trkpt lat="48.98885" lon="7.84946">
        <ele>342.8</ele>
        <time>2022-11-19T14:16:32Z</time>
      </trkpt>
      <trkpt lat="48.98882" lon="7.84953">
        <ele>342.4</ele>
        <time>2022-11-19T14:16:33Z</time>
      </trkpt>
      <trkpt lat="48.98879" lon="7.84958">
        <ele>342</ele>
        <time>2022-11-19T14:16:34Z</time>
      </trkpt>
      <trkpt lat="48.98877" lon="7.84963">
        <ele>341.4</ele>
        <time>2022-11-19T14:16:35Z</time>
      </trkpt>
      <trkpt lat="48.98875" lon="7.84968">
        <ele>341</ele>
        <time>2022-11-19T14:16:36Z</time>
      </trkpt>
      <trkpt lat="48.98871" lon="7.84973">
        <ele>340.4</ele>
        <time>2022-11-19T14:16:37Z</time>
      </trkpt>
      <trkpt lat="48.98868" lon="7.84978">
        <ele>340</ele>
        <time>2022-11-19T14:16:38Z</time>
      </trkpt>
      <trkpt lat="48.98863" lon="7.84985">
        <ele>339.4</ele>
        <time>2022-11-19T14:16:39Z</time>
      </trkpt>
      <trkpt lat="48.98858" lon="7.84994">
        <ele>338.8</ele>
        <time>2022-11-19T14:16:40Z</time>
      </trkpt>
      <trkpt lat="48.98851" lon="7.85008">
        <ele>338.2</ele>
        <time>2022-11-19T14:16:42Z</time>
      </trkpt>
      <trkpt lat="48.98847" lon="7.85015">
        <ele>338</ele>
        <time>2022-11-19T14:16:43Z</time>
      </trkpt>
      <trkpt lat="48.98842" lon="7.85025">
        <ele>337.4</ele>
        <time>2022-11-19T14:16:44Z</time>
      </trkpt>
      <trkpt lat="48.98838" lon="7.85033">
        <ele>336.8</ele>
        <time>2022-11-19T14:16:45Z</time>
      </trkpt>
      <trkpt lat="48.98834" lon="7.8504">
        <ele>336.2</ele>
        <time>2022-11-19T14:16:46Z</time>
      </trkpt>
      <trkpt lat="48.98829" lon="7.85046">
        <ele>335.8</ele>
        <time>2022-11-19T14:16:47Z</time>
      </trkpt>
      <trkpt lat="48.98824" lon="7.85055">
        <ele>335.2</ele>
        <time>2022-11-19T14:16:48Z</time>
      </trkpt>
      <trkpt lat="48.98817" lon="7.85071">
        <ele>333.8</ele>
        <time>2022-11-19T14:16:50Z</time>
      </trkpt>
      <trkpt lat="48.98809" lon="7.85086">
        <ele>332</ele>
        <time>2022-11-19T14:16:52Z</time>
      </trkpt>
      <trkpt lat="48.98801" lon="7.85099">
        <ele>331.4</ele>
        <time>2022-11-19T14:16:54Z</time>
      </trkpt>
      <trkpt lat="48.98798" lon="7.85103">
        <ele>330.2</ele>
        <time>2022-11-19T14:16:55Z</time>
      </trkpt>
      <trkpt lat="48.98796" lon="7.85106">
        <ele>329.4</ele>
        <time>2022-11-19T14:16:56Z</time>
      </trkpt>
      <trkpt lat="48.98795" lon="7.8511">
        <ele>328.8</ele>
        <time>2022-11-19T14:16:57Z</time>
      </trkpt>
      <trkpt lat="48.98795" lon="7.85114">
        <ele>328.2</ele>
        <time>2022-11-19T14:16:58Z</time>
      </trkpt>
      <trkpt lat="48.98795" lon="7.85118">
        <ele>327.4</ele>
        <time>2022-11-19T14:16:59Z</time>
      </trkpt>
      <trkpt lat="48.98795" lon="7.85122">
        <ele>327.4</ele>
        <time>2022-11-19T14:17:00Z</time>
      </trkpt>
      <trkpt lat="48.98795" lon="7.85125">
        <ele>326.4</ele>
        <time>2022-11-19T14:17:01Z</time>
      </trkpt>
      <trkpt lat="48.98796" lon="7.85128">
        <ele>325.8</ele>
        <time>2022-11-19T14:17:02Z</time>
      </trkpt>
      <trkpt lat="48.98796" lon="7.85131">
        <ele>325.4</ele>
        <time>2022-11-19T14:17:03Z</time>
      </trkpt>
      <trkpt lat="48.98797" lon="7.85134">
        <ele>325</ele>
        <time>2022-11-19T14:17:04Z</time>
      </trkpt>
      <trkpt lat="48.98798" lon="7.85136">
        <ele>324.4</ele>
        <time>2022-11-19T14:17:05Z</time>
      </trkpt>
      <trkpt lat="48.98799" lon="7.85138">
        <ele>324</ele>
        <time>2022-11-19T14:17:06Z</time>
      </trkpt>
      <trkpt lat="48.98799" lon="7.8514">
        <ele>323.6</ele>
        <time>2022-11-19T14:17:07Z</time>
      </trkpt>
      <trkpt lat="48.988" lon="7.85142">
        <ele>323.6</ele>
        <time>2022-11-19T14:17:08Z</time>
      </trkpt>
      <trkpt lat="48.988" lon="7.85144">
        <ele>323.2</ele>
        <time>2022-11-19T14:17:09Z</time>
      </trkpt>
      <trkpt lat="48.98801" lon="7.85147">
        <ele>323</ele>
        <time>2022-11-19T14:17:10Z</time>
      </trkpt>
      <trkpt lat="48.98802" lon="7.8515">
        <ele>323</ele>
        <time>2022-11-19T14:17:11Z</time>
      </trkpt>
      <trkpt lat="48.98802" lon="7.8516">
        <ele>322.2</ele>
        <time>2022-11-19T14:17:13Z</time>
      </trkpt>
      <trkpt lat="48.98802" lon="7.85165">
        <ele>322</ele>
        <time>2022-11-19T14:17:14Z</time>
      </trkpt>
      <trkpt lat="48.98801" lon="7.8517">
        <ele>321.8</ele>
        <time>2022-11-19T14:17:15Z</time>
      </trkpt>
      <trkpt lat="48.98801" lon="7.85173">
        <ele>321.6</ele>
        <time>2022-11-19T14:17:16Z</time>
      </trkpt>
      <trkpt lat="48.98801" lon="7.85176">
        <ele>321.2</ele>
        <time>2022-11-19T14:17:17Z</time>
      </trkpt>
      <trkpt lat="48.98802" lon="7.8518">
        <ele>320.8</ele>
        <time>2022-11-19T14:17:18Z</time>
      </trkpt>
      <trkpt lat="48.98803" lon="7.85183">
        <ele>320.2</ele>
        <time>2022-11-19T14:17:19Z</time>
      </trkpt>
      <trkpt lat="48.98804" lon="7.85187">
        <ele>319.8</ele>
        <time>2022-11-19T14:17:20Z</time>
      </trkpt>
      <trkpt lat="48.98805" lon="7.8519">
        <ele>319.6</ele>
        <time>2022-11-19T14:17:21Z</time>
      </trkpt>
      <trkpt lat="48.98805" lon="7.85191">
        <ele>319.2</ele>
        <time>2022-11-19T14:17:23Z</time>
      </trkpt>
      <trkpt lat="48.98805" lon="7.85193">
        <ele>319</ele>
        <time>2022-11-19T14:17:24Z</time>
      </trkpt>
      <trkpt lat="48.98806" lon="7.85195">
        <ele>318.8</ele>
        <time>2022-11-19T14:17:25Z</time>
      </trkpt>
      <trkpt lat="48.98808" lon="7.85198">
        <ele>318.6</ele>
        <time>2022-11-19T14:17:27Z</time>
      </trkpt>
      <trkpt lat="48.98809" lon="7.85199">
        <ele>318.4</ele>
        <time>2022-11-19T14:17:28Z</time>
      </trkpt>
      <trkpt lat="48.98809" lon="7.85199">
        <ele>318.4</ele>
        <time>2022-11-19T14:17:29Z</time>
      </trkpt>
      <trkpt lat="48.98809" lon="7.852">
        <ele>318.2</ele>
        <time>2022-11-19T14:17:31Z</time>
      </trkpt>
      <trkpt lat="48.98808" lon="7.85201">
        <ele>318</ele>
        <time>2022-11-19T14:17:32Z</time>
      </trkpt>
      <trkpt lat="48.9881" lon="7.8521">
        <ele>317.8</ele>
        <time>2022-11-19T14:17:35Z</time>
      </trkpt>
      <trkpt lat="48.98809" lon="7.85217">
        <ele>317.6</ele>
        <time>2022-11-19T14:17:37Z</time>
      </trkpt>
      <trkpt lat="48.9881" lon="7.85221">
        <ele>317.6</ele>
        <time>2022-11-19T14:17:38Z</time>
      </trkpt>
      <trkpt lat="48.98811" lon="7.85232">
        <ele>317.4</ele>
        <time>2022-11-19T14:17:40Z</time>
      </trkpt>
      <trkpt lat="48.98812" lon="7.85238">
        <ele>317.4</ele>
        <time>2022-11-19T14:17:41Z</time>
      </trkpt>
      <trkpt lat="48.98813" lon="7.8526">
        <ele>316.6</ele>
        <time>2022-11-19T14:17:44Z</time>
      </trkpt>
      <trkpt lat="48.98813" lon="7.85274">
        <ele>316</ele>
        <time>2022-11-19T14:17:46Z</time>
      </trkpt>
      <trkpt lat="48.98812" lon="7.85277">
        <ele>315.6</ele>
        <time>2022-11-19T14:17:47Z</time>
      </trkpt>
      <trkpt lat="48.98808" lon="7.8528">
        <ele>315.2</ele>
        <time>2022-11-19T14:17:48Z</time>
      </trkpt>
      <trkpt lat="48.98802" lon="7.85283">
        <ele>314.4</ele>
        <time>2022-11-19T14:17:49Z</time>
      </trkpt>
      <trkpt lat="48.98789" lon="7.85283">
        <ele>313</ele>
        <time>2022-11-19T14:17:51Z</time>
      </trkpt>
      <trkpt lat="48.98781" lon="7.85283">
        <ele>312.4</ele>
        <time>2022-11-19T14:17:52Z</time>
      </trkpt>
      <trkpt lat="48.98773" lon="7.85285">
        <ele>311.8</ele>
        <time>2022-11-19T14:17:53Z</time>
      </trkpt>
      <trkpt lat="48.98768" lon="7.85286">
        <ele>311.8</ele>
        <time>2022-11-19T14:17:54Z</time>
      </trkpt>
      <trkpt lat="48.98762" lon="7.85289">
        <ele>311.4</ele>
        <time>2022-11-19T14:17:55Z</time>
      </trkpt>
      <trkpt lat="48.98758" lon="7.85292">
        <ele>310.4</ele>
        <time>2022-11-19T14:17:56Z</time>
      </trkpt>
      <trkpt lat="48.98754" lon="7.85297">
        <ele>308</ele>
        <time>2022-11-19T14:17:57Z</time>
      </trkpt>
      <trkpt lat="48.9875" lon="7.85303">
        <ele>306</ele>
        <time>2022-11-19T14:17:58Z</time>
      </trkpt>
      <trkpt lat="48.98745" lon="7.85308">
        <ele>305</ele>
        <time>2022-11-19T14:17:59Z</time>
      </trkpt>
      <trkpt lat="48.98743" lon="7.85313">
        <ele>303.4</ele>
        <time>2022-11-19T14:18:00Z</time>
      </trkpt>
      <trkpt lat="48.98741" lon="7.85317">
        <ele>302</ele>
        <time>2022-11-19T14:18:01Z</time>
      </trkpt>
      <trkpt lat="48.98738" lon="7.8532">
        <ele>300.4</ele>
        <time>2022-11-19T14:18:02Z</time>
      </trkpt>
      <trkpt lat="48.98732" lon="7.85325">
        <ele>299.6</ele>
        <time>2022-11-19T14:18:03Z</time>
      </trkpt>
      <trkpt lat="48.98727" lon="7.8533">
        <ele>299</ele>
        <time>2022-11-19T14:18:04Z</time>
      </trkpt>
      <trkpt lat="48.98721" lon="7.85335">
        <ele>298.6</ele>
        <time>2022-11-19T14:18:05Z</time>
      </trkpt>
      <trkpt lat="48.98715" lon="7.85339">
        <ele>298</ele>
        <time>2022-11-19T14:18:06Z</time>
      </trkpt>
      <trkpt lat="48.98698" lon="7.85344">
        <ele>297</ele>
        <time>2022-11-19T14:18:09Z</time>
      </trkpt>
      <trkpt lat="48.98693" lon="7.85346">
        <ele>296</ele>
        <time>2022-11-19T14:18:10Z</time>
      </trkpt>
      <trkpt lat="48.9869" lon="7.85347">
        <ele>295.4</ele>
        <time>2022-11-19T14:18:11Z</time>
      </trkpt>
      <trkpt lat="48.98687" lon="7.8535">
        <ele>294.6</ele>
        <time>2022-11-19T14:18:12Z</time>
      </trkpt>
      <trkpt lat="48.98684" lon="7.85355">
        <ele>293.8</ele>
        <time>2022-11-19T14:18:13Z</time>
      </trkpt>
      <trkpt lat="48.98678" lon="7.85361">
        <ele>291.8</ele>
        <time>2022-11-19T14:18:15Z</time>
      </trkpt>
      <trkpt lat="48.98675" lon="7.85364">
        <ele>291</ele>
        <time>2022-11-19T14:18:16Z</time>
      </trkpt>
      <trkpt lat="48.98673" lon="7.85366">
        <ele>290</ele>
        <time>2022-11-19T14:18:17Z</time>
      </trkpt>
      <trkpt lat="48.98672" lon="7.85368">
        <ele>289.4</ele>
        <time>2022-11-19T14:18:18Z</time>
      </trkpt>
      <trkpt lat="48.98672" lon="7.85368">
        <ele>289</ele>
        <time>2022-11-19T14:18:19Z</time>
      </trkpt>
      <trkpt lat="48.98672" lon="7.85368">
        <ele>288.4</ele>
        <time>2022-11-19T14:18:21Z</time>
      </trkpt>
      <trkpt lat="48.98666" lon="7.85368">
        <ele>286</ele>
        <time>2022-11-19T14:18:27Z</time>
      </trkpt>
      <trkpt lat="48.98658" lon="7.85365">
        <ele>285.8</ele>
        <time>2022-11-19T14:18:29Z</time>
      </trkpt>
      <trkpt lat="48.98655" lon="7.85361">
        <ele>285.8</ele>
        <time>2022-11-19T14:18:30Z</time>
      </trkpt>
      <trkpt lat="48.9865" lon="7.85357">
        <ele>285.8</ele>
        <time>2022-11-19T14:18:31Z</time>
      </trkpt>
      <trkpt lat="48.98647" lon="7.85354">
        <ele>285.8</ele>
        <time>2022-11-19T14:18:32Z</time>
      </trkpt>
      <trkpt lat="48.98633" lon="7.85347">
        <ele>284.4</ele>
        <time>2022-11-19T14:18:35Z</time>
      </trkpt>
      <trkpt lat="48.98621" lon="7.85342">
        <ele>283.4</ele>
        <time>2022-11-19T14:18:37Z</time>
      </trkpt>
      <trkpt lat="48.98607" lon="7.85338">
        <ele>282.6</ele>
        <time>2022-11-19T14:18:39Z</time>
      </trkpt>
      <trkpt lat="48.986" lon="7.85336">
        <ele>282.4</ele>
        <time>2022-11-19T14:18:40Z</time>
      </trkpt>
      <trkpt lat="48.98594" lon="7.85333">
        <ele>281.8</ele>
        <time>2022-11-19T14:18:41Z</time>
      </trkpt>
      <trkpt lat="48.98587" lon="7.85329">
        <ele>281</ele>
        <time>2022-11-19T14:18:42Z</time>
      </trkpt>
      <trkpt lat="48.98581" lon="7.85325">
        <ele>279.8</ele>
        <time>2022-11-19T14:18:43Z</time>
      </trkpt>
      <trkpt lat="48.98578" lon="7.85322">
        <ele>279.2</ele>
        <time>2022-11-19T14:18:44Z</time>
      </trkpt>
      <trkpt lat="48.98575" lon="7.8532">
        <ele>277.8</ele>
        <time>2022-11-19T14:18:45Z</time>
      </trkpt>
      <trkpt lat="48.98572" lon="7.8532">
        <ele>276.6</ele>
        <time>2022-11-19T14:18:46Z</time>
      </trkpt>
      <trkpt lat="48.98568" lon="7.85319">
        <ele>275.6</ele>
        <time>2022-11-19T14:18:47Z</time>
      </trkpt>
      <trkpt lat="48.98566" lon="7.85319">
        <ele>275</ele>
        <time>2022-11-19T14:18:48Z</time>
      </trkpt>
      <trkpt lat="48.98563" lon="7.8532">
        <ele>274.2</ele>
        <time>2022-11-19T14:18:49Z</time>
      </trkpt>
      <trkpt lat="48.98562" lon="7.85322">
        <ele>274.2</ele>
        <time>2022-11-19T14:18:50Z</time>
      </trkpt>
      <trkpt lat="48.9856" lon="7.85323">
        <ele>273.6</ele>
        <time>2022-11-19T14:18:51Z</time>
      </trkpt>
      <trkpt lat="48.98556" lon="7.85324">
        <ele>273</ele>
        <time>2022-11-19T14:18:53Z</time>
      </trkpt>
      <trkpt lat="48.98551" lon="7.8533">
        <ele>272.8</ele>
        <time>2022-11-19T14:18:55Z</time>
      </trkpt>
      <trkpt lat="48.98551" lon="7.85333">
        <ele>272.6</ele>
        <time>2022-11-19T14:18:56Z</time>
      </trkpt>
      <trkpt lat="48.98551" lon="7.85335">
        <ele>272.6</ele>
        <time>2022-11-19T14:18:57Z</time>
      </trkpt>
      <trkpt lat="48.98554" lon="7.85337">
        <ele>272.4</ele>
        <time>2022-11-19T14:18:59Z</time>
      </trkpt>
      <trkpt lat="48.98556" lon="7.85338">
        <ele>272.4</ele>
        <time>2022-11-19T14:19:00Z</time>
      </trkpt>
      <trkpt lat="48.98557" lon="7.8534">
        <ele>272.2</ele>
        <time>2022-11-19T14:19:01Z</time>
      </trkpt>
      <trkpt lat="48.98557" lon="7.85342">
        <ele>272.2</ele>
        <time>2022-11-19T14:19:02Z</time>
      </trkpt>
      <trkpt lat="48.98558" lon="7.85344">
        <ele>272.2</ele>
        <time>2022-11-19T14:19:03Z</time>
      </trkpt>
      <trkpt lat="48.98557" lon="7.85347">
        <ele>272.2</ele>
        <time>2022-11-19T14:19:04Z</time>
      </trkpt>
      <trkpt lat="48.98558" lon="7.85348">
        <ele>272.2</ele>
        <time>2022-11-19T14:19:05Z</time>
      </trkpt>
      <trkpt lat="48.98558" lon="7.85348">
        <ele>272.2</ele>
        <time>2022-11-19T14:19:06Z</time>
      </trkpt>
      <trkpt lat="48.98559" lon="7.85346">
        <ele>272.4</ele>
        <time>2022-11-19T14:19:07Z</time>
      </trkpt>
      <trkpt lat="48.98555" lon="7.85335">
        <ele>272</ele>
        <time>2022-11-19T14:19:11Z</time>
      </trkpt>
      <trkpt lat="48.98553" lon="7.85332">
        <ele>271.8</ele>
        <time>2022-11-19T14:19:12Z</time>
      </trkpt>
      <trkpt lat="48.98551" lon="7.85329">
        <ele>271.8</ele>
        <time>2022-11-19T14:19:13Z</time>
      </trkpt>
      <trkpt lat="48.98538" lon="7.8531">
        <ele>271.6</ele>
        <time>2022-11-19T14:19:18Z</time>
      </trkpt>
      <trkpt lat="48.98528" lon="7.85297">
        <ele>270.4</ele>
        <time>2022-11-19T14:19:21Z</time>
      </trkpt>
      <trkpt lat="48.98522" lon="7.8529">
        <ele>269.4</ele>
        <time>2022-11-19T14:19:23Z</time>
      </trkpt>
      <trkpt lat="48.98518" lon="7.85285">
        <ele>268.8</ele>
        <time>2022-11-19T14:19:24Z</time>
      </trkpt>
      <trkpt lat="48.98503" lon="7.85273">
        <ele>267.4</ele>
        <time>2022-11-19T14:19:27Z</time>
      </trkpt>
      <trkpt lat="48.98494" lon="7.85265">
        <ele>266.8</ele>
        <time>2022-11-19T14:19:29Z</time>
      </trkpt>
      <trkpt lat="48.98486" lon="7.85253">
        <ele>266.2</ele>
        <time>2022-11-19T14:19:31Z</time>
      </trkpt>
      <trkpt lat="48.98484" lon="7.85245">
        <ele>265.8</ele>
        <time>2022-11-19T14:19:32Z</time>
      </trkpt>
      <trkpt lat="48.98482" lon="7.85237">
        <ele>265.6</ele>
        <time>2022-11-19T14:19:33Z</time>
      </trkpt>
      <trkpt lat="48.98481" lon="7.85229">
        <ele>265.2</ele>
        <time>2022-11-19T14:19:34Z</time>
      </trkpt>
      <trkpt lat="48.9848" lon="7.85221">
        <ele>265</ele>
        <time>2022-11-19T14:19:35Z</time>
      </trkpt>
      <trkpt lat="48.98476" lon="7.85188">
        <ele>263.8</ele>
        <time>2022-11-19T14:19:39Z</time>
      </trkpt>
      <trkpt lat="48.98469" lon="7.85126">
        <ele>262.8</ele>
        <time>2022-11-19T14:19:46Z</time>
      </trkpt>
      <trkpt lat="48.98463" lon="7.85092">
        <ele>261.8</ele>
        <time>2022-11-19T14:19:50Z</time>
      </trkpt>
      <trkpt lat="48.98463" lon="7.85084">
        <ele>261.6</ele>
        <time>2022-11-19T14:19:51Z</time>
      </trkpt>
      <trkpt lat="48.98463" lon="7.85068">
        <ele>261.2</ele>
        <time>2022-11-19T14:19:53Z</time>
      </trkpt>
      <trkpt lat="48.98464" lon="7.8506">
        <ele>261</ele>
        <time>2022-11-19T14:19:54Z</time>
      </trkpt>
      <trkpt lat="48.98465" lon="7.85053">
        <ele>260.8</ele>
        <time>2022-11-19T14:19:55Z</time>
      </trkpt>
      <trkpt lat="48.98466" lon="7.85046">
        <ele>260.4</ele>
        <time>2022-11-19T14:19:56Z</time>
      </trkpt>
      <trkpt lat="48.98467" lon="7.85039">
        <ele>260.4</ele>
        <time>2022-11-19T14:19:57Z</time>
      </trkpt>
      <trkpt lat="48.98469" lon="7.85032">
        <ele>260.2</ele>
        <time>2022-11-19T14:19:58Z</time>
      </trkpt>
      <trkpt lat="48.98472" lon="7.85019">
        <ele>260</ele>
        <time>2022-11-19T14:20:00Z</time>
      </trkpt>
      <trkpt lat="48.98477" lon="7.85006">
        <ele>259.4</ele>
        <time>2022-11-19T14:20:02Z</time>
      </trkpt>
      <trkpt lat="48.9848" lon="7.84999">
        <ele>259</ele>
        <time>2022-11-19T14:20:03Z</time>
      </trkpt>
      <trkpt lat="48.98487" lon="7.84984">
        <ele>258.6</ele>
        <time>2022-11-19T14:20:05Z</time>
      </trkpt>
      <trkpt lat="48.9849" lon="7.84978">
        <ele>258.4</ele>
        <time>2022-11-19T14:20:06Z</time>
      </trkpt>
      <trkpt lat="48.98492" lon="7.84971">
        <ele>258</ele>
        <time>2022-11-19T14:20:07Z</time>
      </trkpt>
      <trkpt lat="48.98494" lon="7.84964">
        <ele>257.8</ele>
        <time>2022-11-19T14:20:08Z</time>
      </trkpt>
      <trkpt lat="48.98496" lon="7.84956">
        <ele>257.6</ele>
        <time>2022-11-19T14:20:09Z</time>
      </trkpt>
      <trkpt lat="48.98498" lon="7.84949">
        <ele>257.2</ele>
        <time>2022-11-19T14:20:10Z</time>
      </trkpt>
      <trkpt lat="48.98499" lon="7.84941">
        <ele>257</ele>
        <time>2022-11-19T14:20:11Z</time>
      </trkpt>
      <trkpt lat="48.985" lon="7.84935">
        <ele>256.8</ele>
        <time>2022-11-19T14:20:12Z</time>
      </trkpt>
      <trkpt lat="48.985" lon="7.8493">
        <ele>256.8</ele>
        <time>2022-11-19T14:20:13Z</time>
      </trkpt>
      <trkpt lat="48.98501" lon="7.84927">
        <ele>256.8</ele>
        <time>2022-11-19T14:20:14Z</time>
      </trkpt>
      <trkpt lat="48.98502" lon="7.84925">
        <ele>256.8</ele>
        <time>2022-11-19T14:20:15Z</time>
      </trkpt>
      <trkpt lat="48.98503" lon="7.84924">
        <ele>256.8</ele>
        <time>2022-11-19T14:20:16Z</time>
      </trkpt>
      <trkpt lat="48.98504" lon="7.84922">
        <ele>256.8</ele>
        <time>2022-11-19T14:20:17Z</time>
      </trkpt>
      <trkpt lat="48.98505" lon="7.8492">
        <ele>256.8</ele>
        <time>2022-11-19T14:20:18Z</time>
      </trkpt>
      <trkpt lat="48.98506" lon="7.84918">
        <ele>256.8</ele>
        <time>2022-11-19T14:20:19Z</time>
      </trkpt>
      <trkpt lat="48.98508" lon="7.84917">
        <ele>256.8</ele>
        <time>2022-11-19T14:20:20Z</time>
      </trkpt>
      <trkpt lat="48.98508" lon="7.84915">
        <ele>257</ele>
        <time>2022-11-19T14:20:21Z</time>
      </trkpt>
      <trkpt lat="48.98509" lon="7.84914">
        <ele>257.4</ele>
        <time>2022-11-19T14:20:22Z</time>
      </trkpt>
      <trkpt lat="48.98509" lon="7.84912">
        <ele>257.8</ele>
        <time>2022-11-19T14:20:23Z</time>
      </trkpt>
      <trkpt lat="48.98508" lon="7.84908">
        <ele>258.2</ele>
        <time>2022-11-19T14:20:25Z</time>
      </trkpt>
      <trkpt lat="48.98507" lon="7.84905">
        <ele>258.2</ele>
        <time>2022-11-19T14:20:26Z</time>
      </trkpt>
      <trkpt lat="48.98507" lon="7.84903">
        <ele>258.6</ele>
        <time>2022-11-19T14:20:27Z</time>
      </trkpt>
      <trkpt lat="48.98506" lon="7.849">
        <ele>258.6</ele>
        <time>2022-11-19T14:20:28Z</time>
      </trkpt>
      <trkpt lat="48.98507" lon="7.84895">
        <ele>258.8</ele>
        <time>2022-11-19T14:20:30Z</time>
      </trkpt>
      <trkpt lat="48.98507" lon="7.84892">
        <ele>258.8</ele>
        <time>2022-11-19T14:20:31Z</time>
      </trkpt>
      <trkpt lat="48.98507" lon="7.84889">
        <ele>258.8</ele>
        <time>2022-11-19T14:20:32Z</time>
      </trkpt>
      <trkpt lat="48.98507" lon="7.84887">
        <ele>258.8</ele>
        <time>2022-11-19T14:20:33Z</time>
      </trkpt>
      <trkpt lat="48.98507" lon="7.84885">
        <ele>258.8</ele>
        <time>2022-11-19T14:20:34Z</time>
      </trkpt>
      <trkpt lat="48.98507" lon="7.84883">
        <ele>259</ele>
        <time>2022-11-19T14:20:35Z</time>
      </trkpt>
      <trkpt lat="48.98506" lon="7.8488">
        <ele>259</ele>
        <time>2022-11-19T14:20:37Z</time>
      </trkpt>
      <trkpt lat="48.98505" lon="7.84878">
        <ele>259.2</ele>
        <time>2022-11-19T14:20:38Z</time>
      </trkpt>
      <trkpt lat="48.98504" lon="7.84878">
        <ele>259.2</ele>
        <time>2022-11-19T14:20:39Z</time>
      </trkpt>
      <trkpt lat="48.98504" lon="7.84877">
        <ele>259.4</ele>
        <time>2022-11-19T14:20:40Z</time>
      </trkpt>
      <trkpt lat="48.98504" lon="7.84877">
        <ele>259.6</ele>
        <time>2022-11-19T14:20:41Z</time>
      </trkpt>
      <trkpt lat="48.98504" lon="7.84875">
        <ele>259.8</ele>
        <time>2022-11-19T14:20:42Z</time>
      </trkpt>
      <trkpt lat="48.98504" lon="7.84873">
        <ele>260.2</ele>
        <time>2022-11-19T14:20:43Z</time>
      </trkpt>
      <trkpt lat="48.98506" lon="7.84873">
        <ele>260.4</ele>
        <time>2022-11-19T14:20:44Z</time>
      </trkpt>
      <trkpt lat="48.98507" lon="7.84872">
        <ele>260.4</ele>
        <time>2022-11-19T14:20:45Z</time>
      </trkpt>
      <trkpt lat="48.98506" lon="7.84872">
        <ele>261</ele>
        <time>2022-11-19T14:20:46Z</time>
      </trkpt>
      <trkpt lat="48.98508" lon="7.84871">
        <ele>261.6</ele>
        <time>2022-11-19T14:20:48Z</time>
      </trkpt>
      <trkpt lat="48.98508" lon="7.84871">
        <ele>262</ele>
        <time>2022-11-19T14:20:49Z</time>
      </trkpt>
      <trkpt lat="48.98509" lon="7.84871">
        <ele>262.4</ele>
        <time>2022-11-19T14:20:50Z</time>
      </trkpt>
      <trkpt lat="48.98509" lon="7.84871">
        <ele>262.6</ele>
        <time>2022-11-19T14:20:51Z</time>
      </trkpt>
      <trkpt lat="48.98509" lon="7.84871">
        <ele>262.8</ele>
        <time>2022-11-19T14:20:52Z</time>
      </trkpt>
      <trkpt lat="48.9851" lon="7.84871">
        <ele>263</ele>
        <time>2022-11-19T14:20:53Z</time>
      </trkpt>
      <trkpt lat="48.9851" lon="7.84871">
        <ele>263.2</ele>
        <time>2022-11-19T14:20:54Z</time>
      </trkpt>
      <trkpt lat="48.9851" lon="7.8487">
        <ele>263.2</ele>
        <time>2022-11-19T14:20:55Z</time>
      </trkpt>
      <trkpt lat="48.98511" lon="7.8487">
        <ele>263.4</ele>
        <time>2022-11-19T14:20:56Z</time>
      </trkpt>
      <trkpt lat="48.98512" lon="7.84869">
        <ele>263.4</ele>
        <time>2022-11-19T14:20:57Z</time>
      </trkpt>
      <trkpt lat="48.98512" lon="7.8487">
        <ele>263.6</ele>
        <time>2022-11-19T14:20:58Z</time>
      </trkpt>
      <trkpt lat="48.98512" lon="7.8487">
        <ele>263.6</ele>
        <time>2022-11-19T14:20:59Z</time>
      </trkpt>
      <trkpt lat="48.98512" lon="7.8487">
        <ele>263.8</ele>
        <time>2022-11-19T14:21:00Z</time>
      </trkpt>
      <trkpt lat="48.98512" lon="7.84866">
        <ele>265.4</ele>
        <time>2022-11-19T14:21:09Z</time>
      </trkpt>
      <trkpt lat="48.98512" lon="7.84863">
        <ele>265.8</ele>
        <time>2022-11-19T14:21:10Z</time>
      </trkpt>
      <trkpt lat="48.98512" lon="7.8486">
        <ele>266.2</ele>
        <time>2022-11-19T14:21:11Z</time>
      </trkpt>
      <trkpt lat="48.98512" lon="7.84858">
        <ele>266.4</ele>
        <time>2022-11-19T14:21:12Z</time>
      </trkpt>
      <trkpt lat="48.98511" lon="7.84854">
        <ele>266.8</ele>
        <time>2022-11-19T14:21:13Z</time>
      </trkpt>
      <trkpt lat="48.98511" lon="7.84853">
        <ele>267</ele>
        <time>2022-11-19T14:21:14Z</time>
      </trkpt>
      <trkpt lat="48.9851" lon="7.84851">
        <ele>267.2</ele>
        <time>2022-11-19T14:21:15Z</time>
      </trkpt>
      <trkpt lat="48.9851" lon="7.8485">
        <ele>267.4</ele>
        <time>2022-11-19T14:21:16Z</time>
      </trkpt>
      <trkpt lat="48.98509" lon="7.84849">
        <ele>267.6</ele>
        <time>2022-11-19T14:21:17Z</time>
      </trkpt>
      <trkpt lat="48.98509" lon="7.84849">
        <ele>268</ele>
        <time>2022-11-19T14:21:18Z</time>
      </trkpt>
      <trkpt lat="48.98509" lon="7.84849">
        <ele>268.6</ele>
        <time>2022-11-19T14:21:20Z</time>
      </trkpt>
      <trkpt lat="48.98504" lon="7.84848">
        <ele>269.4</ele>
        <time>2022-11-19T14:21:22Z</time>
      </trkpt>
      <trkpt lat="48.98504" lon="7.84848">
        <ele>269.8</ele>
        <time>2022-11-19T14:21:23Z</time>
      </trkpt>
      <trkpt lat="48.98502" lon="7.84848">
        <ele>270</ele>
        <time>2022-11-19T14:21:24Z</time>
      </trkpt>
      <trkpt lat="48.985" lon="7.84846">
        <ele>270</ele>
        <time>2022-11-19T14:21:25Z</time>
      </trkpt>
      <trkpt lat="48.98499" lon="7.84844">
        <ele>270.2</ele>
        <time>2022-11-19T14:21:26Z</time>
      </trkpt>
      <trkpt lat="48.98498" lon="7.84841">
        <ele>270.2</ele>
        <time>2022-11-19T14:21:27Z</time>
      </trkpt>
      <trkpt lat="48.98498" lon="7.84837">
        <ele>270.4</ele>
        <time>2022-11-19T14:21:28Z</time>
      </trkpt>
      <trkpt lat="48.98497" lon="7.84837">
        <ele>270.6</ele>
        <time>2022-11-19T14:21:29Z</time>
      </trkpt>
      <trkpt lat="48.98497" lon="7.84834">
        <ele>270.6</ele>
        <time>2022-11-19T14:21:30Z</time>
      </trkpt>
      <trkpt lat="48.98497" lon="7.84831">
        <ele>270.8</ele>
        <time>2022-11-19T14:21:31Z</time>
      </trkpt>
      <trkpt lat="48.98498" lon="7.8483">
        <ele>270.8</ele>
        <time>2022-11-19T14:21:32Z</time>
      </trkpt>
      <trkpt lat="48.98499" lon="7.84829">
        <ele>271</ele>
        <time>2022-11-19T14:21:33Z</time>
      </trkpt>
      <trkpt lat="48.985" lon="7.84828">
        <ele>271</ele>
        <time>2022-11-19T14:21:34Z</time>
      </trkpt>
      <trkpt lat="48.98501" lon="7.84828">
        <ele>271.4</ele>
        <time>2022-11-19T14:21:35Z</time>
      </trkpt>
      <trkpt lat="48.98501" lon="7.84828">
        <ele>271.6</ele>
        <time>2022-11-19T14:21:36Z</time>
      </trkpt>
      <trkpt lat="48.98502" lon="7.84828">
        <ele>272</ele>
        <time>2022-11-19T14:21:37Z</time>
      </trkpt>
      <trkpt lat="48.98502" lon="7.84828">
        <ele>272.2</ele>
        <time>2022-11-19T14:21:38Z</time>
      </trkpt>
      <trkpt lat="48.98502" lon="7.84829">
        <ele>272.6</ele>
        <time>2022-11-19T14:21:39Z</time>
      </trkpt>
      <trkpt lat="48.98502" lon="7.84828">
        <ele>273</ele>
        <time>2022-11-19T14:21:40Z</time>
      </trkpt>
      <trkpt lat="48.98503" lon="7.84828">
        <ele>273.2</ele>
        <time>2022-11-19T14:21:41Z</time>
      </trkpt>
      <trkpt lat="48.98504" lon="7.84828">
        <ele>273.6</ele>
        <time>2022-11-19T14:21:42Z</time>
      </trkpt>
      <trkpt lat="48.98505" lon="7.84828">
        <ele>273.8</ele>
        <time>2022-11-19T14:21:43Z</time>
      </trkpt>
      <trkpt lat="48.98507" lon="7.84828">
        <ele>274</ele>
        <time>2022-11-19T14:21:44Z</time>
      </trkpt>
      <trkpt lat="48.98508" lon="7.84828">
        <ele>274.2</ele>
        <time>2022-11-19T14:21:45Z</time>
      </trkpt>
      <trkpt lat="48.9851" lon="7.84828">
        <ele>274.4</ele>
        <time>2022-11-19T14:21:46Z</time>
      </trkpt>
      <trkpt lat="48.98512" lon="7.84826">
        <ele>274.6</ele>
        <time>2022-11-19T14:21:47Z</time>
      </trkpt>
      <trkpt lat="48.98515" lon="7.84826">
        <ele>274.8</ele>
        <time>2022-11-19T14:21:48Z</time>
      </trkpt>
      <trkpt lat="48.98516" lon="7.84825">
        <ele>275</ele>
        <time>2022-11-19T14:21:49Z</time>
      </trkpt>
      <trkpt lat="48.98517" lon="7.84825">
        <ele>275.2</ele>
        <time>2022-11-19T14:21:50Z</time>
      </trkpt>
      <trkpt lat="48.98517" lon="7.84825">
        <ele>275.4</ele>
        <time>2022-11-19T14:21:51Z</time>
      </trkpt>
      <trkpt lat="48.98517" lon="7.84825">
        <ele>275.6</ele>
        <time>2022-11-19T14:21:52Z</time>
      </trkpt>
      <trkpt lat="48.98517" lon="7.84821">
        <ele>275.8</ele>
        <time>2022-11-19T14:21:53Z</time>
      </trkpt>
      <trkpt lat="48.98517" lon="7.8482">
        <ele>276</ele>
        <time>2022-11-19T14:21:54Z</time>
      </trkpt>
      <trkpt lat="48.98518" lon="7.8482">
        <ele>276.2</ele>
        <time>2022-11-19T14:21:55Z</time>
      </trkpt>
      <trkpt lat="48.98519" lon="7.84819">
        <ele>276.2</ele>
        <time>2022-11-19T14:21:56Z</time>
      </trkpt>
      <trkpt lat="48.98519" lon="7.84818">
        <ele>276.6</ele>
        <time>2022-11-19T14:21:57Z</time>
      </trkpt>
      <trkpt lat="48.98519" lon="7.84815">
        <ele>276.8</ele>
        <time>2022-11-19T14:21:58Z</time>
      </trkpt>
      <trkpt lat="48.98518" lon="7.84814">
        <ele>277.2</ele>
        <time>2022-11-19T14:21:59Z</time>
      </trkpt>
      <trkpt lat="48.98518" lon="7.84812">
        <ele>277.4</ele>
        <time>2022-11-19T14:22:00Z</time>
      </trkpt>
      <trkpt lat="48.98519" lon="7.8481">
        <ele>277.6</ele>
        <time>2022-11-19T14:22:01Z</time>
      </trkpt>
      <trkpt lat="48.98518" lon="7.84809">
        <ele>278</ele>
        <time>2022-11-19T14:22:02Z</time>
      </trkpt>
      <trkpt lat="48.98518" lon="7.84806">
        <ele>278.4</ele>
        <time>2022-11-19T14:22:03Z</time>
      </trkpt>
      <trkpt lat="48.98518" lon="7.84804">
        <ele>278.8</ele>
        <time>2022-11-19T14:22:04Z</time>
      </trkpt>
      <trkpt lat="48.98517" lon="7.84802">
        <ele>279</ele>
        <time>2022-11-19T14:22:05Z</time>
      </trkpt>
      <trkpt lat="48.98518" lon="7.84801">
        <ele>279.2</ele>
        <time>2022-11-19T14:22:06Z</time>
      </trkpt>
      <trkpt lat="48.98519" lon="7.84799">
        <ele>279.4</ele>
        <time>2022-11-19T14:22:07Z</time>
      </trkpt>
      <trkpt lat="48.98522" lon="7.84796">
        <ele>279.4</ele>
        <time>2022-11-19T14:22:08Z</time>
      </trkpt>
      <trkpt lat="48.98524" lon="7.84794">
        <ele>279.8</ele>
        <time>2022-11-19T14:22:09Z</time>
      </trkpt>
      <trkpt lat="48.98525" lon="7.84794">
        <ele>280.2</ele>
        <time>2022-11-19T14:22:11Z</time>
      </trkpt>
      <trkpt lat="48.98529" lon="7.84785">
        <ele>281</ele>
        <time>2022-11-19T14:22:15Z</time>
      </trkpt>
      <trkpt lat="48.98526" lon="7.84786">
        <ele>281.4</ele>
        <time>2022-11-19T14:22:16Z</time>
      </trkpt>
      <trkpt lat="48.98526" lon="7.84783">
        <ele>281.6</ele>
        <time>2022-11-19T14:22:17Z</time>
      </trkpt>
      <trkpt lat="48.98526" lon="7.84782">
        <ele>282</ele>
        <time>2022-11-19T14:22:18Z</time>
      </trkpt>
      <trkpt lat="48.98526" lon="7.8478">
        <ele>282.4</ele>
        <time>2022-11-19T14:22:19Z</time>
      </trkpt>
      <trkpt lat="48.98526" lon="7.8478">
        <ele>282.6</ele>
        <time>2022-11-19T14:22:20Z</time>
      </trkpt>
      <trkpt lat="48.98526" lon="7.84779">
        <ele>282.8</ele>
        <time>2022-11-19T14:22:21Z</time>
      </trkpt>
      <trkpt lat="48.98526" lon="7.84777">
        <ele>283.2</ele>
        <time>2022-11-19T14:22:22Z</time>
      </trkpt>
      <trkpt lat="48.98526" lon="7.84775">
        <ele>283.4</ele>
        <time>2022-11-19T14:22:23Z</time>
      </trkpt>
      <trkpt lat="48.98526" lon="7.84773">
        <ele>283.6</ele>
        <time>2022-11-19T14:22:24Z</time>
      </trkpt>
      <trkpt lat="48.98526" lon="7.84771">
        <ele>283.8</ele>
        <time>2022-11-19T14:22:25Z</time>
      </trkpt>
      <trkpt lat="48.98525" lon="7.84769">
        <ele>283.8</ele>
        <time>2022-11-19T14:22:26Z</time>
      </trkpt>
      <trkpt lat="48.98525" lon="7.84769">
        <ele>284</ele>
        <time>2022-11-19T14:22:27Z</time>
      </trkpt>
      <trkpt lat="48.98524" lon="7.84768">
        <ele>284.2</ele>
        <time>2022-11-19T14:22:28Z</time>
      </trkpt>
      <trkpt lat="48.98524" lon="7.84768">
        <ele>284.6</ele>
        <time>2022-11-19T14:22:30Z</time>
      </trkpt>
      <trkpt lat="48.98523" lon="7.84765">
        <ele>285</ele>
        <time>2022-11-19T14:22:51Z</time>
      </trkpt>
      <trkpt lat="48.98521" lon="7.84761">
        <ele>285</ele>
        <time>2022-11-19T14:22:53Z</time>
      </trkpt>
      <trkpt lat="48.9852" lon="7.84758">
        <ele>285</ele>
        <time>2022-11-19T14:22:54Z</time>
      </trkpt>
      <trkpt lat="48.98518" lon="7.84756">
        <ele>285</ele>
        <time>2022-11-19T14:22:55Z</time>
      </trkpt>
      <trkpt lat="48.98516" lon="7.84753">
        <ele>285</ele>
        <time>2022-11-19T14:22:56Z</time>
      </trkpt>
      <trkpt lat="48.98512" lon="7.84746">
        <ele>284.8</ele>
        <time>2022-11-19T14:22:58Z</time>
      </trkpt>
      <trkpt lat="48.9851" lon="7.84743">
        <ele>284.8</ele>
        <time>2022-11-19T14:22:59Z</time>
      </trkpt>
      <trkpt lat="48.98501" lon="7.84732">
        <ele>284.6</ele>
        <time>2022-11-19T14:23:03Z</time>
      </trkpt>
      <trkpt lat="48.98496" lon="7.84725">
        <ele>284.6</ele>
        <time>2022-11-19T14:23:05Z</time>
      </trkpt>
      <trkpt lat="48.98493" lon="7.8472">
        <ele>284.6</ele>
        <time>2022-11-19T14:23:06Z</time>
      </trkpt>
      <trkpt lat="48.9849" lon="7.84716">
        <ele>284.6</ele>
        <time>2022-11-19T14:23:07Z</time>
      </trkpt>
      <trkpt lat="48.98473" lon="7.84692">
        <ele>284.4</ele>
        <time>2022-11-19T14:23:13Z</time>
      </trkpt>
      <trkpt lat="48.9847" lon="7.84689">
        <ele>284.2</ele>
        <time>2022-11-19T14:23:14Z</time>
      </trkpt>
      <trkpt lat="48.98467" lon="7.84685">
        <ele>284.2</ele>
        <time>2022-11-19T14:23:15Z</time>
      </trkpt>
      <trkpt lat="48.9846" lon="7.8468">
        <ele>284</ele>
        <time>2022-11-19T14:23:17Z</time>
      </trkpt>
      <trkpt lat="48.98458" lon="7.84677">
        <ele>284</ele>
        <time>2022-11-19T14:23:18Z</time>
      </trkpt>
      <trkpt lat="48.98453" lon="7.84662">
        <ele>284</ele>
        <time>2022-11-19T14:23:20Z</time>
      </trkpt>
      <trkpt lat="48.98448" lon="7.84657">
        <ele>284</ele>
        <time>2022-11-19T14:23:21Z</time>
      </trkpt>
      <trkpt lat="48.98435" lon="7.84642">
        <ele>283.8</ele>
        <time>2022-11-19T14:23:25Z</time>
      </trkpt>
      <trkpt lat="48.98433" lon="7.84636">
        <ele>283.8</ele>
        <time>2022-11-19T14:23:26Z</time>
      </trkpt>
      <trkpt lat="48.98432" lon="7.84631">
        <ele>283.8</ele>
        <time>2022-11-19T14:23:27Z</time>
      </trkpt>
      <trkpt lat="48.9843" lon="7.84627">
        <ele>283.8</ele>
        <time>2022-11-19T14:23:28Z</time>
      </trkpt>
      <trkpt lat="48.98426" lon="7.84621">
        <ele>283.8</ele>
        <time>2022-11-19T14:23:30Z</time>
      </trkpt>
      <trkpt lat="48.98422" lon="7.84614">
        <ele>284</ele>
        <time>2022-11-19T14:23:33Z</time>
      </trkpt>
      <trkpt lat="48.9842" lon="7.84612">
        <ele>284</ele>
        <time>2022-11-19T14:23:34Z</time>
      </trkpt>
      <trkpt lat="48.98416" lon="7.8461">
        <ele>284</ele>
        <time>2022-11-19T14:23:35Z</time>
      </trkpt>
      <trkpt lat="48.98412" lon="7.84606">
        <ele>284</ele>
        <time>2022-11-19T14:23:36Z</time>
      </trkpt>
      <trkpt lat="48.98405" lon="7.84587">
        <ele>284</ele>
        <time>2022-11-19T14:23:41Z</time>
      </trkpt>
      <trkpt lat="48.98405" lon="7.84582">
        <ele>284</ele>
        <time>2022-11-19T14:23:42Z</time>
      </trkpt>
      <trkpt lat="48.98401" lon="7.84572">
        <ele>284</ele>
        <time>2022-11-19T14:23:44Z</time>
      </trkpt>
      <trkpt lat="48.984" lon="7.84568">
        <ele>284</ele>
        <time>2022-11-19T14:23:45Z</time>
      </trkpt>
      <trkpt lat="48.98397" lon="7.84564">
        <ele>284</ele>
        <time>2022-11-19T14:23:46Z</time>
      </trkpt>
      <trkpt lat="48.98393" lon="7.8456">
        <ele>284</ele>
        <time>2022-11-19T14:23:47Z</time>
      </trkpt>
      <trkpt lat="48.98391" lon="7.84553">
        <ele>284</ele>
        <time>2022-11-19T14:23:49Z</time>
      </trkpt>
      <trkpt lat="48.98391" lon="7.84549">
        <ele>284</ele>
        <time>2022-11-19T14:23:50Z</time>
      </trkpt>
      <trkpt lat="48.9839" lon="7.84546">
        <ele>284</ele>
        <time>2022-11-19T14:23:51Z</time>
      </trkpt>
      <trkpt lat="48.9838" lon="7.84538">
        <ele>284</ele>
        <time>2022-11-19T14:23:54Z</time>
      </trkpt>
      <trkpt lat="48.98376" lon="7.84534">
        <ele>283.8</ele>
        <time>2022-11-19T14:23:56Z</time>
      </trkpt>
      <trkpt lat="48.98373" lon="7.84532">
        <ele>283.8</ele>
        <time>2022-11-19T14:23:57Z</time>
      </trkpt>
      <trkpt lat="48.98362" lon="7.84522">
        <ele>283.8</ele>
        <time>2022-11-19T14:24:00Z</time>
      </trkpt>
      <trkpt lat="48.98361" lon="7.84519">
        <ele>283.8</ele>
        <time>2022-11-19T14:24:01Z</time>
      </trkpt>
      <trkpt lat="48.9836" lon="7.84516">
        <ele>283.8</ele>
        <time>2022-11-19T14:24:02Z</time>
      </trkpt>
      <trkpt lat="48.98359" lon="7.84514">
        <ele>283.8</ele>
        <time>2022-11-19T14:24:03Z</time>
      </trkpt>
      <trkpt lat="48.98358" lon="7.84513">
        <ele>283.8</ele>
        <time>2022-11-19T14:24:04Z</time>
      </trkpt>
      <trkpt lat="48.98356" lon="7.8451">
        <ele>283.8</ele>
        <time>2022-11-19T14:24:05Z</time>
      </trkpt>
      <trkpt lat="48.98353" lon="7.84502">
        <ele>284</ele>
        <time>2022-11-19T14:24:07Z</time>
      </trkpt>
      <trkpt lat="48.98352" lon="7.84499">
        <ele>284</ele>
        <time>2022-11-19T14:24:08Z</time>
      </trkpt>
      <trkpt lat="48.98351" lon="7.84499">
        <ele>284</ele>
        <time>2022-11-19T14:24:09Z</time>
      </trkpt>
      <trkpt lat="48.98351" lon="7.84499">
        <ele>284.2</ele>
        <time>2022-11-19T14:24:11Z</time>
      </trkpt>
      <trkpt lat="48.98349" lon="7.84495">
        <ele>284.2</ele>
        <time>2022-11-19T14:24:20Z</time>
      </trkpt>
      <trkpt lat="48.98348" lon="7.84492">
        <ele>284.2</ele>
        <time>2022-11-19T14:24:21Z</time>
      </trkpt>
      <trkpt lat="48.98335" lon="7.84478">
        <ele>284.2</ele>
        <time>2022-11-19T14:24:26Z</time>
      </trkpt>
      <trkpt lat="48.98328" lon="7.84471">
        <ele>284</ele>
        <time>2022-11-19T14:24:28Z</time>
      </trkpt>
      <trkpt lat="48.98325" lon="7.84467">
        <ele>284</ele>
        <time>2022-11-19T14:24:29Z</time>
      </trkpt>
      <trkpt lat="48.98325" lon="7.84461">
        <ele>284</ele>
        <time>2022-11-19T14:24:30Z</time>
      </trkpt>
      <trkpt lat="48.98327" lon="7.84447">
        <ele>284</ele>
        <time>2022-11-19T14:24:33Z</time>
      </trkpt>
      <trkpt lat="48.98322" lon="7.84445">
        <ele>284</ele>
        <time>2022-11-19T14:24:34Z</time>
      </trkpt>
      <trkpt lat="48.98311" lon="7.84423">
        <ele>284</ele>
        <time>2022-11-19T14:24:38Z</time>
      </trkpt>
      <trkpt lat="48.98309" lon="7.84419">
        <ele>284.2</ele>
        <time>2022-11-19T14:24:39Z</time>
      </trkpt>
      <trkpt lat="48.98308" lon="7.84414">
        <ele>284.6</ele>
        <time>2022-11-19T14:24:40Z</time>
      </trkpt>
      <trkpt lat="48.98298" lon="7.84393">
        <ele>285.8</ele>
        <time>2022-11-19T14:24:45Z</time>
      </trkpt>
      <trkpt lat="48.98294" lon="7.84387">
        <ele>286</ele>
        <time>2022-11-19T14:24:47Z</time>
      </trkpt>
      <trkpt lat="48.98291" lon="7.84374">
        <ele>286.4</ele>
        <time>2022-11-19T14:24:50Z</time>
      </trkpt>
      <trkpt lat="48.9829" lon="7.8437">
        <ele>286.4</ele>
        <time>2022-11-19T14:24:51Z</time>
      </trkpt>
      <trkpt lat="48.9829" lon="7.84367">
        <ele>286.6</ele>
        <time>2022-11-19T14:24:52Z</time>
      </trkpt>
      <trkpt lat="48.9829" lon="7.84363">
        <ele>286.6</ele>
        <time>2022-11-19T14:24:53Z</time>
      </trkpt>
      <trkpt lat="48.9829" lon="7.8436">
        <ele>286.6</ele>
        <time>2022-11-19T14:24:54Z</time>
      </trkpt>
      <trkpt lat="48.9829" lon="7.84357">
        <ele>286.8</ele>
        <time>2022-11-19T14:24:55Z</time>
      </trkpt>
      <trkpt lat="48.9829" lon="7.84354">
        <ele>286.8</ele>
        <time>2022-11-19T14:24:56Z</time>
      </trkpt>
      <trkpt lat="48.9829" lon="7.84351">
        <ele>287</ele>
        <time>2022-11-19T14:24:57Z</time>
      </trkpt>
      <trkpt lat="48.98289" lon="7.84348">
        <ele>287</ele>
        <time>2022-11-19T14:24:58Z</time>
      </trkpt>
      <trkpt lat="48.98287" lon="7.84347">
        <ele>287.2</ele>
        <time>2022-11-19T14:24:59Z</time>
      </trkpt>
      <trkpt lat="48.98285" lon="7.84345">
        <ele>287.2</ele>
        <time>2022-11-19T14:25:00Z</time>
      </trkpt>
      <trkpt lat="48.98283" lon="7.84344">
        <ele>287.4</ele>
        <time>2022-11-19T14:25:01Z</time>
      </trkpt>
      <trkpt lat="48.98282" lon="7.84343">
        <ele>287.6</ele>
        <time>2022-11-19T14:25:02Z</time>
      </trkpt>
      <trkpt lat="48.9828" lon="7.84341">
        <ele>287.6</ele>
        <time>2022-11-19T14:25:03Z</time>
      </trkpt>
      <trkpt lat="48.98278" lon="7.84339">
        <ele>287.6</ele>
        <time>2022-11-19T14:25:04Z</time>
      </trkpt>
      <trkpt lat="48.98275" lon="7.84337">
        <ele>287.6</ele>
        <time>2022-11-19T14:25:05Z</time>
      </trkpt>
      <trkpt lat="48.98272" lon="7.84334">
        <ele>287.6</ele>
        <time>2022-11-19T14:25:06Z</time>
      </trkpt>
      <trkpt lat="48.9827" lon="7.84331">
        <ele>287.6</ele>
        <time>2022-11-19T14:25:07Z</time>
      </trkpt>
      <trkpt lat="48.98268" lon="7.84328">
        <ele>287.8</ele>
        <time>2022-11-19T14:25:08Z</time>
      </trkpt>
      <trkpt lat="48.98266" lon="7.84326">
        <ele>287.8</ele>
        <time>2022-11-19T14:25:09Z</time>
      </trkpt>
      <trkpt lat="48.98262" lon="7.84318">
        <ele>287.6</ele>
        <time>2022-11-19T14:25:12Z</time>
      </trkpt>
      <trkpt lat="48.98261" lon="7.84314">
        <ele>287.6</ele>
        <time>2022-11-19T14:25:13Z</time>
      </trkpt>
      <trkpt lat="48.98261" lon="7.84305">
        <ele>287.4</ele>
        <time>2022-11-19T14:25:15Z</time>
      </trkpt>
      <trkpt lat="48.98259" lon="7.84301">
        <ele>287.4</ele>
        <time>2022-11-19T14:25:16Z</time>
      </trkpt>
      <trkpt lat="48.98259" lon="7.84298">
        <ele>287.2</ele>
        <time>2022-11-19T14:25:17Z</time>
      </trkpt>
      <trkpt lat="48.98258" lon="7.84296">
        <ele>287.2</ele>
        <time>2022-11-19T14:25:18Z</time>
      </trkpt>
      <trkpt lat="48.98258" lon="7.84291">
        <ele>287.2</ele>
        <time>2022-11-19T14:25:19Z</time>
      </trkpt>
      <trkpt lat="48.98256" lon="7.84289">
        <ele>287.2</ele>
        <time>2022-11-19T14:25:20Z</time>
      </trkpt>
      <trkpt lat="48.98254" lon="7.84286">
        <ele>287</ele>
        <time>2022-11-19T14:25:21Z</time>
      </trkpt>
      <trkpt lat="48.98252" lon="7.84284">
        <ele>287</ele>
        <time>2022-11-19T14:25:22Z</time>
      </trkpt>
      <trkpt lat="48.9825" lon="7.84282">
        <ele>287</ele>
        <time>2022-11-19T14:25:23Z</time>
      </trkpt>
      <trkpt lat="48.98249" lon="7.8428">
        <ele>287</ele>
        <time>2022-11-19T14:25:24Z</time>
      </trkpt>
      <trkpt lat="48.98248" lon="7.84278">
        <ele>287</ele>
        <time>2022-11-19T14:25:25Z</time>
      </trkpt>
      <trkpt lat="48.98247" lon="7.84276">
        <ele>286.8</ele>
        <time>2022-11-19T14:25:26Z</time>
      </trkpt>
      <trkpt lat="48.98246" lon="7.84275">
        <ele>287</ele>
        <time>2022-11-19T14:25:27Z</time>
      </trkpt>
      <trkpt lat="48.98246" lon="7.84273">
        <ele>287</ele>
        <time>2022-11-19T14:25:28Z</time>
      </trkpt>
      <trkpt lat="48.98246" lon="7.84271">
        <ele>286.8</ele>
        <time>2022-11-19T14:25:29Z</time>
      </trkpt>
      <trkpt lat="48.98244" lon="7.84269">
        <ele>286.6</ele>
        <time>2022-11-19T14:25:31Z</time>
      </trkpt>
      <trkpt lat="48.98243" lon="7.84268">
        <ele>286.6</ele>
        <time>2022-11-19T14:25:32Z</time>
      </trkpt>
      <trkpt lat="48.98242" lon="7.84268">
        <ele>286.6</ele>
        <time>2022-11-19T14:25:33Z</time>
      </trkpt>
      <trkpt lat="48.9824" lon="7.84267">
        <ele>286.6</ele>
        <time>2022-11-19T14:25:34Z</time>
      </trkpt>
      <trkpt lat="48.9824" lon="7.84266">
        <ele>286.6</ele>
        <time>2022-11-19T14:25:35Z</time>
      </trkpt>
      <trkpt lat="48.9824" lon="7.84266">
        <ele>286.4</ele>
        <time>2022-11-19T14:25:36Z</time>
      </trkpt>
      <trkpt lat="48.98239" lon="7.84266">
        <ele>286.4</ele>
        <time>2022-11-19T14:25:37Z</time>
      </trkpt>
      <trkpt lat="48.98238" lon="7.84265">
        <ele>286.2</ele>
        <time>2022-11-19T14:25:38Z</time>
      </trkpt>
      <trkpt lat="48.98238" lon="7.84264">
        <ele>286</ele>
        <time>2022-11-19T14:25:39Z</time>
      </trkpt>
      <trkpt lat="48.98237" lon="7.84261">
        <ele>285.8</ele>
        <time>2022-11-19T14:25:40Z</time>
      </trkpt>
      <trkpt lat="48.98237" lon="7.84254">
        <ele>285.6</ele>
        <time>2022-11-19T14:25:42Z</time>
      </trkpt>
      <trkpt lat="48.98236" lon="7.8425">
        <ele>285.6</ele>
        <time>2022-11-19T14:25:43Z</time>
      </trkpt>
      <trkpt lat="48.98235" lon="7.84246">
        <ele>285.4</ele>
        <time>2022-11-19T14:25:44Z</time>
      </trkpt>
      <trkpt lat="48.98231" lon="7.84239">
        <ele>285.4</ele>
        <time>2022-11-19T14:25:46Z</time>
      </trkpt>
      <trkpt lat="48.9823" lon="7.84235">
        <ele>285.4</ele>
        <time>2022-11-19T14:25:47Z</time>
      </trkpt>
      <trkpt lat="48.98229" lon="7.84231">
        <ele>285.4</ele>
        <time>2022-11-19T14:25:48Z</time>
      </trkpt>
      <trkpt lat="48.98229" lon="7.84228">
        <ele>285.4</ele>
        <time>2022-11-19T14:25:49Z</time>
      </trkpt>
      <trkpt lat="48.98228" lon="7.84226">
        <ele>285.4</ele>
        <time>2022-11-19T14:25:50Z</time>
      </trkpt>
      <trkpt lat="48.98228" lon="7.84223">
        <ele>285.4</ele>
        <time>2022-11-19T14:25:51Z</time>
      </trkpt>
      <trkpt lat="48.98227" lon="7.8422">
        <ele>285.4</ele>
        <time>2022-11-19T14:25:52Z</time>
      </trkpt>
      <trkpt lat="48.98226" lon="7.84218">
        <ele>285.4</ele>
        <time>2022-11-19T14:25:53Z</time>
      </trkpt>
      <trkpt lat="48.98224" lon="7.84216">
        <ele>285.2</ele>
        <time>2022-11-19T14:25:54Z</time>
      </trkpt>
      <trkpt lat="48.98223" lon="7.84213">
        <ele>285.2</ele>
        <time>2022-11-19T14:25:55Z</time>
      </trkpt>
      <trkpt lat="48.98221" lon="7.84211">
        <ele>285.2</ele>
        <time>2022-11-19T14:25:56Z</time>
      </trkpt>
      <trkpt lat="48.98219" lon="7.84208">
        <ele>285.2</ele>
        <time>2022-11-19T14:25:57Z</time>
      </trkpt>
      <trkpt lat="48.98211" lon="7.84192">
        <ele>285.2</ele>
        <time>2022-11-19T14:26:02Z</time>
      </trkpt>
      <trkpt lat="48.98198" lon="7.84181">
        <ele>285.2</ele>
        <time>2022-11-19T14:26:06Z</time>
      </trkpt>
      <trkpt lat="48.98191" lon="7.84178">
        <ele>285</ele>
        <time>2022-11-19T14:26:08Z</time>
      </trkpt>
      <trkpt lat="48.98189" lon="7.84175">
        <ele>285</ele>
        <time>2022-11-19T14:26:09Z</time>
      </trkpt>
      <trkpt lat="48.98187" lon="7.84172">
        <ele>284.8</ele>
        <time>2022-11-19T14:26:10Z</time>
      </trkpt>
      <trkpt lat="48.98185" lon="7.84169">
        <ele>284.8</ele>
        <time>2022-11-19T14:26:11Z</time>
      </trkpt>
      <trkpt lat="48.98183" lon="7.84167">
        <ele>284.8</ele>
        <time>2022-11-19T14:26:12Z</time>
      </trkpt>
      <trkpt lat="48.98181" lon="7.84165">
        <ele>284.8</ele>
        <time>2022-11-19T14:26:13Z</time>
      </trkpt>
      <trkpt lat="48.9818" lon="7.84162">
        <ele>284.8</ele>
        <time>2022-11-19T14:26:14Z</time>
      </trkpt>
      <trkpt lat="48.98175" lon="7.84151">
        <ele>284.6</ele>
        <time>2022-11-19T14:26:16Z</time>
      </trkpt>
      <trkpt lat="48.98174" lon="7.84144">
        <ele>284.6</ele>
        <time>2022-11-19T14:26:17Z</time>
      </trkpt>
      <trkpt lat="48.98173" lon="7.8414">
        <ele>284.6</ele>
        <time>2022-11-19T14:26:18Z</time>
      </trkpt>
      <trkpt lat="48.98171" lon="7.84138">
        <ele>284.6</ele>
        <time>2022-11-19T14:26:19Z</time>
      </trkpt>
      <trkpt lat="48.98169" lon="7.84136">
        <ele>284.6</ele>
        <time>2022-11-19T14:26:20Z</time>
      </trkpt>
      <trkpt lat="48.98164" lon="7.84122">
        <ele>284.2</ele>
        <time>2022-11-19T14:26:23Z</time>
      </trkpt>
      <trkpt lat="48.98162" lon="7.8412">
        <ele>284.2</ele>
        <time>2022-11-19T14:26:24Z</time>
      </trkpt>
      <trkpt lat="48.9816" lon="7.84118">
        <ele>284.2</ele>
        <time>2022-11-19T14:26:25Z</time>
      </trkpt>
      <trkpt lat="48.98159" lon="7.84115">
        <ele>284.2</ele>
        <time>2022-11-19T14:26:26Z</time>
      </trkpt>
      <trkpt lat="48.98149" lon="7.84108">
        <ele>284</ele>
        <time>2022-11-19T14:26:30Z</time>
      </trkpt>
      <trkpt lat="48.98144" lon="7.84102">
        <ele>284</ele>
        <time>2022-11-19T14:26:32Z</time>
      </trkpt>
      <trkpt lat="48.98142" lon="7.84098">
        <ele>284</ele>
        <time>2022-11-19T14:26:33Z</time>
      </trkpt>
      <trkpt lat="48.98135" lon="7.84089">
        <ele>283.8</ele>
        <time>2022-11-19T14:26:36Z</time>
      </trkpt>
      <trkpt lat="48.98126" lon="7.84076">
        <ele>283.8</ele>
        <time>2022-11-19T14:26:40Z</time>
      </trkpt>
      <trkpt lat="48.98125" lon="7.84071">
        <ele>283.6</ele>
        <time>2022-11-19T14:26:41Z</time>
      </trkpt>
      <trkpt lat="48.98124" lon="7.84066">
        <ele>283.6</ele>
        <time>2022-11-19T14:26:42Z</time>
      </trkpt>
      <trkpt lat="48.98124" lon="7.84061">
        <ele>283.6</ele>
        <time>2022-11-19T14:26:43Z</time>
      </trkpt>
      <trkpt lat="48.98123" lon="7.84056">
        <ele>283.6</ele>
        <time>2022-11-19T14:26:44Z</time>
      </trkpt>
      <trkpt lat="48.98123" lon="7.84051">
        <ele>283.6</ele>
        <time>2022-11-19T14:26:45Z</time>
      </trkpt>
      <trkpt lat="48.98123" lon="7.84045">
        <ele>283.6</ele>
        <time>2022-11-19T14:26:46Z</time>
      </trkpt>
      <trkpt lat="48.98123" lon="7.84039">
        <ele>283.6</ele>
        <time>2022-11-19T14:26:47Z</time>
      </trkpt>
      <trkpt lat="48.98122" lon="7.84033">
        <ele>283.8</ele>
        <time>2022-11-19T14:26:48Z</time>
      </trkpt>
      <trkpt lat="48.98114" lon="7.84003">
        <ele>285.2</ele>
        <time>2022-11-19T14:26:54Z</time>
      </trkpt>
      <trkpt lat="48.98112" lon="7.84">
        <ele>285.6</ele>
        <time>2022-11-19T14:26:55Z</time>
      </trkpt>
      <trkpt lat="48.98109" lon="7.83997">
        <ele>286</ele>
        <time>2022-11-19T14:26:56Z</time>
      </trkpt>
      <trkpt lat="48.98107" lon="7.83994">
        <ele>286.4</ele>
        <time>2022-11-19T14:26:57Z</time>
      </trkpt>
      <trkpt lat="48.98104" lon="7.83991">
        <ele>286.8</ele>
        <time>2022-11-19T14:26:58Z</time>
      </trkpt>
      <trkpt lat="48.98102" lon="7.83987">
        <ele>286.8</ele>
        <time>2022-11-19T14:26:59Z</time>
      </trkpt>
      <trkpt lat="48.98099" lon="7.83982">
        <ele>287</ele>
        <time>2022-11-19T14:27:00Z</time>
      </trkpt>
      <trkpt lat="48.98097" lon="7.83978">
        <ele>287</ele>
        <time>2022-11-19T14:27:01Z</time>
      </trkpt>
      <trkpt lat="48.98095" lon="7.83973">
        <ele>287.2</ele>
        <time>2022-11-19T14:27:02Z</time>
      </trkpt>
      <trkpt lat="48.98093" lon="7.83969">
        <ele>287.2</ele>
        <time>2022-11-19T14:27:03Z</time>
      </trkpt>
      <trkpt lat="48.98091" lon="7.83965">
        <ele>287.4</ele>
        <time>2022-11-19T14:27:04Z</time>
      </trkpt>
      <trkpt lat="48.98089" lon="7.83962">
        <ele>287.4</ele>
        <time>2022-11-19T14:27:05Z</time>
      </trkpt>
      <trkpt lat="48.98087" lon="7.83959">
        <ele>287.4</ele>
        <time>2022-11-19T14:27:06Z</time>
      </trkpt>
      <trkpt lat="48.98084" lon="7.83956">
        <ele>287.6</ele>
        <time>2022-11-19T14:27:07Z</time>
      </trkpt>
      <trkpt lat="48.98081" lon="7.83955">
        <ele>287.6</ele>
        <time>2022-11-19T14:27:08Z</time>
      </trkpt>
      <trkpt lat="48.98077" lon="7.83954">
        <ele>287.6</ele>
        <time>2022-11-19T14:27:09Z</time>
      </trkpt>
      <trkpt lat="48.98073" lon="7.83954">
        <ele>287.4</ele>
        <time>2022-11-19T14:27:10Z</time>
      </trkpt>
      <trkpt lat="48.9807" lon="7.83955">
        <ele>287.4</ele>
        <time>2022-11-19T14:27:11Z</time>
      </trkpt>
      <trkpt lat="48.98067" lon="7.83955">
        <ele>287.4</ele>
        <time>2022-11-19T14:27:12Z</time>
      </trkpt>
      <trkpt lat="48.98066" lon="7.83955">
        <ele>287.4</ele>
        <time>2022-11-19T14:27:13Z</time>
      </trkpt>
      <trkpt lat="48.98064" lon="7.83956">
        <ele>287.4</ele>
        <time>2022-11-19T14:27:14Z</time>
      </trkpt>
      <trkpt lat="48.98061" lon="7.83957">
        <ele>287.4</ele>
        <time>2022-11-19T14:27:15Z</time>
      </trkpt>
      <trkpt lat="48.98058" lon="7.8396">
        <ele>287.2</ele>
        <time>2022-11-19T14:27:16Z</time>
      </trkpt>
      <trkpt lat="48.98055" lon="7.83962">
        <ele>287</ele>
        <time>2022-11-19T14:27:17Z</time>
      </trkpt>
      <trkpt lat="48.98047" lon="7.83965">
        <ele>286.4</ele>
        <time>2022-11-19T14:27:19Z</time>
      </trkpt>
      <trkpt lat="48.98044" lon="7.83964">
        <ele>286.2</ele>
        <time>2022-11-19T14:27:20Z</time>
      </trkpt>
      <trkpt lat="48.98042" lon="7.83963">
        <ele>286.2</ele>
        <time>2022-11-19T14:27:21Z</time>
      </trkpt>
      <trkpt lat="48.98041" lon="7.8396">
        <ele>286</ele>
        <time>2022-11-19T14:27:22Z</time>
      </trkpt>
      <trkpt lat="48.98041" lon="7.83957">
        <ele>285.8</ele>
        <time>2022-11-19T14:27:23Z</time>
      </trkpt>
      <trkpt lat="48.98042" lon="7.83955">
        <ele>285.4</ele>
        <time>2022-11-19T14:27:24Z</time>
      </trkpt>
      <trkpt lat="48.98042" lon="7.83952">
        <ele>285</ele>
        <time>2022-11-19T14:27:25Z</time>
      </trkpt>
      <trkpt lat="48.98043" lon="7.83941">
        <ele>284.4</ele>
        <time>2022-11-19T14:27:29Z</time>
      </trkpt>
      <trkpt lat="48.98043" lon="7.83935">
        <ele>284.4</ele>
        <time>2022-11-19T14:27:31Z</time>
      </trkpt>
      <trkpt lat="48.98043" lon="7.83932">
        <ele>284.4</ele>
        <time>2022-11-19T14:27:32Z</time>
      </trkpt>
      <trkpt lat="48.98043" lon="7.8393">
        <ele>284.4</ele>
        <time>2022-11-19T14:27:33Z</time>
      </trkpt>
      <trkpt lat="48.98042" lon="7.83928">
        <ele>284.4</ele>
        <time>2022-11-19T14:27:34Z</time>
      </trkpt>
      <trkpt lat="48.98042" lon="7.83925">
        <ele>284.6</ele>
        <time>2022-11-19T14:27:35Z</time>
      </trkpt>
      <trkpt lat="48.98042" lon="7.8392">
        <ele>284.8</ele>
        <time>2022-11-19T14:27:37Z</time>
      </trkpt>
      <trkpt lat="48.98042" lon="7.83918">
        <ele>285.2</ele>
        <time>2022-11-19T14:27:38Z</time>
      </trkpt>
      <trkpt lat="48.98042" lon="7.83916">
        <ele>285.4</ele>
        <time>2022-11-19T14:27:39Z</time>
      </trkpt>
      <trkpt lat="48.98041" lon="7.83914">
        <ele>285.8</ele>
        <time>2022-11-19T14:27:40Z</time>
      </trkpt>
      <trkpt lat="48.98041" lon="7.83906">
        <ele>286.6</ele>
        <time>2022-11-19T14:27:43Z</time>
      </trkpt>
      <trkpt lat="48.9804" lon="7.83905">
        <ele>286.8</ele>
        <time>2022-11-19T14:27:44Z</time>
      </trkpt>
      <trkpt lat="48.98039" lon="7.83903">
        <ele>287</ele>
        <time>2022-11-19T14:27:45Z</time>
      </trkpt>
      <trkpt lat="48.98039" lon="7.83901">
        <ele>287.2</ele>
        <time>2022-11-19T14:27:46Z</time>
      </trkpt>
      <trkpt lat="48.98037" lon="7.83895">
        <ele>287.6</ele>
        <time>2022-11-19T14:27:48Z</time>
      </trkpt>
      <trkpt lat="48.98035" lon="7.83891">
        <ele>287.8</ele>
        <time>2022-11-19T14:27:50Z</time>
      </trkpt>
      <trkpt lat="48.98031" lon="7.83883">
        <ele>288.6</ele>
        <time>2022-11-19T14:27:53Z</time>
      </trkpt>
      <trkpt lat="48.98029" lon="7.83882">
        <ele>288.8</ele>
        <time>2022-11-19T14:27:54Z</time>
      </trkpt>
      <trkpt lat="48.98027" lon="7.83881">
        <ele>289</ele>
        <time>2022-11-19T14:27:55Z</time>
      </trkpt>
      <trkpt lat="48.98026" lon="7.83879">
        <ele>289</ele>
        <time>2022-11-19T14:27:56Z</time>
      </trkpt>
      <trkpt lat="48.98025" lon="7.83877">
        <ele>289.2</ele>
        <time>2022-11-19T14:27:57Z</time>
      </trkpt>
      <trkpt lat="48.98024" lon="7.83876">
        <ele>289.4</ele>
        <time>2022-11-19T14:27:58Z</time>
      </trkpt>
      <trkpt lat="48.98022" lon="7.83874">
        <ele>289.4</ele>
        <time>2022-11-19T14:27:59Z</time>
      </trkpt>
      <trkpt lat="48.98021" lon="7.83872">
        <ele>289.6</ele>
        <time>2022-11-19T14:28:00Z</time>
      </trkpt>
      <trkpt lat="48.9802" lon="7.83869">
        <ele>289.6</ele>
        <time>2022-11-19T14:28:01Z</time>
      </trkpt>
      <trkpt lat="48.98019" lon="7.83867">
        <ele>289.8</ele>
        <time>2022-11-19T14:28:02Z</time>
      </trkpt>
      <trkpt lat="48.98019" lon="7.83864">
        <ele>290</ele>
        <time>2022-11-19T14:28:03Z</time>
      </trkpt>
      <trkpt lat="48.98018" lon="7.83861">
        <ele>290.2</ele>
        <time>2022-11-19T14:28:04Z</time>
      </trkpt>
      <trkpt lat="48.98017" lon="7.83858">
        <ele>290.4</ele>
        <time>2022-11-19T14:28:05Z</time>
      </trkpt>
      <trkpt lat="48.98016" lon="7.83855">
        <ele>290.4</ele>
        <time>2022-11-19T14:28:06Z</time>
      </trkpt>
      <trkpt lat="48.98016" lon="7.83852">
        <ele>290.6</ele>
        <time>2022-11-19T14:28:07Z</time>
      </trkpt>
      <trkpt lat="48.98015" lon="7.83849">
        <ele>290.6</ele>
        <time>2022-11-19T14:28:08Z</time>
      </trkpt>
      <trkpt lat="48.98014" lon="7.83847">
        <ele>290.8</ele>
        <time>2022-11-19T14:28:09Z</time>
      </trkpt>
      <trkpt lat="48.98013" lon="7.83845">
        <ele>291</ele>
        <time>2022-11-19T14:28:10Z</time>
      </trkpt>
      <trkpt lat="48.98012" lon="7.83843">
        <ele>291.2</ele>
        <time>2022-11-19T14:28:11Z</time>
      </trkpt>
      <trkpt lat="48.98011" lon="7.83841">
        <ele>291.2</ele>
        <time>2022-11-19T14:28:12Z</time>
      </trkpt>
      <trkpt lat="48.98011" lon="7.83839">
        <ele>291.4</ele>
        <time>2022-11-19T14:28:13Z</time>
      </trkpt>
      <trkpt lat="48.98011" lon="7.83836">
        <ele>291.6</ele>
        <time>2022-11-19T14:28:14Z</time>
      </trkpt>
      <trkpt lat="48.98011" lon="7.83834">
        <ele>291.8</ele>
        <time>2022-11-19T14:28:15Z</time>
      </trkpt>
      <trkpt lat="48.9801" lon="7.83832">
        <ele>291.8</ele>
        <time>2022-11-19T14:28:16Z</time>
      </trkpt>
      <trkpt lat="48.98009" lon="7.83829">
        <ele>292.2</ele>
        <time>2022-11-19T14:28:17Z</time>
      </trkpt>
      <trkpt lat="48.98009" lon="7.83826">
        <ele>292.4</ele>
        <time>2022-11-19T14:28:18Z</time>
      </trkpt>
      <trkpt lat="48.98007" lon="7.83824">
        <ele>292.6</ele>
        <time>2022-11-19T14:28:19Z</time>
      </trkpt>
      <trkpt lat="48.98006" lon="7.83821">
        <ele>292.8</ele>
        <time>2022-11-19T14:28:20Z</time>
      </trkpt>
      <trkpt lat="48.98005" lon="7.83819">
        <ele>293</ele>
        <time>2022-11-19T14:28:21Z</time>
      </trkpt>
      <trkpt lat="48.98004" lon="7.83817">
        <ele>293</ele>
        <time>2022-11-19T14:28:22Z</time>
      </trkpt>
      <trkpt lat="48.98004" lon="7.83814">
        <ele>293.2</ele>
        <time>2022-11-19T14:28:23Z</time>
      </trkpt>
      <trkpt lat="48.98003" lon="7.83811">
        <ele>293.4</ele>
        <time>2022-11-19T14:28:24Z</time>
      </trkpt>
      <trkpt lat="48.98003" lon="7.83809">
        <ele>293.6</ele>
        <time>2022-11-19T14:28:25Z</time>
      </trkpt>
      <trkpt lat="48.98002" lon="7.83808">
        <ele>293.8</ele>
        <time>2022-11-19T14:28:26Z</time>
      </trkpt>
      <trkpt lat="48.98" lon="7.83805">
        <ele>293.8</ele>
        <time>2022-11-19T14:28:27Z</time>
      </trkpt>
      <trkpt lat="48.98" lon="7.83803">
        <ele>294</ele>
        <time>2022-11-19T14:28:28Z</time>
      </trkpt>
      <trkpt lat="48.97999" lon="7.83801">
        <ele>294.2</ele>
        <time>2022-11-19T14:28:29Z</time>
      </trkpt>
      <trkpt lat="48.97998" lon="7.83799">
        <ele>294.4</ele>
        <time>2022-11-19T14:28:30Z</time>
      </trkpt>
      <trkpt lat="48.97997" lon="7.83798">
        <ele>294.6</ele>
        <time>2022-11-19T14:28:31Z</time>
      </trkpt>
      <trkpt lat="48.97996" lon="7.83797">
        <ele>294.6</ele>
        <time>2022-11-19T14:28:32Z</time>
      </trkpt>
      <trkpt lat="48.97995" lon="7.83796">
        <ele>294.8</ele>
        <time>2022-11-19T14:28:33Z</time>
      </trkpt>
      <trkpt lat="48.97994" lon="7.83795">
        <ele>294.8</ele>
        <time>2022-11-19T14:28:34Z</time>
      </trkpt>
      <trkpt lat="48.97993" lon="7.83794">
        <ele>295</ele>
        <time>2022-11-19T14:28:35Z</time>
      </trkpt>
      <trkpt lat="48.97992" lon="7.83793">
        <ele>295.2</ele>
        <time>2022-11-19T14:28:36Z</time>
      </trkpt>
      <trkpt lat="48.97991" lon="7.83791">
        <ele>295.2</ele>
        <time>2022-11-19T14:28:37Z</time>
      </trkpt>
      <trkpt lat="48.9799" lon="7.83789">
        <ele>295.4</ele>
        <time>2022-11-19T14:28:38Z</time>
      </trkpt>
      <trkpt lat="48.97989" lon="7.83786">
        <ele>295.6</ele>
        <time>2022-11-19T14:28:39Z</time>
      </trkpt>
      <trkpt lat="48.97989" lon="7.83785">
        <ele>295.8</ele>
        <time>2022-11-19T14:28:40Z</time>
      </trkpt>
      <trkpt lat="48.97988" lon="7.83783">
        <ele>295.8</ele>
        <time>2022-11-19T14:28:41Z</time>
      </trkpt>
      <trkpt lat="48.97988" lon="7.83782">
        <ele>296</ele>
        <time>2022-11-19T14:28:42Z</time>
      </trkpt>
      <trkpt lat="48.97987" lon="7.8378">
        <ele>296</ele>
        <time>2022-11-19T14:28:43Z</time>
      </trkpt>
      <trkpt lat="48.97987" lon="7.83777">
        <ele>296.2</ele>
        <time>2022-11-19T14:28:44Z</time>
      </trkpt>
      <trkpt lat="48.97985" lon="7.83774">
        <ele>296.2</ele>
        <time>2022-11-19T14:28:45Z</time>
      </trkpt>
      <trkpt lat="48.97984" lon="7.83772">
        <ele>296.2</ele>
        <time>2022-11-19T14:28:46Z</time>
      </trkpt>
      <trkpt lat="48.97983" lon="7.83768">
        <ele>296.4</ele>
        <time>2022-11-19T14:28:47Z</time>
      </trkpt>
      <trkpt lat="48.97982" lon="7.83765">
        <ele>296.4</ele>
        <time>2022-11-19T14:28:48Z</time>
      </trkpt>
      <trkpt lat="48.97981" lon="7.83762">
        <ele>296.4</ele>
        <time>2022-11-19T14:28:49Z</time>
      </trkpt>
      <trkpt lat="48.9798" lon="7.8376">
        <ele>296.4</ele>
        <time>2022-11-19T14:28:50Z</time>
      </trkpt>
      <trkpt lat="48.97979" lon="7.83758">
        <ele>296.6</ele>
        <time>2022-11-19T14:28:51Z</time>
      </trkpt>
      <trkpt lat="48.97978" lon="7.83756">
        <ele>296.6</ele>
        <time>2022-11-19T14:28:52Z</time>
      </trkpt>
      <trkpt lat="48.97977" lon="7.83754">
        <ele>296.8</ele>
        <time>2022-11-19T14:28:53Z</time>
      </trkpt>
      <trkpt lat="48.97976" lon="7.83753">
        <ele>297</ele>
        <time>2022-11-19T14:28:54Z</time>
      </trkpt>
      <trkpt lat="48.97975" lon="7.8375">
        <ele>297.2</ele>
        <time>2022-11-19T14:28:55Z</time>
      </trkpt>
      <trkpt lat="48.97973" lon="7.83748">
        <ele>297.2</ele>
        <time>2022-11-19T14:28:56Z</time>
      </trkpt>
      <trkpt lat="48.97972" lon="7.83747">
        <ele>297.6</ele>
        <time>2022-11-19T14:28:57Z</time>
      </trkpt>
      <trkpt lat="48.97971" lon="7.83745">
        <ele>297.6</ele>
        <time>2022-11-19T14:28:58Z</time>
      </trkpt>
      <trkpt lat="48.9797" lon="7.83744">
        <ele>297.6</ele>
        <time>2022-11-19T14:28:59Z</time>
      </trkpt>
      <trkpt lat="48.97969" lon="7.83742">
        <ele>297.8</ele>
        <time>2022-11-19T14:29:00Z</time>
      </trkpt>
      <trkpt lat="48.97968" lon="7.8374">
        <ele>298</ele>
        <time>2022-11-19T14:29:01Z</time>
      </trkpt>
      <trkpt lat="48.97967" lon="7.83738">
        <ele>298</ele>
        <time>2022-11-19T14:29:02Z</time>
      </trkpt>
      <trkpt lat="48.97967" lon="7.83736">
        <ele>298.2</ele>
        <time>2022-11-19T14:29:03Z</time>
      </trkpt>
      <trkpt lat="48.97966" lon="7.83734">
        <ele>298.4</ele>
        <time>2022-11-19T14:29:04Z</time>
      </trkpt>
      <trkpt lat="48.97966" lon="7.83732">
        <ele>298.4</ele>
        <time>2022-11-19T14:29:05Z</time>
      </trkpt>
      <trkpt lat="48.97965" lon="7.83729">
        <ele>298.6</ele>
        <time>2022-11-19T14:29:06Z</time>
      </trkpt>
      <trkpt lat="48.97965" lon="7.83727">
        <ele>298.6</ele>
        <time>2022-11-19T14:29:07Z</time>
      </trkpt>
      <trkpt lat="48.97965" lon="7.83724">
        <ele>298.8</ele>
        <time>2022-11-19T14:29:08Z</time>
      </trkpt>
      <trkpt lat="48.97964" lon="7.83721">
        <ele>299</ele>
        <time>2022-11-19T14:29:09Z</time>
      </trkpt>
      <trkpt lat="48.97963" lon="7.83719">
        <ele>299</ele>
        <time>2022-11-19T14:29:10Z</time>
      </trkpt>
      <trkpt lat="48.97961" lon="7.83717">
        <ele>299.2</ele>
        <time>2022-11-19T14:29:11Z</time>
      </trkpt>
      <trkpt lat="48.9796" lon="7.83715">
        <ele>299.4</ele>
        <time>2022-11-19T14:29:12Z</time>
      </trkpt>
      <trkpt lat="48.97958" lon="7.83714">
        <ele>299.6</ele>
        <time>2022-11-19T14:29:13Z</time>
      </trkpt>
      <trkpt lat="48.97957" lon="7.83712">
        <ele>299.8</ele>
        <time>2022-11-19T14:29:14Z</time>
      </trkpt>
      <trkpt lat="48.97956" lon="7.8371">
        <ele>299.8</ele>
        <time>2022-11-19T14:29:15Z</time>
      </trkpt>
      <trkpt lat="48.97954" lon="7.83709">
        <ele>300.2</ele>
        <time>2022-11-19T14:29:16Z</time>
      </trkpt>
      <trkpt lat="48.97953" lon="7.83707">
        <ele>300.4</ele>
        <time>2022-11-19T14:29:17Z</time>
      </trkpt>
      <trkpt lat="48.97953" lon="7.83704">
        <ele>300.6</ele>
        <time>2022-11-19T14:29:18Z</time>
      </trkpt>
      <trkpt lat="48.97952" lon="7.83702">
        <ele>300.8</ele>
        <time>2022-11-19T14:29:19Z</time>
      </trkpt>
      <trkpt lat="48.97952" lon="7.837">
        <ele>301</ele>
        <time>2022-11-19T14:29:20Z</time>
      </trkpt>
      <trkpt lat="48.97951" lon="7.83697">
        <ele>301.2</ele>
        <time>2022-11-19T14:29:21Z</time>
      </trkpt>
      <trkpt lat="48.9795" lon="7.83694">
        <ele>301.2</ele>
        <time>2022-11-19T14:29:22Z</time>
      </trkpt>
      <trkpt lat="48.97948" lon="7.83693">
        <ele>301.4</ele>
        <time>2022-11-19T14:29:23Z</time>
      </trkpt>
      <trkpt lat="48.97946" lon="7.83691">
        <ele>301.6</ele>
        <time>2022-11-19T14:29:24Z</time>
      </trkpt>
      <trkpt lat="48.97944" lon="7.83689">
        <ele>301.8</ele>
        <time>2022-11-19T14:29:25Z</time>
      </trkpt>
      <trkpt lat="48.97942" lon="7.83686">
        <ele>301.8</ele>
        <time>2022-11-19T14:29:26Z</time>
      </trkpt>
      <trkpt lat="48.97941" lon="7.83682">
        <ele>302</ele>
        <time>2022-11-19T14:29:27Z</time>
      </trkpt>
      <trkpt lat="48.97941" lon="7.8368">
        <ele>302</ele>
        <time>2022-11-19T14:29:28Z</time>
      </trkpt>
      <trkpt lat="48.9794" lon="7.83679">
        <ele>302.2</ele>
        <time>2022-11-19T14:29:29Z</time>
      </trkpt>
      <trkpt lat="48.9794" lon="7.83677">
        <ele>302.2</ele>
        <time>2022-11-19T14:29:30Z</time>
      </trkpt>
      <trkpt lat="48.97939" lon="7.83673">
        <ele>302.4</ele>
        <time>2022-11-19T14:29:31Z</time>
      </trkpt>
      <trkpt lat="48.97938" lon="7.83668">
        <ele>302.4</ele>
        <time>2022-11-19T14:29:32Z</time>
      </trkpt>
      <trkpt lat="48.97938" lon="7.83665">
        <ele>302.6</ele>
        <time>2022-11-19T14:29:33Z</time>
      </trkpt>
      <trkpt lat="48.97936" lon="7.83663">
        <ele>302.6</ele>
        <time>2022-11-19T14:29:34Z</time>
      </trkpt>
      <trkpt lat="48.97935" lon="7.83661">
        <ele>302.8</ele>
        <time>2022-11-19T14:29:35Z</time>
      </trkpt>
      <trkpt lat="48.97934" lon="7.83659">
        <ele>303</ele>
        <time>2022-11-19T14:29:36Z</time>
      </trkpt>
      <trkpt lat="48.97933" lon="7.83658">
        <ele>303</ele>
        <time>2022-11-19T14:29:37Z</time>
      </trkpt>
      <trkpt lat="48.97932" lon="7.83657">
        <ele>303.2</ele>
        <time>2022-11-19T14:29:38Z</time>
      </trkpt>
      <trkpt lat="48.9793" lon="7.83656">
        <ele>303.4</ele>
        <time>2022-11-19T14:29:39Z</time>
      </trkpt>
      <trkpt lat="48.97929" lon="7.83655">
        <ele>303.6</ele>
        <time>2022-11-19T14:29:40Z</time>
      </trkpt>
      <trkpt lat="48.97928" lon="7.83655">
        <ele>303.6</ele>
        <time>2022-11-19T14:29:41Z</time>
      </trkpt>
      <trkpt lat="48.97929" lon="7.83655">
        <ele>303.8</ele>
        <time>2022-11-19T14:29:42Z</time>
      </trkpt>
      <trkpt lat="48.97928" lon="7.83655">
        <ele>304</ele>
        <time>2022-11-19T14:29:43Z</time>
      </trkpt>
      <trkpt lat="48.97928" lon="7.83655">
        <ele>304.2</ele>
        <time>2022-11-19T14:29:44Z</time>
      </trkpt>
      <trkpt lat="48.97928" lon="7.83655">
        <ele>304.2</ele>
        <time>2022-11-19T14:29:46Z</time>
      </trkpt>
      <trkpt lat="48.97919" lon="7.83657">
        <ele>304.6</ele>
        <time>2022-11-19T14:36:13Z</time>
      </trkpt>
      <trkpt lat="48.97918" lon="7.83654">
        <ele>304.6</ele>
        <time>2022-11-19T14:36:14Z</time>
      </trkpt>
      <trkpt lat="48.97917" lon="7.83652">
        <ele>304.6</ele>
        <time>2022-11-19T14:36:15Z</time>
      </trkpt>
      <trkpt lat="48.97915" lon="7.83647">
        <ele>304.6</ele>
        <time>2022-11-19T14:36:17Z</time>
      </trkpt>
      <trkpt lat="48.97914" lon="7.83644">
        <ele>304.6</ele>
        <time>2022-11-19T14:36:18Z</time>
      </trkpt>
      <trkpt lat="48.97913" lon="7.83642">
        <ele>304.8</ele>
        <time>2022-11-19T14:36:19Z</time>
      </trkpt>
      <trkpt lat="48.97912" lon="7.83641">
        <ele>304.8</ele>
        <time>2022-11-19T14:36:20Z</time>
      </trkpt>
      <trkpt lat="48.9791" lon="7.83639">
        <ele>304.8</ele>
        <time>2022-11-19T14:36:21Z</time>
      </trkpt>
      <trkpt lat="48.97909" lon="7.83638">
        <ele>304.8</ele>
        <time>2022-11-19T14:36:22Z</time>
      </trkpt>
      <trkpt lat="48.97907" lon="7.83636">
        <ele>305</ele>
        <time>2022-11-19T14:36:23Z</time>
      </trkpt>
      <trkpt lat="48.97903" lon="7.83632">
        <ele>305.2</ele>
        <time>2022-11-19T14:36:25Z</time>
      </trkpt>
      <trkpt lat="48.97902" lon="7.8363">
        <ele>305.4</ele>
        <time>2022-11-19T14:36:26Z</time>
      </trkpt>
      <trkpt lat="48.97901" lon="7.83628">
        <ele>305.6</ele>
        <time>2022-11-19T14:36:27Z</time>
      </trkpt>
      <trkpt lat="48.979" lon="7.83625">
        <ele>305.8</ele>
        <time>2022-11-19T14:36:28Z</time>
      </trkpt>
      <trkpt lat="48.97898" lon="7.83622">
        <ele>306</ele>
        <time>2022-11-19T14:36:29Z</time>
      </trkpt>
      <trkpt lat="48.97897" lon="7.83619">
        <ele>306.2</ele>
        <time>2022-11-19T14:36:30Z</time>
      </trkpt>
      <trkpt lat="48.97896" lon="7.83617">
        <ele>306.2</ele>
        <time>2022-11-19T14:36:31Z</time>
      </trkpt>
      <trkpt lat="48.97893" lon="7.83614">
        <ele>306.8</ele>
        <time>2022-11-19T14:36:33Z</time>
      </trkpt>
      <trkpt lat="48.97892" lon="7.83613">
        <ele>306.8</ele>
        <time>2022-11-19T14:36:34Z</time>
      </trkpt>
      <trkpt lat="48.97889" lon="7.83611">
        <ele>307</ele>
        <time>2022-11-19T14:36:35Z</time>
      </trkpt>
      <trkpt lat="48.97887" lon="7.83609">
        <ele>307.2</ele>
        <time>2022-11-19T14:36:36Z</time>
      </trkpt>
      <trkpt lat="48.97886" lon="7.83605">
        <ele>307.4</ele>
        <time>2022-11-19T14:36:37Z</time>
      </trkpt>
      <trkpt lat="48.97885" lon="7.83602">
        <ele>307.6</ele>
        <time>2022-11-19T14:36:38Z</time>
      </trkpt>
      <trkpt lat="48.97883" lon="7.83598">
        <ele>307.8</ele>
        <time>2022-11-19T14:36:39Z</time>
      </trkpt>
      <trkpt lat="48.97882" lon="7.83594">
        <ele>307.8</ele>
        <time>2022-11-19T14:36:40Z</time>
      </trkpt>
      <trkpt lat="48.97881" lon="7.83589">
        <ele>308.2</ele>
        <time>2022-11-19T14:36:41Z</time>
      </trkpt>
      <trkpt lat="48.9788" lon="7.83585">
        <ele>308.4</ele>
        <time>2022-11-19T14:36:42Z</time>
      </trkpt>
      <trkpt lat="48.97878" lon="7.8358">
        <ele>308.6</ele>
        <time>2022-11-19T14:36:43Z</time>
      </trkpt>
      <trkpt lat="48.97877" lon="7.83577">
        <ele>308.8</ele>
        <time>2022-11-19T14:36:44Z</time>
      </trkpt>
      <trkpt lat="48.97875" lon="7.83575">
        <ele>309</ele>
        <time>2022-11-19T14:36:45Z</time>
      </trkpt>
      <trkpt lat="48.97873" lon="7.83572">
        <ele>309</ele>
        <time>2022-11-19T14:36:46Z</time>
      </trkpt>
      <trkpt lat="48.97872" lon="7.83569">
        <ele>309.2</ele>
        <time>2022-11-19T14:36:47Z</time>
      </trkpt>
      <trkpt lat="48.97871" lon="7.83568">
        <ele>309.4</ele>
        <time>2022-11-19T14:36:48Z</time>
      </trkpt>
      <trkpt lat="48.9787" lon="7.83566">
        <ele>309.6</ele>
        <time>2022-11-19T14:36:49Z</time>
      </trkpt>
      <trkpt lat="48.97869" lon="7.83564">
        <ele>309.8</ele>
        <time>2022-11-19T14:36:50Z</time>
      </trkpt>
      <trkpt lat="48.97867" lon="7.83564">
        <ele>310</ele>
        <time>2022-11-19T14:36:51Z</time>
      </trkpt>
      <trkpt lat="48.97865" lon="7.83562">
        <ele>310</ele>
        <time>2022-11-19T14:36:52Z</time>
      </trkpt>
      <trkpt lat="48.97863" lon="7.83559">
        <ele>310.2</ele>
        <time>2022-11-19T14:36:53Z</time>
      </trkpt>
      <trkpt lat="48.97862" lon="7.83556">
        <ele>310.4</ele>
        <time>2022-11-19T14:36:54Z</time>
      </trkpt>
      <trkpt lat="48.97861" lon="7.83552">
        <ele>310.6</ele>
        <time>2022-11-19T14:36:55Z</time>
      </trkpt>
      <trkpt lat="48.9786" lon="7.83548">
        <ele>310.6</ele>
        <time>2022-11-19T14:36:56Z</time>
      </trkpt>
      <trkpt lat="48.97859" lon="7.83545">
        <ele>311</ele>
        <time>2022-11-19T14:36:57Z</time>
      </trkpt>
      <trkpt lat="48.97858" lon="7.83541">
        <ele>311.2</ele>
        <time>2022-11-19T14:36:58Z</time>
      </trkpt>
      <trkpt lat="48.97857" lon="7.83539">
        <ele>311.4</ele>
        <time>2022-11-19T14:36:59Z</time>
      </trkpt>
      <trkpt lat="48.97856" lon="7.83536">
        <ele>311.4</ele>
        <time>2022-11-19T14:37:00Z</time>
      </trkpt>
      <trkpt lat="48.97854" lon="7.83534">
        <ele>311.4</ele>
        <time>2022-11-19T14:37:01Z</time>
      </trkpt>
      <trkpt lat="48.97852" lon="7.83532">
        <ele>311.6</ele>
        <time>2022-11-19T14:37:02Z</time>
      </trkpt>
      <trkpt lat="48.97851" lon="7.8353">
        <ele>311.6</ele>
        <time>2022-11-19T14:37:03Z</time>
      </trkpt>
      <trkpt lat="48.97849" lon="7.83529">
        <ele>311.8</ele>
        <time>2022-11-19T14:37:04Z</time>
      </trkpt>
      <trkpt lat="48.97847" lon="7.83526">
        <ele>311.8</ele>
        <time>2022-11-19T14:37:05Z</time>
      </trkpt>
      <trkpt lat="48.97845" lon="7.83525">
        <ele>312</ele>
        <time>2022-11-19T14:37:06Z</time>
      </trkpt>
      <trkpt lat="48.97844" lon="7.83523">
        <ele>312.2</ele>
        <time>2022-11-19T14:37:07Z</time>
      </trkpt>
      <trkpt lat="48.97843" lon="7.83521">
        <ele>312.6</ele>
        <time>2022-11-19T14:37:08Z</time>
      </trkpt>
      <trkpt lat="48.97842" lon="7.83518">
        <ele>312.8</ele>
        <time>2022-11-19T14:37:09Z</time>
      </trkpt>
      <trkpt lat="48.9784" lon="7.83515">
        <ele>313</ele>
        <time>2022-11-19T14:37:10Z</time>
      </trkpt>
      <trkpt lat="48.97839" lon="7.83512">
        <ele>313</ele>
        <time>2022-11-19T14:37:11Z</time>
      </trkpt>
      <trkpt lat="48.97837" lon="7.83509">
        <ele>313.2</ele>
        <time>2022-11-19T14:37:12Z</time>
      </trkpt>
      <trkpt lat="48.97836" lon="7.83506">
        <ele>313.2</ele>
        <time>2022-11-19T14:37:13Z</time>
      </trkpt>
      <trkpt lat="48.97835" lon="7.83503">
        <ele>313.4</ele>
        <time>2022-11-19T14:37:14Z</time>
      </trkpt>
      <trkpt lat="48.97833" lon="7.83501">
        <ele>313.6</ele>
        <time>2022-11-19T14:37:15Z</time>
      </trkpt>
      <trkpt lat="48.97832" lon="7.83498">
        <ele>313.8</ele>
        <time>2022-11-19T14:37:16Z</time>
      </trkpt>
      <trkpt lat="48.9783" lon="7.83496">
        <ele>314</ele>
        <time>2022-11-19T14:37:17Z</time>
      </trkpt>
      <trkpt lat="48.97829" lon="7.83494">
        <ele>314.2</ele>
        <time>2022-11-19T14:37:18Z</time>
      </trkpt>
      <trkpt lat="48.97827" lon="7.83492">
        <ele>314.4</ele>
        <time>2022-11-19T14:37:19Z</time>
      </trkpt>
      <trkpt lat="48.97825" lon="7.8349">
        <ele>314.4</ele>
        <time>2022-11-19T14:37:20Z</time>
      </trkpt>
      <trkpt lat="48.97824" lon="7.83487">
        <ele>314.6</ele>
        <time>2022-11-19T14:37:21Z</time>
      </trkpt>
      <trkpt lat="48.97822" lon="7.83485">
        <ele>314.6</ele>
        <time>2022-11-19T14:37:22Z</time>
      </trkpt>
      <trkpt lat="48.97821" lon="7.83483">
        <ele>314.8</ele>
        <time>2022-11-19T14:37:23Z</time>
      </trkpt>
      <trkpt lat="48.97819" lon="7.83481">
        <ele>314.8</ele>
        <time>2022-11-19T14:37:24Z</time>
      </trkpt>
      <trkpt lat="48.97818" lon="7.8348">
        <ele>315</ele>
        <time>2022-11-19T14:37:25Z</time>
      </trkpt>
      <trkpt lat="48.97816" lon="7.83478">
        <ele>315.2</ele>
        <time>2022-11-19T14:37:26Z</time>
      </trkpt>
      <trkpt lat="48.97815" lon="7.83475">
        <ele>315.4</ele>
        <time>2022-11-19T14:37:27Z</time>
      </trkpt>
      <trkpt lat="48.97813" lon="7.83473">
        <ele>315.6</ele>
        <time>2022-11-19T14:37:28Z</time>
      </trkpt>
      <trkpt lat="48.97812" lon="7.83471">
        <ele>315.6</ele>
        <time>2022-11-19T14:37:29Z</time>
      </trkpt>
      <trkpt lat="48.97811" lon="7.83469">
        <ele>315.8</ele>
        <time>2022-11-19T14:37:30Z</time>
      </trkpt>
      <trkpt lat="48.9781" lon="7.83467">
        <ele>315.8</ele>
        <time>2022-11-19T14:37:31Z</time>
      </trkpt>
      <trkpt lat="48.97809" lon="7.83465">
        <ele>316</ele>
        <time>2022-11-19T14:37:32Z</time>
      </trkpt>
      <trkpt lat="48.97808" lon="7.83463">
        <ele>316</ele>
        <time>2022-11-19T14:37:33Z</time>
      </trkpt>
      <trkpt lat="48.97807" lon="7.8346">
        <ele>316.2</ele>
        <time>2022-11-19T14:37:34Z</time>
      </trkpt>
      <trkpt lat="48.97806" lon="7.83457">
        <ele>316.4</ele>
        <time>2022-11-19T14:37:35Z</time>
      </trkpt>
      <trkpt lat="48.97805" lon="7.83454">
        <ele>316.6</ele>
        <time>2022-11-19T14:37:36Z</time>
      </trkpt>
      <trkpt lat="48.97804" lon="7.83452">
        <ele>316.6</ele>
        <time>2022-11-19T14:37:37Z</time>
      </trkpt>
      <trkpt lat="48.97802" lon="7.8345">
        <ele>316.8</ele>
        <time>2022-11-19T14:37:38Z</time>
      </trkpt>
      <trkpt lat="48.97802" lon="7.83448">
        <ele>317</ele>
        <time>2022-11-19T14:37:39Z</time>
      </trkpt>
      <trkpt lat="48.97801" lon="7.83445">
        <ele>317.2</ele>
        <time>2022-11-19T14:37:40Z</time>
      </trkpt>
      <trkpt lat="48.97799" lon="7.83442">
        <ele>317.2</ele>
        <time>2022-11-19T14:37:41Z</time>
      </trkpt>
      <trkpt lat="48.97798" lon="7.83439">
        <ele>317.4</ele>
        <time>2022-11-19T14:37:42Z</time>
      </trkpt>
      <trkpt lat="48.97798" lon="7.83437">
        <ele>317.6</ele>
        <time>2022-11-19T14:37:43Z</time>
      </trkpt>
      <trkpt lat="48.97797" lon="7.83434">
        <ele>317.8</ele>
        <time>2022-11-19T14:37:44Z</time>
      </trkpt>
      <trkpt lat="48.97796" lon="7.83432">
        <ele>317.8</ele>
        <time>2022-11-19T14:37:45Z</time>
      </trkpt>
      <trkpt lat="48.97795" lon="7.83431">
        <ele>318</ele>
        <time>2022-11-19T14:37:46Z</time>
      </trkpt>
      <trkpt lat="48.97793" lon="7.8343">
        <ele>318.2</ele>
        <time>2022-11-19T14:37:47Z</time>
      </trkpt>
      <trkpt lat="48.97792" lon="7.83429">
        <ele>318.2</ele>
        <time>2022-11-19T14:37:48Z</time>
      </trkpt>
      <trkpt lat="48.97789" lon="7.83428">
        <ele>318.4</ele>
        <time>2022-11-19T14:37:49Z</time>
      </trkpt>
      <trkpt lat="48.97787" lon="7.83425">
        <ele>318.4</ele>
        <time>2022-11-19T14:37:50Z</time>
      </trkpt>
      <trkpt lat="48.97786" lon="7.83423">
        <ele>318.6</ele>
        <time>2022-11-19T14:37:51Z</time>
      </trkpt>
      <trkpt lat="48.97784" lon="7.83421">
        <ele>318.8</ele>
        <time>2022-11-19T14:37:52Z</time>
      </trkpt>
      <trkpt lat="48.97783" lon="7.83419">
        <ele>319</ele>
        <time>2022-11-19T14:37:53Z</time>
      </trkpt>
      <trkpt lat="48.97781" lon="7.83417">
        <ele>319.2</ele>
        <time>2022-11-19T14:37:54Z</time>
      </trkpt>
      <trkpt lat="48.97779" lon="7.83414">
        <ele>319.4</ele>
        <time>2022-11-19T14:37:55Z</time>
      </trkpt>
      <trkpt lat="48.97778" lon="7.8341">
        <ele>319.4</ele>
        <time>2022-11-19T14:37:56Z</time>
      </trkpt>
      <trkpt lat="48.97777" lon="7.83407">
        <ele>319.4</ele>
        <time>2022-11-19T14:37:57Z</time>
      </trkpt>
      <trkpt lat="48.97776" lon="7.83404">
        <ele>319.6</ele>
        <time>2022-11-19T14:37:58Z</time>
      </trkpt>
      <trkpt lat="48.97775" lon="7.834">
        <ele>319.6</ele>
        <time>2022-11-19T14:37:59Z</time>
      </trkpt>
      <trkpt lat="48.97773" lon="7.83398">
        <ele>319.6</ele>
        <time>2022-11-19T14:38:00Z</time>
      </trkpt>
      <trkpt lat="48.97772" lon="7.83396">
        <ele>319.8</ele>
        <time>2022-11-19T14:38:01Z</time>
      </trkpt>
      <trkpt lat="48.97771" lon="7.83395">
        <ele>320</ele>
        <time>2022-11-19T14:38:02Z</time>
      </trkpt>
      <trkpt lat="48.97769" lon="7.83394">
        <ele>320.2</ele>
        <time>2022-11-19T14:38:03Z</time>
      </trkpt>
      <trkpt lat="48.97768" lon="7.83394">
        <ele>320.4</ele>
        <time>2022-11-19T14:38:04Z</time>
      </trkpt>
      <trkpt lat="48.97768" lon="7.83392">
        <ele>320.6</ele>
        <time>2022-11-19T14:38:05Z</time>
      </trkpt>
      <trkpt lat="48.97768" lon="7.83391">
        <ele>320.8</ele>
        <time>2022-11-19T14:38:06Z</time>
      </trkpt>
      <trkpt lat="48.97766" lon="7.8339">
        <ele>321</ele>
        <time>2022-11-19T14:38:07Z</time>
      </trkpt>
      <trkpt lat="48.97765" lon="7.83388">
        <ele>321</ele>
        <time>2022-11-19T14:38:08Z</time>
      </trkpt>
      <trkpt lat="48.97765" lon="7.83388">
        <ele>321.2</ele>
        <time>2022-11-19T14:38:09Z</time>
      </trkpt>
      <trkpt lat="48.97765" lon="7.83387">
        <ele>321.4</ele>
        <time>2022-11-19T14:38:10Z</time>
      </trkpt>
      <trkpt lat="48.97764" lon="7.83385">
        <ele>321.4</ele>
        <time>2022-11-19T14:38:11Z</time>
      </trkpt>
      <trkpt lat="48.97763" lon="7.83384">
        <ele>321.6</ele>
        <time>2022-11-19T14:38:12Z</time>
      </trkpt>
      <trkpt lat="48.97762" lon="7.83382">
        <ele>321.6</ele>
        <time>2022-11-19T14:38:13Z</time>
      </trkpt>
      <trkpt lat="48.97761" lon="7.8338">
        <ele>321.8</ele>
        <time>2022-11-19T14:38:14Z</time>
      </trkpt>
      <trkpt lat="48.9776" lon="7.83378">
        <ele>321.8</ele>
        <time>2022-11-19T14:38:15Z</time>
      </trkpt>
      <trkpt lat="48.97759" lon="7.83376">
        <ele>321.8</ele>
        <time>2022-11-19T14:38:16Z</time>
      </trkpt>
      <trkpt lat="48.97758" lon="7.83374">
        <ele>321.8</ele>
        <time>2022-11-19T14:38:17Z</time>
      </trkpt>
      <trkpt lat="48.97758" lon="7.83373">
        <ele>322</ele>
        <time>2022-11-19T14:38:18Z</time>
      </trkpt>
      <trkpt lat="48.97757" lon="7.83373">
        <ele>322</ele>
        <time>2022-11-19T14:38:19Z</time>
      </trkpt>
      <trkpt lat="48.97757" lon="7.83371">
        <ele>322</ele>
        <time>2022-11-19T14:38:20Z</time>
      </trkpt>
      <trkpt lat="48.97757" lon="7.83371">
        <ele>322.2</ele>
        <time>2022-11-19T14:38:21Z</time>
      </trkpt>
      <trkpt lat="48.97756" lon="7.83369">
        <ele>322.2</ele>
        <time>2022-11-19T14:38:22Z</time>
      </trkpt>
      <trkpt lat="48.97756" lon="7.83368">
        <ele>322.4</ele>
        <time>2022-11-19T14:38:23Z</time>
      </trkpt>
      <trkpt lat="48.97756" lon="7.83367">
        <ele>322.4</ele>
        <time>2022-11-19T14:38:24Z</time>
      </trkpt>
      <trkpt lat="48.97755" lon="7.83365">
        <ele>322.6</ele>
        <time>2022-11-19T14:38:25Z</time>
      </trkpt>
      <trkpt lat="48.97754" lon="7.83363">
        <ele>322.6</ele>
        <time>2022-11-19T14:38:26Z</time>
      </trkpt>
      <trkpt lat="48.97753" lon="7.83362">
        <ele>322.8</ele>
        <time>2022-11-19T14:38:27Z</time>
      </trkpt>
      <trkpt lat="48.97752" lon="7.8336">
        <ele>322.8</ele>
        <time>2022-11-19T14:38:28Z</time>
      </trkpt>
      <trkpt lat="48.97751" lon="7.83358">
        <ele>322.8</ele>
        <time>2022-11-19T14:38:29Z</time>
      </trkpt>
      <trkpt lat="48.9775" lon="7.83355">
        <ele>322.8</ele>
        <time>2022-11-19T14:38:30Z</time>
      </trkpt>
      <trkpt lat="48.97748" lon="7.83353">
        <ele>322.8</ele>
        <time>2022-11-19T14:38:31Z</time>
      </trkpt>
      <trkpt lat="48.97745" lon="7.83349">
        <ele>323</ele>
        <time>2022-11-19T14:38:33Z</time>
      </trkpt>
      <trkpt lat="48.97744" lon="7.83347">
        <ele>323.2</ele>
        <time>2022-11-19T14:38:34Z</time>
      </trkpt>
      <trkpt lat="48.9774" lon="7.83341">
        <ele>323.4</ele>
        <time>2022-11-19T14:38:36Z</time>
      </trkpt>
      <trkpt lat="48.97739" lon="7.83339">
        <ele>323.4</ele>
        <time>2022-11-19T14:38:37Z</time>
      </trkpt>
      <trkpt lat="48.97735" lon="7.83335">
        <ele>323.6</ele>
        <time>2022-11-19T14:38:39Z</time>
      </trkpt>
      <trkpt lat="48.97734" lon="7.8333">
        <ele>323.8</ele>
        <time>2022-11-19T14:38:41Z</time>
      </trkpt>
      <trkpt lat="48.97733" lon="7.8332">
        <ele>324.4</ele>
        <time>2022-11-19T14:38:44Z</time>
      </trkpt>
      <trkpt lat="48.97732" lon="7.83316">
        <ele>324.6</ele>
        <time>2022-11-19T14:38:45Z</time>
      </trkpt>
      <trkpt lat="48.9773" lon="7.83308">
        <ele>324.8</ele>
        <time>2022-11-19T14:38:47Z</time>
      </trkpt>
      <trkpt lat="48.9773" lon="7.83304">
        <ele>324.8</ele>
        <time>2022-11-19T14:38:48Z</time>
      </trkpt>
      <trkpt lat="48.97728" lon="7.83301">
        <ele>325</ele>
        <time>2022-11-19T14:38:49Z</time>
      </trkpt>
      <trkpt lat="48.97727" lon="7.83297">
        <ele>325.2</ele>
        <time>2022-11-19T14:38:50Z</time>
      </trkpt>
      <trkpt lat="48.97724" lon="7.83291">
        <ele>325.6</ele>
        <time>2022-11-19T14:38:52Z</time>
      </trkpt>
      <trkpt lat="48.97723" lon="7.83289">
        <ele>325.6</ele>
        <time>2022-11-19T14:38:53Z</time>
      </trkpt>
      <trkpt lat="48.97722" lon="7.83287">
        <ele>325.6</ele>
        <time>2022-11-19T14:38:54Z</time>
      </trkpt>
      <trkpt lat="48.97721" lon="7.83285">
        <ele>325.8</ele>
        <time>2022-11-19T14:38:55Z</time>
      </trkpt>
      <trkpt lat="48.97719" lon="7.83283">
        <ele>326</ele>
        <time>2022-11-19T14:38:56Z</time>
      </trkpt>
      <trkpt lat="48.97716" lon="7.83281">
        <ele>326.2</ele>
        <time>2022-11-19T14:38:57Z</time>
      </trkpt>
      <trkpt lat="48.97714" lon="7.8328">
        <ele>326.4</ele>
        <time>2022-11-19T14:38:58Z</time>
      </trkpt>
      <trkpt lat="48.97712" lon="7.83279">
        <ele>326.6</ele>
        <time>2022-11-19T14:38:59Z</time>
      </trkpt>
      <trkpt lat="48.97711" lon="7.83279">
        <ele>326.6</ele>
        <time>2022-11-19T14:39:00Z</time>
      </trkpt>
      <trkpt lat="48.97708" lon="7.83279">
        <ele>326.8</ele>
        <time>2022-11-19T14:39:01Z</time>
      </trkpt>
      <trkpt lat="48.97707" lon="7.83276">
        <ele>327</ele>
        <time>2022-11-19T14:39:02Z</time>
      </trkpt>
      <trkpt lat="48.97706" lon="7.83272">
        <ele>327</ele>
        <time>2022-11-19T14:39:03Z</time>
      </trkpt>
      <trkpt lat="48.97705" lon="7.83268">
        <ele>327.2</ele>
        <time>2022-11-19T14:39:04Z</time>
      </trkpt>
      <trkpt lat="48.97703" lon="7.83264">
        <ele>327.2</ele>
        <time>2022-11-19T14:39:05Z</time>
      </trkpt>
      <trkpt lat="48.97701" lon="7.8326">
        <ele>327.4</ele>
        <time>2022-11-19T14:39:06Z</time>
      </trkpt>
      <trkpt lat="48.97699" lon="7.83256">
        <ele>327.6</ele>
        <time>2022-11-19T14:39:07Z</time>
      </trkpt>
      <trkpt lat="48.97697" lon="7.83253">
        <ele>327.8</ele>
        <time>2022-11-19T14:39:08Z</time>
      </trkpt>
      <trkpt lat="48.97696" lon="7.83249">
        <ele>328</ele>
        <time>2022-11-19T14:39:09Z</time>
      </trkpt>
      <trkpt lat="48.97694" lon="7.83247">
        <ele>328.2</ele>
        <time>2022-11-19T14:39:10Z</time>
      </trkpt>
      <trkpt lat="48.97692" lon="7.83246">
        <ele>328.4</ele>
        <time>2022-11-19T14:39:11Z</time>
      </trkpt>
      <trkpt lat="48.9769" lon="7.83243">
        <ele>328.6</ele>
        <time>2022-11-19T14:39:12Z</time>
      </trkpt>
      <trkpt lat="48.97689" lon="7.83241">
        <ele>328.6</ele>
        <time>2022-11-19T14:39:13Z</time>
      </trkpt>
      <trkpt lat="48.97687" lon="7.83239">
        <ele>328.8</ele>
        <time>2022-11-19T14:39:14Z</time>
      </trkpt>
      <trkpt lat="48.97686" lon="7.83237">
        <ele>328.8</ele>
        <time>2022-11-19T14:39:15Z</time>
      </trkpt>
      <trkpt lat="48.97684" lon="7.83235">
        <ele>329</ele>
        <time>2022-11-19T14:39:16Z</time>
      </trkpt>
      <trkpt lat="48.97683" lon="7.83232">
        <ele>329</ele>
        <time>2022-11-19T14:39:17Z</time>
      </trkpt>
      <trkpt lat="48.97681" lon="7.83229">
        <ele>329.2</ele>
        <time>2022-11-19T14:39:18Z</time>
      </trkpt>
      <trkpt lat="48.97679" lon="7.83227">
        <ele>329.4</ele>
        <time>2022-11-19T14:39:19Z</time>
      </trkpt>
      <trkpt lat="48.97677" lon="7.83224">
        <ele>329.6</ele>
        <time>2022-11-19T14:39:20Z</time>
      </trkpt>
      <trkpt lat="48.97675" lon="7.83221">
        <ele>329.8</ele>
        <time>2022-11-19T14:39:21Z</time>
      </trkpt>
      <trkpt lat="48.97674" lon="7.83218">
        <ele>330</ele>
        <time>2022-11-19T14:39:22Z</time>
      </trkpt>
      <trkpt lat="48.97672" lon="7.83216">
        <ele>330</ele>
        <time>2022-11-19T14:39:23Z</time>
      </trkpt>
      <trkpt lat="48.97671" lon="7.83214">
        <ele>330</ele>
        <time>2022-11-19T14:39:24Z</time>
      </trkpt>
      <trkpt lat="48.97669" lon="7.83211">
        <ele>330.2</ele>
        <time>2022-11-19T14:39:25Z</time>
      </trkpt>
      <trkpt lat="48.97668" lon="7.83208">
        <ele>330.2</ele>
        <time>2022-11-19T14:39:26Z</time>
      </trkpt>
      <trkpt lat="48.97666" lon="7.83206">
        <ele>330.6</ele>
        <time>2022-11-19T14:39:27Z</time>
      </trkpt>
      <trkpt lat="48.97665" lon="7.83203">
        <ele>330.8</ele>
        <time>2022-11-19T14:39:28Z</time>
      </trkpt>
      <trkpt lat="48.97664" lon="7.83199">
        <ele>331.2</ele>
        <time>2022-11-19T14:39:29Z</time>
      </trkpt>
      <trkpt lat="48.97663" lon="7.83196">
        <ele>331.6</ele>
        <time>2022-11-19T14:39:30Z</time>
      </trkpt>
      <trkpt lat="48.97663" lon="7.83192">
        <ele>331.6</ele>
        <time>2022-11-19T14:39:31Z</time>
      </trkpt>
      <trkpt lat="48.97662" lon="7.83189">
        <ele>331.8</ele>
        <time>2022-11-19T14:39:32Z</time>
      </trkpt>
      <trkpt lat="48.97661" lon="7.83187">
        <ele>332</ele>
        <time>2022-11-19T14:39:33Z</time>
      </trkpt>
      <trkpt lat="48.9766" lon="7.83185">
        <ele>332</ele>
        <time>2022-11-19T14:39:34Z</time>
      </trkpt>
      <trkpt lat="48.97659" lon="7.83183">
        <ele>332.2</ele>
        <time>2022-11-19T14:39:35Z</time>
      </trkpt>
      <trkpt lat="48.97658" lon="7.8318">
        <ele>332.4</ele>
        <time>2022-11-19T14:39:36Z</time>
      </trkpt>
      <trkpt lat="48.97657" lon="7.83179">
        <ele>332.4</ele>
        <time>2022-11-19T14:39:37Z</time>
      </trkpt>
      <trkpt lat="48.97656" lon="7.83178">
        <ele>332.6</ele>
        <time>2022-11-19T14:39:38Z</time>
      </trkpt>
      <trkpt lat="48.97655" lon="7.83176">
        <ele>332.8</ele>
        <time>2022-11-19T14:39:39Z</time>
      </trkpt>
      <trkpt lat="48.97655" lon="7.83174">
        <ele>332.8</ele>
        <time>2022-11-19T14:39:40Z</time>
      </trkpt>
      <trkpt lat="48.97654" lon="7.83172">
        <ele>333</ele>
        <time>2022-11-19T14:39:41Z</time>
      </trkpt>
      <trkpt lat="48.97654" lon="7.83168">
        <ele>333.2</ele>
        <time>2022-11-19T14:39:42Z</time>
      </trkpt>
      <trkpt lat="48.97653" lon="7.83164">
        <ele>333.2</ele>
        <time>2022-11-19T14:39:43Z</time>
      </trkpt>
      <trkpt lat="48.97652" lon="7.83162">
        <ele>333.4</ele>
        <time>2022-11-19T14:39:44Z</time>
      </trkpt>
      <trkpt lat="48.97651" lon="7.83159">
        <ele>333.6</ele>
        <time>2022-11-19T14:39:45Z</time>
      </trkpt>
      <trkpt lat="48.97651" lon="7.83157">
        <ele>333.8</ele>
        <time>2022-11-19T14:39:46Z</time>
      </trkpt>
      <trkpt lat="48.9765" lon="7.83155">
        <ele>333.8</ele>
        <time>2022-11-19T14:39:47Z</time>
      </trkpt>
      <trkpt lat="48.9765" lon="7.83153">
        <ele>334</ele>
        <time>2022-11-19T14:39:48Z</time>
      </trkpt>
      <trkpt lat="48.97649" lon="7.83151">
        <ele>334</ele>
        <time>2022-11-19T14:39:49Z</time>
      </trkpt>
      <trkpt lat="48.97646" lon="7.83148">
        <ele>334.2</ele>
        <time>2022-11-19T14:39:50Z</time>
      </trkpt>
      <trkpt lat="48.97645" lon="7.83145">
        <ele>334.2</ele>
        <time>2022-11-19T14:39:51Z</time>
      </trkpt>
      <trkpt lat="48.97643" lon="7.83142">
        <ele>334.4</ele>
        <time>2022-11-19T14:39:52Z</time>
      </trkpt>
      <trkpt lat="48.97641" lon="7.8314">
        <ele>334.4</ele>
        <time>2022-11-19T14:39:53Z</time>
      </trkpt>
      <trkpt lat="48.9764" lon="7.83138">
        <ele>334.4</ele>
        <time>2022-11-19T14:39:54Z</time>
      </trkpt>
      <trkpt lat="48.97639" lon="7.83134">
        <ele>334.6</ele>
        <time>2022-11-19T14:39:55Z</time>
      </trkpt>
      <trkpt lat="48.97639" lon="7.83129">
        <ele>334.8</ele>
        <time>2022-11-19T14:39:56Z</time>
      </trkpt>
      <trkpt lat="48.97639" lon="7.83124">
        <ele>334.8</ele>
        <time>2022-11-19T14:39:57Z</time>
      </trkpt>
      <trkpt lat="48.97638" lon="7.8312">
        <ele>335</ele>
        <time>2022-11-19T14:39:58Z</time>
      </trkpt>
      <trkpt lat="48.97637" lon="7.83117">
        <ele>335.2</ele>
        <time>2022-11-19T14:39:59Z</time>
      </trkpt>
      <trkpt lat="48.97636" lon="7.83115">
        <ele>335.2</ele>
        <time>2022-11-19T14:40:00Z</time>
      </trkpt>
      <trkpt lat="48.97634" lon="7.83112">
        <ele>335.4</ele>
        <time>2022-11-19T14:40:01Z</time>
      </trkpt>
      <trkpt lat="48.97633" lon="7.8311">
        <ele>335.4</ele>
        <time>2022-11-19T14:40:02Z</time>
      </trkpt>
      <trkpt lat="48.97632" lon="7.83108">
        <ele>335.6</ele>
        <time>2022-11-19T14:40:03Z</time>
      </trkpt>
      <trkpt lat="48.9763" lon="7.83107">
        <ele>335.6</ele>
        <time>2022-11-19T14:40:04Z</time>
      </trkpt>
      <trkpt lat="48.97628" lon="7.83105">
        <ele>335.6</ele>
        <time>2022-11-19T14:40:05Z</time>
      </trkpt>
      <trkpt lat="48.97627" lon="7.831">
        <ele>335.8</ele>
        <time>2022-11-19T14:40:06Z</time>
      </trkpt>
      <trkpt lat="48.97626" lon="7.83097">
        <ele>335.8</ele>
        <time>2022-11-19T14:40:07Z</time>
      </trkpt>
      <trkpt lat="48.97624" lon="7.83095">
        <ele>335.8</ele>
        <time>2022-11-19T14:40:08Z</time>
      </trkpt>
      <trkpt lat="48.97623" lon="7.83094">
        <ele>336</ele>
        <time>2022-11-19T14:40:09Z</time>
      </trkpt>
      <trkpt lat="48.97622" lon="7.83091">
        <ele>336.2</ele>
        <time>2022-11-19T14:40:10Z</time>
      </trkpt>
      <trkpt lat="48.9762" lon="7.83089">
        <ele>336.2</ele>
        <time>2022-11-19T14:40:11Z</time>
      </trkpt>
      <trkpt lat="48.9762" lon="7.83086">
        <ele>336.4</ele>
        <time>2022-11-19T14:40:12Z</time>
      </trkpt>
      <trkpt lat="48.97619" lon="7.83083">
        <ele>336.6</ele>
        <time>2022-11-19T14:40:13Z</time>
      </trkpt>
      <trkpt lat="48.97617" lon="7.83081">
        <ele>336.6</ele>
        <time>2022-11-19T14:40:14Z</time>
      </trkpt>
      <trkpt lat="48.97615" lon="7.83079">
        <ele>336.8</ele>
        <time>2022-11-19T14:40:15Z</time>
      </trkpt>
      <trkpt lat="48.97614" lon="7.83076">
        <ele>337</ele>
        <time>2022-11-19T14:40:16Z</time>
      </trkpt>
      <trkpt lat="48.97614" lon="7.83073">
        <ele>337</ele>
        <time>2022-11-19T14:40:17Z</time>
      </trkpt>
      <trkpt lat="48.97614" lon="7.8307">
        <ele>337.2</ele>
        <time>2022-11-19T14:40:18Z</time>
      </trkpt>
      <trkpt lat="48.97613" lon="7.83067">
        <ele>337.4</ele>
        <time>2022-11-19T14:40:19Z</time>
      </trkpt>
      <trkpt lat="48.97613" lon="7.83065">
        <ele>337.6</ele>
        <time>2022-11-19T14:40:20Z</time>
      </trkpt>
      <trkpt lat="48.97612" lon="7.83063">
        <ele>337.6</ele>
        <time>2022-11-19T14:40:21Z</time>
      </trkpt>
      <trkpt lat="48.9761" lon="7.83059">
        <ele>337.8</ele>
        <time>2022-11-19T14:40:22Z</time>
      </trkpt>
      <trkpt lat="48.97609" lon="7.83057">
        <ele>338</ele>
        <time>2022-11-19T14:40:23Z</time>
      </trkpt>
      <trkpt lat="48.97609" lon="7.83054">
        <ele>338</ele>
        <time>2022-11-19T14:40:24Z</time>
      </trkpt>
      <trkpt lat="48.97608" lon="7.83052">
        <ele>338.2</ele>
        <time>2022-11-19T14:40:25Z</time>
      </trkpt>
      <trkpt lat="48.97607" lon="7.83049">
        <ele>338.4</ele>
        <time>2022-11-19T14:40:26Z</time>
      </trkpt>
      <trkpt lat="48.97606" lon="7.83048">
        <ele>338.6</ele>
        <time>2022-11-19T14:40:27Z</time>
      </trkpt>
      <trkpt lat="48.97605" lon="7.83046">
        <ele>339</ele>
        <time>2022-11-19T14:40:28Z</time>
      </trkpt>
      <trkpt lat="48.97605" lon="7.83043">
        <ele>339</ele>
        <time>2022-11-19T14:40:29Z</time>
      </trkpt>
      <trkpt lat="48.97604" lon="7.8304">
        <ele>339.4</ele>
        <time>2022-11-19T14:40:30Z</time>
      </trkpt>
      <trkpt lat="48.97603" lon="7.83036">
        <ele>339.4</ele>
        <time>2022-11-19T14:40:31Z</time>
      </trkpt>
      <trkpt lat="48.97602" lon="7.83032">
        <ele>339.8</ele>
        <time>2022-11-19T14:40:32Z</time>
      </trkpt>
      <trkpt lat="48.97601" lon="7.8303">
        <ele>339.8</ele>
        <time>2022-11-19T14:40:33Z</time>
      </trkpt>
      <trkpt lat="48.97601" lon="7.83028">
        <ele>340</ele>
        <time>2022-11-19T14:40:34Z</time>
      </trkpt>
      <trkpt lat="48.976" lon="7.83025">
        <ele>340</ele>
        <time>2022-11-19T14:40:35Z</time>
      </trkpt>
      <trkpt lat="48.97598" lon="7.83022">
        <ele>340.2</ele>
        <time>2022-11-19T14:40:36Z</time>
      </trkpt>
      <trkpt lat="48.97597" lon="7.83019">
        <ele>340.4</ele>
        <time>2022-11-19T14:40:37Z</time>
      </trkpt>
      <trkpt lat="48.97596" lon="7.83015">
        <ele>340.6</ele>
        <time>2022-11-19T14:40:38Z</time>
      </trkpt>
      <trkpt lat="48.97595" lon="7.83012">
        <ele>340.8</ele>
        <time>2022-11-19T14:40:39Z</time>
      </trkpt>
      <trkpt lat="48.97594" lon="7.83009">
        <ele>340.8</ele>
        <time>2022-11-19T14:40:40Z</time>
      </trkpt>
      <trkpt lat="48.97593" lon="7.83006">
        <ele>341</ele>
        <time>2022-11-19T14:40:41Z</time>
      </trkpt>
      <trkpt lat="48.97592" lon="7.83004">
        <ele>341.2</ele>
        <time>2022-11-19T14:40:42Z</time>
      </trkpt>
      <trkpt lat="48.97591" lon="7.83002">
        <ele>341.4</ele>
        <time>2022-11-19T14:40:43Z</time>
      </trkpt>
      <trkpt lat="48.9759" lon="7.83001">
        <ele>341.4</ele>
        <time>2022-11-19T14:40:44Z</time>
      </trkpt>
      <trkpt lat="48.97589" lon="7.82998">
        <ele>341.6</ele>
        <time>2022-11-19T14:40:45Z</time>
      </trkpt>
      <trkpt lat="48.97588" lon="7.82995">
        <ele>341.8</ele>
        <time>2022-11-19T14:40:46Z</time>
      </trkpt>
      <trkpt lat="48.97586" lon="7.82993">
        <ele>341.8</ele>
        <time>2022-11-19T14:40:47Z</time>
      </trkpt>
      <trkpt lat="48.97585" lon="7.82991">
        <ele>341.8</ele>
        <time>2022-11-19T14:40:48Z</time>
      </trkpt>
      <trkpt lat="48.97583" lon="7.82988">
        <ele>342</ele>
        <time>2022-11-19T14:40:49Z</time>
      </trkpt>
      <trkpt lat="48.97582" lon="7.82985">
        <ele>342</ele>
        <time>2022-11-19T14:40:50Z</time>
      </trkpt>
      <trkpt lat="48.97581" lon="7.82982">
        <ele>342.2</ele>
        <time>2022-11-19T14:40:51Z</time>
      </trkpt>
      <trkpt lat="48.9758" lon="7.82979">
        <ele>342.2</ele>
        <time>2022-11-19T14:40:52Z</time>
      </trkpt>
      <trkpt lat="48.97579" lon="7.82976">
        <ele>342.4</ele>
        <time>2022-11-19T14:40:53Z</time>
      </trkpt>
      <trkpt lat="48.97578" lon="7.82973">
        <ele>342.6</ele>
        <time>2022-11-19T14:40:54Z</time>
      </trkpt>
      <trkpt lat="48.97577" lon="7.8297">
        <ele>342.8</ele>
        <time>2022-11-19T14:40:55Z</time>
      </trkpt>
      <trkpt lat="48.97576" lon="7.82967">
        <ele>342.8</ele>
        <time>2022-11-19T14:40:56Z</time>
      </trkpt>
      <trkpt lat="48.97575" lon="7.82963">
        <ele>343</ele>
        <time>2022-11-19T14:40:57Z</time>
      </trkpt>
      <trkpt lat="48.97574" lon="7.82961">
        <ele>343.2</ele>
        <time>2022-11-19T14:40:58Z</time>
      </trkpt>
      <trkpt lat="48.97573" lon="7.82958">
        <ele>343.4</ele>
        <time>2022-11-19T14:40:59Z</time>
      </trkpt>
      <trkpt lat="48.97572" lon="7.82955">
        <ele>343.4</ele>
        <time>2022-11-19T14:41:00Z</time>
      </trkpt>
      <trkpt lat="48.97571" lon="7.82951">
        <ele>343.6</ele>
        <time>2022-11-19T14:41:01Z</time>
      </trkpt>
      <trkpt lat="48.97569" lon="7.82948">
        <ele>343.6</ele>
        <time>2022-11-19T14:41:02Z</time>
      </trkpt>
      <trkpt lat="48.97568" lon="7.82946">
        <ele>343.8</ele>
        <time>2022-11-19T14:41:03Z</time>
      </trkpt>
      <trkpt lat="48.97567" lon="7.82943">
        <ele>344</ele>
        <time>2022-11-19T14:41:04Z</time>
      </trkpt>
      <trkpt lat="48.97566" lon="7.82941">
        <ele>344</ele>
        <time>2022-11-19T14:41:05Z</time>
      </trkpt>
      <trkpt lat="48.97564" lon="7.82938">
        <ele>344.4</ele>
        <time>2022-11-19T14:41:06Z</time>
      </trkpt>
      <trkpt lat="48.97563" lon="7.82935">
        <ele>344.6</ele>
        <time>2022-11-19T14:41:07Z</time>
      </trkpt>
      <trkpt lat="48.97562" lon="7.82932">
        <ele>344.8</ele>
        <time>2022-11-19T14:41:08Z</time>
      </trkpt>
      <trkpt lat="48.97561" lon="7.82929">
        <ele>345</ele>
        <time>2022-11-19T14:41:09Z</time>
      </trkpt>
      <trkpt lat="48.9756" lon="7.82925">
        <ele>345.2</ele>
        <time>2022-11-19T14:41:10Z</time>
      </trkpt>
      <trkpt lat="48.97559" lon="7.82922">
        <ele>345.4</ele>
        <time>2022-11-19T14:41:11Z</time>
      </trkpt>
      <trkpt lat="48.97559" lon="7.82918">
        <ele>345.4</ele>
        <time>2022-11-19T14:41:12Z</time>
      </trkpt>
      <trkpt lat="48.97558" lon="7.82916">
        <ele>345.6</ele>
        <time>2022-11-19T14:41:13Z</time>
      </trkpt>
      <trkpt lat="48.97558" lon="7.82913">
        <ele>345.8</ele>
        <time>2022-11-19T14:41:14Z</time>
      </trkpt>
      <trkpt lat="48.97557" lon="7.82909">
        <ele>346</ele>
        <time>2022-11-19T14:41:15Z</time>
      </trkpt>
      <trkpt lat="48.97557" lon="7.82905">
        <ele>346</ele>
        <time>2022-11-19T14:41:16Z</time>
      </trkpt>
      <trkpt lat="48.97555" lon="7.82902">
        <ele>346.2</ele>
        <time>2022-11-19T14:41:17Z</time>
      </trkpt>
      <trkpt lat="48.97555" lon="7.82899">
        <ele>346.4</ele>
        <time>2022-11-19T14:41:18Z</time>
      </trkpt>
      <trkpt lat="48.97553" lon="7.82897">
        <ele>346.6</ele>
        <time>2022-11-19T14:41:19Z</time>
      </trkpt>
      <trkpt lat="48.97552" lon="7.82894">
        <ele>346.6</ele>
        <time>2022-11-19T14:41:20Z</time>
      </trkpt>
      <trkpt lat="48.97551" lon="7.82891">
        <ele>346.8</ele>
        <time>2022-11-19T14:41:21Z</time>
      </trkpt>
      <trkpt lat="48.9755" lon="7.82888">
        <ele>346.8</ele>
        <time>2022-11-19T14:41:22Z</time>
      </trkpt>
      <trkpt lat="48.97549" lon="7.82886">
        <ele>347</ele>
        <time>2022-11-19T14:41:23Z</time>
      </trkpt>
      <trkpt lat="48.97548" lon="7.82882">
        <ele>347</ele>
        <time>2022-11-19T14:41:24Z</time>
      </trkpt>
      <trkpt lat="48.97547" lon="7.82879">
        <ele>347.2</ele>
        <time>2022-11-19T14:41:25Z</time>
      </trkpt>
      <trkpt lat="48.97547" lon="7.82877">
        <ele>347.4</ele>
        <time>2022-11-19T14:41:26Z</time>
      </trkpt>
      <trkpt lat="48.97545" lon="7.82874">
        <ele>347.6</ele>
        <time>2022-11-19T14:41:27Z</time>
      </trkpt>
      <trkpt lat="48.97544" lon="7.82871">
        <ele>347.6</ele>
        <time>2022-11-19T14:41:28Z</time>
      </trkpt>
      <trkpt lat="48.97543" lon="7.82868">
        <ele>347.8</ele>
        <time>2022-11-19T14:41:29Z</time>
      </trkpt>
      <trkpt lat="48.97542" lon="7.82864">
        <ele>348</ele>
        <time>2022-11-19T14:41:30Z</time>
      </trkpt>
      <trkpt lat="48.97541" lon="7.82861">
        <ele>348</ele>
        <time>2022-11-19T14:41:31Z</time>
      </trkpt>
      <trkpt lat="48.97541" lon="7.82858">
        <ele>348.2</ele>
        <time>2022-11-19T14:41:32Z</time>
      </trkpt>
      <trkpt lat="48.97541" lon="7.82856">
        <ele>348.2</ele>
        <time>2022-11-19T14:41:33Z</time>
      </trkpt>
      <trkpt lat="48.9754" lon="7.82852">
        <ele>348.2</ele>
        <time>2022-11-19T14:41:34Z</time>
      </trkpt>
      <trkpt lat="48.9754" lon="7.82849">
        <ele>348.4</ele>
        <time>2022-11-19T14:41:35Z</time>
      </trkpt>
      <trkpt lat="48.97539" lon="7.82846">
        <ele>348.4</ele>
        <time>2022-11-19T14:41:36Z</time>
      </trkpt>
      <trkpt lat="48.97539" lon="7.82843">
        <ele>348.6</ele>
        <time>2022-11-19T14:41:37Z</time>
      </trkpt>
      <trkpt lat="48.97538" lon="7.82841">
        <ele>348.8</ele>
        <time>2022-11-19T14:41:38Z</time>
      </trkpt>
      <trkpt lat="48.97537" lon="7.82838">
        <ele>349</ele>
        <time>2022-11-19T14:41:39Z</time>
      </trkpt>
      <trkpt lat="48.97537" lon="7.82835">
        <ele>349</ele>
        <time>2022-11-19T14:41:40Z</time>
      </trkpt>
      <trkpt lat="48.97537" lon="7.82832">
        <ele>349.2</ele>
        <time>2022-11-19T14:41:41Z</time>
      </trkpt>
      <trkpt lat="48.97536" lon="7.82829">
        <ele>349.4</ele>
        <time>2022-11-19T14:41:42Z</time>
      </trkpt>
      <trkpt lat="48.97536" lon="7.82826">
        <ele>349.6</ele>
        <time>2022-11-19T14:41:43Z</time>
      </trkpt>
      <trkpt lat="48.97536" lon="7.82823">
        <ele>350</ele>
        <time>2022-11-19T14:41:44Z</time>
      </trkpt>
      <trkpt lat="48.97535" lon="7.8282">
        <ele>350</ele>
        <time>2022-11-19T14:41:45Z</time>
      </trkpt>
      <trkpt lat="48.97535" lon="7.82817">
        <ele>350</ele>
        <time>2022-11-19T14:41:46Z</time>
      </trkpt>
      <trkpt lat="48.97534" lon="7.82815">
        <ele>350.2</ele>
        <time>2022-11-19T14:41:47Z</time>
      </trkpt>
      <trkpt lat="48.97533" lon="7.82812">
        <ele>350.4</ele>
        <time>2022-11-19T14:41:48Z</time>
      </trkpt>
      <trkpt lat="48.97533" lon="7.8281">
        <ele>350.4</ele>
        <time>2022-11-19T14:41:49Z</time>
      </trkpt>
      <trkpt lat="48.97532" lon="7.82808">
        <ele>350.6</ele>
        <time>2022-11-19T14:41:50Z</time>
      </trkpt>
      <trkpt lat="48.97532" lon="7.82806">
        <ele>350.6</ele>
        <time>2022-11-19T14:41:51Z</time>
      </trkpt>
      <trkpt lat="48.97532" lon="7.82804">
        <ele>350.6</ele>
        <time>2022-11-19T14:41:52Z</time>
      </trkpt>
      <trkpt lat="48.97531" lon="7.82802">
        <ele>350.8</ele>
        <time>2022-11-19T14:41:53Z</time>
      </trkpt>
      <trkpt lat="48.97531" lon="7.82802">
        <ele>351</ele>
        <time>2022-11-19T14:41:54Z</time>
      </trkpt>
      <trkpt lat="48.97531" lon="7.82802">
        <ele>351.2</ele>
        <time>2022-11-19T14:41:55Z</time>
      </trkpt>
      <trkpt lat="48.97531" lon="7.82802">
        <ele>351.2</ele>
        <time>2022-11-19T14:41:56Z</time>
      </trkpt>
      <trkpt lat="48.97531" lon="7.82802">
        <ele>351.4</ele>
        <time>2022-11-19T14:41:57Z</time>
      </trkpt>
      <trkpt lat="48.9753" lon="7.82802">
        <ele>352</ele>
        <time>2022-11-19T14:42:21Z</time>
      </trkpt>
      <trkpt lat="48.9753" lon="7.82802">
        <ele>352</ele>
        <time>2022-11-19T14:42:23Z</time>
      </trkpt>
      <trkpt lat="48.97528" lon="7.828">
        <ele>351.2</ele>
        <time>2022-11-19T14:42:31Z</time>
      </trkpt>
      <trkpt lat="48.97527" lon="7.82797">
        <ele>351.2</ele>
        <time>2022-11-19T14:42:32Z</time>
      </trkpt>
      <trkpt lat="48.97526" lon="7.82795">
        <ele>351.2</ele>
        <time>2022-11-19T14:42:33Z</time>
      </trkpt>
      <trkpt lat="48.97525" lon="7.8279">
        <ele>351.2</ele>
        <time>2022-11-19T14:42:34Z</time>
      </trkpt>
      <trkpt lat="48.97524" lon="7.82783">
        <ele>351.2</ele>
        <time>2022-11-19T14:42:35Z</time>
      </trkpt>
      <trkpt lat="48.97521" lon="7.82776">
        <ele>351.2</ele>
        <time>2022-11-19T14:42:36Z</time>
      </trkpt>
      <trkpt lat="48.97517" lon="7.82771">
        <ele>350.8</ele>
        <time>2022-11-19T14:42:37Z</time>
      </trkpt>
      <trkpt lat="48.97513" lon="7.82765">
        <ele>350.6</ele>
        <time>2022-11-19T14:42:38Z</time>
      </trkpt>
      <trkpt lat="48.97508" lon="7.82758">
        <ele>350</ele>
        <time>2022-11-19T14:42:39Z</time>
      </trkpt>
      <trkpt lat="48.97502" lon="7.82751">
        <ele>349.4</ele>
        <time>2022-11-19T14:42:40Z</time>
      </trkpt>
      <trkpt lat="48.97492" lon="7.8274">
        <ele>348.6</ele>
        <time>2022-11-19T14:42:42Z</time>
      </trkpt>
      <trkpt lat="48.97489" lon="7.82736">
        <ele>347.6</ele>
        <time>2022-11-19T14:42:43Z</time>
      </trkpt>
      <trkpt lat="48.97485" lon="7.82731">
        <ele>346.4</ele>
        <time>2022-11-19T14:42:44Z</time>
      </trkpt>
      <trkpt lat="48.9748" lon="7.82726">
        <ele>345.2</ele>
        <time>2022-11-19T14:42:45Z</time>
      </trkpt>
      <trkpt lat="48.97476" lon="7.82719">
        <ele>344.2</ele>
        <time>2022-11-19T14:42:46Z</time>
      </trkpt>
      <trkpt lat="48.97473" lon="7.82711">
        <ele>343.2</ele>
        <time>2022-11-19T14:42:47Z</time>
      </trkpt>
      <trkpt lat="48.9747" lon="7.82702">
        <ele>342.2</ele>
        <time>2022-11-19T14:42:48Z</time>
      </trkpt>
      <trkpt lat="48.97466" lon="7.82694">
        <ele>340.8</ele>
        <time>2022-11-19T14:42:49Z</time>
      </trkpt>
      <trkpt lat="48.97462" lon="7.82684">
        <ele>339.6</ele>
        <time>2022-11-19T14:42:50Z</time>
      </trkpt>
      <trkpt lat="48.97454" lon="7.82664">
        <ele>338.4</ele>
        <time>2022-11-19T14:42:52Z</time>
      </trkpt>
      <trkpt lat="48.9745" lon="7.82654">
        <ele>337.6</ele>
        <time>2022-11-19T14:42:53Z</time>
      </trkpt>
      <trkpt lat="48.97448" lon="7.82646">
        <ele>336.8</ele>
        <time>2022-11-19T14:42:54Z</time>
      </trkpt>
      <trkpt lat="48.97441" lon="7.82624">
        <ele>335.4</ele>
        <time>2022-11-19T14:42:56Z</time>
      </trkpt>
      <trkpt lat="48.97432" lon="7.82599">
        <ele>334.2</ele>
        <time>2022-11-19T14:42:59Z</time>
      </trkpt>
      <trkpt lat="48.97427" lon="7.82581">
        <ele>333.2</ele>
        <time>2022-11-19T14:43:01Z</time>
      </trkpt>
      <trkpt lat="48.97426" lon="7.82574">
        <ele>333</ele>
        <time>2022-11-19T14:43:02Z</time>
      </trkpt>
      <trkpt lat="48.97425" lon="7.82569">
        <ele>332.6</ele>
        <time>2022-11-19T14:43:03Z</time>
      </trkpt>
      <trkpt lat="48.97423" lon="7.82563">
        <ele>332.4</ele>
        <time>2022-11-19T14:43:04Z</time>
      </trkpt>
      <trkpt lat="48.97421" lon="7.82558">
        <ele>332.2</ele>
        <time>2022-11-19T14:43:05Z</time>
      </trkpt>
      <trkpt lat="48.97419" lon="7.82551">
        <ele>332</ele>
        <time>2022-11-19T14:43:06Z</time>
      </trkpt>
      <trkpt lat="48.97417" lon="7.82545">
        <ele>332</ele>
        <time>2022-11-19T14:43:07Z</time>
      </trkpt>
      <trkpt lat="48.97412" lon="7.82538">
        <ele>331.6</ele>
        <time>2022-11-19T14:43:09Z</time>
      </trkpt>
      <trkpt lat="48.9741" lon="7.82534">
        <ele>331.6</ele>
        <time>2022-11-19T14:43:10Z</time>
      </trkpt>
      <trkpt lat="48.97407" lon="7.82531">
        <ele>331.6</ele>
        <time>2022-11-19T14:43:11Z</time>
      </trkpt>
      <trkpt lat="48.97405" lon="7.82526">
        <ele>331.4</ele>
        <time>2022-11-19T14:43:12Z</time>
      </trkpt>
      <trkpt lat="48.97403" lon="7.82522">
        <ele>331.4</ele>
        <time>2022-11-19T14:43:13Z</time>
      </trkpt>
      <trkpt lat="48.97399" lon="7.82518">
        <ele>331.4</ele>
        <time>2022-11-19T14:43:14Z</time>
      </trkpt>
      <trkpt lat="48.97394" lon="7.82514">
        <ele>331.2</ele>
        <time>2022-11-19T14:43:15Z</time>
      </trkpt>
      <trkpt lat="48.97389" lon="7.82508">
        <ele>331</ele>
        <time>2022-11-19T14:43:16Z</time>
      </trkpt>
      <trkpt lat="48.97385" lon="7.82502">
        <ele>330.8</ele>
        <time>2022-11-19T14:43:17Z</time>
      </trkpt>
      <trkpt lat="48.97382" lon="7.82497">
        <ele>330.2</ele>
        <time>2022-11-19T14:43:18Z</time>
      </trkpt>
      <trkpt lat="48.9738" lon="7.82494">
        <ele>329.4</ele>
        <time>2022-11-19T14:43:19Z</time>
      </trkpt>
      <trkpt lat="48.97378" lon="7.82491">
        <ele>329</ele>
        <time>2022-11-19T14:43:20Z</time>
      </trkpt>
      <trkpt lat="48.97375" lon="7.82487">
        <ele>328.2</ele>
        <time>2022-11-19T14:43:21Z</time>
      </trkpt>
      <trkpt lat="48.97373" lon="7.82484">
        <ele>327.6</ele>
        <time>2022-11-19T14:43:22Z</time>
      </trkpt>
      <trkpt lat="48.9737" lon="7.82481">
        <ele>326.8</ele>
        <time>2022-11-19T14:43:23Z</time>
      </trkpt>
      <trkpt lat="48.97368" lon="7.82479">
        <ele>325.4</ele>
        <time>2022-11-19T14:43:24Z</time>
      </trkpt>
      <trkpt lat="48.97365" lon="7.82479">
        <ele>324.4</ele>
        <time>2022-11-19T14:43:25Z</time>
      </trkpt>
      <trkpt lat="48.97364" lon="7.82477">
        <ele>323.8</ele>
        <time>2022-11-19T14:43:26Z</time>
      </trkpt>
      <trkpt lat="48.97362" lon="7.82474">
        <ele>323.4</ele>
        <time>2022-11-19T14:43:27Z</time>
      </trkpt>
      <trkpt lat="48.97362" lon="7.8247">
        <ele>322.8</ele>
        <time>2022-11-19T14:43:28Z</time>
      </trkpt>
      <trkpt lat="48.97362" lon="7.82468">
        <ele>322</ele>
        <time>2022-11-19T14:43:29Z</time>
      </trkpt>
      <trkpt lat="48.97362" lon="7.82466">
        <ele>321</ele>
        <time>2022-11-19T14:43:30Z</time>
      </trkpt>
      <trkpt lat="48.97362" lon="7.82466">
        <ele>320.2</ele>
        <time>2022-11-19T14:43:31Z</time>
      </trkpt>
      <trkpt lat="48.97362" lon="7.82466">
        <ele>319.8</ele>
        <time>2022-11-19T14:43:32Z</time>
      </trkpt>
      <trkpt lat="48.97362" lon="7.82466">
        <ele>319.6</ele>
        <time>2022-11-19T14:43:33Z</time>
      </trkpt>
      <trkpt lat="48.97361" lon="7.82463">
        <ele>319.2</ele>
        <time>2022-11-19T14:44:06Z</time>
      </trkpt>
      <trkpt lat="48.97361" lon="7.82451">
        <ele>319.2</ele>
        <time>2022-11-19T14:44:09Z</time>
      </trkpt>
      <trkpt lat="48.97361" lon="7.82447">
        <ele>319.2</ele>
        <time>2022-11-19T14:44:10Z</time>
      </trkpt>
      <trkpt lat="48.97361" lon="7.82444">
        <ele>319.4</ele>
        <time>2022-11-19T14:44:11Z</time>
      </trkpt>
      <trkpt lat="48.97361" lon="7.82441">
        <ele>319.4</ele>
        <time>2022-11-19T14:44:12Z</time>
      </trkpt>
      <trkpt lat="48.97361" lon="7.82432">
        <ele>319.4</ele>
        <time>2022-11-19T14:44:14Z</time>
      </trkpt>
      <trkpt lat="48.97361" lon="7.82417">
        <ele>320.2</ele>
        <time>2022-11-19T14:44:18Z</time>
      </trkpt>
      <trkpt lat="48.97362" lon="7.82409">
        <ele>321</ele>
        <time>2022-11-19T14:44:20Z</time>
      </trkpt>
      <trkpt lat="48.97362" lon="7.82406">
        <ele>321.2</ele>
        <time>2022-11-19T14:44:21Z</time>
      </trkpt>
      <trkpt lat="48.97361" lon="7.82402">
        <ele>321.6</ele>
        <time>2022-11-19T14:44:22Z</time>
      </trkpt>
      <trkpt lat="48.9736" lon="7.82399">
        <ele>321.8</ele>
        <time>2022-11-19T14:44:23Z</time>
      </trkpt>
      <trkpt lat="48.97359" lon="7.82396">
        <ele>322.2</ele>
        <time>2022-11-19T14:44:24Z</time>
      </trkpt>
      <trkpt lat="48.97358" lon="7.82391">
        <ele>322.4</ele>
        <time>2022-11-19T14:44:25Z</time>
      </trkpt>
      <trkpt lat="48.97355" lon="7.82375">
        <ele>323</ele>
        <time>2022-11-19T14:44:28Z</time>
      </trkpt>
      <trkpt lat="48.97355" lon="7.82371">
        <ele>323.2</ele>
        <time>2022-11-19T14:44:29Z</time>
      </trkpt>
      <trkpt lat="48.97355" lon="7.82366">
        <ele>323.6</ele>
        <time>2022-11-19T14:44:30Z</time>
      </trkpt>
      <trkpt lat="48.97355" lon="7.82362">
        <ele>323.8</ele>
        <time>2022-11-19T14:44:31Z</time>
      </trkpt>
      <trkpt lat="48.97354" lon="7.82359">
        <ele>324.2</ele>
        <time>2022-11-19T14:44:32Z</time>
      </trkpt>
      <trkpt lat="48.97353" lon="7.82354">
        <ele>324.4</ele>
        <time>2022-11-19T14:44:33Z</time>
      </trkpt>
      <trkpt lat="48.97352" lon="7.82351">
        <ele>324.8</ele>
        <time>2022-11-19T14:44:34Z</time>
      </trkpt>
      <trkpt lat="48.97352" lon="7.82348">
        <ele>324.8</ele>
        <time>2022-11-19T14:44:35Z</time>
      </trkpt>
      <trkpt lat="48.97352" lon="7.82345">
        <ele>325</ele>
        <time>2022-11-19T14:44:36Z</time>
      </trkpt>
      <trkpt lat="48.97352" lon="7.82343">
        <ele>325.2</ele>
        <time>2022-11-19T14:44:37Z</time>
      </trkpt>
      <trkpt lat="48.97353" lon="7.8234">
        <ele>325.6</ele>
        <time>2022-11-19T14:44:38Z</time>
      </trkpt>
      <trkpt lat="48.97354" lon="7.82335">
        <ele>325.8</ele>
        <time>2022-11-19T14:44:39Z</time>
      </trkpt>
      <trkpt lat="48.97353" lon="7.82332">
        <ele>326.2</ele>
        <time>2022-11-19T14:44:40Z</time>
      </trkpt>
      <trkpt lat="48.97352" lon="7.82329">
        <ele>326.4</ele>
        <time>2022-11-19T14:44:41Z</time>
      </trkpt>
      <trkpt lat="48.97352" lon="7.82325">
        <ele>326.4</ele>
        <time>2022-11-19T14:44:42Z</time>
      </trkpt>
      <trkpt lat="48.97352" lon="7.82322">
        <ele>326.8</ele>
        <time>2022-11-19T14:44:43Z</time>
      </trkpt>
      <trkpt lat="48.97353" lon="7.82319">
        <ele>327</ele>
        <time>2022-11-19T14:44:44Z</time>
      </trkpt>
      <trkpt lat="48.97355" lon="7.82316">
        <ele>327.2</ele>
        <time>2022-11-19T14:44:45Z</time>
      </trkpt>
      <trkpt lat="48.97355" lon="7.82313">
        <ele>327.6</ele>
        <time>2022-11-19T14:44:46Z</time>
      </trkpt>
      <trkpt lat="48.97355" lon="7.82309">
        <ele>327.8</ele>
        <time>2022-11-19T14:44:47Z</time>
      </trkpt>
      <trkpt lat="48.97355" lon="7.82305">
        <ele>328</ele>
        <time>2022-11-19T14:44:48Z</time>
      </trkpt>
      <trkpt lat="48.97354" lon="7.82301">
        <ele>328.2</ele>
        <time>2022-11-19T14:44:49Z</time>
      </trkpt>
      <trkpt lat="48.97354" lon="7.82298">
        <ele>328.4</ele>
        <time>2022-11-19T14:44:50Z</time>
      </trkpt>
      <trkpt lat="48.97354" lon="7.82295">
        <ele>328.6</ele>
        <time>2022-11-19T14:44:51Z</time>
      </trkpt>
      <trkpt lat="48.97356" lon="7.82291">
        <ele>328.8</ele>
        <time>2022-11-19T14:44:52Z</time>
      </trkpt>
      <trkpt lat="48.97356" lon="7.82288">
        <ele>329.2</ele>
        <time>2022-11-19T14:44:53Z</time>
      </trkpt>
      <trkpt lat="48.97355" lon="7.82285">
        <ele>329.4</ele>
        <time>2022-11-19T14:44:54Z</time>
      </trkpt>
      <trkpt lat="48.97355" lon="7.82283">
        <ele>329.6</ele>
        <time>2022-11-19T14:44:55Z</time>
      </trkpt>
      <trkpt lat="48.97355" lon="7.82279">
        <ele>329.8</ele>
        <time>2022-11-19T14:44:56Z</time>
      </trkpt>
      <trkpt lat="48.97355" lon="7.82276">
        <ele>330</ele>
        <time>2022-11-19T14:44:57Z</time>
      </trkpt>
      <trkpt lat="48.97355" lon="7.82273">
        <ele>330</ele>
        <time>2022-11-19T14:44:58Z</time>
      </trkpt>
      <trkpt lat="48.97354" lon="7.8227">
        <ele>330.2</ele>
        <time>2022-11-19T14:44:59Z</time>
      </trkpt>
      <trkpt lat="48.97354" lon="7.82267">
        <ele>330.6</ele>
        <time>2022-11-19T14:45:00Z</time>
      </trkpt>
      <trkpt lat="48.97353" lon="7.82263">
        <ele>330.6</ele>
        <time>2022-11-19T14:45:01Z</time>
      </trkpt>
      <trkpt lat="48.97352" lon="7.8226">
        <ele>330.8</ele>
        <time>2022-11-19T14:45:02Z</time>
      </trkpt>
      <trkpt lat="48.9735" lon="7.82255">
        <ele>330.8</ele>
        <time>2022-11-19T14:45:03Z</time>
      </trkpt>
      <trkpt lat="48.97348" lon="7.82251">
        <ele>330.8</ele>
        <time>2022-11-19T14:45:04Z</time>
      </trkpt>
      <trkpt lat="48.97346" lon="7.82247">
        <ele>330.8</ele>
        <time>2022-11-19T14:45:05Z</time>
      </trkpt>
      <trkpt lat="48.97343" lon="7.82242">
        <ele>330.8</ele>
        <time>2022-11-19T14:45:06Z</time>
      </trkpt>
      <trkpt lat="48.97341" lon="7.82235">
        <ele>330.8</ele>
        <time>2022-11-19T14:45:07Z</time>
      </trkpt>
      <trkpt lat="48.9734" lon="7.82227">
        <ele>330.8</ele>
        <time>2022-11-19T14:45:08Z</time>
      </trkpt>
      <trkpt lat="48.97338" lon="7.8222">
        <ele>330.8</ele>
        <time>2022-11-19T14:45:09Z</time>
      </trkpt>
      <trkpt lat="48.97339" lon="7.82215">
        <ele>330.8</ele>
        <time>2022-11-19T14:45:10Z</time>
      </trkpt>
      <trkpt lat="48.97342" lon="7.8221">
        <ele>330.8</ele>
        <time>2022-11-19T14:45:11Z</time>
      </trkpt>
      <trkpt lat="48.97344" lon="7.82204">
        <ele>330.4</ele>
        <time>2022-11-19T14:45:12Z</time>
      </trkpt>
      <trkpt lat="48.97344" lon="7.82199">
        <ele>330</ele>
        <time>2022-11-19T14:45:13Z</time>
      </trkpt>
      <trkpt lat="48.97344" lon="7.82194">
        <ele>329.4</ele>
        <time>2022-11-19T14:45:14Z</time>
      </trkpt>
      <trkpt lat="48.97344" lon="7.82189">
        <ele>328.6</ele>
        <time>2022-11-19T14:45:15Z</time>
      </trkpt>
      <trkpt lat="48.97346" lon="7.82185">
        <ele>328.2</ele>
        <time>2022-11-19T14:45:16Z</time>
      </trkpt>
      <trkpt lat="48.97347" lon="7.82183">
        <ele>328</ele>
        <time>2022-11-19T14:45:17Z</time>
      </trkpt>
      <trkpt lat="48.97348" lon="7.82182">
        <ele>328</ele>
        <time>2022-11-19T14:45:18Z</time>
      </trkpt>
      <trkpt lat="48.97349" lon="7.82179">
        <ele>328</ele>
        <time>2022-11-19T14:45:19Z</time>
      </trkpt>
      <trkpt lat="48.97349" lon="7.82177">
        <ele>328</ele>
        <time>2022-11-19T14:45:20Z</time>
      </trkpt>
      <trkpt lat="48.9735" lon="7.82175">
        <ele>328</ele>
        <time>2022-11-19T14:45:21Z</time>
      </trkpt>
      <trkpt lat="48.9735" lon="7.82173">
        <ele>327.8</ele>
        <time>2022-11-19T14:45:22Z</time>
      </trkpt>
      <trkpt lat="48.97351" lon="7.82171">
        <ele>327.8</ele>
        <time>2022-11-19T14:45:23Z</time>
      </trkpt>
      <trkpt lat="48.97351" lon="7.8217">
        <ele>327.8</ele>
        <time>2022-11-19T14:45:24Z</time>
      </trkpt>
      <trkpt lat="48.97351" lon="7.82168">
        <ele>328</ele>
        <time>2022-11-19T14:45:25Z</time>
      </trkpt>
      <trkpt lat="48.97352" lon="7.82167">
        <ele>328.2</ele>
        <time>2022-11-19T14:45:26Z</time>
      </trkpt>
      <trkpt lat="48.97352" lon="7.82166">
        <ele>328.6</ele>
        <time>2022-11-19T14:45:27Z</time>
      </trkpt>
      <trkpt lat="48.97353" lon="7.82165">
        <ele>329</ele>
        <time>2022-11-19T14:45:28Z</time>
      </trkpt>
      <trkpt lat="48.97354" lon="7.82164">
        <ele>329.4</ele>
        <time>2022-11-19T14:45:29Z</time>
      </trkpt>
      <trkpt lat="48.97355" lon="7.82162">
        <ele>329.6</ele>
        <time>2022-11-19T14:45:30Z</time>
      </trkpt>
      <trkpt lat="48.97356" lon="7.82161">
        <ele>330</ele>
        <time>2022-11-19T14:45:31Z</time>
      </trkpt>
      <trkpt lat="48.97356" lon="7.82159">
        <ele>330</ele>
        <time>2022-11-19T14:45:32Z</time>
      </trkpt>
      <trkpt lat="48.97357" lon="7.82157">
        <ele>330.4</ele>
        <time>2022-11-19T14:45:33Z</time>
      </trkpt>
      <trkpt lat="48.97358" lon="7.82155">
        <ele>330.8</ele>
        <time>2022-11-19T14:45:34Z</time>
      </trkpt>
      <trkpt lat="48.97359" lon="7.82153">
        <ele>331.2</ele>
        <time>2022-11-19T14:45:35Z</time>
      </trkpt>
      <trkpt lat="48.97359" lon="7.82152">
        <ele>331.6</ele>
        <time>2022-11-19T14:45:36Z</time>
      </trkpt>
      <trkpt lat="48.9736" lon="7.82151">
        <ele>332</ele>
        <time>2022-11-19T14:45:37Z</time>
      </trkpt>
      <trkpt lat="48.97361" lon="7.8215">
        <ele>332.2</ele>
        <time>2022-11-19T14:45:38Z</time>
      </trkpt>
      <trkpt lat="48.97361" lon="7.82149">
        <ele>332.6</ele>
        <time>2022-11-19T14:45:39Z</time>
      </trkpt>
      <trkpt lat="48.97362" lon="7.82149">
        <ele>333</ele>
        <time>2022-11-19T14:45:40Z</time>
      </trkpt>
      <trkpt lat="48.97363" lon="7.82148">
        <ele>333.4</ele>
        <time>2022-11-19T14:45:41Z</time>
      </trkpt>
      <trkpt lat="48.97364" lon="7.82148">
        <ele>333.6</ele>
        <time>2022-11-19T14:45:42Z</time>
      </trkpt>
      <trkpt lat="48.97365" lon="7.82147">
        <ele>334</ele>
        <time>2022-11-19T14:45:43Z</time>
      </trkpt>
      <trkpt lat="48.97367" lon="7.82146">
        <ele>334.4</ele>
        <time>2022-11-19T14:45:44Z</time>
      </trkpt>
      <trkpt lat="48.97369" lon="7.82145">
        <ele>334.6</ele>
        <time>2022-11-19T14:45:45Z</time>
      </trkpt>
      <trkpt lat="48.9737" lon="7.82145">
        <ele>335</ele>
        <time>2022-11-19T14:45:46Z</time>
      </trkpt>
      <trkpt lat="48.97371" lon="7.82145">
        <ele>335.4</ele>
        <time>2022-11-19T14:45:47Z</time>
      </trkpt>
      <trkpt lat="48.97373" lon="7.82145">
        <ele>335.6</ele>
        <time>2022-11-19T14:45:48Z</time>
      </trkpt>
      <trkpt lat="48.97375" lon="7.82144">
        <ele>336</ele>
        <time>2022-11-19T14:45:49Z</time>
      </trkpt>
      <trkpt lat="48.97376" lon="7.82143">
        <ele>336.4</ele>
        <time>2022-11-19T14:45:50Z</time>
      </trkpt>
      <trkpt lat="48.97377" lon="7.82142">
        <ele>336.6</ele>
        <time>2022-11-19T14:45:51Z</time>
      </trkpt>
      <trkpt lat="48.97378" lon="7.82142">
        <ele>337</ele>
        <time>2022-11-19T14:45:52Z</time>
      </trkpt>
      <trkpt lat="48.97378" lon="7.82142">
        <ele>337.2</ele>
        <time>2022-11-19T14:45:53Z</time>
      </trkpt>
      <trkpt lat="48.9738" lon="7.82142">
        <ele>337.4</ele>
        <time>2022-11-19T14:45:54Z</time>
      </trkpt>
      <trkpt lat="48.97382" lon="7.82141">
        <ele>337.8</ele>
        <time>2022-11-19T14:45:55Z</time>
      </trkpt>
      <trkpt lat="48.97385" lon="7.8214">
        <ele>338</ele>
        <time>2022-11-19T14:45:56Z</time>
      </trkpt>
      <trkpt lat="48.97386" lon="7.82139">
        <ele>338.4</ele>
        <time>2022-11-19T14:45:57Z</time>
      </trkpt>
      <trkpt lat="48.97387" lon="7.82138">
        <ele>338.6</ele>
        <time>2022-11-19T14:45:58Z</time>
      </trkpt>
      <trkpt lat="48.97388" lon="7.82137">
        <ele>339</ele>
        <time>2022-11-19T14:45:59Z</time>
      </trkpt>
      <trkpt lat="48.9739" lon="7.82137">
        <ele>339.2</ele>
        <time>2022-11-19T14:46:00Z</time>
      </trkpt>
      <trkpt lat="48.97392" lon="7.82137">
        <ele>339.4</ele>
        <time>2022-11-19T14:46:01Z</time>
      </trkpt>
      <trkpt lat="48.97393" lon="7.82138">
        <ele>339.8</ele>
        <time>2022-11-19T14:46:02Z</time>
      </trkpt>
      <trkpt lat="48.97394" lon="7.82139">
        <ele>340</ele>
        <time>2022-11-19T14:46:03Z</time>
      </trkpt>
      <trkpt lat="48.97394" lon="7.82139">
        <ele>340.2</ele>
        <time>2022-11-19T14:46:04Z</time>
      </trkpt>
      <trkpt lat="48.97394" lon="7.82137">
        <ele>340.4</ele>
        <time>2022-11-19T14:46:05Z</time>
      </trkpt>
      <trkpt lat="48.97395" lon="7.82135">
        <ele>340.4</ele>
        <time>2022-11-19T14:46:06Z</time>
      </trkpt>
      <trkpt lat="48.97397" lon="7.82134">
        <ele>340.4</ele>
        <time>2022-11-19T14:46:07Z</time>
      </trkpt>
      <trkpt lat="48.97399" lon="7.82132">
        <ele>340.4</ele>
        <time>2022-11-19T14:46:08Z</time>
      </trkpt>
      <trkpt lat="48.97402" lon="7.82133">
        <ele>340.4</ele>
        <time>2022-11-19T14:46:09Z</time>
      </trkpt>
      <trkpt lat="48.97403" lon="7.82133">
        <ele>340.4</ele>
        <time>2022-11-19T14:46:10Z</time>
      </trkpt>
      <trkpt lat="48.97405" lon="7.82134">
        <ele>340.6</ele>
        <time>2022-11-19T14:46:11Z</time>
      </trkpt>
      <trkpt lat="48.97406" lon="7.82134">
        <ele>340.6</ele>
        <time>2022-11-19T14:46:12Z</time>
      </trkpt>
      <trkpt lat="48.97407" lon="7.82135">
        <ele>340.8</ele>
        <time>2022-11-19T14:46:13Z</time>
      </trkpt>
      <trkpt lat="48.97408" lon="7.82136">
        <ele>340.8</ele>
        <time>2022-11-19T14:46:14Z</time>
      </trkpt>
      <trkpt lat="48.9741" lon="7.82137">
        <ele>340.8</ele>
        <time>2022-11-19T14:46:15Z</time>
      </trkpt>
      <trkpt lat="48.9741" lon="7.82137">
        <ele>341</ele>
        <time>2022-11-19T14:46:16Z</time>
      </trkpt>
      <trkpt lat="48.97411" lon="7.82137">
        <ele>341</ele>
        <time>2022-11-19T14:46:17Z</time>
      </trkpt>
      <trkpt lat="48.97412" lon="7.82136">
        <ele>341</ele>
        <time>2022-11-19T14:46:18Z</time>
      </trkpt>
      <trkpt lat="48.97413" lon="7.82135">
        <ele>341</ele>
        <time>2022-11-19T14:46:19Z</time>
      </trkpt>
      <trkpt lat="48.97414" lon="7.82134">
        <ele>341</ele>
        <time>2022-11-19T14:46:20Z</time>
      </trkpt>
      <trkpt lat="48.97415" lon="7.82133">
        <ele>341</ele>
        <time>2022-11-19T14:46:21Z</time>
      </trkpt>
      <trkpt lat="48.97416" lon="7.82132">
        <ele>341.2</ele>
        <time>2022-11-19T14:46:22Z</time>
      </trkpt>
      <trkpt lat="48.97418" lon="7.82131">
        <ele>341.4</ele>
        <time>2022-11-19T14:46:23Z</time>
      </trkpt>
      <trkpt lat="48.97421" lon="7.82132">
        <ele>341.4</ele>
        <time>2022-11-19T14:46:24Z</time>
      </trkpt>
      <trkpt lat="48.97424" lon="7.8213">
        <ele>341.4</ele>
        <time>2022-11-19T14:46:25Z</time>
      </trkpt>
      <trkpt lat="48.97426" lon="7.82129">
        <ele>341.4</ele>
        <time>2022-11-19T14:46:26Z</time>
      </trkpt>
      <trkpt lat="48.97428" lon="7.82127">
        <ele>341.6</ele>
        <time>2022-11-19T14:46:27Z</time>
      </trkpt>
      <trkpt lat="48.9743" lon="7.82126">
        <ele>341.6</ele>
        <time>2022-11-19T14:46:28Z</time>
      </trkpt>
      <trkpt lat="48.97433" lon="7.82124">
        <ele>341.6</ele>
        <time>2022-11-19T14:46:29Z</time>
      </trkpt>
      <trkpt lat="48.97437" lon="7.82123">
        <ele>341.6</ele>
        <time>2022-11-19T14:46:30Z</time>
      </trkpt>
      <trkpt lat="48.97446" lon="7.8212">
        <ele>341.6</ele>
        <time>2022-11-19T14:46:32Z</time>
      </trkpt>
      <trkpt lat="48.97456" lon="7.82115">
        <ele>341.4</ele>
        <time>2022-11-19T14:46:34Z</time>
      </trkpt>
      <trkpt lat="48.97458" lon="7.8211">
        <ele>341.4</ele>
        <time>2022-11-19T14:46:35Z</time>
      </trkpt>
      <trkpt lat="48.97458" lon="7.82092">
        <ele>341.2</ele>
        <time>2022-11-19T14:46:38Z</time>
      </trkpt>
      <trkpt lat="48.97457" lon="7.82086">
        <ele>340.8</ele>
        <time>2022-11-19T14:46:39Z</time>
      </trkpt>
      <trkpt lat="48.97455" lon="7.82082">
        <ele>340.2</ele>
        <time>2022-11-19T14:46:40Z</time>
      </trkpt>
      <trkpt lat="48.97452" lon="7.8208">
        <ele>339.8</ele>
        <time>2022-11-19T14:46:41Z</time>
      </trkpt>
      <trkpt lat="48.9744" lon="7.82077">
        <ele>339</ele>
        <time>2022-11-19T14:46:43Z</time>
      </trkpt>
      <trkpt lat="48.97436" lon="7.82075">
        <ele>338.4</ele>
        <time>2022-11-19T14:46:44Z</time>
      </trkpt>
      <trkpt lat="48.97424" lon="7.82072">
        <ele>337</ele>
        <time>2022-11-19T14:46:46Z</time>
      </trkpt>
      <trkpt lat="48.97416" lon="7.82071">
        <ele>336.6</ele>
        <time>2022-11-19T14:46:47Z</time>
      </trkpt>
      <trkpt lat="48.97409" lon="7.82068">
        <ele>336.2</ele>
        <time>2022-11-19T14:46:48Z</time>
      </trkpt>
      <trkpt lat="48.97402" lon="7.82063">
        <ele>335.2</ele>
        <time>2022-11-19T14:46:49Z</time>
      </trkpt>
      <trkpt lat="48.97397" lon="7.82058">
        <ele>333.8</ele>
        <time>2022-11-19T14:46:50Z</time>
      </trkpt>
      <trkpt lat="48.97392" lon="7.82054">
        <ele>332.4</ele>
        <time>2022-11-19T14:46:51Z</time>
      </trkpt>
      <trkpt lat="48.97385" lon="7.82052">
        <ele>331</ele>
        <time>2022-11-19T14:46:52Z</time>
      </trkpt>
      <trkpt lat="48.97378" lon="7.82053">
        <ele>329.4</ele>
        <time>2022-11-19T14:46:53Z</time>
      </trkpt>
      <trkpt lat="48.9737" lon="7.82053">
        <ele>328</ele>
        <time>2022-11-19T14:46:54Z</time>
      </trkpt>
      <trkpt lat="48.97364" lon="7.82055">
        <ele>326.6</ele>
        <time>2022-11-19T14:46:55Z</time>
      </trkpt>
      <trkpt lat="48.97357" lon="7.82057">
        <ele>325</ele>
        <time>2022-11-19T14:46:56Z</time>
      </trkpt>
      <trkpt lat="48.9735" lon="7.8206">
        <ele>324</ele>
        <time>2022-11-19T14:46:57Z</time>
      </trkpt>
      <trkpt lat="48.97343" lon="7.82064">
        <ele>323</ele>
        <time>2022-11-19T14:46:58Z</time>
      </trkpt>
      <trkpt lat="48.97337" lon="7.8207">
        <ele>321.4</ele>
        <time>2022-11-19T14:46:59Z</time>
      </trkpt>
      <trkpt lat="48.9733" lon="7.82077">
        <ele>320.6</ele>
        <time>2022-11-19T14:47:00Z</time>
      </trkpt>
      <trkpt lat="48.97322" lon="7.82085">
        <ele>319.4</ele>
        <time>2022-11-19T14:47:01Z</time>
      </trkpt>
      <trkpt lat="48.97308" lon="7.82098">
        <ele>317.8</ele>
        <time>2022-11-19T14:47:03Z</time>
      </trkpt>
      <trkpt lat="48.97303" lon="7.82108">
        <ele>317</ele>
        <time>2022-11-19T14:47:04Z</time>
      </trkpt>
      <trkpt lat="48.97298" lon="7.82118">
        <ele>315.2</ele>
        <time>2022-11-19T14:47:05Z</time>
      </trkpt>
      <trkpt lat="48.97295" lon="7.82127">
        <ele>313.8</ele>
        <time>2022-11-19T14:47:06Z</time>
      </trkpt>
      <trkpt lat="48.97292" lon="7.82137">
        <ele>312.4</ele>
        <time>2022-11-19T14:47:07Z</time>
      </trkpt>
      <trkpt lat="48.97292" lon="7.82146">
        <ele>311.2</ele>
        <time>2022-11-19T14:47:08Z</time>
      </trkpt>
      <trkpt lat="48.9729" lon="7.82154">
        <ele>310.2</ele>
        <time>2022-11-19T14:47:09Z</time>
      </trkpt>
      <trkpt lat="48.97287" lon="7.82163">
        <ele>309.2</ele>
        <time>2022-11-19T14:47:10Z</time>
      </trkpt>
      <trkpt lat="48.97283" lon="7.82167">
        <ele>308.2</ele>
        <time>2022-11-19T14:47:11Z</time>
      </trkpt>
      <trkpt lat="48.97279" lon="7.82171">
        <ele>307.6</ele>
        <time>2022-11-19T14:47:12Z</time>
      </trkpt>
      <trkpt lat="48.97276" lon="7.82175">
        <ele>306.8</ele>
        <time>2022-11-19T14:47:13Z</time>
      </trkpt>
      <trkpt lat="48.97273" lon="7.82178">
        <ele>306.4</ele>
        <time>2022-11-19T14:47:14Z</time>
      </trkpt>
      <trkpt lat="48.97271" lon="7.8218">
        <ele>306</ele>
        <time>2022-11-19T14:47:15Z</time>
      </trkpt>
      <trkpt lat="48.97266" lon="7.82181">
        <ele>305.4</ele>
        <time>2022-11-19T14:47:16Z</time>
      </trkpt>
      <trkpt lat="48.97262" lon="7.82182">
        <ele>304.4</ele>
        <time>2022-11-19T14:47:17Z</time>
      </trkpt>
      <trkpt lat="48.97255" lon="7.82182">
        <ele>302.8</ele>
        <time>2022-11-19T14:47:18Z</time>
      </trkpt>
      <trkpt lat="48.97248" lon="7.82182">
        <ele>301.8</ele>
        <time>2022-11-19T14:47:19Z</time>
      </trkpt>
      <trkpt lat="48.9724" lon="7.82183">
        <ele>301.2</ele>
        <time>2022-11-19T14:47:20Z</time>
      </trkpt>
      <trkpt lat="48.97234" lon="7.82184">
        <ele>300.4</ele>
        <time>2022-11-19T14:47:21Z</time>
      </trkpt>
      <trkpt lat="48.97227" lon="7.82186">
        <ele>299.6</ele>
        <time>2022-11-19T14:47:22Z</time>
      </trkpt>
      <trkpt lat="48.9722" lon="7.82188">
        <ele>299</ele>
        <time>2022-11-19T14:47:23Z</time>
      </trkpt>
      <trkpt lat="48.97213" lon="7.82191">
        <ele>297.6</ele>
        <time>2022-11-19T14:47:24Z</time>
      </trkpt>
      <trkpt lat="48.97205" lon="7.82194">
        <ele>296.2</ele>
        <time>2022-11-19T14:47:25Z</time>
      </trkpt>
      <trkpt lat="48.97197" lon="7.82196">
        <ele>294.8</ele>
        <time>2022-11-19T14:47:26Z</time>
      </trkpt>
      <trkpt lat="48.97182" lon="7.82199">
        <ele>293.6</ele>
        <time>2022-11-19T14:47:28Z</time>
      </trkpt>
      <trkpt lat="48.97177" lon="7.82201">
        <ele>292.8</ele>
        <time>2022-11-19T14:47:29Z</time>
      </trkpt>
      <trkpt lat="48.97172" lon="7.82203">
        <ele>292.2</ele>
        <time>2022-11-19T14:47:30Z</time>
      </trkpt>
      <trkpt lat="48.97169" lon="7.82205">
        <ele>291.8</ele>
        <time>2022-11-19T14:47:31Z</time>
      </trkpt>
      <trkpt lat="48.97168" lon="7.82206">
        <ele>291.2</ele>
        <time>2022-11-19T14:47:32Z</time>
      </trkpt>
      <trkpt lat="48.97168" lon="7.82206">
        <ele>290</ele>
        <time>2022-11-19T14:47:34Z</time>
      </trkpt>
      <trkpt lat="48.97169" lon="7.82203">
        <ele>289.4</ele>
        <time>2022-11-19T14:48:17Z</time>
      </trkpt>
      <trkpt lat="48.97172" lon="7.82201">
        <ele>289.4</ele>
        <time>2022-11-19T14:48:19Z</time>
      </trkpt>
      <trkpt lat="48.97177" lon="7.82199">
        <ele>289.4</ele>
        <time>2022-11-19T14:48:21Z</time>
      </trkpt>
      <trkpt lat="48.97179" lon="7.82197">
        <ele>289.4</ele>
        <time>2022-11-19T14:48:22Z</time>
      </trkpt>
      <trkpt lat="48.97181" lon="7.82197">
        <ele>289.6</ele>
        <time>2022-11-19T14:48:23Z</time>
      </trkpt>
      <trkpt lat="48.97183" lon="7.82196">
        <ele>289.6</ele>
        <time>2022-11-19T14:48:24Z</time>
      </trkpt>
      <trkpt lat="48.97185" lon="7.82195">
        <ele>289.6</ele>
        <time>2022-11-19T14:48:25Z</time>
      </trkpt>
      <trkpt lat="48.97201" lon="7.82188">
        <ele>290.2</ele>
        <time>2022-11-19T14:48:31Z</time>
      </trkpt>
      <trkpt lat="48.97209" lon="7.82184">
        <ele>291</ele>
        <time>2022-11-19T14:48:34Z</time>
      </trkpt>
      <trkpt lat="48.97225" lon="7.82178">
        <ele>292</ele>
        <time>2022-11-19T14:48:39Z</time>
      </trkpt>
      <trkpt lat="48.97232" lon="7.82178">
        <ele>292.4</ele>
        <time>2022-11-19T14:48:41Z</time>
      </trkpt>
      <trkpt lat="48.97235" lon="7.82178">
        <ele>292.8</ele>
        <time>2022-11-19T14:48:42Z</time>
      </trkpt>
      <trkpt lat="48.97238" lon="7.82178">
        <ele>293</ele>
        <time>2022-11-19T14:48:43Z</time>
      </trkpt>
      <trkpt lat="48.97241" lon="7.82178">
        <ele>293.2</ele>
        <time>2022-11-19T14:48:44Z</time>
      </trkpt>
      <trkpt lat="48.97244" lon="7.82178">
        <ele>293.4</ele>
        <time>2022-11-19T14:48:45Z</time>
      </trkpt>
      <trkpt lat="48.97247" lon="7.82178">
        <ele>293.6</ele>
        <time>2022-11-19T14:48:46Z</time>
      </trkpt>
      <trkpt lat="48.97249" lon="7.82178">
        <ele>293.8</ele>
        <time>2022-11-19T14:48:47Z</time>
      </trkpt>
      <trkpt lat="48.97252" lon="7.82178">
        <ele>294</ele>
        <time>2022-11-19T14:48:48Z</time>
      </trkpt>
      <trkpt lat="48.97255" lon="7.82179">
        <ele>294.2</ele>
        <time>2022-11-19T14:48:49Z</time>
      </trkpt>
      <trkpt lat="48.97257" lon="7.82179">
        <ele>294.2</ele>
        <time>2022-11-19T14:48:50Z</time>
      </trkpt>
      <trkpt lat="48.97259" lon="7.82179">
        <ele>294.4</ele>
        <time>2022-11-19T14:48:51Z</time>
      </trkpt>
      <trkpt lat="48.97261" lon="7.82178">
        <ele>294.6</ele>
        <time>2022-11-19T14:48:52Z</time>
      </trkpt>
      <trkpt lat="48.97263" lon="7.82177">
        <ele>295</ele>
        <time>2022-11-19T14:48:53Z</time>
      </trkpt>
      <trkpt lat="48.97265" lon="7.82175">
        <ele>295.2</ele>
        <time>2022-11-19T14:48:54Z</time>
      </trkpt>
      <trkpt lat="48.97266" lon="7.82173">
        <ele>295.8</ele>
        <time>2022-11-19T14:48:55Z</time>
      </trkpt>
      <trkpt lat="48.97266" lon="7.82171">
        <ele>296.2</ele>
        <time>2022-11-19T14:48:56Z</time>
      </trkpt>
      <trkpt lat="48.97267" lon="7.8217">
        <ele>296.8</ele>
        <time>2022-11-19T14:48:57Z</time>
      </trkpt>
      <trkpt lat="48.97268" lon="7.82168">
        <ele>297.4</ele>
        <time>2022-11-19T14:48:58Z</time>
      </trkpt>
      <trkpt lat="48.97269" lon="7.82166">
        <ele>297.8</ele>
        <time>2022-11-19T14:48:59Z</time>
      </trkpt>
      <trkpt lat="48.9727" lon="7.82164">
        <ele>298.4</ele>
        <time>2022-11-19T14:49:00Z</time>
      </trkpt>
      <trkpt lat="48.97271" lon="7.82163">
        <ele>298.8</ele>
        <time>2022-11-19T14:49:01Z</time>
      </trkpt>
      <trkpt lat="48.97272" lon="7.82161">
        <ele>299.2</ele>
        <time>2022-11-19T14:49:02Z</time>
      </trkpt>
      <trkpt lat="48.97273" lon="7.8216">
        <ele>299.6</ele>
        <time>2022-11-19T14:49:03Z</time>
      </trkpt>
      <trkpt lat="48.97274" lon="7.82158">
        <ele>299.8</ele>
        <time>2022-11-19T14:49:04Z</time>
      </trkpt>
      <trkpt lat="48.97275" lon="7.82156">
        <ele>300.2</ele>
        <time>2022-11-19T14:49:05Z</time>
      </trkpt>
      <trkpt lat="48.97276" lon="7.82155">
        <ele>300.4</ele>
        <time>2022-11-19T14:49:06Z</time>
      </trkpt>
      <trkpt lat="48.97277" lon="7.82153">
        <ele>300.8</ele>
        <time>2022-11-19T14:49:07Z</time>
      </trkpt>
      <trkpt lat="48.97278" lon="7.82152">
        <ele>301</ele>
        <time>2022-11-19T14:49:08Z</time>
      </trkpt>
      <trkpt lat="48.97279" lon="7.82151">
        <ele>301.4</ele>
        <time>2022-11-19T14:49:09Z</time>
      </trkpt>
      <trkpt lat="48.9728" lon="7.8215">
        <ele>301.6</ele>
        <time>2022-11-19T14:49:10Z</time>
      </trkpt>
      <trkpt lat="48.97281" lon="7.82148">
        <ele>302</ele>
        <time>2022-11-19T14:49:11Z</time>
      </trkpt>
      <trkpt lat="48.97283" lon="7.82146">
        <ele>302.4</ele>
        <time>2022-11-19T14:49:12Z</time>
      </trkpt>
      <trkpt lat="48.97283" lon="7.82145">
        <ele>302.8</ele>
        <time>2022-11-19T14:49:13Z</time>
      </trkpt>
      <trkpt lat="48.97284" lon="7.82143">
        <ele>303.2</ele>
        <time>2022-11-19T14:49:14Z</time>
      </trkpt>
      <trkpt lat="48.97284" lon="7.82142">
        <ele>303.4</ele>
        <time>2022-11-19T14:49:15Z</time>
      </trkpt>
      <trkpt lat="48.97285" lon="7.82141">
        <ele>303.8</ele>
        <time>2022-11-19T14:49:16Z</time>
      </trkpt>
      <trkpt lat="48.97286" lon="7.82139">
        <ele>304</ele>
        <time>2022-11-19T14:49:17Z</time>
      </trkpt>
      <trkpt lat="48.97287" lon="7.82137">
        <ele>304.2</ele>
        <time>2022-11-19T14:49:18Z</time>
      </trkpt>
      <trkpt lat="48.97288" lon="7.82135">
        <ele>304.6</ele>
        <time>2022-11-19T14:49:19Z</time>
      </trkpt>
      <trkpt lat="48.9729" lon="7.82132">
        <ele>304.8</ele>
        <time>2022-11-19T14:49:20Z</time>
      </trkpt>
      <trkpt lat="48.97292" lon="7.8213">
        <ele>304.8</ele>
        <time>2022-11-19T14:49:21Z</time>
      </trkpt>
      <trkpt lat="48.97292" lon="7.82128">
        <ele>305.2</ele>
        <time>2022-11-19T14:49:22Z</time>
      </trkpt>
      <trkpt lat="48.97292" lon="7.82126">
        <ele>305.4</ele>
        <time>2022-11-19T14:49:23Z</time>
      </trkpt>
      <trkpt lat="48.97293" lon="7.82125">
        <ele>305.8</ele>
        <time>2022-11-19T14:49:24Z</time>
      </trkpt>
      <trkpt lat="48.97293" lon="7.82124">
        <ele>306</ele>
        <time>2022-11-19T14:49:25Z</time>
      </trkpt>
      <trkpt lat="48.97293" lon="7.82122">
        <ele>306.2</ele>
        <time>2022-11-19T14:49:26Z</time>
      </trkpt>
      <trkpt lat="48.97294" lon="7.82121">
        <ele>306.4</ele>
        <time>2022-11-19T14:49:27Z</time>
      </trkpt>
      <trkpt lat="48.97294" lon="7.82119">
        <ele>306.6</ele>
        <time>2022-11-19T14:49:28Z</time>
      </trkpt>
      <trkpt lat="48.97295" lon="7.82117">
        <ele>306.8</ele>
        <time>2022-11-19T14:49:29Z</time>
      </trkpt>
      <trkpt lat="48.97295" lon="7.82116">
        <ele>306.8</ele>
        <time>2022-11-19T14:49:30Z</time>
      </trkpt>
      <trkpt lat="48.97297" lon="7.82114">
        <ele>307</ele>
        <time>2022-11-19T14:49:31Z</time>
      </trkpt>
      <trkpt lat="48.97297" lon="7.82113">
        <ele>307</ele>
        <time>2022-11-19T14:49:32Z</time>
      </trkpt>
      <trkpt lat="48.97298" lon="7.82112">
        <ele>307</ele>
        <time>2022-11-19T14:49:33Z</time>
      </trkpt>
      <trkpt lat="48.97298" lon="7.8211">
        <ele>307.2</ele>
        <time>2022-11-19T14:49:34Z</time>
      </trkpt>
      <trkpt lat="48.97299" lon="7.82109">
        <ele>307.2</ele>
        <time>2022-11-19T14:49:35Z</time>
      </trkpt>
      <trkpt lat="48.973" lon="7.82107">
        <ele>307.2</ele>
        <time>2022-11-19T14:49:36Z</time>
      </trkpt>
      <trkpt lat="48.97301" lon="7.82106">
        <ele>307.4</ele>
        <time>2022-11-19T14:49:37Z</time>
      </trkpt>
      <trkpt lat="48.97301" lon="7.82104">
        <ele>307.4</ele>
        <time>2022-11-19T14:49:38Z</time>
      </trkpt>
      <trkpt lat="48.97302" lon="7.82103">
        <ele>307.4</ele>
        <time>2022-11-19T14:49:39Z</time>
      </trkpt>
      <trkpt lat="48.97302" lon="7.82102">
        <ele>307.6</ele>
        <time>2022-11-19T14:49:40Z</time>
      </trkpt>
      <trkpt lat="48.97303" lon="7.82101">
        <ele>307.6</ele>
        <time>2022-11-19T14:49:41Z</time>
      </trkpt>
      <trkpt lat="48.97304" lon="7.821">
        <ele>307.6</ele>
        <time>2022-11-19T14:49:42Z</time>
      </trkpt>
      <trkpt lat="48.97304" lon="7.82098">
        <ele>307.8</ele>
        <time>2022-11-19T14:49:43Z</time>
      </trkpt>
      <trkpt lat="48.97305" lon="7.82097">
        <ele>307.8</ele>
        <time>2022-11-19T14:49:44Z</time>
      </trkpt>
      <trkpt lat="48.97306" lon="7.82096">
        <ele>308</ele>
        <time>2022-11-19T14:49:45Z</time>
      </trkpt>
      <trkpt lat="48.97306" lon="7.82094">
        <ele>308</ele>
        <time>2022-11-19T14:49:46Z</time>
      </trkpt>
      <trkpt lat="48.97307" lon="7.82093">
        <ele>308.2</ele>
        <time>2022-11-19T14:49:47Z</time>
      </trkpt>
      <trkpt lat="48.97308" lon="7.82092">
        <ele>308.2</ele>
        <time>2022-11-19T14:49:48Z</time>
      </trkpt>
      <trkpt lat="48.97309" lon="7.82091">
        <ele>308.4</ele>
        <time>2022-11-19T14:49:49Z</time>
      </trkpt>
      <trkpt lat="48.97309" lon="7.8209">
        <ele>308.4</ele>
        <time>2022-11-19T14:49:50Z</time>
      </trkpt>
      <trkpt lat="48.9731" lon="7.8209">
        <ele>308.6</ele>
        <time>2022-11-19T14:49:51Z</time>
      </trkpt>
      <trkpt lat="48.97311" lon="7.82089">
        <ele>308.8</ele>
        <time>2022-11-19T14:49:52Z</time>
      </trkpt>
      <trkpt lat="48.97311" lon="7.82089">
        <ele>309</ele>
        <time>2022-11-19T14:49:53Z</time>
      </trkpt>
      <trkpt lat="48.97311" lon="7.82088">
        <ele>309.2</ele>
        <time>2022-11-19T14:49:54Z</time>
      </trkpt>
      <trkpt lat="48.97312" lon="7.82087">
        <ele>309.4</ele>
        <time>2022-11-19T14:49:55Z</time>
      </trkpt>
      <trkpt lat="48.97313" lon="7.82086">
        <ele>309.8</ele>
        <time>2022-11-19T14:49:56Z</time>
      </trkpt>
      <trkpt lat="48.97314" lon="7.82085">
        <ele>310.2</ele>
        <time>2022-11-19T14:49:57Z</time>
      </trkpt>
      <trkpt lat="48.97314" lon="7.82084">
        <ele>310.4</ele>
        <time>2022-11-19T14:49:58Z</time>
      </trkpt>
      <trkpt lat="48.97315" lon="7.82084">
        <ele>310.6</ele>
        <time>2022-11-19T14:49:59Z</time>
      </trkpt>
      <trkpt lat="48.97317" lon="7.82083">
        <ele>310.8</ele>
        <time>2022-11-19T14:50:00Z</time>
      </trkpt>
      <trkpt lat="48.97319" lon="7.82081">
        <ele>311</ele>
        <time>2022-11-19T14:50:01Z</time>
      </trkpt>
      <trkpt lat="48.97319" lon="7.8208">
        <ele>311.2</ele>
        <time>2022-11-19T14:50:02Z</time>
      </trkpt>
      <trkpt lat="48.9732" lon="7.8208">
        <ele>311.2</ele>
        <time>2022-11-19T14:50:03Z</time>
      </trkpt>
      <trkpt lat="48.97321" lon="7.82079">
        <ele>311.4</ele>
        <time>2022-11-19T14:50:04Z</time>
      </trkpt>
      <trkpt lat="48.97322" lon="7.82077">
        <ele>311.6</ele>
        <time>2022-11-19T14:50:05Z</time>
      </trkpt>
      <trkpt lat="48.97323" lon="7.82076">
        <ele>311.8</ele>
        <time>2022-11-19T14:50:06Z</time>
      </trkpt>
      <trkpt lat="48.97323" lon="7.82074">
        <ele>312</ele>
        <time>2022-11-19T14:50:07Z</time>
      </trkpt>
      <trkpt lat="48.97325" lon="7.82072">
        <ele>312.2</ele>
        <time>2022-11-19T14:50:08Z</time>
      </trkpt>
      <trkpt lat="48.97326" lon="7.82072">
        <ele>312.4</ele>
        <time>2022-11-19T14:50:09Z</time>
      </trkpt>
      <trkpt lat="48.97326" lon="7.82071">
        <ele>312.4</ele>
        <time>2022-11-19T14:50:10Z</time>
      </trkpt>
      <trkpt lat="48.97327" lon="7.8207">
        <ele>312.6</ele>
        <time>2022-11-19T14:50:11Z</time>
      </trkpt>
      <trkpt lat="48.97328" lon="7.82069">
        <ele>312.8</ele>
        <time>2022-11-19T14:50:12Z</time>
      </trkpt>
      <trkpt lat="48.9733" lon="7.82068">
        <ele>313</ele>
        <time>2022-11-19T14:50:13Z</time>
      </trkpt>
      <trkpt lat="48.97332" lon="7.82066">
        <ele>313.2</ele>
        <time>2022-11-19T14:50:14Z</time>
      </trkpt>
      <trkpt lat="48.97333" lon="7.82065">
        <ele>313.4</ele>
        <time>2022-11-19T14:50:15Z</time>
      </trkpt>
      <trkpt lat="48.97335" lon="7.82064">
        <ele>313.6</ele>
        <time>2022-11-19T14:50:16Z</time>
      </trkpt>
      <trkpt lat="48.97338" lon="7.82064">
        <ele>313.8</ele>
        <time>2022-11-19T14:50:17Z</time>
      </trkpt>
      <trkpt lat="48.9734" lon="7.82064">
        <ele>314</ele>
        <time>2022-11-19T14:50:18Z</time>
      </trkpt>
      <trkpt lat="48.9734" lon="7.82063">
        <ele>314</ele>
        <time>2022-11-19T14:50:19Z</time>
      </trkpt>
      <trkpt lat="48.97341" lon="7.82063">
        <ele>314.2</ele>
        <time>2022-11-19T14:50:20Z</time>
      </trkpt>
      <trkpt lat="48.97341" lon="7.82062">
        <ele>314.4</ele>
        <time>2022-11-19T14:50:21Z</time>
      </trkpt>
      <trkpt lat="48.97342" lon="7.82061">
        <ele>314.6</ele>
        <time>2022-11-19T14:50:22Z</time>
      </trkpt>
      <trkpt lat="48.97342" lon="7.82061">
        <ele>314.8</ele>
        <time>2022-11-19T14:50:23Z</time>
      </trkpt>
      <trkpt lat="48.97342" lon="7.82061">
        <ele>315.4</ele>
        <time>2022-11-19T14:50:25Z</time>
      </trkpt>
      <trkpt lat="48.97343" lon="7.82064">
        <ele>316.4</ele>
        <time>2022-11-19T14:52:03Z</time>
      </trkpt>
      <trkpt lat="48.97342" lon="7.82065">
        <ele>316.4</ele>
        <time>2022-11-19T14:52:04Z</time>
      </trkpt>
      <trkpt lat="48.97341" lon="7.82066">
        <ele>316.4</ele>
        <time>2022-11-19T14:52:05Z</time>
      </trkpt>
      <trkpt lat="48.9734" lon="7.82068">
        <ele>316.4</ele>
        <time>2022-11-19T14:52:06Z</time>
      </trkpt>
      <trkpt lat="48.97335" lon="7.82072">
        <ele>316.4</ele>
        <time>2022-11-19T14:52:08Z</time>
      </trkpt>
      <trkpt lat="48.97331" lon="7.82074">
        <ele>316.4</ele>
        <time>2022-11-19T14:52:09Z</time>
      </trkpt>
      <trkpt lat="48.9731" lon="7.82093">
        <ele>316.2</ele>
        <time>2022-11-19T14:52:13Z</time>
      </trkpt>
      <trkpt lat="48.97304" lon="7.82101">
        <ele>315.8</ele>
        <time>2022-11-19T14:52:14Z</time>
      </trkpt>
      <trkpt lat="48.97294" lon="7.8212">
        <ele>315</ele>
        <time>2022-11-19T14:52:16Z</time>
      </trkpt>
      <trkpt lat="48.9729" lon="7.82131">
        <ele>313.8</ele>
        <time>2022-11-19T14:52:17Z</time>
      </trkpt>
      <trkpt lat="48.97287" lon="7.82141">
        <ele>312.8</ele>
        <time>2022-11-19T14:52:18Z</time>
      </trkpt>
      <trkpt lat="48.97284" lon="7.82149">
        <ele>312</ele>
        <time>2022-11-19T14:52:19Z</time>
      </trkpt>
      <trkpt lat="48.9728" lon="7.82155">
        <ele>310.8</ele>
        <time>2022-11-19T14:52:20Z</time>
      </trkpt>
      <trkpt lat="48.97277" lon="7.82161">
        <ele>309.8</ele>
        <time>2022-11-19T14:52:21Z</time>
      </trkpt>
      <trkpt lat="48.97274" lon="7.82164">
        <ele>308.4</ele>
        <time>2022-11-19T14:52:22Z</time>
      </trkpt>
      <trkpt lat="48.97272" lon="7.82167">
        <ele>307</ele>
        <time>2022-11-19T14:52:23Z</time>
      </trkpt>
      <trkpt lat="48.97269" lon="7.82171">
        <ele>306.2</ele>
        <time>2022-11-19T14:52:24Z</time>
      </trkpt>
      <trkpt lat="48.97267" lon="7.82174">
        <ele>305.6</ele>
        <time>2022-11-19T14:52:25Z</time>
      </trkpt>
      <trkpt lat="48.97265" lon="7.82175">
        <ele>305.2</ele>
        <time>2022-11-19T14:52:26Z</time>
      </trkpt>
      <trkpt lat="48.97262" lon="7.82176">
        <ele>304.6</ele>
        <time>2022-11-19T14:52:27Z</time>
      </trkpt>
      <trkpt lat="48.97258" lon="7.82177">
        <ele>303.8</ele>
        <time>2022-11-19T14:52:28Z</time>
      </trkpt>
      <trkpt lat="48.97254" lon="7.82178">
        <ele>303</ele>
        <time>2022-11-19T14:52:29Z</time>
      </trkpt>
      <trkpt lat="48.9725" lon="7.82179">
        <ele>302.4</ele>
        <time>2022-11-19T14:52:30Z</time>
      </trkpt>
      <trkpt lat="48.97245" lon="7.82179">
        <ele>301.6</ele>
        <time>2022-11-19T14:52:31Z</time>
      </trkpt>
      <trkpt lat="48.97234" lon="7.82179">
        <ele>300.6</ele>
        <time>2022-11-19T14:52:33Z</time>
      </trkpt>
      <trkpt lat="48.97228" lon="7.82181">
        <ele>300</ele>
        <time>2022-11-19T14:52:34Z</time>
      </trkpt>
      <trkpt lat="48.97222" lon="7.82183">
        <ele>299.4</ele>
        <time>2022-11-19T14:52:35Z</time>
      </trkpt>
      <trkpt lat="48.97217" lon="7.82185">
        <ele>298.4</ele>
        <time>2022-11-19T14:52:36Z</time>
      </trkpt>
      <trkpt lat="48.97211" lon="7.82188">
        <ele>297.4</ele>
        <time>2022-11-19T14:52:37Z</time>
      </trkpt>
      <trkpt lat="48.97205" lon="7.8219">
        <ele>296.6</ele>
        <time>2022-11-19T14:52:38Z</time>
      </trkpt>
      <trkpt lat="48.97199" lon="7.82193">
        <ele>295.4</ele>
        <time>2022-11-19T14:52:39Z</time>
      </trkpt>
      <trkpt lat="48.97186" lon="7.82197">
        <ele>294</ele>
        <time>2022-11-19T14:52:41Z</time>
      </trkpt>
      <trkpt lat="48.97179" lon="7.82198">
        <ele>293.4</ele>
        <time>2022-11-19T14:52:42Z</time>
      </trkpt>
      <trkpt lat="48.97173" lon="7.822">
        <ele>293.2</ele>
        <time>2022-11-19T14:52:43Z</time>
      </trkpt>
      <trkpt lat="48.97169" lon="7.82202">
        <ele>292.6</ele>
        <time>2022-11-19T14:52:44Z</time>
      </trkpt>
      <trkpt lat="48.97166" lon="7.82204">
        <ele>292</ele>
        <time>2022-11-19T14:52:45Z</time>
      </trkpt>
      <trkpt lat="48.97166" lon="7.82206">
        <ele>291.6</ele>
        <time>2022-11-19T14:52:46Z</time>
      </trkpt>
      <trkpt lat="48.97166" lon="7.82208">
        <ele>291.2</ele>
        <time>2022-11-19T14:52:47Z</time>
      </trkpt>
      <trkpt lat="48.97166" lon="7.82209">
        <ele>290.6</ele>
        <time>2022-11-19T14:52:48Z</time>
      </trkpt>
      <trkpt lat="48.97167" lon="7.8221">
        <ele>290</ele>
        <time>2022-11-19T14:52:49Z</time>
      </trkpt>
      <trkpt lat="48.97168" lon="7.82211">
        <ele>289.6</ele>
        <time>2022-11-19T14:52:50Z</time>
      </trkpt>
      <trkpt lat="48.9717" lon="7.82212">
        <ele>289.4</ele>
        <time>2022-11-19T14:52:52Z</time>
      </trkpt>
      <trkpt lat="48.97171" lon="7.82212">
        <ele>289.2</ele>
        <time>2022-11-19T14:52:53Z</time>
      </trkpt>
      <trkpt lat="48.9718" lon="7.82219">
        <ele>289</ele>
        <time>2022-11-19T14:52:59Z</time>
      </trkpt>
      <trkpt lat="48.97182" lon="7.82221">
        <ele>289</ele>
        <time>2022-11-19T14:53:00Z</time>
      </trkpt>
      <trkpt lat="48.97188" lon="7.82226">
        <ele>289</ele>
        <time>2022-11-19T14:53:03Z</time>
      </trkpt>
      <trkpt lat="48.97197" lon="7.82231">
        <ele>288.8</ele>
        <time>2022-11-19T14:53:07Z</time>
      </trkpt>
      <trkpt lat="48.97208" lon="7.82246">
        <ele>288.6</ele>
        <time>2022-11-19T14:53:13Z</time>
      </trkpt>
      <trkpt lat="48.97208" lon="7.8225">
        <ele>288.6</ele>
        <time>2022-11-19T14:53:14Z</time>
      </trkpt>
      <trkpt lat="48.97208" lon="7.82254">
        <ele>288.6</ele>
        <time>2022-11-19T14:53:15Z</time>
      </trkpt>
      <trkpt lat="48.97207" lon="7.82258">
        <ele>288.4</ele>
        <time>2022-11-19T14:53:16Z</time>
      </trkpt>
      <trkpt lat="48.97205" lon="7.82262">
        <ele>288.4</ele>
        <time>2022-11-19T14:53:17Z</time>
      </trkpt>
      <trkpt lat="48.97203" lon="7.82266">
        <ele>288.4</ele>
        <time>2022-11-19T14:53:18Z</time>
      </trkpt>
      <trkpt lat="48.97201" lon="7.82271">
        <ele>288.4</ele>
        <time>2022-11-19T14:53:19Z</time>
      </trkpt>
      <trkpt lat="48.97194" lon="7.823">
        <ele>288.4</ele>
        <time>2022-11-19T14:53:23Z</time>
      </trkpt>
      <trkpt lat="48.97186" lon="7.82338">
        <ele>287.8</ele>
        <time>2022-11-19T14:53:27Z</time>
      </trkpt>
      <trkpt lat="48.97185" lon="7.82346">
        <ele>287.2</ele>
        <time>2022-11-19T14:53:28Z</time>
      </trkpt>
      <trkpt lat="48.97184" lon="7.82359">
        <ele>286.6</ele>
        <time>2022-11-19T14:53:29Z</time>
      </trkpt>
      <trkpt lat="48.97183" lon="7.82369">
        <ele>286</ele>
        <time>2022-11-19T14:53:30Z</time>
      </trkpt>
      <trkpt lat="48.97182" lon="7.82379">
        <ele>285.4</ele>
        <time>2022-11-19T14:53:31Z</time>
      </trkpt>
      <trkpt lat="48.97177" lon="7.82408">
        <ele>284</ele>
        <time>2022-11-19T14:53:34Z</time>
      </trkpt>
      <trkpt lat="48.97174" lon="7.82429">
        <ele>282.8</ele>
        <time>2022-11-19T14:53:36Z</time>
      </trkpt>
      <trkpt lat="48.97172" lon="7.82439">
        <ele>282.6</ele>
        <time>2022-11-19T14:53:37Z</time>
      </trkpt>
      <trkpt lat="48.97163" lon="7.8247">
        <ele>282</ele>
        <time>2022-11-19T14:53:40Z</time>
      </trkpt>
      <trkpt lat="48.97156" lon="7.82489">
        <ele>281.8</ele>
        <time>2022-11-19T14:53:42Z</time>
      </trkpt>
      <trkpt lat="48.97146" lon="7.82523">
        <ele>281</ele>
        <time>2022-11-19T14:53:45Z</time>
      </trkpt>
      <trkpt lat="48.97144" lon="7.82532">
        <ele>280.8</ele>
        <time>2022-11-19T14:53:46Z</time>
      </trkpt>
      <trkpt lat="48.97143" lon="7.82544">
        <ele>280.2</ele>
        <time>2022-11-19T14:53:47Z</time>
      </trkpt>
      <trkpt lat="48.97141" lon="7.8257">
        <ele>279.4</ele>
        <time>2022-11-19T14:53:49Z</time>
      </trkpt>
      <trkpt lat="48.9714" lon="7.82594">
        <ele>278.4</ele>
        <time>2022-11-19T14:53:51Z</time>
      </trkpt>
      <trkpt lat="48.9714" lon="7.82603">
        <ele>277.2</ele>
        <time>2022-11-19T14:53:52Z</time>
      </trkpt>
      <trkpt lat="48.9714" lon="7.82628">
        <ele>275.8</ele>
        <time>2022-11-19T14:53:54Z</time>
      </trkpt>
      <trkpt lat="48.97144" lon="7.82649">
        <ele>275.4</ele>
        <time>2022-11-19T14:53:56Z</time>
      </trkpt>
      <trkpt lat="48.97146" lon="7.82656">
        <ele>275.2</ele>
        <time>2022-11-19T14:53:57Z</time>
      </trkpt>
      <trkpt lat="48.97146" lon="7.82665">
        <ele>275</ele>
        <time>2022-11-19T14:53:58Z</time>
      </trkpt>
      <trkpt lat="48.97145" lon="7.82673">
        <ele>274.6</ele>
        <time>2022-11-19T14:53:59Z</time>
      </trkpt>
      <trkpt lat="48.97142" lon="7.82684">
        <ele>274.2</ele>
        <time>2022-11-19T14:54:00Z</time>
      </trkpt>
      <trkpt lat="48.9714" lon="7.82692">
        <ele>273.8</ele>
        <time>2022-11-19T14:54:01Z</time>
      </trkpt>
      <trkpt lat="48.97138" lon="7.82703">
        <ele>273.6</ele>
        <time>2022-11-19T14:54:02Z</time>
      </trkpt>
      <trkpt lat="48.97135" lon="7.82715">
        <ele>273.2</ele>
        <time>2022-11-19T14:54:03Z</time>
      </trkpt>
      <trkpt lat="48.97122" lon="7.82766">
        <ele>272.2</ele>
        <time>2022-11-19T14:54:08Z</time>
      </trkpt>
      <trkpt lat="48.9712" lon="7.82777">
        <ele>271.2</ele>
        <time>2022-11-19T14:54:09Z</time>
      </trkpt>
      <trkpt lat="48.97117" lon="7.82788">
        <ele>270.2</ele>
        <time>2022-11-19T14:54:10Z</time>
      </trkpt>
      <trkpt lat="48.97114" lon="7.82799">
        <ele>269</ele>
        <time>2022-11-19T14:54:11Z</time>
      </trkpt>
      <trkpt lat="48.9711" lon="7.8281">
        <ele>268</ele>
        <time>2022-11-19T14:54:12Z</time>
      </trkpt>
      <trkpt lat="48.97107" lon="7.82822">
        <ele>267</ele>
        <time>2022-11-19T14:54:13Z</time>
      </trkpt>
      <trkpt lat="48.97103" lon="7.82836">
        <ele>266</ele>
        <time>2022-11-19T14:54:14Z</time>
      </trkpt>
      <trkpt lat="48.97099" lon="7.82848">
        <ele>264.6</ele>
        <time>2022-11-19T14:54:15Z</time>
      </trkpt>
      <trkpt lat="48.97094" lon="7.82871">
        <ele>262.6</ele>
        <time>2022-11-19T14:54:17Z</time>
      </trkpt>
      <trkpt lat="48.97091" lon="7.82884">
        <ele>261.4</ele>
        <time>2022-11-19T14:54:18Z</time>
      </trkpt>
      <trkpt lat="48.97089" lon="7.82891">
        <ele>260.4</ele>
        <time>2022-11-19T14:54:19Z</time>
      </trkpt>
      <trkpt lat="48.97087" lon="7.82899">
        <ele>259.4</ele>
        <time>2022-11-19T14:54:20Z</time>
      </trkpt>
      <trkpt lat="48.97085" lon="7.82905">
        <ele>258.2</ele>
        <time>2022-11-19T14:54:21Z</time>
      </trkpt>
      <trkpt lat="48.97083" lon="7.82909">
        <ele>257.2</ele>
        <time>2022-11-19T14:54:22Z</time>
      </trkpt>
      <trkpt lat="48.9708" lon="7.82911">
        <ele>256.4</ele>
        <time>2022-11-19T14:54:23Z</time>
      </trkpt>
      <trkpt lat="48.97075" lon="7.82912">
        <ele>255.4</ele>
        <time>2022-11-19T14:54:24Z</time>
      </trkpt>
      <trkpt lat="48.97072" lon="7.8291">
        <ele>254.2</ele>
        <time>2022-11-19T14:54:25Z</time>
      </trkpt>
      <trkpt lat="48.97065" lon="7.82906">
        <ele>252.6</ele>
        <time>2022-11-19T14:54:27Z</time>
      </trkpt>
      <trkpt lat="48.97061" lon="7.82904">
        <ele>252</ele>
        <time>2022-11-19T14:54:28Z</time>
      </trkpt>
      <trkpt lat="48.97057" lon="7.82902">
        <ele>251.6</ele>
        <time>2022-11-19T14:54:29Z</time>
      </trkpt>
      <trkpt lat="48.97053" lon="7.829">
        <ele>251</ele>
        <time>2022-11-19T14:54:30Z</time>
      </trkpt>
      <trkpt lat="48.97041" lon="7.82894">
        <ele>250</ele>
        <time>2022-11-19T14:54:33Z</time>
      </trkpt>
      <trkpt lat="48.97037" lon="7.82891">
        <ele>249.8</ele>
        <time>2022-11-19T14:54:34Z</time>
      </trkpt>
      <trkpt lat="48.97014" lon="7.82878">
        <ele>249.2</ele>
        <time>2022-11-19T14:54:39Z</time>
      </trkpt>
      <trkpt lat="48.97011" lon="7.82876">
        <ele>249</ele>
        <time>2022-11-19T14:54:40Z</time>
      </trkpt>
      <trkpt lat="48.97007" lon="7.82874">
        <ele>248.8</ele>
        <time>2022-11-19T14:54:41Z</time>
      </trkpt>
      <trkpt lat="48.97002" lon="7.82871">
        <ele>248.6</ele>
        <time>2022-11-19T14:54:42Z</time>
      </trkpt>
      <trkpt lat="48.96989" lon="7.82865">
        <ele>247.8</ele>
        <time>2022-11-19T14:54:45Z</time>
      </trkpt>
      <trkpt lat="48.96985" lon="7.82863">
        <ele>247.6</ele>
        <time>2022-11-19T14:54:46Z</time>
      </trkpt>
      <trkpt lat="48.96966" lon="7.82857">
        <ele>247.2</ele>
        <time>2022-11-19T14:54:50Z</time>
      </trkpt>
      <trkpt lat="48.96958" lon="7.82858">
        <ele>247</ele>
        <time>2022-11-19T14:54:52Z</time>
      </trkpt>
      <trkpt lat="48.96948" lon="7.82861">
        <ele>247</ele>
        <time>2022-11-19T14:54:54Z</time>
      </trkpt>
      <trkpt lat="48.96941" lon="7.82865">
        <ele>247</ele>
        <time>2022-11-19T14:54:56Z</time>
      </trkpt>
      <trkpt lat="48.96938" lon="7.82868">
        <ele>247</ele>
        <time>2022-11-19T14:54:57Z</time>
      </trkpt>
      <trkpt lat="48.96935" lon="7.82871">
        <ele>247</ele>
        <time>2022-11-19T14:54:58Z</time>
      </trkpt>
      <trkpt lat="48.96931" lon="7.82875">
        <ele>247</ele>
        <time>2022-11-19T14:54:59Z</time>
      </trkpt>
      <trkpt lat="48.96921" lon="7.82894">
        <ele>247</ele>
        <time>2022-11-19T14:55:03Z</time>
      </trkpt>
      <trkpt lat="48.96909" lon="7.82922">
        <ele>246.6</ele>
        <time>2022-11-19T14:55:08Z</time>
      </trkpt>
      <trkpt lat="48.96907" lon="7.82927">
        <ele>246.6</ele>
        <time>2022-11-19T14:55:09Z</time>
      </trkpt>
      <trkpt lat="48.96905" lon="7.82931">
        <ele>246.6</ele>
        <time>2022-11-19T14:55:10Z</time>
      </trkpt>
      <trkpt lat="48.96904" lon="7.82936">
        <ele>246.4</ele>
        <time>2022-11-19T14:55:11Z</time>
      </trkpt>
      <trkpt lat="48.969" lon="7.82944">
        <ele>246.4</ele>
        <time>2022-11-19T14:55:13Z</time>
      </trkpt>
      <trkpt lat="48.96899" lon="7.82949">
        <ele>246.2</ele>
        <time>2022-11-19T14:55:14Z</time>
      </trkpt>
      <trkpt lat="48.96897" lon="7.82953">
        <ele>246</ele>
        <time>2022-11-19T14:55:15Z</time>
      </trkpt>
      <trkpt lat="48.96891" lon="7.82967">
        <ele>245.8</ele>
        <time>2022-11-19T14:55:18Z</time>
      </trkpt>
      <trkpt lat="48.96883" lon="7.82989">
        <ele>245.6</ele>
        <time>2022-11-19T14:55:22Z</time>
      </trkpt>
      <trkpt lat="48.96876" lon="7.83004">
        <ele>245.4</ele>
        <time>2022-11-19T14:55:25Z</time>
      </trkpt>
      <trkpt lat="48.96862" lon="7.83041">
        <ele>244.6</ele>
        <time>2022-11-19T14:55:31Z</time>
      </trkpt>
      <trkpt lat="48.96856" lon="7.83052">
        <ele>244</ele>
        <time>2022-11-19T14:55:33Z</time>
      </trkpt>
      <trkpt lat="48.96854" lon="7.83058">
        <ele>244</ele>
        <time>2022-11-19T14:55:34Z</time>
      </trkpt>
      <trkpt lat="48.96851" lon="7.83063">
        <ele>243.8</ele>
        <time>2022-11-19T14:55:35Z</time>
      </trkpt>
      <trkpt lat="48.9685" lon="7.83068">
        <ele>243.6</ele>
        <time>2022-11-19T14:55:36Z</time>
      </trkpt>
      <trkpt lat="48.96848" lon="7.83073">
        <ele>243.4</ele>
        <time>2022-11-19T14:55:37Z</time>
      </trkpt>
      <trkpt lat="48.96846" lon="7.83079">
        <ele>243.4</ele>
        <time>2022-11-19T14:55:38Z</time>
      </trkpt>
      <trkpt lat="48.96844" lon="7.83089">
        <ele>243.2</ele>
        <time>2022-11-19T14:55:40Z</time>
      </trkpt>
      <trkpt lat="48.96842" lon="7.83095">
        <ele>243.2</ele>
        <time>2022-11-19T14:55:41Z</time>
      </trkpt>
      <trkpt lat="48.96836" lon="7.8311">
        <ele>242.8</ele>
        <time>2022-11-19T14:55:44Z</time>
      </trkpt>
      <trkpt lat="48.96827" lon="7.8313">
        <ele>242.4</ele>
        <time>2022-11-19T14:55:48Z</time>
      </trkpt>
      <trkpt lat="48.96812" lon="7.83163">
        <ele>241.6</ele>
        <time>2022-11-19T14:55:54Z</time>
      </trkpt>
      <trkpt lat="48.96801" lon="7.8319">
        <ele>241.4</ele>
        <time>2022-11-19T14:55:58Z</time>
      </trkpt>
      <trkpt lat="48.96794" lon="7.83202">
        <ele>240.8</ele>
        <time>2022-11-19T14:56:00Z</time>
      </trkpt>
      <trkpt lat="48.96787" lon="7.83214">
        <ele>240.4</ele>
        <time>2022-11-19T14:56:02Z</time>
      </trkpt>
      <trkpt lat="48.96782" lon="7.8322">
        <ele>240.2</ele>
        <time>2022-11-19T14:56:03Z</time>
      </trkpt>
      <trkpt lat="48.96779" lon="7.83224">
        <ele>240</ele>
        <time>2022-11-19T14:56:04Z</time>
      </trkpt>
      <trkpt lat="48.9677" lon="7.83232">
        <ele>239.2</ele>
        <time>2022-11-19T14:56:06Z</time>
      </trkpt>
      <trkpt lat="48.96765" lon="7.83235">
        <ele>238.8</ele>
        <time>2022-11-19T14:56:07Z</time>
      </trkpt>
      <trkpt lat="48.96761" lon="7.83238">
        <ele>238.4</ele>
        <time>2022-11-19T14:56:08Z</time>
      </trkpt>
      <trkpt lat="48.96757" lon="7.8324">
        <ele>238.2</ele>
        <time>2022-11-19T14:56:09Z</time>
      </trkpt>
      <trkpt lat="48.96748" lon="7.83245">
        <ele>237.8</ele>
        <time>2022-11-19T14:56:11Z</time>
      </trkpt>
      <trkpt lat="48.96744" lon="7.83246">
        <ele>237.6</ele>
        <time>2022-11-19T14:56:12Z</time>
      </trkpt>
      <trkpt lat="48.9674" lon="7.83248">
        <ele>237.6</ele>
        <time>2022-11-19T14:56:13Z</time>
      </trkpt>
      <trkpt lat="48.96736" lon="7.8325">
        <ele>237.6</ele>
        <time>2022-11-19T14:56:14Z</time>
      </trkpt>
      <trkpt lat="48.96732" lon="7.83252">
        <ele>237.4</ele>
        <time>2022-11-19T14:56:15Z</time>
      </trkpt>
      <trkpt lat="48.96728" lon="7.83254">
        <ele>237.2</ele>
        <time>2022-11-19T14:56:16Z</time>
      </trkpt>
      <trkpt lat="48.96723" lon="7.83257">
        <ele>237.2</ele>
        <time>2022-11-19T14:56:17Z</time>
      </trkpt>
      <trkpt lat="48.96719" lon="7.83258">
        <ele>237.2</ele>
        <time>2022-11-19T14:56:18Z</time>
      </trkpt>
      <trkpt lat="48.96716" lon="7.8326">
        <ele>237</ele>
        <time>2022-11-19T14:56:19Z</time>
      </trkpt>
      <trkpt lat="48.96712" lon="7.83262">
        <ele>237</ele>
        <time>2022-11-19T14:56:20Z</time>
      </trkpt>
      <trkpt lat="48.96701" lon="7.83268">
        <ele>236.8</ele>
        <time>2022-11-19T14:56:23Z</time>
      </trkpt>
      <trkpt lat="48.96697" lon="7.8327">
        <ele>236.8</ele>
        <time>2022-11-19T14:56:24Z</time>
      </trkpt>
      <trkpt lat="48.96693" lon="7.83273">
        <ele>236.4</ele>
        <time>2022-11-19T14:56:25Z</time>
      </trkpt>
      <trkpt lat="48.9669" lon="7.83274">
        <ele>236.4</ele>
        <time>2022-11-19T14:56:26Z</time>
      </trkpt>
      <trkpt lat="48.96687" lon="7.83275">
        <ele>236.2</ele>
        <time>2022-11-19T14:56:27Z</time>
      </trkpt>
      <trkpt lat="48.96685" lon="7.83276">
        <ele>236.2</ele>
        <time>2022-11-19T14:56:28Z</time>
      </trkpt>
      <trkpt lat="48.96682" lon="7.83277">
        <ele>236.2</ele>
        <time>2022-11-19T14:56:29Z</time>
      </trkpt>
      <trkpt lat="48.96679" lon="7.83277">
        <ele>236</ele>
        <time>2022-11-19T14:56:30Z</time>
      </trkpt>
      <trkpt lat="48.96677" lon="7.83278">
        <ele>236</ele>
        <time>2022-11-19T14:56:31Z</time>
      </trkpt>
      <trkpt lat="48.96675" lon="7.8328">
        <ele>236</ele>
        <time>2022-11-19T14:56:32Z</time>
      </trkpt>
      <trkpt lat="48.96673" lon="7.83281">
        <ele>236</ele>
        <time>2022-11-19T14:56:33Z</time>
      </trkpt>
      <trkpt lat="48.96671" lon="7.83283">
        <ele>235.8</ele>
        <time>2022-11-19T14:56:34Z</time>
      </trkpt>
      <trkpt lat="48.96663" lon="7.83287">
        <ele>235.8</ele>
        <time>2022-11-19T14:56:37Z</time>
      </trkpt>
      <trkpt lat="48.96661" lon="7.83288">
        <ele>235.6</ele>
        <time>2022-11-19T14:56:38Z</time>
      </trkpt>
      <trkpt lat="48.96658" lon="7.83288">
        <ele>235.4</ele>
        <time>2022-11-19T14:56:39Z</time>
      </trkpt>
      <trkpt lat="48.96656" lon="7.83289">
        <ele>235.4</ele>
        <time>2022-11-19T14:56:40Z</time>
      </trkpt>
      <trkpt lat="48.96653" lon="7.8329">
        <ele>235.4</ele>
        <time>2022-11-19T14:56:41Z</time>
      </trkpt>
      <trkpt lat="48.96651" lon="7.83291">
        <ele>235.2</ele>
        <time>2022-11-19T14:56:42Z</time>
      </trkpt>
      <trkpt lat="48.96634" lon="7.83298">
        <ele>234.8</ele>
        <time>2022-11-19T14:56:47Z</time>
      </trkpt>
      <trkpt lat="48.9662" lon="7.83305">
        <ele>234.6</ele>
        <time>2022-11-19T14:56:51Z</time>
      </trkpt>
      <trkpt lat="48.96618" lon="7.83307">
        <ele>234.4</ele>
        <time>2022-11-19T14:56:52Z</time>
      </trkpt>
      <trkpt lat="48.96616" lon="7.83308">
        <ele>234.4</ele>
        <time>2022-11-19T14:56:53Z</time>
      </trkpt>
      <trkpt lat="48.96614" lon="7.8331">
        <ele>234.2</ele>
        <time>2022-11-19T14:56:54Z</time>
      </trkpt>
      <trkpt lat="48.96612" lon="7.83312">
        <ele>234</ele>
        <time>2022-11-19T14:56:55Z</time>
      </trkpt>
      <trkpt lat="48.96602" lon="7.83318">
        <ele>233.8</ele>
        <time>2022-11-19T14:56:59Z</time>
      </trkpt>
      <trkpt lat="48.96597" lon="7.83321">
        <ele>233.6</ele>
        <time>2022-11-19T14:57:01Z</time>
      </trkpt>
      <trkpt lat="48.96595" lon="7.83322">
        <ele>233.4</ele>
        <time>2022-11-19T14:57:02Z</time>
      </trkpt>
      <trkpt lat="48.9659" lon="7.83323">
        <ele>233.4</ele>
        <time>2022-11-19T14:57:04Z</time>
      </trkpt>
      <trkpt lat="48.96581" lon="7.83328">
        <ele>233</ele>
        <time>2022-11-19T14:57:08Z</time>
      </trkpt>
      <trkpt lat="48.96562" lon="7.83337">
        <ele>232.2</ele>
        <time>2022-11-19T14:57:16Z</time>
      </trkpt>
      <trkpt lat="48.96531" lon="7.8335">
        <ele>231.4</ele>
        <time>2022-11-19T14:57:27Z</time>
      </trkpt>
      <trkpt lat="48.96528" lon="7.83352">
        <ele>231.2</ele>
        <time>2022-11-19T14:57:28Z</time>
      </trkpt>
      <trkpt lat="48.96505" lon="7.83364">
        <ele>230.4</ele>
        <time>2022-11-19T14:57:35Z</time>
      </trkpt>
      <trkpt lat="48.96494" lon="7.83372">
        <ele>230.2</ele>
        <time>2022-11-19T14:57:39Z</time>
      </trkpt>
      <trkpt lat="48.96491" lon="7.83374">
        <ele>230.2</ele>
        <time>2022-11-19T14:57:40Z</time>
      </trkpt>
      <trkpt lat="48.96486" lon="7.83378">
        <ele>229.8</ele>
        <time>2022-11-19T14:57:42Z</time>
      </trkpt>
      <trkpt lat="48.96483" lon="7.8338">
        <ele>229.8</ele>
        <time>2022-11-19T14:57:43Z</time>
      </trkpt>
      <trkpt lat="48.9648" lon="7.83382">
        <ele>229.8</ele>
        <time>2022-11-19T14:57:44Z</time>
      </trkpt>
      <trkpt lat="48.96478" lon="7.83383">
        <ele>229.6</ele>
        <time>2022-11-19T14:57:45Z</time>
      </trkpt>
      <trkpt lat="48.96475" lon="7.83385">
        <ele>229.6</ele>
        <time>2022-11-19T14:57:46Z</time>
      </trkpt>
      <trkpt lat="48.96473" lon="7.83387">
        <ele>229.6</ele>
        <time>2022-11-19T14:57:47Z</time>
      </trkpt>
      <trkpt lat="48.96471" lon="7.83389">
        <ele>229.4</ele>
        <time>2022-11-19T14:57:48Z</time>
      </trkpt>
      <trkpt lat="48.96468" lon="7.83391">
        <ele>229.4</ele>
        <time>2022-11-19T14:57:49Z</time>
      </trkpt>
      <trkpt lat="48.96457" lon="7.83399">
        <ele>229.2</ele>
        <time>2022-11-19T14:57:53Z</time>
      </trkpt>
      <trkpt lat="48.96443" lon="7.83409">
        <ele>229</ele>
        <time>2022-11-19T14:57:58Z</time>
      </trkpt>
      <trkpt lat="48.96441" lon="7.8341">
        <ele>229</ele>
        <time>2022-11-19T14:57:59Z</time>
      </trkpt>
      <trkpt lat="48.96439" lon="7.83411">
        <ele>229</ele>
        <time>2022-11-19T14:58:00Z</time>
      </trkpt>
      <trkpt lat="48.96437" lon="7.83411">
        <ele>229</ele>
        <time>2022-11-19T14:58:01Z</time>
      </trkpt>
      <trkpt lat="48.96432" lon="7.83414">
        <ele>228.8</ele>
        <time>2022-11-19T14:58:03Z</time>
      </trkpt>
      <trkpt lat="48.96428" lon="7.83419">
        <ele>228.8</ele>
        <time>2022-11-19T14:58:05Z</time>
      </trkpt>
      <trkpt lat="48.96426" lon="7.83421">
        <ele>228.8</ele>
        <time>2022-11-19T14:58:06Z</time>
      </trkpt>
      <trkpt lat="48.96425" lon="7.83423">
        <ele>228.8</ele>
        <time>2022-11-19T14:58:07Z</time>
      </trkpt>
      <trkpt lat="48.96422" lon="7.83425">
        <ele>228.8</ele>
        <time>2022-11-19T14:58:08Z</time>
      </trkpt>
      <trkpt lat="48.9642" lon="7.83428">
        <ele>228.6</ele>
        <time>2022-11-19T14:58:09Z</time>
      </trkpt>
      <trkpt lat="48.96413" lon="7.83433">
        <ele>228.6</ele>
        <time>2022-11-19T14:58:12Z</time>
      </trkpt>
      <trkpt lat="48.96396" lon="7.83446">
        <ele>228.6</ele>
        <time>2022-11-19T14:58:19Z</time>
      </trkpt>
      <trkpt lat="48.96378" lon="7.83464">
        <ele>228.6</ele>
        <time>2022-11-19T14:58:26Z</time>
      </trkpt>
      <trkpt lat="48.96375" lon="7.83466">
        <ele>228.6</ele>
        <time>2022-11-19T14:58:27Z</time>
      </trkpt>
      <trkpt lat="48.96373" lon="7.83468">
        <ele>228.8</ele>
        <time>2022-11-19T14:58:28Z</time>
      </trkpt>
      <trkpt lat="48.96346" lon="7.83492">
        <ele>228.8</ele>
        <time>2022-11-19T14:58:38Z</time>
      </trkpt>
      <trkpt lat="48.96343" lon="7.83494">
        <ele>228.8</ele>
        <time>2022-11-19T14:58:39Z</time>
      </trkpt>
      <trkpt lat="48.96334" lon="7.83501">
        <ele>228.4</ele>
        <time>2022-11-19T14:58:43Z</time>
      </trkpt>
      <trkpt lat="48.96331" lon="7.83503">
        <ele>228.4</ele>
        <time>2022-11-19T14:58:44Z</time>
      </trkpt>
      <trkpt lat="48.96328" lon="7.83505">
        <ele>228.2</ele>
        <time>2022-11-19T14:58:45Z</time>
      </trkpt>
      <trkpt lat="48.96326" lon="7.83507">
        <ele>228.2</ele>
        <time>2022-11-19T14:58:46Z</time>
      </trkpt>
      <trkpt lat="48.96323" lon="7.83509">
        <ele>228.2</ele>
        <time>2022-11-19T14:58:47Z</time>
      </trkpt>
      <trkpt lat="48.96321" lon="7.83511">
        <ele>228</ele>
        <time>2022-11-19T14:58:48Z</time>
      </trkpt>
      <trkpt lat="48.96319" lon="7.83513">
        <ele>228</ele>
        <time>2022-11-19T14:58:49Z</time>
      </trkpt>
      <trkpt lat="48.96317" lon="7.83515">
        <ele>228</ele>
        <time>2022-11-19T14:58:50Z</time>
      </trkpt>
      <trkpt lat="48.96315" lon="7.83516">
        <ele>227.8</ele>
        <time>2022-11-19T14:58:51Z</time>
      </trkpt>
      <trkpt lat="48.96314" lon="7.83517">
        <ele>227.8</ele>
        <time>2022-11-19T14:58:52Z</time>
      </trkpt>
      <trkpt lat="48.96313" lon="7.83517">
        <ele>227.6</ele>
        <time>2022-11-19T14:58:53Z</time>
      </trkpt>
      <trkpt lat="48.96313" lon="7.83517">
        <ele>227.6</ele>
        <time>2022-11-19T14:58:54Z</time>
      </trkpt>
      <trkpt lat="48.96313" lon="7.83517">
        <ele>227.6</ele>
        <time>2022-11-19T14:58:55Z</time>
      </trkpt>
      <trkpt lat="48.96311" lon="7.83519">
        <ele>227.4</ele>
        <time>2022-11-19T14:58:58Z</time>
      </trkpt>
      <trkpt lat="48.96308" lon="7.83522">
        <ele>227.4</ele>
        <time>2022-11-19T14:59:00Z</time>
      </trkpt>
      <trkpt lat="48.96295" lon="7.83534">
        <ele>227.2</ele>
        <time>2022-11-19T14:59:05Z</time>
      </trkpt>
      <trkpt lat="48.96293" lon="7.83536">
        <ele>227.2</ele>
        <time>2022-11-19T14:59:06Z</time>
      </trkpt>
      <trkpt lat="48.96279" lon="7.83547">
        <ele>226.6</ele>
        <time>2022-11-19T14:59:10Z</time>
      </trkpt>
      <trkpt lat="48.96272" lon="7.83553">
        <ele>226.2</ele>
        <time>2022-11-19T14:59:12Z</time>
      </trkpt>
      <trkpt lat="48.9626" lon="7.83563">
        <ele>225.6</ele>
        <time>2022-11-19T14:59:16Z</time>
      </trkpt>
      <trkpt lat="48.9625" lon="7.8357">
        <ele>225.2</ele>
        <time>2022-11-19T14:59:19Z</time>
      </trkpt>
      <trkpt lat="48.96227" lon="7.83588">
        <ele>224.6</ele>
        <time>2022-11-19T14:59:26Z</time>
      </trkpt>
      <trkpt lat="48.96221" lon="7.83593">
        <ele>224.4</ele>
        <time>2022-11-19T14:59:28Z</time>
      </trkpt>
      <trkpt lat="48.96193" lon="7.83617">
        <ele>223.6</ele>
        <time>2022-11-19T14:59:36Z</time>
      </trkpt>
      <trkpt lat="48.96189" lon="7.83619">
        <ele>223.6</ele>
        <time>2022-11-19T14:59:37Z</time>
      </trkpt>
      <trkpt lat="48.96183" lon="7.83621">
        <ele>223.2</ele>
        <time>2022-11-19T14:59:39Z</time>
      </trkpt>
      <trkpt lat="48.96179" lon="7.83622">
        <ele>223</ele>
        <time>2022-11-19T14:59:40Z</time>
      </trkpt>
      <trkpt lat="48.96176" lon="7.83623">
        <ele>222.6</ele>
        <time>2022-11-19T14:59:41Z</time>
      </trkpt>
      <trkpt lat="48.96174" lon="7.83624">
        <ele>222.4</ele>
        <time>2022-11-19T14:59:42Z</time>
      </trkpt>
      <trkpt lat="48.96171" lon="7.83625">
        <ele>222.4</ele>
        <time>2022-11-19T14:59:43Z</time>
      </trkpt>
      <trkpt lat="48.96167" lon="7.83625">
        <ele>222.2</ele>
        <time>2022-11-19T14:59:44Z</time>
      </trkpt>
      <trkpt lat="48.96165" lon="7.83626">
        <ele>222.2</ele>
        <time>2022-11-19T14:59:45Z</time>
      </trkpt>
      <trkpt lat="48.96162" lon="7.83627">
        <ele>222.2</ele>
        <time>2022-11-19T14:59:46Z</time>
      </trkpt>
      <trkpt lat="48.96159" lon="7.83627">
        <ele>222.2</ele>
        <time>2022-11-19T14:59:47Z</time>
      </trkpt>
      <trkpt lat="48.96157" lon="7.83627">
        <ele>222.2</ele>
        <time>2022-11-19T14:59:48Z</time>
      </trkpt>
      <trkpt lat="48.96155" lon="7.83628">
        <ele>222.2</ele>
        <time>2022-11-19T14:59:49Z</time>
      </trkpt>
      <trkpt lat="48.96155" lon="7.83628">
        <ele>222.2</ele>
        <time>2022-11-19T14:59:50Z</time>
      </trkpt>
      <trkpt lat="48.96155" lon="7.83628">
        <ele>222.2</ele>
        <time>2022-11-19T14:59:51Z</time>
      </trkpt>
      <trkpt lat="48.96155" lon="7.83628">
        <ele>222.2</ele>
        <time>2022-11-19T14:59:52Z</time>
      </trkpt>
      <trkpt lat="48.96152" lon="7.8363">
        <ele>222.6</ele>
        <time>2022-11-19T15:00:31Z</time>
      </trkpt>
      <trkpt lat="48.96151" lon="7.83633">
        <ele>222.6</ele>
        <time>2022-11-19T15:00:32Z</time>
      </trkpt>
      <trkpt lat="48.96151" lon="7.83636">
        <ele>222.6</ele>
        <time>2022-11-19T15:00:33Z</time>
      </trkpt>
      <trkpt lat="48.96152" lon="7.83648">
        <ele>222.4</ele>
        <time>2022-11-19T15:00:36Z</time>
      </trkpt>
      <trkpt lat="48.96152" lon="7.83653">
        <ele>222.4</ele>
        <time>2022-11-19T15:00:37Z</time>
      </trkpt>
      <trkpt lat="48.96153" lon="7.83664">
        <ele>222.4</ele>
        <time>2022-11-19T15:00:39Z</time>
      </trkpt>
      <trkpt lat="48.96159" lon="7.83689">
        <ele>222</ele>
        <time>2022-11-19T15:00:44Z</time>
      </trkpt>
      <trkpt lat="48.96162" lon="7.83711">
        <ele>221.4</ele>
        <time>2022-11-19T15:00:48Z</time>
      </trkpt>
      <trkpt lat="48.9616" lon="7.83718">
        <ele>221.2</ele>
        <time>2022-11-19T15:00:49Z</time>
      </trkpt>
      <trkpt lat="48.96159" lon="7.83723">
        <ele>221.2</ele>
        <time>2022-11-19T15:00:50Z</time>
      </trkpt>
      <trkpt lat="48.96157" lon="7.83728">
        <ele>221</ele>
        <time>2022-11-19T15:00:51Z</time>
      </trkpt>
      <trkpt lat="48.96156" lon="7.83732">
        <ele>221</ele>
        <time>2022-11-19T15:00:52Z</time>
      </trkpt>
      <trkpt lat="48.96154" lon="7.83734">
        <ele>220.8</ele>
        <time>2022-11-19T15:00:53Z</time>
      </trkpt>
      <trkpt lat="48.96153" lon="7.83736">
        <ele>220.6</ele>
        <time>2022-11-19T15:00:54Z</time>
      </trkpt>
      <trkpt lat="48.96152" lon="7.83737">
        <ele>220.6</ele>
        <time>2022-11-19T15:00:55Z</time>
      </trkpt>
      <trkpt lat="48.9615" lon="7.83738">
        <ele>220.2</ele>
        <time>2022-11-19T15:00:56Z</time>
      </trkpt>
      <trkpt lat="48.96149" lon="7.83739">
        <ele>219.8</ele>
        <time>2022-11-19T15:00:57Z</time>
      </trkpt>
      <trkpt lat="48.96144" lon="7.83746">
        <ele>219.4</ele>
        <time>2022-11-19T15:01:00Z</time>
      </trkpt>
      <trkpt lat="48.96143" lon="7.83747">
        <ele>219.2</ele>
        <time>2022-11-19T15:01:01Z</time>
      </trkpt>
      <trkpt lat="48.96141" lon="7.83747">
        <ele>219.2</ele>
        <time>2022-11-19T15:01:02Z</time>
      </trkpt>
      <trkpt lat="48.96139" lon="7.83746">
        <ele>219.2</ele>
        <time>2022-11-19T15:01:03Z</time>
      </trkpt>
      <trkpt lat="48.96138" lon="7.83746">
        <ele>219.2</ele>
        <time>2022-11-19T15:01:04Z</time>
      </trkpt>
      <trkpt lat="48.96136" lon="7.83747">
        <ele>219.2</ele>
        <time>2022-11-19T15:01:05Z</time>
      </trkpt>
      <trkpt lat="48.96135" lon="7.8375">
        <ele>219.2</ele>
        <time>2022-11-19T15:01:06Z</time>
      </trkpt>
      <trkpt lat="48.96137" lon="7.83753">
        <ele>219.2</ele>
        <time>2022-11-19T15:01:07Z</time>
      </trkpt>
      <trkpt lat="48.96138" lon="7.83757">
        <ele>219.2</ele>
        <time>2022-11-19T15:01:08Z</time>
      </trkpt>
      <trkpt lat="48.96137" lon="7.83763">
        <ele>219</ele>
        <time>2022-11-19T15:01:10Z</time>
      </trkpt>
      <trkpt lat="48.96137" lon="7.83767">
        <ele>219</ele>
        <time>2022-11-19T15:01:11Z</time>
      </trkpt>
      <trkpt lat="48.96139" lon="7.8377">
        <ele>219</ele>
        <time>2022-11-19T15:01:12Z</time>
      </trkpt>
      <trkpt lat="48.96141" lon="7.83773">
        <ele>219</ele>
        <time>2022-11-19T15:01:13Z</time>
      </trkpt>
      <trkpt lat="48.96146" lon="7.83777">
        <ele>218.8</ele>
        <time>2022-11-19T15:01:15Z</time>
      </trkpt>
      <trkpt lat="48.96147" lon="7.83779">
        <ele>218.8</ele>
        <time>2022-11-19T15:01:16Z</time>
      </trkpt>
      <trkpt lat="48.96148" lon="7.83784">
        <ele>218.6</ele>
        <time>2022-11-19T15:01:17Z</time>
      </trkpt>
      <trkpt lat="48.96149" lon="7.83788">
        <ele>218.6</ele>
        <time>2022-11-19T15:01:18Z</time>
      </trkpt>
      <trkpt lat="48.9615" lon="7.83792">
        <ele>218.6</ele>
        <time>2022-11-19T15:01:19Z</time>
      </trkpt>
      <trkpt lat="48.9615" lon="7.83797">
        <ele>218.4</ele>
        <time>2022-11-19T15:01:20Z</time>
      </trkpt>
      <trkpt lat="48.9615" lon="7.83801">
        <ele>218.2</ele>
        <time>2022-11-19T15:01:21Z</time>
      </trkpt>
      <trkpt lat="48.9615" lon="7.83809">
        <ele>218.2</ele>
        <time>2022-11-19T15:01:23Z</time>
      </trkpt>
      <trkpt lat="48.96149" lon="7.83813">
        <ele>218</ele>
        <time>2022-11-19T15:01:24Z</time>
      </trkpt>
      <trkpt lat="48.96147" lon="7.83816">
        <ele>217.8</ele>
        <time>2022-11-19T15:01:25Z</time>
      </trkpt>
      <trkpt lat="48.96148" lon="7.83819">
        <ele>217.8</ele>
        <time>2022-11-19T15:01:26Z</time>
      </trkpt>
      <trkpt lat="48.96148" lon="7.83822">
        <ele>217.6</ele>
        <time>2022-11-19T15:01:27Z</time>
      </trkpt>
      <trkpt lat="48.9615" lon="7.83846">
        <ele>217.2</ele>
        <time>2022-11-19T15:01:32Z</time>
      </trkpt>
      <trkpt lat="48.9615" lon="7.83854">
        <ele>216.8</ele>
        <time>2022-11-19T15:01:34Z</time>
      </trkpt>
      <trkpt lat="48.9615" lon="7.83856">
        <ele>216.8</ele>
        <time>2022-11-19T15:01:35Z</time>
      </trkpt>
      <trkpt lat="48.96149" lon="7.83858">
        <ele>216.6</ele>
        <time>2022-11-19T15:01:36Z</time>
      </trkpt>
      <trkpt lat="48.96148" lon="7.8386">
        <ele>216.6</ele>
        <time>2022-11-19T15:01:37Z</time>
      </trkpt>
      <trkpt lat="48.96146" lon="7.83862">
        <ele>216.4</ele>
        <time>2022-11-19T15:01:38Z</time>
      </trkpt>
      <trkpt lat="48.96145" lon="7.83863">
        <ele>216</ele>
        <time>2022-11-19T15:01:39Z</time>
      </trkpt>
      <trkpt lat="48.96144" lon="7.83864">
        <ele>215.8</ele>
        <time>2022-11-19T15:01:40Z</time>
      </trkpt>
      <trkpt lat="48.96142" lon="7.83866">
        <ele>215.8</ele>
        <time>2022-11-19T15:01:41Z</time>
      </trkpt>
      <trkpt lat="48.9614" lon="7.83869">
        <ele>215.6</ele>
        <time>2022-11-19T15:01:42Z</time>
      </trkpt>
      <trkpt lat="48.96131" lon="7.83881">
        <ele>215.4</ele>
        <time>2022-11-19T15:01:46Z</time>
      </trkpt>
      <trkpt lat="48.96129" lon="7.83885">
        <ele>215.4</ele>
        <time>2022-11-19T15:01:47Z</time>
      </trkpt>
      <trkpt lat="48.96128" lon="7.83888">
        <ele>215.4</ele>
        <time>2022-11-19T15:01:48Z</time>
      </trkpt>
      <trkpt lat="48.96127" lon="7.83893">
        <ele>215.4</ele>
        <time>2022-11-19T15:01:49Z</time>
      </trkpt>
      <trkpt lat="48.96119" lon="7.83918">
        <ele>215.4</ele>
        <time>2022-11-19T15:01:55Z</time>
      </trkpt>
      <trkpt lat="48.96116" lon="7.83921">
        <ele>215.4</ele>
        <time>2022-11-19T15:01:56Z</time>
      </trkpt>
      <trkpt lat="48.96114" lon="7.83924">
        <ele>215.4</ele>
        <time>2022-11-19T15:01:57Z</time>
      </trkpt>
      <trkpt lat="48.96112" lon="7.83929">
        <ele>215.4</ele>
        <time>2022-11-19T15:01:58Z</time>
      </trkpt>
      <trkpt lat="48.96106" lon="7.83939">
        <ele>215.2</ele>
        <time>2022-11-19T15:02:00Z</time>
      </trkpt>
      <trkpt lat="48.96105" lon="7.83943">
        <ele>215.2</ele>
        <time>2022-11-19T15:02:01Z</time>
      </trkpt>
      <trkpt lat="48.96104" lon="7.8395">
        <ele>215.2</ele>
        <time>2022-11-19T15:02:02Z</time>
      </trkpt>
      <trkpt lat="48.96101" lon="7.83959">
        <ele>215.2</ele>
        <time>2022-11-19T15:02:04Z</time>
      </trkpt>
      <trkpt lat="48.96097" lon="7.83961">
        <ele>215</ele>
        <time>2022-11-19T15:02:06Z</time>
      </trkpt>
      <trkpt lat="48.96094" lon="7.8396">
        <ele>215</ele>
        <time>2022-11-19T15:02:08Z</time>
      </trkpt>
      <trkpt lat="48.96092" lon="7.8396">
        <ele>215</ele>
        <time>2022-11-19T15:02:09Z</time>
      </trkpt>
      <trkpt lat="48.96089" lon="7.8396">
        <ele>215</ele>
        <time>2022-11-19T15:02:10Z</time>
      </trkpt>
      <trkpt lat="48.96086" lon="7.83961">
        <ele>215</ele>
        <time>2022-11-19T15:02:11Z</time>
      </trkpt>
      <trkpt lat="48.96064" lon="7.83964">
        <ele>214.8</ele>
        <time>2022-11-19T15:02:18Z</time>
      </trkpt>
      <trkpt lat="48.96061" lon="7.83967">
        <ele>214.8</ele>
        <time>2022-11-19T15:02:19Z</time>
      </trkpt>
      <trkpt lat="48.96058" lon="7.83969">
        <ele>214.8</ele>
        <time>2022-11-19T15:02:20Z</time>
      </trkpt>
      <trkpt lat="48.96054" lon="7.83975">
        <ele>214.6</ele>
        <time>2022-11-19T15:02:21Z</time>
      </trkpt>
      <trkpt lat="48.96053" lon="7.8398">
        <ele>214.6</ele>
        <time>2022-11-19T15:02:22Z</time>
      </trkpt>
      <trkpt lat="48.96051" lon="7.83986">
        <ele>214.6</ele>
        <time>2022-11-19T15:02:23Z</time>
      </trkpt>
      <trkpt lat="48.96049" lon="7.83992">
        <ele>214.6</ele>
        <time>2022-11-19T15:02:24Z</time>
      </trkpt>
      <trkpt lat="48.96049" lon="7.83998">
        <ele>214.6</ele>
        <time>2022-11-19T15:02:25Z</time>
      </trkpt>
      <trkpt lat="48.96049" lon="7.84004">
        <ele>214.6</ele>
        <time>2022-11-19T15:02:26Z</time>
      </trkpt>
      <trkpt lat="48.96046" lon="7.84019">
        <ele>214.4</ele>
        <time>2022-11-19T15:02:29Z</time>
      </trkpt>
      <trkpt lat="48.96037" lon="7.84057">
        <ele>213.8</ele>
        <time>2022-11-19T15:02:36Z</time>
      </trkpt>
      <trkpt lat="48.9603" lon="7.84075">
        <ele>213.4</ele>
        <time>2022-11-19T15:02:39Z</time>
      </trkpt>
      <trkpt lat="48.96026" lon="7.84079">
        <ele>213.4</ele>
        <time>2022-11-19T15:02:40Z</time>
      </trkpt>
      <trkpt lat="48.96023" lon="7.84082">
        <ele>213.2</ele>
        <time>2022-11-19T15:02:41Z</time>
      </trkpt>
      <trkpt lat="48.9602" lon="7.84085">
        <ele>213.2</ele>
        <time>2022-11-19T15:02:42Z</time>
      </trkpt>
      <trkpt lat="48.96009" lon="7.84101">
        <ele>212.6</ele>
        <time>2022-11-19T15:02:46Z</time>
      </trkpt>
      <trkpt lat="48.96006" lon="7.84104">
        <ele>212.6</ele>
        <time>2022-11-19T15:02:47Z</time>
      </trkpt>
      <trkpt lat="48.96004" lon="7.84108">
        <ele>212.4</ele>
        <time>2022-11-19T15:02:48Z</time>
      </trkpt>
      <trkpt lat="48.96001" lon="7.84111">
        <ele>212.4</ele>
        <time>2022-11-19T15:02:49Z</time>
      </trkpt>
      <trkpt lat="48.95995" lon="7.84116">
        <ele>212.2</ele>
        <time>2022-11-19T15:02:51Z</time>
      </trkpt>
      <trkpt lat="48.95993" lon="7.84119">
        <ele>212</ele>
        <time>2022-11-19T15:02:52Z</time>
      </trkpt>
      <trkpt lat="48.95982" lon="7.84135">
        <ele>211.6</ele>
        <time>2022-11-19T15:02:56Z</time>
      </trkpt>
      <trkpt lat="48.95976" lon="7.8414">
        <ele>211.4</ele>
        <time>2022-11-19T15:02:58Z</time>
      </trkpt>
      <trkpt lat="48.95969" lon="7.84145">
        <ele>211</ele>
        <time>2022-11-19T15:03:01Z</time>
      </trkpt>
      <trkpt lat="48.95967" lon="7.84147">
        <ele>210.8</ele>
        <time>2022-11-19T15:03:02Z</time>
      </trkpt>
      <trkpt lat="48.95965" lon="7.84148">
        <ele>210.6</ele>
        <time>2022-11-19T15:03:03Z</time>
      </trkpt>
      <trkpt lat="48.95964" lon="7.8415">
        <ele>210.4</ele>
        <time>2022-11-19T15:03:04Z</time>
      </trkpt>
      <trkpt lat="48.95963" lon="7.84151">
        <ele>210.4</ele>
        <time>2022-11-19T15:03:05Z</time>
      </trkpt>
      <trkpt lat="48.9596" lon="7.84153">
        <ele>210.2</ele>
        <time>2022-11-19T15:03:07Z</time>
      </trkpt>
      <trkpt lat="48.95958" lon="7.84155">
        <ele>210</ele>
        <time>2022-11-19T15:03:08Z</time>
      </trkpt>
      <trkpt lat="48.95956" lon="7.84157">
        <ele>210</ele>
        <time>2022-11-19T15:03:09Z</time>
      </trkpt>
      <trkpt lat="48.95942" lon="7.84168">
        <ele>209.4</ele>
        <time>2022-11-19T15:03:14Z</time>
      </trkpt>
      <trkpt lat="48.95927" lon="7.84177">
        <ele>209</ele>
        <time>2022-11-19T15:03:18Z</time>
      </trkpt>
      <trkpt lat="48.95925" lon="7.84179">
        <ele>208.8</ele>
        <time>2022-11-19T15:03:19Z</time>
      </trkpt>
      <trkpt lat="48.95922" lon="7.84184">
        <ele>208.6</ele>
        <time>2022-11-19T15:03:20Z</time>
      </trkpt>
      <trkpt lat="48.9592" lon="7.84188">
        <ele>208.2</ele>
        <time>2022-11-19T15:03:21Z</time>
      </trkpt>
      <trkpt lat="48.95912" lon="7.842">
        <ele>207.4</ele>
        <time>2022-11-19T15:03:24Z</time>
      </trkpt>
      <trkpt lat="48.95909" lon="7.84204">
        <ele>207.2</ele>
        <time>2022-11-19T15:03:25Z</time>
      </trkpt>
      <trkpt lat="48.95903" lon="7.84211">
        <ele>207</ele>
        <time>2022-11-19T15:03:27Z</time>
      </trkpt>
      <trkpt lat="48.959" lon="7.84215">
        <ele>206.8</ele>
        <time>2022-11-19T15:03:28Z</time>
      </trkpt>
      <trkpt lat="48.95877" lon="7.84236">
        <ele>206.2</ele>
        <time>2022-11-19T15:03:35Z</time>
      </trkpt>
      <trkpt lat="48.95876" lon="7.8424">
        <ele>206.2</ele>
        <time>2022-11-19T15:03:36Z</time>
      </trkpt>
      <trkpt lat="48.95875" lon="7.84244">
        <ele>206.2</ele>
        <time>2022-11-19T15:03:37Z</time>
      </trkpt>
      <trkpt lat="48.95873" lon="7.84247">
        <ele>206.2</ele>
        <time>2022-11-19T15:03:38Z</time>
      </trkpt>
      <trkpt lat="48.95872" lon="7.84251">
        <ele>206.2</ele>
        <time>2022-11-19T15:03:39Z</time>
      </trkpt>
      <trkpt lat="48.9587" lon="7.84252">
        <ele>206.2</ele>
        <time>2022-11-19T15:03:40Z</time>
      </trkpt>
      <trkpt lat="48.95868" lon="7.84254">
        <ele>206.2</ele>
        <time>2022-11-19T15:03:41Z</time>
      </trkpt>
      <trkpt lat="48.95865" lon="7.84255">
        <ele>206.2</ele>
        <time>2022-11-19T15:03:42Z</time>
      </trkpt>
      <trkpt lat="48.95862" lon="7.84255">
        <ele>206.2</ele>
        <time>2022-11-19T15:03:43Z</time>
      </trkpt>
      <trkpt lat="48.95858" lon="7.84256">
        <ele>206.2</ele>
        <time>2022-11-19T15:03:44Z</time>
      </trkpt>
      <trkpt lat="48.95855" lon="7.84256">
        <ele>206.2</ele>
        <time>2022-11-19T15:03:45Z</time>
      </trkpt>
      <trkpt lat="48.95843" lon="7.84258">
        <ele>206.4</ele>
        <time>2022-11-19T15:03:48Z</time>
      </trkpt>
      <trkpt lat="48.95825" lon="7.84261">
        <ele>206.4</ele>
        <time>2022-11-19T15:03:53Z</time>
      </trkpt>
      <trkpt lat="48.95817" lon="7.84261">
        <ele>206.2</ele>
        <time>2022-11-19T15:03:55Z</time>
      </trkpt>
      <trkpt lat="48.95806" lon="7.84264">
        <ele>206</ele>
        <time>2022-11-19T15:03:58Z</time>
      </trkpt>
      <trkpt lat="48.95803" lon="7.84265">
        <ele>205.8</ele>
        <time>2022-11-19T15:03:59Z</time>
      </trkpt>
      <trkpt lat="48.958" lon="7.84265">
        <ele>205.8</ele>
        <time>2022-11-19T15:04:00Z</time>
      </trkpt>
      <trkpt lat="48.95791" lon="7.84266">
        <ele>205.8</ele>
        <time>2022-11-19T15:04:03Z</time>
      </trkpt>
      <trkpt lat="48.95788" lon="7.84267">
        <ele>205.6</ele>
        <time>2022-11-19T15:04:04Z</time>
      </trkpt>
      <trkpt lat="48.95785" lon="7.84267">
        <ele>205.6</ele>
        <time>2022-11-19T15:04:05Z</time>
      </trkpt>
      <trkpt lat="48.95782" lon="7.84267">
        <ele>205.6</ele>
        <time>2022-11-19T15:04:06Z</time>
      </trkpt>
      <trkpt lat="48.9578" lon="7.84268">
        <ele>205.6</ele>
        <time>2022-11-19T15:04:07Z</time>
      </trkpt>
      <trkpt lat="48.95776" lon="7.84268">
        <ele>205.6</ele>
        <time>2022-11-19T15:04:08Z</time>
      </trkpt>
      <trkpt lat="48.95763" lon="7.84268">
        <ele>205.8</ele>
        <time>2022-11-19T15:04:12Z</time>
      </trkpt>
      <trkpt lat="48.95754" lon="7.84268">
        <ele>205.8</ele>
        <time>2022-11-19T15:04:15Z</time>
      </trkpt>
      <trkpt lat="48.95751" lon="7.84269">
        <ele>205.8</ele>
        <time>2022-11-19T15:04:16Z</time>
      </trkpt>
      <trkpt lat="48.95745" lon="7.84268">
        <ele>206</ele>
        <time>2022-11-19T15:04:18Z</time>
      </trkpt>
      <trkpt lat="48.95742" lon="7.84269">
        <ele>206</ele>
        <time>2022-11-19T15:04:19Z</time>
      </trkpt>
      <trkpt lat="48.9574" lon="7.84269">
        <ele>206</ele>
        <time>2022-11-19T15:04:20Z</time>
      </trkpt>
      <trkpt lat="48.95718" lon="7.84271">
        <ele>206.8</ele>
        <time>2022-11-19T15:04:27Z</time>
      </trkpt>
      <trkpt lat="48.95715" lon="7.84272">
        <ele>207</ele>
        <time>2022-11-19T15:04:28Z</time>
      </trkpt>
      <trkpt lat="48.95706" lon="7.84274">
        <ele>207.4</ele>
        <time>2022-11-19T15:04:31Z</time>
      </trkpt>
      <trkpt lat="48.95704" lon="7.84274">
        <ele>207.6</ele>
        <time>2022-11-19T15:04:32Z</time>
      </trkpt>
      <trkpt lat="48.95701" lon="7.84275">
        <ele>207.8</ele>
        <time>2022-11-19T15:04:33Z</time>
      </trkpt>
      <trkpt lat="48.95699" lon="7.84275">
        <ele>208</ele>
        <time>2022-11-19T15:04:34Z</time>
      </trkpt>
      <trkpt lat="48.95697" lon="7.84276">
        <ele>208.2</ele>
        <time>2022-11-19T15:04:35Z</time>
      </trkpt>
      <trkpt lat="48.95695" lon="7.84276">
        <ele>208.4</ele>
        <time>2022-11-19T15:04:36Z</time>
      </trkpt>
      <trkpt lat="48.95694" lon="7.84276">
        <ele>208.6</ele>
        <time>2022-11-19T15:04:37Z</time>
      </trkpt>
      <trkpt lat="48.95692" lon="7.84277">
        <ele>208.8</ele>
        <time>2022-11-19T15:04:38Z</time>
      </trkpt>
      <trkpt lat="48.9569" lon="7.84278">
        <ele>209</ele>
        <time>2022-11-19T15:04:39Z</time>
      </trkpt>
      <trkpt lat="48.95689" lon="7.84278">
        <ele>209.2</ele>
        <time>2022-11-19T15:04:40Z</time>
      </trkpt>
      <trkpt lat="48.95687" lon="7.84279">
        <ele>209.2</ele>
        <time>2022-11-19T15:04:41Z</time>
      </trkpt>
      <trkpt lat="48.95685" lon="7.8428">
        <ele>209.2</ele>
        <time>2022-11-19T15:04:42Z</time>
      </trkpt>
      <trkpt lat="48.95683" lon="7.84281">
        <ele>209.2</ele>
        <time>2022-11-19T15:04:43Z</time>
      </trkpt>
      <trkpt lat="48.95682" lon="7.84281">
        <ele>209.2</ele>
        <time>2022-11-19T15:04:44Z</time>
      </trkpt>
      <trkpt lat="48.9568" lon="7.84281">
        <ele>209.2</ele>
        <time>2022-11-19T15:04:45Z</time>
      </trkpt>
      <trkpt lat="48.95677" lon="7.84281">
        <ele>209.4</ele>
        <time>2022-11-19T15:04:46Z</time>
      </trkpt>
      <trkpt lat="48.95675" lon="7.8428">
        <ele>209.4</ele>
        <time>2022-11-19T15:04:47Z</time>
      </trkpt>
      <trkpt lat="48.95673" lon="7.84279">
        <ele>209.4</ele>
        <time>2022-11-19T15:04:48Z</time>
      </trkpt>
      <trkpt lat="48.95672" lon="7.84277">
        <ele>209.4</ele>
        <time>2022-11-19T15:04:49Z</time>
      </trkpt>
      <trkpt lat="48.9567" lon="7.84276">
        <ele>209.4</ele>
        <time>2022-11-19T15:04:50Z</time>
      </trkpt>
      <trkpt lat="48.95669" lon="7.84275">
        <ele>209.4</ele>
        <time>2022-11-19T15:04:51Z</time>
      </trkpt>
      <trkpt lat="48.95667" lon="7.84273">
        <ele>209.4</ele>
        <time>2022-11-19T15:04:52Z</time>
      </trkpt>
      <trkpt lat="48.95665" lon="7.84271">
        <ele>209.4</ele>
        <time>2022-11-19T15:04:53Z</time>
      </trkpt>
      <trkpt lat="48.95664" lon="7.84268">
        <ele>209.4</ele>
        <time>2022-11-19T15:04:54Z</time>
      </trkpt>
      <trkpt lat="48.95663" lon="7.84265">
        <ele>209.4</ele>
        <time>2022-11-19T15:04:55Z</time>
      </trkpt>
      <trkpt lat="48.95661" lon="7.84264">
        <ele>209.6</ele>
        <time>2022-11-19T15:04:56Z</time>
      </trkpt>
      <trkpt lat="48.9566" lon="7.84262">
        <ele>209.6</ele>
        <time>2022-11-19T15:04:57Z</time>
      </trkpt>
      <trkpt lat="48.95658" lon="7.8426">
        <ele>209.6</ele>
        <time>2022-11-19T15:04:58Z</time>
      </trkpt>
      <trkpt lat="48.95657" lon="7.84257">
        <ele>209.6</ele>
        <time>2022-11-19T15:04:59Z</time>
      </trkpt>
      <trkpt lat="48.95651" lon="7.84252">
        <ele>209.6</ele>
        <time>2022-11-19T15:05:02Z</time>
      </trkpt>
      <trkpt lat="48.95649" lon="7.8425">
        <ele>209.6</ele>
        <time>2022-11-19T15:05:03Z</time>
      </trkpt>
      <trkpt lat="48.95647" lon="7.84248">
        <ele>209.6</ele>
        <time>2022-11-19T15:05:04Z</time>
      </trkpt>
      <trkpt lat="48.95645" lon="7.84246">
        <ele>209.6</ele>
        <time>2022-11-19T15:05:05Z</time>
      </trkpt>
      <trkpt lat="48.95643" lon="7.84243">
        <ele>209.6</ele>
        <time>2022-11-19T15:05:06Z</time>
      </trkpt>
      <trkpt lat="48.9564" lon="7.8424">
        <ele>209.6</ele>
        <time>2022-11-19T15:05:07Z</time>
      </trkpt>
      <trkpt lat="48.95638" lon="7.84238">
        <ele>209.6</ele>
        <time>2022-11-19T15:05:08Z</time>
      </trkpt>
      <trkpt lat="48.95635" lon="7.84237">
        <ele>209.8</ele>
        <time>2022-11-19T15:05:09Z</time>
      </trkpt>
      <trkpt lat="48.95634" lon="7.84235">
        <ele>209.8</ele>
        <time>2022-11-19T15:05:10Z</time>
      </trkpt>
      <trkpt lat="48.95632" lon="7.84234">
        <ele>209.8</ele>
        <time>2022-11-19T15:05:11Z</time>
      </trkpt>
      <trkpt lat="48.95625" lon="7.84228">
        <ele>209.8</ele>
        <time>2022-11-19T15:05:14Z</time>
      </trkpt>
      <trkpt lat="48.95622" lon="7.84225">
        <ele>209.8</ele>
        <time>2022-11-19T15:05:16Z</time>
      </trkpt>
      <trkpt lat="48.95619" lon="7.84223">
        <ele>209.8</ele>
        <time>2022-11-19T15:05:17Z</time>
      </trkpt>
      <trkpt lat="48.95617" lon="7.84221">
        <ele>209.8</ele>
        <time>2022-11-19T15:05:18Z</time>
      </trkpt>
      <trkpt lat="48.95611" lon="7.84214">
        <ele>210</ele>
        <time>2022-11-19T15:05:21Z</time>
      </trkpt>
      <trkpt lat="48.95608" lon="7.84211">
        <ele>210</ele>
        <time>2022-11-19T15:05:22Z</time>
      </trkpt>
      <trkpt lat="48.95606" lon="7.84208">
        <ele>210</ele>
        <time>2022-11-19T15:05:23Z</time>
      </trkpt>
      <trkpt lat="48.95604" lon="7.84205">
        <ele>210.2</ele>
        <time>2022-11-19T15:05:24Z</time>
      </trkpt>
      <trkpt lat="48.95602" lon="7.84201">
        <ele>210.2</ele>
        <time>2022-11-19T15:05:26Z</time>
      </trkpt>
      <trkpt lat="48.95598" lon="7.84195">
        <ele>210.2</ele>
        <time>2022-11-19T15:05:29Z</time>
      </trkpt>
      <trkpt lat="48.95596" lon="7.84192">
        <ele>210.2</ele>
        <time>2022-11-19T15:05:30Z</time>
      </trkpt>
      <trkpt lat="48.95594" lon="7.8419">
        <ele>210.4</ele>
        <time>2022-11-19T15:05:31Z</time>
      </trkpt>
      <trkpt lat="48.95591" lon="7.84187">
        <ele>210.4</ele>
        <time>2022-11-19T15:05:32Z</time>
      </trkpt>
      <trkpt lat="48.9559" lon="7.84186">
        <ele>210.4</ele>
        <time>2022-11-19T15:05:33Z</time>
      </trkpt>
      <trkpt lat="48.95588" lon="7.84184">
        <ele>210.4</ele>
        <time>2022-11-19T15:05:34Z</time>
      </trkpt>
      <trkpt lat="48.95586" lon="7.84181">
        <ele>210.4</ele>
        <time>2022-11-19T15:05:35Z</time>
      </trkpt>
      <trkpt lat="48.95583" lon="7.84178">
        <ele>210.4</ele>
        <time>2022-11-19T15:05:36Z</time>
      </trkpt>
      <trkpt lat="48.95582" lon="7.84176">
        <ele>210.4</ele>
        <time>2022-11-19T15:05:37Z</time>
      </trkpt>
      <trkpt lat="48.95581" lon="7.84174">
        <ele>210.6</ele>
        <time>2022-11-19T15:05:38Z</time>
      </trkpt>
      <trkpt lat="48.95579" lon="7.84172">
        <ele>210.6</ele>
        <time>2022-11-19T15:05:39Z</time>
      </trkpt>
      <trkpt lat="48.95577" lon="7.84171">
        <ele>210.6</ele>
        <time>2022-11-19T15:05:40Z</time>
      </trkpt>
      <trkpt lat="48.95574" lon="7.84169">
        <ele>210.6</ele>
        <time>2022-11-19T15:05:41Z</time>
      </trkpt>
      <trkpt lat="48.95571" lon="7.84168">
        <ele>210.6</ele>
        <time>2022-11-19T15:05:42Z</time>
      </trkpt>
      <trkpt lat="48.95568" lon="7.84167">
        <ele>210.6</ele>
        <time>2022-11-19T15:05:43Z</time>
      </trkpt>
      <trkpt lat="48.95566" lon="7.84167">
        <ele>210.6</ele>
        <time>2022-11-19T15:05:44Z</time>
      </trkpt>
      <trkpt lat="48.95563" lon="7.84166">
        <ele>210.6</ele>
        <time>2022-11-19T15:05:45Z</time>
      </trkpt>
      <trkpt lat="48.95561" lon="7.84166">
        <ele>210.6</ele>
        <time>2022-11-19T15:05:46Z</time>
      </trkpt>
      <trkpt lat="48.95553" lon="7.84167">
        <ele>210.6</ele>
        <time>2022-11-19T15:05:49Z</time>
      </trkpt>
      <trkpt lat="48.95542" lon="7.84164">
        <ele>210.6</ele>
        <time>2022-11-19T15:05:54Z</time>
      </trkpt>
      <trkpt lat="48.9554" lon="7.84162">
        <ele>210.4</ele>
        <time>2022-11-19T15:05:55Z</time>
      </trkpt>
      <trkpt lat="48.95537" lon="7.84162">
        <ele>210.4</ele>
        <time>2022-11-19T15:05:56Z</time>
      </trkpt>
      <trkpt lat="48.95514" lon="7.84154">
        <ele>210</ele>
        <time>2022-11-19T15:06:04Z</time>
      </trkpt>
      <trkpt lat="48.9551" lon="7.84153">
        <ele>210</ele>
        <time>2022-11-19T15:06:05Z</time>
      </trkpt>
      <trkpt lat="48.95508" lon="7.84152">
        <ele>209.8</ele>
        <time>2022-11-19T15:06:06Z</time>
      </trkpt>
      <trkpt lat="48.95505" lon="7.84152">
        <ele>209.8</ele>
        <time>2022-11-19T15:06:07Z</time>
      </trkpt>
      <trkpt lat="48.95496" lon="7.84152">
        <ele>209.2</ele>
        <time>2022-11-19T15:06:10Z</time>
      </trkpt>
      <trkpt lat="48.95492" lon="7.84151">
        <ele>209</ele>
        <time>2022-11-19T15:06:11Z</time>
      </trkpt>
      <trkpt lat="48.95473" lon="7.84148">
        <ele>207.8</ele>
        <time>2022-11-19T15:06:16Z</time>
      </trkpt>
      <trkpt lat="48.95469" lon="7.84148">
        <ele>207.6</ele>
        <time>2022-11-19T15:06:17Z</time>
      </trkpt>
      <trkpt lat="48.95457" lon="7.84149">
        <ele>206.8</ele>
        <time>2022-11-19T15:06:20Z</time>
      </trkpt>
      <trkpt lat="48.95445" lon="7.8415">
        <ele>206.4</ele>
        <time>2022-11-19T15:06:23Z</time>
      </trkpt>
      <trkpt lat="48.95437" lon="7.84149">
        <ele>205.8</ele>
        <time>2022-11-19T15:06:25Z</time>
      </trkpt>
      <trkpt lat="48.95434" lon="7.84149">
        <ele>205.6</ele>
        <time>2022-11-19T15:06:26Z</time>
      </trkpt>
      <trkpt lat="48.95431" lon="7.84149">
        <ele>205.4</ele>
        <time>2022-11-19T15:06:27Z</time>
      </trkpt>
      <trkpt lat="48.95428" lon="7.84148">
        <ele>205.4</ele>
        <time>2022-11-19T15:06:28Z</time>
      </trkpt>
      <trkpt lat="48.95425" lon="7.84147">
        <ele>205.2</ele>
        <time>2022-11-19T15:06:29Z</time>
      </trkpt>
      <trkpt lat="48.95418" lon="7.84146">
        <ele>205.2</ele>
        <time>2022-11-19T15:06:31Z</time>
      </trkpt>
      <trkpt lat="48.95415" lon="7.84145">
        <ele>205.2</ele>
        <time>2022-11-19T15:06:32Z</time>
      </trkpt>
      <trkpt lat="48.95413" lon="7.84144">
        <ele>205.2</ele>
        <time>2022-11-19T15:06:33Z</time>
      </trkpt>
      <trkpt lat="48.95409" lon="7.84144">
        <ele>205.2</ele>
        <time>2022-11-19T15:06:34Z</time>
      </trkpt>
      <trkpt lat="48.95397" lon="7.8414">
        <ele>205.4</ele>
        <time>2022-11-19T15:06:38Z</time>
      </trkpt>
      <trkpt lat="48.95392" lon="7.8414">
        <ele>205.6</ele>
        <time>2022-11-19T15:06:40Z</time>
      </trkpt>
      <trkpt lat="48.95389" lon="7.84142">
        <ele>205.8</ele>
        <time>2022-11-19T15:06:41Z</time>
      </trkpt>
      <trkpt lat="48.95386" lon="7.84144">
        <ele>205.8</ele>
        <time>2022-11-19T15:06:42Z</time>
      </trkpt>
      <trkpt lat="48.95384" lon="7.84146">
        <ele>206</ele>
        <time>2022-11-19T15:06:43Z</time>
      </trkpt>
      <trkpt lat="48.95368" lon="7.84162">
        <ele>206.4</ele>
        <time>2022-11-19T15:06:48Z</time>
      </trkpt>
      <trkpt lat="48.95362" lon="7.84168">
        <ele>206.6</ele>
        <time>2022-11-19T15:06:50Z</time>
      </trkpt>
      <trkpt lat="48.95359" lon="7.84171">
        <ele>206.6</ele>
        <time>2022-11-19T15:06:51Z</time>
      </trkpt>
      <trkpt lat="48.95355" lon="7.84174">
        <ele>206.8</ele>
        <time>2022-11-19T15:06:52Z</time>
      </trkpt>
      <trkpt lat="48.95352" lon="7.84177">
        <ele>206.8</ele>
        <time>2022-11-19T15:06:53Z</time>
      </trkpt>
      <trkpt lat="48.95333" lon="7.84203">
        <ele>206.8</ele>
        <time>2022-11-19T15:07:00Z</time>
      </trkpt>
      <trkpt lat="48.95322" lon="7.84215">
        <ele>207</ele>
        <time>2022-11-19T15:07:04Z</time>
      </trkpt>
      <trkpt lat="48.95318" lon="7.84224">
        <ele>207</ele>
        <time>2022-11-19T15:07:06Z</time>
      </trkpt>
      <trkpt lat="48.95314" lon="7.84231">
        <ele>207.2</ele>
        <time>2022-11-19T15:07:08Z</time>
      </trkpt>
      <trkpt lat="48.95311" lon="7.84235">
        <ele>207.2</ele>
        <time>2022-11-19T15:07:09Z</time>
      </trkpt>
      <trkpt lat="48.95309" lon="7.84239">
        <ele>207.4</ele>
        <time>2022-11-19T15:07:10Z</time>
      </trkpt>
      <trkpt lat="48.95307" lon="7.84242">
        <ele>207.4</ele>
        <time>2022-11-19T15:07:11Z</time>
      </trkpt>
      <trkpt lat="48.95305" lon="7.84245">
        <ele>207.4</ele>
        <time>2022-11-19T15:07:12Z</time>
      </trkpt>
      <trkpt lat="48.95302" lon="7.84248">
        <ele>207.4</ele>
        <time>2022-11-19T15:07:13Z</time>
      </trkpt>
      <trkpt lat="48.953" lon="7.84252">
        <ele>207.6</ele>
        <time>2022-11-19T15:07:14Z</time>
      </trkpt>
      <trkpt lat="48.95299" lon="7.84255">
        <ele>207.6</ele>
        <time>2022-11-19T15:07:15Z</time>
      </trkpt>
      <trkpt lat="48.95297" lon="7.84258">
        <ele>207.6</ele>
        <time>2022-11-19T15:07:16Z</time>
      </trkpt>
      <trkpt lat="48.95296" lon="7.84262">
        <ele>207.6</ele>
        <time>2022-11-19T15:07:17Z</time>
      </trkpt>
      <trkpt lat="48.95294" lon="7.84265">
        <ele>207.6</ele>
        <time>2022-11-19T15:07:18Z</time>
      </trkpt>
      <trkpt lat="48.95292" lon="7.84267">
        <ele>207.6</ele>
        <time>2022-11-19T15:07:19Z</time>
      </trkpt>
      <trkpt lat="48.9529" lon="7.8427">
        <ele>207.8</ele>
        <time>2022-11-19T15:07:20Z</time>
      </trkpt>
      <trkpt lat="48.95288" lon="7.84274">
        <ele>208</ele>
        <time>2022-11-19T15:07:21Z</time>
      </trkpt>
      <trkpt lat="48.95286" lon="7.84277">
        <ele>208.2</ele>
        <time>2022-11-19T15:07:22Z</time>
      </trkpt>
      <trkpt lat="48.95284" lon="7.8428">
        <ele>208.2</ele>
        <time>2022-11-19T15:07:23Z</time>
      </trkpt>
      <trkpt lat="48.95282" lon="7.84284">
        <ele>208.2</ele>
        <time>2022-11-19T15:07:24Z</time>
      </trkpt>
      <trkpt lat="48.95281" lon="7.84288">
        <ele>208.2</ele>
        <time>2022-11-19T15:07:25Z</time>
      </trkpt>
      <trkpt lat="48.95279" lon="7.84291">
        <ele>208.4</ele>
        <time>2022-11-19T15:07:26Z</time>
      </trkpt>
      <trkpt lat="48.95279" lon="7.84297">
        <ele>208.4</ele>
        <time>2022-11-19T15:07:27Z</time>
      </trkpt>
      <trkpt lat="48.95274" lon="7.84311">
        <ele>208.8</ele>
        <time>2022-11-19T15:07:30Z</time>
      </trkpt>
      <trkpt lat="48.95273" lon="7.84315">
        <ele>208.8</ele>
        <time>2022-11-19T15:07:31Z</time>
      </trkpt>
      <trkpt lat="48.95264" lon="7.84341">
        <ele>209.2</ele>
        <time>2022-11-19T15:07:37Z</time>
      </trkpt>
      <trkpt lat="48.95259" lon="7.84356">
        <ele>209.6</ele>
        <time>2022-11-19T15:07:41Z</time>
      </trkpt>
      <trkpt lat="48.95258" lon="7.84359">
        <ele>209.8</ele>
        <time>2022-11-19T15:07:42Z</time>
      </trkpt>
      <trkpt lat="48.95256" lon="7.84363">
        <ele>209.8</ele>
        <time>2022-11-19T15:07:43Z</time>
      </trkpt>
      <trkpt lat="48.95255" lon="7.84367">
        <ele>210</ele>
        <time>2022-11-19T15:07:44Z</time>
      </trkpt>
      <trkpt lat="48.95253" lon="7.8437">
        <ele>210</ele>
        <time>2022-11-19T15:07:45Z</time>
      </trkpt>
      <trkpt lat="48.95242" lon="7.84398">
        <ele>210.2</ele>
        <time>2022-11-19T15:07:52Z</time>
      </trkpt>
      <trkpt lat="48.95232" lon="7.84424">
        <ele>210</ele>
        <time>2022-11-19T15:07:58Z</time>
      </trkpt>
      <trkpt lat="48.95224" lon="7.84447">
        <ele>209.8</ele>
        <time>2022-11-19T15:08:03Z</time>
      </trkpt>
      <trkpt lat="48.95223" lon="7.84451">
        <ele>209.8</ele>
        <time>2022-11-19T15:08:04Z</time>
      </trkpt>
      <trkpt lat="48.95221" lon="7.84455">
        <ele>209.8</ele>
        <time>2022-11-19T15:08:05Z</time>
      </trkpt>
      <trkpt lat="48.95219" lon="7.84458">
        <ele>210</ele>
        <time>2022-11-19T15:08:06Z</time>
      </trkpt>
      <trkpt lat="48.95217" lon="7.84462">
        <ele>209.8</ele>
        <time>2022-11-19T15:08:07Z</time>
      </trkpt>
      <trkpt lat="48.95215" lon="7.84471">
        <ele>209.6</ele>
        <time>2022-11-19T15:08:09Z</time>
      </trkpt>
      <trkpt lat="48.95209" lon="7.84482">
        <ele>209.6</ele>
        <time>2022-11-19T15:08:12Z</time>
      </trkpt>
      <trkpt lat="48.95207" lon="7.84486">
        <ele>209.6</ele>
        <time>2022-11-19T15:08:13Z</time>
      </trkpt>
      <trkpt lat="48.95201" lon="7.84503">
        <ele>209.6</ele>
        <time>2022-11-19T15:08:17Z</time>
      </trkpt>
      <trkpt lat="48.95187" lon="7.84532">
        <ele>209.4</ele>
        <time>2022-11-19T15:08:24Z</time>
      </trkpt>
      <trkpt lat="48.9517" lon="7.84556">
        <ele>208.8</ele>
        <time>2022-11-19T15:08:30Z</time>
      </trkpt>
      <trkpt lat="48.9516" lon="7.84572">
        <ele>208.4</ele>
        <time>2022-11-19T15:08:33Z</time>
      </trkpt>
      <trkpt lat="48.95154" lon="7.84583">
        <ele>208.2</ele>
        <time>2022-11-19T15:08:35Z</time>
      </trkpt>
      <trkpt lat="48.95152" lon="7.84588">
        <ele>207.8</ele>
        <time>2022-11-19T15:08:36Z</time>
      </trkpt>
      <trkpt lat="48.95149" lon="7.84594">
        <ele>207.6</ele>
        <time>2022-11-19T15:08:37Z</time>
      </trkpt>
      <trkpt lat="48.95141" lon="7.84608">
        <ele>207.2</ele>
        <time>2022-11-19T15:08:39Z</time>
      </trkpt>
      <trkpt lat="48.95136" lon="7.84619">
        <ele>206.8</ele>
        <time>2022-11-19T15:08:41Z</time>
      </trkpt>
      <trkpt lat="48.95132" lon="7.84627">
        <ele>206.4</ele>
        <time>2022-11-19T15:08:42Z</time>
      </trkpt>
      <trkpt lat="48.95119" lon="7.84649">
        <ele>205.2</ele>
        <time>2022-11-19T15:08:45Z</time>
      </trkpt>
      <trkpt lat="48.95105" lon="7.84671">
        <ele>204.6</ele>
        <time>2022-11-19T15:08:48Z</time>
      </trkpt>
      <trkpt lat="48.95101" lon="7.84678">
        <ele>204.2</ele>
        <time>2022-11-19T15:08:49Z</time>
      </trkpt>
      <trkpt lat="48.95094" lon="7.8469">
        <ele>203</ele>
        <time>2022-11-19T15:08:51Z</time>
      </trkpt>
      <trkpt lat="48.95085" lon="7.84703">
        <ele>202.2</ele>
        <time>2022-11-19T15:08:53Z</time>
      </trkpt>
      <trkpt lat="48.95084" lon="7.8471">
        <ele>201.6</ele>
        <time>2022-11-19T15:08:54Z</time>
      </trkpt>
      <trkpt lat="48.95082" lon="7.84717">
        <ele>201.2</ele>
        <time>2022-11-19T15:08:55Z</time>
      </trkpt>
      <trkpt lat="48.9508" lon="7.84723">
        <ele>200.8</ele>
        <time>2022-11-19T15:08:56Z</time>
      </trkpt>
      <trkpt lat="48.95077" lon="7.84729">
        <ele>200.6</ele>
        <time>2022-11-19T15:08:57Z</time>
      </trkpt>
      <trkpt lat="48.95071" lon="7.84735">
        <ele>200.4</ele>
        <time>2022-11-19T15:08:58Z</time>
      </trkpt>
      <trkpt lat="48.95066" lon="7.8474">
        <ele>200.2</ele>
        <time>2022-11-19T15:08:59Z</time>
      </trkpt>
      <trkpt lat="48.95061" lon="7.84746">
        <ele>200</ele>
        <time>2022-11-19T15:09:00Z</time>
      </trkpt>
      <trkpt lat="48.95055" lon="7.84757">
        <ele>199.4</ele>
        <time>2022-11-19T15:09:02Z</time>
      </trkpt>
      <trkpt lat="48.95042" lon="7.84772">
        <ele>198.8</ele>
        <time>2022-11-19T15:09:05Z</time>
      </trkpt>
      <trkpt lat="48.95039" lon="7.84775">
        <ele>198.6</ele>
        <time>2022-11-19T15:09:06Z</time>
      </trkpt>
      <trkpt lat="48.95035" lon="7.8478">
        <ele>198.4</ele>
        <time>2022-11-19T15:09:07Z</time>
      </trkpt>
      <trkpt lat="48.95031" lon="7.84786">
        <ele>198.2</ele>
        <time>2022-11-19T15:09:08Z</time>
      </trkpt>
      <trkpt lat="48.95027" lon="7.84789">
        <ele>198</ele>
        <time>2022-11-19T15:09:09Z</time>
      </trkpt>
      <trkpt lat="48.95023" lon="7.84793">
        <ele>198</ele>
        <time>2022-11-19T15:09:10Z</time>
      </trkpt>
      <trkpt lat="48.9502" lon="7.84796">
        <ele>198</ele>
        <time>2022-11-19T15:09:11Z</time>
      </trkpt>
      <trkpt lat="48.95016" lon="7.84799">
        <ele>197.8</ele>
        <time>2022-11-19T15:09:12Z</time>
      </trkpt>
      <trkpt lat="48.95006" lon="7.84811">
        <ele>197.8</ele>
        <time>2022-11-19T15:09:15Z</time>
      </trkpt>
      <trkpt lat="48.95005" lon="7.84813">
        <ele>197.8</ele>
        <time>2022-11-19T15:09:16Z</time>
      </trkpt>
      <trkpt lat="48.95004" lon="7.84815">
        <ele>197.8</ele>
        <time>2022-11-19T15:09:17Z</time>
      </trkpt>
      <trkpt lat="48.94996" lon="7.84822">
        <ele>197.8</ele>
        <time>2022-11-19T15:09:20Z</time>
      </trkpt>
      <trkpt lat="48.94993" lon="7.84825">
        <ele>197.6</ele>
        <time>2022-11-19T15:09:21Z</time>
      </trkpt>
      <trkpt lat="48.9498" lon="7.84843">
        <ele>197.8</ele>
        <time>2022-11-19T15:09:26Z</time>
      </trkpt>
      <trkpt lat="48.94978" lon="7.84844">
        <ele>197.8</ele>
        <time>2022-11-19T15:09:27Z</time>
      </trkpt>
      <trkpt lat="48.94976" lon="7.84847">
        <ele>197.8</ele>
        <time>2022-11-19T15:09:28Z</time>
      </trkpt>
      <trkpt lat="48.94971" lon="7.84855">
        <ele>197.8</ele>
        <time>2022-11-19T15:09:30Z</time>
      </trkpt>
      <trkpt lat="48.94965" lon="7.84862">
        <ele>197.8</ele>
        <time>2022-11-19T15:09:32Z</time>
      </trkpt>
      <trkpt lat="48.94961" lon="7.84867">
        <ele>197.8</ele>
        <time>2022-11-19T15:09:33Z</time>
      </trkpt>
      <trkpt lat="48.94958" lon="7.84871">
        <ele>197.8</ele>
        <time>2022-11-19T15:09:34Z</time>
      </trkpt>
      <trkpt lat="48.9495" lon="7.84884">
        <ele>198</ele>
        <time>2022-11-19T15:09:37Z</time>
      </trkpt>
      <trkpt lat="48.94946" lon="7.84895">
        <ele>198</ele>
        <time>2022-11-19T15:09:39Z</time>
      </trkpt>
      <trkpt lat="48.94924" lon="7.84935">
        <ele>198.4</ele>
        <time>2022-11-19T15:09:48Z</time>
      </trkpt>
      <trkpt lat="48.9492" lon="7.84945">
        <ele>198.8</ele>
        <time>2022-11-19T15:09:50Z</time>
      </trkpt>
      <trkpt lat="48.94916" lon="7.84954">
        <ele>199</ele>
        <time>2022-11-19T15:09:52Z</time>
      </trkpt>
      <trkpt lat="48.94914" lon="7.84958">
        <ele>199</ele>
        <time>2022-11-19T15:09:53Z</time>
      </trkpt>
      <trkpt lat="48.94912" lon="7.84962">
        <ele>199.2</ele>
        <time>2022-11-19T15:09:54Z</time>
      </trkpt>
      <trkpt lat="48.9491" lon="7.84965">
        <ele>199.4</ele>
        <time>2022-11-19T15:09:55Z</time>
      </trkpt>
      <trkpt lat="48.94909" lon="7.84969">
        <ele>199.6</ele>
        <time>2022-11-19T15:09:56Z</time>
      </trkpt>
      <trkpt lat="48.94907" lon="7.84972">
        <ele>199.8</ele>
        <time>2022-11-19T15:09:57Z</time>
      </trkpt>
      <trkpt lat="48.94904" lon="7.84979">
        <ele>200</ele>
        <time>2022-11-19T15:09:59Z</time>
      </trkpt>
      <trkpt lat="48.94891" lon="7.85003">
        <ele>200.2</ele>
        <time>2022-11-19T15:10:05Z</time>
      </trkpt>
      <trkpt lat="48.94877" lon="7.85033">
        <ele>199.8</ele>
        <time>2022-11-19T15:10:11Z</time>
      </trkpt>
      <trkpt lat="48.94874" lon="7.85038">
        <ele>199.8</ele>
        <time>2022-11-19T15:10:12Z</time>
      </trkpt>
      <trkpt lat="48.94862" lon="7.85062">
        <ele>198.4</ele>
        <time>2022-11-19T15:10:16Z</time>
      </trkpt>
      <trkpt lat="48.9486" lon="7.8507">
        <ele>198.4</ele>
        <time>2022-11-19T15:10:17Z</time>
      </trkpt>
      <trkpt lat="48.94857" lon="7.85077">
        <ele>197.8</ele>
        <time>2022-11-19T15:10:18Z</time>
      </trkpt>
      <trkpt lat="48.94848" lon="7.851">
        <ele>196.8</ele>
        <time>2022-11-19T15:10:21Z</time>
      </trkpt>
      <trkpt lat="48.94845" lon="7.85107">
        <ele>196.6</ele>
        <time>2022-11-19T15:10:22Z</time>
      </trkpt>
      <trkpt lat="48.94833" lon="7.85137">
        <ele>195.6</ele>
        <time>2022-11-19T15:10:26Z</time>
      </trkpt>
      <trkpt lat="48.9483" lon="7.85143">
        <ele>195.4</ele>
        <time>2022-11-19T15:10:27Z</time>
      </trkpt>
      <trkpt lat="48.94823" lon="7.85156">
        <ele>195.2</ele>
        <time>2022-11-19T15:10:29Z</time>
      </trkpt>
      <trkpt lat="48.94815" lon="7.85177">
        <ele>194.4</ele>
        <time>2022-11-19T15:10:32Z</time>
      </trkpt>
      <trkpt lat="48.94812" lon="7.85184">
        <ele>194.4</ele>
        <time>2022-11-19T15:10:33Z</time>
      </trkpt>
      <trkpt lat="48.94809" lon="7.85191">
        <ele>194.4</ele>
        <time>2022-11-19T15:10:34Z</time>
      </trkpt>
      <trkpt lat="48.94806" lon="7.85198">
        <ele>194.2</ele>
        <time>2022-11-19T15:10:35Z</time>
      </trkpt>
      <trkpt lat="48.94804" lon="7.85205">
        <ele>194.2</ele>
        <time>2022-11-19T15:10:36Z</time>
      </trkpt>
      <trkpt lat="48.94801" lon="7.85211">
        <ele>194</ele>
        <time>2022-11-19T15:10:37Z</time>
      </trkpt>
      <trkpt lat="48.94798" lon="7.85216">
        <ele>194</ele>
        <time>2022-11-19T15:10:38Z</time>
      </trkpt>
      <trkpt lat="48.94796" lon="7.85221">
        <ele>193.8</ele>
        <time>2022-11-19T15:10:39Z</time>
      </trkpt>
      <trkpt lat="48.94795" lon="7.85225">
        <ele>193.4</ele>
        <time>2022-11-19T15:10:40Z</time>
      </trkpt>
      <trkpt lat="48.94794" lon="7.85229">
        <ele>193.2</ele>
        <time>2022-11-19T15:10:41Z</time>
      </trkpt>
      <trkpt lat="48.94793" lon="7.85233">
        <ele>193</ele>
        <time>2022-11-19T15:10:42Z</time>
      </trkpt>
      <trkpt lat="48.94793" lon="7.85237">
        <ele>193</ele>
        <time>2022-11-19T15:10:43Z</time>
      </trkpt>
      <trkpt lat="48.94792" lon="7.85239">
        <ele>192.8</ele>
        <time>2022-11-19T15:10:44Z</time>
      </trkpt>
      <trkpt lat="48.94791" lon="7.85242">
        <ele>192.4</ele>
        <time>2022-11-19T15:10:45Z</time>
      </trkpt>
      <trkpt lat="48.9479" lon="7.85244">
        <ele>192.2</ele>
        <time>2022-11-19T15:10:46Z</time>
      </trkpt>
      <trkpt lat="48.94788" lon="7.85247">
        <ele>192.2</ele>
        <time>2022-11-19T15:10:47Z</time>
      </trkpt>
      <trkpt lat="48.94786" lon="7.85252">
        <ele>192</ele>
        <time>2022-11-19T15:10:48Z</time>
      </trkpt>
      <trkpt lat="48.9478" lon="7.85264">
        <ele>192</ele>
        <time>2022-11-19T15:10:51Z</time>
      </trkpt>
      <trkpt lat="48.94778" lon="7.85267">
        <ele>191.8</ele>
        <time>2022-11-19T15:10:52Z</time>
      </trkpt>
      <trkpt lat="48.94776" lon="7.8527">
        <ele>191.8</ele>
        <time>2022-11-19T15:10:53Z</time>
      </trkpt>
      <trkpt lat="48.94775" lon="7.85274">
        <ele>191.8</ele>
        <time>2022-11-19T15:10:54Z</time>
      </trkpt>
      <trkpt lat="48.94768" lon="7.8528">
        <ele>191.6</ele>
        <time>2022-11-19T15:10:57Z</time>
      </trkpt>
      <trkpt lat="48.94766" lon="7.85282">
        <ele>191.6</ele>
        <time>2022-11-19T15:10:58Z</time>
      </trkpt>
      <trkpt lat="48.94764" lon="7.85286">
        <ele>191.6</ele>
        <time>2022-11-19T15:10:59Z</time>
      </trkpt>
      <trkpt lat="48.94763" lon="7.8529">
        <ele>191.6</ele>
        <time>2022-11-19T15:11:00Z</time>
      </trkpt>
      <trkpt lat="48.94761" lon="7.85292">
        <ele>191.6</ele>
        <time>2022-11-19T15:11:01Z</time>
      </trkpt>
      <trkpt lat="48.94755" lon="7.85301">
        <ele>191.6</ele>
        <time>2022-11-19T15:11:04Z</time>
      </trkpt>
      <trkpt lat="48.94742" lon="7.85324">
        <ele>191.8</ele>
        <time>2022-11-19T15:11:11Z</time>
      </trkpt>
      <trkpt lat="48.94731" lon="7.8534">
        <ele>192</ele>
        <time>2022-11-19T15:11:16Z</time>
      </trkpt>
      <trkpt lat="48.94716" lon="7.8536">
        <ele>192.4</ele>
        <time>2022-11-19T15:11:23Z</time>
      </trkpt>
      <trkpt lat="48.94713" lon="7.85363">
        <ele>192.6</ele>
        <time>2022-11-19T15:11:24Z</time>
      </trkpt>
      <trkpt lat="48.94707" lon="7.85373">
        <ele>192.8</ele>
        <time>2022-11-19T15:11:27Z</time>
      </trkpt>
      <trkpt lat="48.94705" lon="7.85377">
        <ele>192.8</ele>
        <time>2022-11-19T15:11:28Z</time>
      </trkpt>
      <trkpt lat="48.94704" lon="7.8538">
        <ele>193</ele>
        <time>2022-11-19T15:11:29Z</time>
      </trkpt>
      <trkpt lat="48.94692" lon="7.85397">
        <ele>193.2</ele>
        <time>2022-11-19T15:11:34Z</time>
      </trkpt>
      <trkpt lat="48.94689" lon="7.85401">
        <ele>193.4</ele>
        <time>2022-11-19T15:11:35Z</time>
      </trkpt>
      <trkpt lat="48.94687" lon="7.85408">
        <ele>193.6</ele>
        <time>2022-11-19T15:11:37Z</time>
      </trkpt>
      <trkpt lat="48.9469" lon="7.85417">
        <ele>193.6</ele>
        <time>2022-11-19T15:11:39Z</time>
      </trkpt>
      <trkpt lat="48.94692" lon="7.85421">
        <ele>193.8</ele>
        <time>2022-11-19T15:11:40Z</time>
      </trkpt>
      <trkpt lat="48.94695" lon="7.85423">
        <ele>193.8</ele>
        <time>2022-11-19T15:11:41Z</time>
      </trkpt>
      <trkpt lat="48.94698" lon="7.85425">
        <ele>193.8</ele>
        <time>2022-11-19T15:11:42Z</time>
      </trkpt>
      <trkpt lat="48.94702" lon="7.85426">
        <ele>194</ele>
        <time>2022-11-19T15:11:43Z</time>
      </trkpt>
      <trkpt lat="48.94705" lon="7.85427">
        <ele>194</ele>
        <time>2022-11-19T15:11:44Z</time>
      </trkpt>
      <trkpt lat="48.94718" lon="7.8543">
        <ele>194</ele>
        <time>2022-11-19T15:11:47Z</time>
      </trkpt>
      <trkpt lat="48.94725" lon="7.85433">
        <ele>194</ele>
        <time>2022-11-19T15:11:49Z</time>
      </trkpt>
      <trkpt lat="48.9474" lon="7.85441">
        <ele>194</ele>
        <time>2022-11-19T15:11:53Z</time>
      </trkpt>
      <trkpt lat="48.94744" lon="7.85445">
        <ele>194</ele>
        <time>2022-11-19T15:11:54Z</time>
      </trkpt>
      <trkpt lat="48.94747" lon="7.85456">
        <ele>194</ele>
        <time>2022-11-19T15:11:56Z</time>
      </trkpt>
      <trkpt lat="48.94748" lon="7.85461">
        <ele>194</ele>
        <time>2022-11-19T15:11:57Z</time>
      </trkpt>
      <trkpt lat="48.94749" lon="7.85467">
        <ele>193.8</ele>
        <time>2022-11-19T15:11:58Z</time>
      </trkpt>
      <trkpt lat="48.94751" lon="7.85495">
        <ele>193.8</ele>
        <time>2022-11-19T15:12:02Z</time>
      </trkpt>
      <trkpt lat="48.94751" lon="7.85503">
        <ele>193.4</ele>
        <time>2022-11-19T15:12:03Z</time>
      </trkpt>
      <trkpt lat="48.9475" lon="7.85521">
        <ele>193.2</ele>
        <time>2022-11-19T15:12:05Z</time>
      </trkpt>
      <trkpt lat="48.94751" lon="7.85531">
        <ele>193</ele>
        <time>2022-11-19T15:12:06Z</time>
      </trkpt>
      <trkpt lat="48.9475" lon="7.8554">
        <ele>192.8</ele>
        <time>2022-11-19T15:12:07Z</time>
      </trkpt>
      <trkpt lat="48.94748" lon="7.85548">
        <ele>192.6</ele>
        <time>2022-11-19T15:12:08Z</time>
      </trkpt>
      <trkpt lat="48.94745" lon="7.85556">
        <ele>192.4</ele>
        <time>2022-11-19T15:12:09Z</time>
      </trkpt>
      <trkpt lat="48.94745" lon="7.85567">
        <ele>192.2</ele>
        <time>2022-11-19T15:12:10Z</time>
      </trkpt>
      <trkpt lat="48.94746" lon="7.85579">
        <ele>191.6</ele>
        <time>2022-11-19T15:12:11Z</time>
      </trkpt>
      <trkpt lat="48.94747" lon="7.85589">
        <ele>190.8</ele>
        <time>2022-11-19T15:12:12Z</time>
      </trkpt>
      <trkpt lat="48.9475" lon="7.856">
        <ele>190.2</ele>
        <time>2022-11-19T15:12:13Z</time>
      </trkpt>
      <trkpt lat="48.94752" lon="7.8561">
        <ele>189.8</ele>
        <time>2022-11-19T15:12:14Z</time>
      </trkpt>
      <trkpt lat="48.94754" lon="7.8562">
        <ele>189.2</ele>
        <time>2022-11-19T15:12:15Z</time>
      </trkpt>
      <trkpt lat="48.94756" lon="7.85641">
        <ele>188.2</ele>
        <time>2022-11-19T15:12:17Z</time>
      </trkpt>
      <trkpt lat="48.94756" lon="7.85664">
        <ele>187.6</ele>
        <time>2022-11-19T15:12:19Z</time>
      </trkpt>
      <trkpt lat="48.94758" lon="7.85673">
        <ele>187.2</ele>
        <time>2022-11-19T15:12:20Z</time>
      </trkpt>
      <trkpt lat="48.94759" lon="7.85694">
        <ele>186</ele>
        <time>2022-11-19T15:12:22Z</time>
      </trkpt>
      <trkpt lat="48.9476" lon="7.85704">
        <ele>185.6</ele>
        <time>2022-11-19T15:12:23Z</time>
      </trkpt>
      <trkpt lat="48.94761" lon="7.85714">
        <ele>185.4</ele>
        <time>2022-11-19T15:12:24Z</time>
      </trkpt>
      <trkpt lat="48.94761" lon="7.85725">
        <ele>184.8</ele>
        <time>2022-11-19T15:12:25Z</time>
      </trkpt>
      <trkpt lat="48.94763" lon="7.85744">
        <ele>183.4</ele>
        <time>2022-11-19T15:12:27Z</time>
      </trkpt>
      <trkpt lat="48.94765" lon="7.85754">
        <ele>182.8</ele>
        <time>2022-11-19T15:12:28Z</time>
      </trkpt>
      <trkpt lat="48.94766" lon="7.85762">
        <ele>182.6</ele>
        <time>2022-11-19T15:12:29Z</time>
      </trkpt>
      <trkpt lat="48.94766" lon="7.8577">
        <ele>181.8</ele>
        <time>2022-11-19T15:12:30Z</time>
      </trkpt>
      <trkpt lat="48.94766" lon="7.85777">
        <ele>181.2</ele>
        <time>2022-11-19T15:12:31Z</time>
      </trkpt>
      <trkpt lat="48.94766" lon="7.85785">
        <ele>180.4</ele>
        <time>2022-11-19T15:12:32Z</time>
      </trkpt>
      <trkpt lat="48.94766" lon="7.85792">
        <ele>180</ele>
        <time>2022-11-19T15:12:33Z</time>
      </trkpt>
      <trkpt lat="48.94766" lon="7.85799">
        <ele>179.6</ele>
        <time>2022-11-19T15:12:34Z</time>
      </trkpt>
      <trkpt lat="48.94765" lon="7.85807">
        <ele>179</ele>
        <time>2022-11-19T15:12:35Z</time>
      </trkpt>
      <trkpt lat="48.94765" lon="7.85813">
        <ele>178.2</ele>
        <time>2022-11-19T15:12:36Z</time>
      </trkpt>
      <trkpt lat="48.94766" lon="7.8582">
        <ele>177.8</ele>
        <time>2022-11-19T15:12:37Z</time>
      </trkpt>
      <trkpt lat="48.94766" lon="7.85825">
        <ele>177.4</ele>
        <time>2022-11-19T15:12:38Z</time>
      </trkpt>
      <trkpt lat="48.94767" lon="7.85831">
        <ele>177</ele>
        <time>2022-11-19T15:12:39Z</time>
      </trkpt>
      <trkpt lat="48.94769" lon="7.85837">
        <ele>176.6</ele>
        <time>2022-11-19T15:12:40Z</time>
      </trkpt>
      <trkpt lat="48.94771" lon="7.85842">
        <ele>176.2</ele>
        <time>2022-11-19T15:12:41Z</time>
      </trkpt>
      <trkpt lat="48.94771" lon="7.85848">
        <ele>175.8</ele>
        <time>2022-11-19T15:12:42Z</time>
      </trkpt>
      <trkpt lat="48.94772" lon="7.85854">
        <ele>175.6</ele>
        <time>2022-11-19T15:12:43Z</time>
      </trkpt>
      <trkpt lat="48.94778" lon="7.85894">
        <ele>174.8</ele>
        <time>2022-11-19T15:12:49Z</time>
      </trkpt>
      <trkpt lat="48.9478" lon="7.85907">
        <ele>174.6</ele>
        <time>2022-11-19T15:12:51Z</time>
      </trkpt>
      <trkpt lat="48.94781" lon="7.85913">
        <ele>174.4</ele>
        <time>2022-11-19T15:12:52Z</time>
      </trkpt>
      <trkpt lat="48.94784" lon="7.85931">
        <ele>173.8</ele>
        <time>2022-11-19T15:12:55Z</time>
      </trkpt>
      <trkpt lat="48.94786" lon="7.8595">
        <ele>173.2</ele>
        <time>2022-11-19T15:12:58Z</time>
      </trkpt>
      <trkpt lat="48.9479" lon="7.85989">
        <ele>172</ele>
        <time>2022-11-19T15:13:04Z</time>
      </trkpt>
      <trkpt lat="48.94795" lon="7.8603">
        <ele>171</ele>
        <time>2022-11-19T15:13:09Z</time>
      </trkpt>
      <trkpt lat="48.94796" lon="7.86038">
        <ele>170.8</ele>
        <time>2022-11-19T15:13:10Z</time>
      </trkpt>
      <trkpt lat="48.94797" lon="7.86045">
        <ele>170.4</ele>
        <time>2022-11-19T15:13:11Z</time>
      </trkpt>
      <trkpt lat="48.94798" lon="7.86053">
        <ele>169.8</ele>
        <time>2022-11-19T15:13:12Z</time>
      </trkpt>
      <trkpt lat="48.94802" lon="7.86082">
        <ele>168.8</ele>
        <time>2022-11-19T15:13:16Z</time>
      </trkpt>
      <trkpt lat="48.94805" lon="7.86105">
        <ele>167.6</ele>
        <time>2022-11-19T15:13:19Z</time>
      </trkpt>
      <trkpt lat="48.94808" lon="7.86136">
        <ele>166.6</ele>
        <time>2022-11-19T15:13:23Z</time>
      </trkpt>
      <trkpt lat="48.94812" lon="7.86161">
        <ele>166</ele>
        <time>2022-11-19T15:13:26Z</time>
      </trkpt>
      <trkpt lat="48.94815" lon="7.86186">
        <ele>165.2</ele>
        <time>2022-11-19T15:13:29Z</time>
      </trkpt>
      <trkpt lat="48.94819" lon="7.86228">
        <ele>163.8</ele>
        <time>2022-11-19T15:13:34Z</time>
      </trkpt>
      <trkpt lat="48.94821" lon="7.86236">
        <ele>163.6</ele>
        <time>2022-11-19T15:13:35Z</time>
      </trkpt>
      <trkpt lat="48.94822" lon="7.86244">
        <ele>163.4</ele>
        <time>2022-11-19T15:13:36Z</time>
      </trkpt>
      <trkpt lat="48.94823" lon="7.86251">
        <ele>162.8</ele>
        <time>2022-11-19T15:13:37Z</time>
      </trkpt>
      <trkpt lat="48.94824" lon="7.86258">
        <ele>162.2</ele>
        <time>2022-11-19T15:13:38Z</time>
      </trkpt>
      <trkpt lat="48.94824" lon="7.86265">
        <ele>161.6</ele>
        <time>2022-11-19T15:13:39Z</time>
      </trkpt>
      <trkpt lat="48.94824" lon="7.8627">
        <ele>160.8</ele>
        <time>2022-11-19T15:13:40Z</time>
      </trkpt>
      <trkpt lat="48.94823" lon="7.86275">
        <ele>160.4</ele>
        <time>2022-11-19T15:13:41Z</time>
      </trkpt>
      <trkpt lat="48.94822" lon="7.86279">
        <ele>160</ele>
        <time>2022-11-19T15:13:42Z</time>
      </trkpt>
      <trkpt lat="48.94819" lon="7.86281">
        <ele>159.8</ele>
        <time>2022-11-19T15:13:43Z</time>
      </trkpt>
      <trkpt lat="48.94815" lon="7.86283">
        <ele>159.6</ele>
        <time>2022-11-19T15:13:44Z</time>
      </trkpt>
      <trkpt lat="48.94812" lon="7.86286">
        <ele>159.6</ele>
        <time>2022-11-19T15:13:45Z</time>
      </trkpt>
      <trkpt lat="48.94809" lon="7.86289">
        <ele>159.6</ele>
        <time>2022-11-19T15:13:46Z</time>
      </trkpt>
      <trkpt lat="48.94803" lon="7.86294">
        <ele>159.6</ele>
        <time>2022-11-19T15:13:48Z</time>
      </trkpt>
      <trkpt lat="48.948" lon="7.86298">
        <ele>159.6</ele>
        <time>2022-11-19T15:13:49Z</time>
      </trkpt>
      <trkpt lat="48.94798" lon="7.86302">
        <ele>159.6</ele>
        <time>2022-11-19T15:13:50Z</time>
      </trkpt>
      <trkpt lat="48.94797" lon="7.86306">
        <ele>159.6</ele>
        <time>2022-11-19T15:13:51Z</time>
      </trkpt>
      <trkpt lat="48.94796" lon="7.8631">
        <ele>159.6</ele>
        <time>2022-11-19T15:13:52Z</time>
      </trkpt>
      <trkpt lat="48.94795" lon="7.86314">
        <ele>159.6</ele>
        <time>2022-11-19T15:13:53Z</time>
      </trkpt>
      <trkpt lat="48.94795" lon="7.86317">
        <ele>159.6</ele>
        <time>2022-11-19T15:13:54Z</time>
      </trkpt>
      <trkpt lat="48.94795" lon="7.86322">
        <ele>159.8</ele>
        <time>2022-11-19T15:13:55Z</time>
      </trkpt>
      <trkpt lat="48.94795" lon="7.86326">
        <ele>159.8</ele>
        <time>2022-11-19T15:13:56Z</time>
      </trkpt>
      <trkpt lat="48.94794" lon="7.86331">
        <ele>159.8</ele>
        <time>2022-11-19T15:13:57Z</time>
      </trkpt>
      <trkpt lat="48.94794" lon="7.86336">
        <ele>160</ele>
        <time>2022-11-19T15:13:58Z</time>
      </trkpt>
      <trkpt lat="48.94793" lon="7.86352">
        <ele>160</ele>
        <time>2022-11-19T15:14:01Z</time>
      </trkpt>
      <trkpt lat="48.9479" lon="7.86394">
        <ele>159.8</ele>
        <time>2022-11-19T15:14:09Z</time>
      </trkpt>
      <trkpt lat="48.94782" lon="7.86419">
        <ele>159.4</ele>
        <time>2022-11-19T15:14:14Z</time>
      </trkpt>
      <trkpt lat="48.9478" lon="7.86423">
        <ele>159.4</ele>
        <time>2022-11-19T15:14:15Z</time>
      </trkpt>
      <trkpt lat="48.94762" lon="7.86454">
        <ele>158.4</ele>
        <time>2022-11-19T15:14:22Z</time>
      </trkpt>
      <trkpt lat="48.94759" lon="7.86458">
        <ele>158.2</ele>
        <time>2022-11-19T15:14:23Z</time>
      </trkpt>
      <trkpt lat="48.94746" lon="7.86469">
        <ele>157.8</ele>
        <time>2022-11-19T15:14:27Z</time>
      </trkpt>
      <trkpt lat="48.94712" lon="7.86489">
        <ele>157.8</ele>
        <time>2022-11-19T15:14:36Z</time>
      </trkpt>
      <trkpt lat="48.94682" lon="7.86502">
        <ele>158.6</ele>
        <time>2022-11-19T15:14:44Z</time>
      </trkpt>
      <trkpt lat="48.9466" lon="7.86512">
        <ele>159</ele>
        <time>2022-11-19T15:14:50Z</time>
      </trkpt>
      <trkpt lat="48.94656" lon="7.86513">
        <ele>159.2</ele>
        <time>2022-11-19T15:14:51Z</time>
      </trkpt>
      <trkpt lat="48.94649" lon="7.86516">
        <ele>159.4</ele>
        <time>2022-11-19T15:14:53Z</time>
      </trkpt>
      <trkpt lat="48.94645" lon="7.86517">
        <ele>159.4</ele>
        <time>2022-11-19T15:14:54Z</time>
      </trkpt>
      <trkpt lat="48.94626" lon="7.86524">
        <ele>160.2</ele>
        <time>2022-11-19T15:14:59Z</time>
      </trkpt>
      <trkpt lat="48.94624" lon="7.86525">
        <ele>160.6</ele>
        <time>2022-11-19T15:15:00Z</time>
      </trkpt>
      <trkpt lat="48.94621" lon="7.86525">
        <ele>160.8</ele>
        <time>2022-11-19T15:15:01Z</time>
      </trkpt>
      <trkpt lat="48.94619" lon="7.86525">
        <ele>161</ele>
        <time>2022-11-19T15:15:02Z</time>
      </trkpt>
      <trkpt lat="48.94616" lon="7.86526">
        <ele>161.2</ele>
        <time>2022-11-19T15:15:03Z</time>
      </trkpt>
      <trkpt lat="48.94614" lon="7.86528">
        <ele>161.2</ele>
        <time>2022-11-19T15:15:04Z</time>
      </trkpt>
      <trkpt lat="48.94613" lon="7.8653">
        <ele>161.2</ele>
        <time>2022-11-19T15:15:05Z</time>
      </trkpt>
      <trkpt lat="48.94612" lon="7.86533">
        <ele>161.4</ele>
        <time>2022-11-19T15:15:06Z</time>
      </trkpt>
      <trkpt lat="48.94612" lon="7.86536">
        <ele>161.4</ele>
        <time>2022-11-19T15:15:07Z</time>
      </trkpt>
      <trkpt lat="48.94611" lon="7.8654">
        <ele>161.6</ele>
        <time>2022-11-19T15:15:08Z</time>
      </trkpt>
      <trkpt lat="48.94611" lon="7.86543">
        <ele>161.8</ele>
        <time>2022-11-19T15:15:09Z</time>
      </trkpt>
      <trkpt lat="48.94611" lon="7.86547">
        <ele>162</ele>
        <time>2022-11-19T15:15:10Z</time>
      </trkpt>
      <trkpt lat="48.94612" lon="7.86552">
        <ele>162</ele>
        <time>2022-11-19T15:15:11Z</time>
      </trkpt>
      <trkpt lat="48.94612" lon="7.86556">
        <ele>162.2</ele>
        <time>2022-11-19T15:15:12Z</time>
      </trkpt>
      <trkpt lat="48.94613" lon="7.86561">
        <ele>162.2</ele>
        <time>2022-11-19T15:15:13Z</time>
      </trkpt>
      <trkpt lat="48.94614" lon="7.86566">
        <ele>162.2</ele>
        <time>2022-11-19T15:15:14Z</time>
      </trkpt>
      <trkpt lat="48.94614" lon="7.86571">
        <ele>162.2</ele>
        <time>2022-11-19T15:15:15Z</time>
      </trkpt>
      <trkpt lat="48.94615" lon="7.86577">
        <ele>162.2</ele>
        <time>2022-11-19T15:15:16Z</time>
      </trkpt>
      <trkpt lat="48.94615" lon="7.86582">
        <ele>162.2</ele>
        <time>2022-11-19T15:15:17Z</time>
      </trkpt>
      <trkpt lat="48.94616" lon="7.86587">
        <ele>162.2</ele>
        <time>2022-11-19T15:15:18Z</time>
      </trkpt>
      <trkpt lat="48.94617" lon="7.86592">
        <ele>162.2</ele>
        <time>2022-11-19T15:15:19Z</time>
      </trkpt>
      <trkpt lat="48.94617" lon="7.86598">
        <ele>162.2</ele>
        <time>2022-11-19T15:15:20Z</time>
      </trkpt>
      <trkpt lat="48.94617" lon="7.86604">
        <ele>162</ele>
        <time>2022-11-19T15:15:21Z</time>
      </trkpt>
      <trkpt lat="48.94618" lon="7.86609">
        <ele>161.8</ele>
        <time>2022-11-19T15:15:22Z</time>
      </trkpt>
      <trkpt lat="48.94617" lon="7.86627">
        <ele>161.8</ele>
        <time>2022-11-19T15:15:25Z</time>
      </trkpt>
      <trkpt lat="48.94612" lon="7.86673">
        <ele>160.2</ele>
        <time>2022-11-19T15:15:33Z</time>
      </trkpt>
      <trkpt lat="48.94611" lon="7.8668">
        <ele>160</ele>
        <time>2022-11-19T15:15:34Z</time>
      </trkpt>
      <trkpt lat="48.9461" lon="7.86722">
        <ele>159.2</ele>
        <time>2022-11-19T15:15:40Z</time>
      </trkpt>
      <trkpt lat="48.9461" lon="7.86729">
        <ele>159.2</ele>
        <time>2022-11-19T15:15:41Z</time>
      </trkpt>
      <trkpt lat="48.9461" lon="7.86794">
        <ele>158</ele>
        <time>2022-11-19T15:15:50Z</time>
      </trkpt>
      <trkpt lat="48.9461" lon="7.86817">
        <ele>157.6</ele>
        <time>2022-11-19T15:15:53Z</time>
      </trkpt>
      <trkpt lat="48.94613" lon="7.86832">
        <ele>157.2</ele>
        <time>2022-11-19T15:15:55Z</time>
      </trkpt>
      <trkpt lat="48.94617" lon="7.86838">
        <ele>157.2</ele>
        <time>2022-11-19T15:15:56Z</time>
      </trkpt>
      <trkpt lat="48.94621" lon="7.86844">
        <ele>157</ele>
        <time>2022-11-19T15:15:57Z</time>
      </trkpt>
      <trkpt lat="48.94624" lon="7.8685">
        <ele>156.8</ele>
        <time>2022-11-19T15:15:58Z</time>
      </trkpt>
      <trkpt lat="48.94625" lon="7.86863">
        <ele>156.6</ele>
        <time>2022-11-19T15:16:00Z</time>
      </trkpt>
      <trkpt lat="48.9462" lon="7.86882">
        <ele>156.2</ele>
        <time>2022-11-19T15:16:03Z</time>
      </trkpt>
      <trkpt lat="48.94619" lon="7.86888">
        <ele>156</ele>
        <time>2022-11-19T15:16:04Z</time>
      </trkpt>
      <trkpt lat="48.94617" lon="7.86894">
        <ele>155.6</ele>
        <time>2022-11-19T15:16:05Z</time>
      </trkpt>
      <trkpt lat="48.94615" lon="7.86899">
        <ele>155.4</ele>
        <time>2022-11-19T15:16:06Z</time>
      </trkpt>
      <trkpt lat="48.94613" lon="7.86905">
        <ele>155.4</ele>
        <time>2022-11-19T15:16:07Z</time>
      </trkpt>
      <trkpt lat="48.94611" lon="7.8691">
        <ele>155.2</ele>
        <time>2022-11-19T15:16:08Z</time>
      </trkpt>
      <trkpt lat="48.9461" lon="7.86915">
        <ele>155.2</ele>
        <time>2022-11-19T15:16:09Z</time>
      </trkpt>
      <trkpt lat="48.94609" lon="7.8692">
        <ele>155.2</ele>
        <time>2022-11-19T15:16:10Z</time>
      </trkpt>
      <trkpt lat="48.94609" lon="7.86921">
        <ele>155</ele>
        <time>2022-11-19T15:16:11Z</time>
      </trkpt>
      <trkpt lat="48.94609" lon="7.86921">
        <ele>155</ele>
        <time>2022-11-19T15:16:12Z</time>
      </trkpt>
      <trkpt lat="48.94609" lon="7.86921">
        <ele>155</ele>
        <time>2022-11-19T15:16:14Z</time>
      </trkpt>
      <trkpt lat="48.94608" lon="7.86927">
        <ele>155</ele>
        <time>2022-11-19T15:16:25Z</time>
      </trkpt>
      <trkpt lat="48.94607" lon="7.86931">
        <ele>155</ele>
        <time>2022-11-19T15:16:26Z</time>
      </trkpt>
      <trkpt lat="48.94605" lon="7.86936">
        <ele>155</ele>
        <time>2022-11-19T15:16:27Z</time>
      </trkpt>
      <trkpt lat="48.946" lon="7.86947">
        <ele>155</ele>
        <time>2022-11-19T15:16:29Z</time>
      </trkpt>
      <trkpt lat="48.94588" lon="7.86977">
        <ele>154.8</ele>
        <time>2022-11-19T15:16:34Z</time>
      </trkpt>
      <trkpt lat="48.94586" lon="7.86983">
        <ele>154.6</ele>
        <time>2022-11-19T15:16:35Z</time>
      </trkpt>
      <trkpt lat="48.94578" lon="7.87002">
        <ele>154.6</ele>
        <time>2022-11-19T15:16:38Z</time>
      </trkpt>
      <trkpt lat="48.94573" lon="7.87021">
        <ele>154.4</ele>
        <time>2022-11-19T15:16:41Z</time>
      </trkpt>
      <trkpt lat="48.94569" lon="7.87035">
        <ele>154.2</ele>
        <time>2022-11-19T15:16:43Z</time>
      </trkpt>
      <trkpt lat="48.94563" lon="7.87051">
        <ele>154.2</ele>
        <time>2022-11-19T15:16:46Z</time>
      </trkpt>
      <trkpt lat="48.94561" lon="7.87057">
        <ele>154.2</ele>
        <time>2022-11-19T15:16:47Z</time>
      </trkpt>
      <trkpt lat="48.94559" lon="7.8706">
        <ele>154.2</ele>
        <time>2022-11-19T15:16:48Z</time>
      </trkpt>
      <trkpt lat="48.94554" lon="7.8706">
        <ele>154.2</ele>
        <time>2022-11-19T15:16:49Z</time>
      </trkpt>
      <trkpt lat="48.94551" lon="7.87059">
        <ele>154.2</ele>
        <time>2022-11-19T15:16:50Z</time>
      </trkpt>
      <trkpt lat="48.94548" lon="7.87057">
        <ele>154.2</ele>
        <time>2022-11-19T15:16:51Z</time>
      </trkpt>
      <trkpt lat="48.94545" lon="7.87054">
        <ele>154.2</ele>
        <time>2022-11-19T15:16:52Z</time>
      </trkpt>
      <trkpt lat="48.94542" lon="7.87052">
        <ele>154.2</ele>
        <time>2022-11-19T15:16:53Z</time>
      </trkpt>
      <trkpt lat="48.94536" lon="7.87047">
        <ele>154.2</ele>
        <time>2022-11-19T15:16:55Z</time>
      </trkpt>
      <trkpt lat="48.94532" lon="7.87044">
        <ele>154.2</ele>
        <time>2022-11-19T15:16:56Z</time>
      </trkpt>
      <trkpt lat="48.94529" lon="7.87042">
        <ele>154.2</ele>
        <time>2022-11-19T15:16:57Z</time>
      </trkpt>
      <trkpt lat="48.94526" lon="7.87039">
        <ele>154.2</ele>
        <time>2022-11-19T15:16:58Z</time>
      </trkpt>
      <trkpt lat="48.94523" lon="7.87036">
        <ele>154.2</ele>
        <time>2022-11-19T15:16:59Z</time>
      </trkpt>
      <trkpt lat="48.9452" lon="7.87034">
        <ele>154.4</ele>
        <time>2022-11-19T15:17:00Z</time>
      </trkpt>
      <trkpt lat="48.94513" lon="7.87028">
        <ele>154.6</ele>
        <time>2022-11-19T15:17:02Z</time>
      </trkpt>
      <trkpt lat="48.94491" lon="7.8701">
        <ele>155.2</ele>
        <time>2022-11-19T15:17:08Z</time>
      </trkpt>
      <trkpt lat="48.94487" lon="7.87007">
        <ele>155.4</ele>
        <time>2022-11-19T15:17:09Z</time>
      </trkpt>
      <trkpt lat="48.94475" lon="7.86998">
        <ele>155.6</ele>
        <time>2022-11-19T15:17:12Z</time>
      </trkpt>
      <trkpt lat="48.94471" lon="7.86995">
        <ele>155.8</ele>
        <time>2022-11-19T15:17:13Z</time>
      </trkpt>
      <trkpt lat="48.94459" lon="7.86988">
        <ele>156.6</ele>
        <time>2022-11-19T15:17:16Z</time>
      </trkpt>
      <trkpt lat="48.94455" lon="7.86984">
        <ele>156.8</ele>
        <time>2022-11-19T15:17:17Z</time>
      </trkpt>
      <trkpt lat="48.94439" lon="7.86971">
        <ele>157.2</ele>
        <time>2022-11-19T15:17:21Z</time>
      </trkpt>
      <trkpt lat="48.94435" lon="7.86968">
        <ele>157.4</ele>
        <time>2022-11-19T15:17:22Z</time>
      </trkpt>
      <trkpt lat="48.94431" lon="7.86965">
        <ele>157.8</ele>
        <time>2022-11-19T15:17:23Z</time>
      </trkpt>
      <trkpt lat="48.94428" lon="7.86962">
        <ele>158.2</ele>
        <time>2022-11-19T15:17:24Z</time>
      </trkpt>
      <trkpt lat="48.94424" lon="7.86959">
        <ele>158.4</ele>
        <time>2022-11-19T15:17:25Z</time>
      </trkpt>
      <trkpt lat="48.94419" lon="7.86956">
        <ele>158.8</ele>
        <time>2022-11-19T15:17:26Z</time>
      </trkpt>
      <trkpt lat="48.94415" lon="7.86953">
        <ele>159.2</ele>
        <time>2022-11-19T15:17:27Z</time>
      </trkpt>
      <trkpt lat="48.94411" lon="7.8695">
        <ele>159.4</ele>
        <time>2022-11-19T15:17:28Z</time>
      </trkpt>
      <trkpt lat="48.94408" lon="7.86947">
        <ele>159.8</ele>
        <time>2022-11-19T15:17:29Z</time>
      </trkpt>
      <trkpt lat="48.94404" lon="7.86944">
        <ele>159.8</ele>
        <time>2022-11-19T15:17:30Z</time>
      </trkpt>
      <trkpt lat="48.944" lon="7.86941">
        <ele>160</ele>
        <time>2022-11-19T15:17:31Z</time>
      </trkpt>
      <trkpt lat="48.94396" lon="7.86938">
        <ele>160</ele>
        <time>2022-11-19T15:17:32Z</time>
      </trkpt>
      <trkpt lat="48.94393" lon="7.86936">
        <ele>160.2</ele>
        <time>2022-11-19T15:17:33Z</time>
      </trkpt>
      <trkpt lat="48.94391" lon="7.86934">
        <ele>160.2</ele>
        <time>2022-11-19T15:17:34Z</time>
      </trkpt>
      <trkpt lat="48.94387" lon="7.8693">
        <ele>160.2</ele>
        <time>2022-11-19T15:17:35Z</time>
      </trkpt>
      <trkpt lat="48.94383" lon="7.86928">
        <ele>160.4</ele>
        <time>2022-11-19T15:17:36Z</time>
      </trkpt>
      <trkpt lat="48.9438" lon="7.86925">
        <ele>160.6</ele>
        <time>2022-11-19T15:17:37Z</time>
      </trkpt>
      <trkpt lat="48.94377" lon="7.86923">
        <ele>161</ele>
        <time>2022-11-19T15:17:38Z</time>
      </trkpt>
      <trkpt lat="48.94375" lon="7.86921">
        <ele>161.2</ele>
        <time>2022-11-19T15:17:39Z</time>
      </trkpt>
      <trkpt lat="48.94372" lon="7.86919">
        <ele>161.6</ele>
        <time>2022-11-19T15:17:40Z</time>
      </trkpt>
      <trkpt lat="48.9437" lon="7.86917">
        <ele>162</ele>
        <time>2022-11-19T15:17:41Z</time>
      </trkpt>
      <trkpt lat="48.94367" lon="7.86916">
        <ele>162.2</ele>
        <time>2022-11-19T15:17:42Z</time>
      </trkpt>
      <trkpt lat="48.94365" lon="7.86914">
        <ele>162.4</ele>
        <time>2022-11-19T15:17:43Z</time>
      </trkpt>
      <trkpt lat="48.94362" lon="7.86912">
        <ele>162.8</ele>
        <time>2022-11-19T15:17:44Z</time>
      </trkpt>
      <trkpt lat="48.9436" lon="7.8691">
        <ele>163.2</ele>
        <time>2022-11-19T15:17:45Z</time>
      </trkpt>
      <trkpt lat="48.94358" lon="7.86908">
        <ele>163.6</ele>
        <time>2022-11-19T15:17:46Z</time>
      </trkpt>
      <trkpt lat="48.94355" lon="7.86906">
        <ele>163.6</ele>
        <time>2022-11-19T15:17:47Z</time>
      </trkpt>
      <trkpt lat="48.94353" lon="7.86905">
        <ele>164.2</ele>
        <time>2022-11-19T15:17:48Z</time>
      </trkpt>
      <trkpt lat="48.94351" lon="7.86903">
        <ele>164.8</ele>
        <time>2022-11-19T15:17:49Z</time>
      </trkpt>
      <trkpt lat="48.94349" lon="7.86902">
        <ele>165.2</ele>
        <time>2022-11-19T15:17:50Z</time>
      </trkpt>
      <trkpt lat="48.94347" lon="7.869">
        <ele>165.6</ele>
        <time>2022-11-19T15:17:51Z</time>
      </trkpt>
      <trkpt lat="48.94345" lon="7.86899">
        <ele>165.8</ele>
        <time>2022-11-19T15:17:52Z</time>
      </trkpt>
      <trkpt lat="48.94343" lon="7.86897">
        <ele>166.2</ele>
        <time>2022-11-19T15:17:53Z</time>
      </trkpt>
      <trkpt lat="48.94341" lon="7.86895">
        <ele>166.4</ele>
        <time>2022-11-19T15:17:54Z</time>
      </trkpt>
      <trkpt lat="48.94338" lon="7.86894">
        <ele>166.6</ele>
        <time>2022-11-19T15:17:55Z</time>
      </trkpt>
      <trkpt lat="48.94336" lon="7.86892">
        <ele>167</ele>
        <time>2022-11-19T15:17:56Z</time>
      </trkpt>
      <trkpt lat="48.94334" lon="7.86891">
        <ele>167.4</ele>
        <time>2022-11-19T15:17:57Z</time>
      </trkpt>
      <trkpt lat="48.94332" lon="7.8689">
        <ele>167.8</ele>
        <time>2022-11-19T15:17:58Z</time>
      </trkpt>
      <trkpt lat="48.9433" lon="7.86889">
        <ele>168.2</ele>
        <time>2022-11-19T15:17:59Z</time>
      </trkpt>
      <trkpt lat="48.94328" lon="7.86887">
        <ele>168.6</ele>
        <time>2022-11-19T15:18:00Z</time>
      </trkpt>
      <trkpt lat="48.94326" lon="7.86886">
        <ele>168.8</ele>
        <time>2022-11-19T15:18:01Z</time>
      </trkpt>
      <trkpt lat="48.94324" lon="7.86884">
        <ele>169.2</ele>
        <time>2022-11-19T15:18:02Z</time>
      </trkpt>
      <trkpt lat="48.94322" lon="7.86883">
        <ele>169.8</ele>
        <time>2022-11-19T15:18:03Z</time>
      </trkpt>
      <trkpt lat="48.9432" lon="7.86881">
        <ele>170.2</ele>
        <time>2022-11-19T15:18:04Z</time>
      </trkpt>
      <trkpt lat="48.94318" lon="7.86879">
        <ele>170.4</ele>
        <time>2022-11-19T15:18:05Z</time>
      </trkpt>
      <trkpt lat="48.94316" lon="7.86878">
        <ele>170.6</ele>
        <time>2022-11-19T15:18:06Z</time>
      </trkpt>
      <trkpt lat="48.94314" lon="7.86876">
        <ele>170.8</ele>
        <time>2022-11-19T15:18:07Z</time>
      </trkpt>
      <trkpt lat="48.94312" lon="7.86874">
        <ele>171</ele>
        <time>2022-11-19T15:18:08Z</time>
      </trkpt>
      <trkpt lat="48.9431" lon="7.86873">
        <ele>171.2</ele>
        <time>2022-11-19T15:18:09Z</time>
      </trkpt>
      <trkpt lat="48.94308" lon="7.86871">
        <ele>171.8</ele>
        <time>2022-11-19T15:18:10Z</time>
      </trkpt>
      <trkpt lat="48.94307" lon="7.86869">
        <ele>172</ele>
        <time>2022-11-19T15:18:11Z</time>
      </trkpt>
      <trkpt lat="48.94305" lon="7.86867">
        <ele>172.4</ele>
        <time>2022-11-19T15:18:12Z</time>
      </trkpt>
      <trkpt lat="48.94303" lon="7.86866">
        <ele>172.8</ele>
        <time>2022-11-19T15:18:13Z</time>
      </trkpt>
      <trkpt lat="48.94301" lon="7.86864">
        <ele>173.2</ele>
        <time>2022-11-19T15:18:14Z</time>
      </trkpt>
      <trkpt lat="48.94299" lon="7.86863">
        <ele>173.4</ele>
        <time>2022-11-19T15:18:15Z</time>
      </trkpt>
      <trkpt lat="48.94297" lon="7.86861">
        <ele>173.8</ele>
        <time>2022-11-19T15:18:16Z</time>
      </trkpt>
      <trkpt lat="48.94295" lon="7.8686">
        <ele>174</ele>
        <time>2022-11-19T15:18:17Z</time>
      </trkpt>
      <trkpt lat="48.94293" lon="7.86859">
        <ele>174.4</ele>
        <time>2022-11-19T15:18:18Z</time>
      </trkpt>
      <trkpt lat="48.94291" lon="7.86858">
        <ele>174.8</ele>
        <time>2022-11-19T15:18:19Z</time>
      </trkpt>
      <trkpt lat="48.94289" lon="7.86856">
        <ele>175.2</ele>
        <time>2022-11-19T15:18:20Z</time>
      </trkpt>
      <trkpt lat="48.94287" lon="7.86854">
        <ele>175.4</ele>
        <time>2022-11-19T15:18:21Z</time>
      </trkpt>
      <trkpt lat="48.94285" lon="7.86853">
        <ele>175.8</ele>
        <time>2022-11-19T15:18:22Z</time>
      </trkpt>
      <trkpt lat="48.94283" lon="7.86851">
        <ele>176.2</ele>
        <time>2022-11-19T15:18:23Z</time>
      </trkpt>
      <trkpt lat="48.94281" lon="7.86849">
        <ele>176.6</ele>
        <time>2022-11-19T15:18:24Z</time>
      </trkpt>
      <trkpt lat="48.94279" lon="7.86848">
        <ele>177</ele>
        <time>2022-11-19T15:18:25Z</time>
      </trkpt>
      <trkpt lat="48.94277" lon="7.86847">
        <ele>177.4</ele>
        <time>2022-11-19T15:18:26Z</time>
      </trkpt>
      <trkpt lat="48.94275" lon="7.86845">
        <ele>177.8</ele>
        <time>2022-11-19T15:18:27Z</time>
      </trkpt>
      <trkpt lat="48.94273" lon="7.86844">
        <ele>178</ele>
        <time>2022-11-19T15:18:28Z</time>
      </trkpt>
      <trkpt lat="48.94271" lon="7.86842">
        <ele>178</ele>
        <time>2022-11-19T15:18:29Z</time>
      </trkpt>
      <trkpt lat="48.94269" lon="7.8684">
        <ele>178.2</ele>
        <time>2022-11-19T15:18:30Z</time>
      </trkpt>
      <trkpt lat="48.94267" lon="7.86839">
        <ele>178.4</ele>
        <time>2022-11-19T15:18:31Z</time>
      </trkpt>
      <trkpt lat="48.94265" lon="7.86837">
        <ele>178.4</ele>
        <time>2022-11-19T15:18:32Z</time>
      </trkpt>
      <trkpt lat="48.94264" lon="7.86835">
        <ele>178.4</ele>
        <time>2022-11-19T15:18:33Z</time>
      </trkpt>
      <trkpt lat="48.94262" lon="7.86834">
        <ele>178.6</ele>
        <time>2022-11-19T15:18:34Z</time>
      </trkpt>
      <trkpt lat="48.9426" lon="7.86833">
        <ele>178.8</ele>
        <time>2022-11-19T15:18:35Z</time>
      </trkpt>
      <trkpt lat="48.94259" lon="7.86833">
        <ele>179</ele>
        <time>2022-11-19T15:18:36Z</time>
      </trkpt>
      <trkpt lat="48.94257" lon="7.86833">
        <ele>179</ele>
        <time>2022-11-19T15:18:37Z</time>
      </trkpt>
      <trkpt lat="48.94257" lon="7.86833">
        <ele>179.2</ele>
        <time>2022-11-19T15:18:38Z</time>
      </trkpt>
      <trkpt lat="48.94257" lon="7.86833">
        <ele>179.4</ele>
        <time>2022-11-19T15:18:40Z</time>
      </trkpt>
      <trkpt lat="48.94256" lon="7.86833">
        <ele>179.8</ele>
        <time>2022-11-19T15:21:47Z</time>
      </trkpt>
      <trkpt lat="48.94253" lon="7.86839">
        <ele>179.8</ele>
        <time>2022-11-19T15:21:50Z</time>
      </trkpt>
      <trkpt lat="48.94252" lon="7.86841">
        <ele>179.8</ele>
        <time>2022-11-19T15:21:51Z</time>
      </trkpt>
      <trkpt lat="48.94242" lon="7.86857">
        <ele>180.4</ele>
        <time>2022-11-19T15:21:57Z</time>
      </trkpt>
      <trkpt lat="48.94235" lon="7.86877">
        <ele>180.4</ele>
        <time>2022-11-19T15:22:02Z</time>
      </trkpt>
      <trkpt lat="48.94233" lon="7.86881">
        <ele>180.4</ele>
        <time>2022-11-19T15:22:03Z</time>
      </trkpt>
      <trkpt lat="48.94221" lon="7.8691">
        <ele>180.4</ele>
        <time>2022-11-19T15:22:10Z</time>
      </trkpt>
      <trkpt lat="48.94208" lon="7.86939">
        <ele>180.6</ele>
        <time>2022-11-19T15:22:17Z</time>
      </trkpt>
      <trkpt lat="48.9419" lon="7.86972">
        <ele>181</ele>
        <time>2022-11-19T15:22:25Z</time>
      </trkpt>
      <trkpt lat="48.94186" lon="7.8698">
        <ele>181</ele>
        <time>2022-11-19T15:22:27Z</time>
      </trkpt>
      <trkpt lat="48.94169" lon="7.87008">
        <ele>181.4</ele>
        <time>2022-11-19T15:22:34Z</time>
      </trkpt>
      <trkpt lat="48.94167" lon="7.87011">
        <ele>181.4</ele>
        <time>2022-11-19T15:22:35Z</time>
      </trkpt>
      <trkpt lat="48.94164" lon="7.87015">
        <ele>181.4</ele>
        <time>2022-11-19T15:22:36Z</time>
      </trkpt>
      <trkpt lat="48.94162" lon="7.87019">
        <ele>181.4</ele>
        <time>2022-11-19T15:22:37Z</time>
      </trkpt>
      <trkpt lat="48.94148" lon="7.87044">
        <ele>181.6</ele>
        <time>2022-11-19T15:22:43Z</time>
      </trkpt>
      <trkpt lat="48.94125" lon="7.87088">
        <ele>181.6</ele>
        <time>2022-11-19T15:22:52Z</time>
      </trkpt>
      <trkpt lat="48.94103" lon="7.87127">
        <ele>181.2</ele>
        <time>2022-11-19T15:22:59Z</time>
      </trkpt>
      <trkpt lat="48.94079" lon="7.87169">
        <ele>179.8</ele>
        <time>2022-11-19T15:23:07Z</time>
      </trkpt>
      <trkpt lat="48.94076" lon="7.87174">
        <ele>179.4</ele>
        <time>2022-11-19T15:23:08Z</time>
      </trkpt>
      <trkpt lat="48.94058" lon="7.87203">
        <ele>178.6</ele>
        <time>2022-11-19T15:23:13Z</time>
      </trkpt>
      <trkpt lat="48.94054" lon="7.87208">
        <ele>178.4</ele>
        <time>2022-11-19T15:23:14Z</time>
      </trkpt>
      <trkpt lat="48.94037" lon="7.87233">
        <ele>177.4</ele>
        <time>2022-11-19T15:23:18Z</time>
      </trkpt>
      <trkpt lat="48.94031" lon="7.8724">
        <ele>177.2</ele>
        <time>2022-11-19T15:23:19Z</time>
      </trkpt>
      <trkpt lat="48.94023" lon="7.87252">
        <ele>176.4</ele>
        <time>2022-11-19T15:23:21Z</time>
      </trkpt>
      <trkpt lat="48.94018" lon="7.87258">
        <ele>176</ele>
        <time>2022-11-19T15:23:22Z</time>
      </trkpt>
      <trkpt lat="48.94013" lon="7.87265">
        <ele>175.6</ele>
        <time>2022-11-19T15:23:23Z</time>
      </trkpt>
      <trkpt lat="48.94008" lon="7.87274">
        <ele>175</ele>
        <time>2022-11-19T15:23:24Z</time>
      </trkpt>
      <trkpt lat="48.94" lon="7.87294">
        <ele>174</ele>
        <time>2022-11-19T15:23:26Z</time>
      </trkpt>
      <trkpt lat="48.93996" lon="7.87306">
        <ele>173.2</ele>
        <time>2022-11-19T15:23:27Z</time>
      </trkpt>
      <trkpt lat="48.93989" lon="7.87329">
        <ele>171.8</ele>
        <time>2022-11-19T15:23:29Z</time>
      </trkpt>
      <trkpt lat="48.93981" lon="7.87354">
        <ele>170.4</ele>
        <time>2022-11-19T15:23:31Z</time>
      </trkpt>
      <trkpt lat="48.93978" lon="7.87365">
        <ele>169.8</ele>
        <time>2022-11-19T15:23:32Z</time>
      </trkpt>
      <trkpt lat="48.93975" lon="7.87373">
        <ele>169</ele>
        <time>2022-11-19T15:23:33Z</time>
      </trkpt>
      <trkpt lat="48.93971" lon="7.87382">
        <ele>168.4</ele>
        <time>2022-11-19T15:23:34Z</time>
      </trkpt>
      <trkpt lat="48.93967" lon="7.87392">
        <ele>167.6</ele>
        <time>2022-11-19T15:23:35Z</time>
      </trkpt>
      <trkpt lat="48.93963" lon="7.87399">
        <ele>167</ele>
        <time>2022-11-19T15:23:36Z</time>
      </trkpt>
      <trkpt lat="48.93959" lon="7.87402">
        <ele>166.2</ele>
        <time>2022-11-19T15:23:37Z</time>
      </trkpt>
      <trkpt lat="48.93953" lon="7.87407">
        <ele>165.8</ele>
        <time>2022-11-19T15:23:38Z</time>
      </trkpt>
      <trkpt lat="48.93949" lon="7.8741">
        <ele>165.4</ele>
        <time>2022-11-19T15:23:39Z</time>
      </trkpt>
      <trkpt lat="48.93944" lon="7.87414">
        <ele>165.2</ele>
        <time>2022-11-19T15:23:40Z</time>
      </trkpt>
      <trkpt lat="48.93941" lon="7.87416">
        <ele>165</ele>
        <time>2022-11-19T15:23:41Z</time>
      </trkpt>
      <trkpt lat="48.93937" lon="7.87419">
        <ele>164.8</ele>
        <time>2022-11-19T15:23:42Z</time>
      </trkpt>
      <trkpt lat="48.93934" lon="7.87421">
        <ele>164.8</ele>
        <time>2022-11-19T15:23:43Z</time>
      </trkpt>
      <trkpt lat="48.9393" lon="7.87424">
        <ele>164.8</ele>
        <time>2022-11-19T15:23:44Z</time>
      </trkpt>
      <trkpt lat="48.93927" lon="7.87426">
        <ele>164.8</ele>
        <time>2022-11-19T15:23:45Z</time>
      </trkpt>
      <trkpt lat="48.93917" lon="7.87434">
        <ele>164.6</ele>
        <time>2022-11-19T15:23:48Z</time>
      </trkpt>
      <trkpt lat="48.93898" lon="7.87455">
        <ele>164.4</ele>
        <time>2022-11-19T15:23:54Z</time>
      </trkpt>
      <trkpt lat="48.93897" lon="7.87457">
        <ele>164.4</ele>
        <time>2022-11-19T15:23:55Z</time>
      </trkpt>
      <trkpt lat="48.93895" lon="7.87458">
        <ele>164.4</ele>
        <time>2022-11-19T15:23:56Z</time>
      </trkpt>
      <trkpt lat="48.93895" lon="7.87458">
        <ele>164.4</ele>
        <time>2022-11-19T15:23:57Z</time>
      </trkpt>
      <trkpt lat="48.93895" lon="7.87458">
        <ele>164.2</ele>
        <time>2022-11-19T15:23:58Z</time>
      </trkpt>
      <trkpt lat="48.93893" lon="7.87459">
        <ele>164</ele>
        <time>2022-11-19T15:24:23Z</time>
      </trkpt>
      <trkpt lat="48.9389" lon="7.87464">
        <ele>164</ele>
        <time>2022-11-19T15:24:25Z</time>
      </trkpt>
      <trkpt lat="48.93889" lon="7.87468">
        <ele>164</ele>
        <time>2022-11-19T15:24:26Z</time>
      </trkpt>
      <trkpt lat="48.93888" lon="7.87476">
        <ele>163.8</ele>
        <time>2022-11-19T15:24:28Z</time>
      </trkpt>
      <trkpt lat="48.93888" lon="7.87481">
        <ele>163.8</ele>
        <time>2022-11-19T15:24:29Z</time>
      </trkpt>
      <trkpt lat="48.93886" lon="7.87485">
        <ele>163.8</ele>
        <time>2022-11-19T15:24:30Z</time>
      </trkpt>
      <trkpt lat="48.93884" lon="7.87487">
        <ele>163.6</ele>
        <time>2022-11-19T15:24:31Z</time>
      </trkpt>
      <trkpt lat="48.93881" lon="7.87488">
        <ele>163.6</ele>
        <time>2022-11-19T15:24:32Z</time>
      </trkpt>
      <trkpt lat="48.93874" lon="7.87491">
        <ele>163.4</ele>
        <time>2022-11-19T15:24:34Z</time>
      </trkpt>
      <trkpt lat="48.93869" lon="7.87492">
        <ele>163.4</ele>
        <time>2022-11-19T15:24:35Z</time>
      </trkpt>
      <trkpt lat="48.93859" lon="7.87496">
        <ele>163.4</ele>
        <time>2022-11-19T15:24:37Z</time>
      </trkpt>
      <trkpt lat="48.93841" lon="7.87503">
        <ele>162.8</ele>
        <time>2022-11-19T15:24:40Z</time>
      </trkpt>
      <trkpt lat="48.93827" lon="7.87507">
        <ele>162</ele>
        <time>2022-11-19T15:24:42Z</time>
      </trkpt>
      <trkpt lat="48.93821" lon="7.8751">
        <ele>161.6</ele>
        <time>2022-11-19T15:24:43Z</time>
      </trkpt>
      <trkpt lat="48.93797" lon="7.8752">
        <ele>160</ele>
        <time>2022-11-19T15:24:46Z</time>
      </trkpt>
      <trkpt lat="48.93784" lon="7.87524">
        <ele>158.2</ele>
        <time>2022-11-19T15:24:48Z</time>
      </trkpt>
      <trkpt lat="48.93767" lon="7.8753">
        <ele>156.2</ele>
        <time>2022-11-19T15:24:50Z</time>
      </trkpt>
      <trkpt lat="48.93759" lon="7.87533">
        <ele>154.8</ele>
        <time>2022-11-19T15:24:51Z</time>
      </trkpt>
      <trkpt lat="48.93747" lon="7.87537">
        <ele>153.4</ele>
        <time>2022-11-19T15:24:53Z</time>
      </trkpt>
      <trkpt lat="48.93742" lon="7.87539">
        <ele>152.8</ele>
        <time>2022-11-19T15:24:54Z</time>
      </trkpt>
      <trkpt lat="48.93738" lon="7.87542">
        <ele>151.6</ele>
        <time>2022-11-19T15:24:55Z</time>
      </trkpt>
      <trkpt lat="48.93735" lon="7.87545">
        <ele>151</ele>
        <time>2022-11-19T15:24:56Z</time>
      </trkpt>
      <trkpt lat="48.93734" lon="7.8755">
        <ele>150.4</ele>
        <time>2022-11-19T15:24:57Z</time>
      </trkpt>
      <trkpt lat="48.93733" lon="7.87555">
        <ele>150.2</ele>
        <time>2022-11-19T15:24:58Z</time>
      </trkpt>
      <trkpt lat="48.93733" lon="7.87561">
        <ele>150</ele>
        <time>2022-11-19T15:24:59Z</time>
      </trkpt>
      <trkpt lat="48.9373" lon="7.87567">
        <ele>149.8</ele>
        <time>2022-11-19T15:25:00Z</time>
      </trkpt>
      <trkpt lat="48.93726" lon="7.87572">
        <ele>149.6</ele>
        <time>2022-11-19T15:25:01Z</time>
      </trkpt>
      <trkpt lat="48.93717" lon="7.87582">
        <ele>149.4</ele>
        <time>2022-11-19T15:25:03Z</time>
      </trkpt>
      <trkpt lat="48.93712" lon="7.87587">
        <ele>149.4</ele>
        <time>2022-11-19T15:25:04Z</time>
      </trkpt>
      <trkpt lat="48.937" lon="7.876">
        <ele>148.8</ele>
        <time>2022-11-19T15:25:06Z</time>
      </trkpt>
      <trkpt lat="48.93695" lon="7.87605">
        <ele>148.8</ele>
        <time>2022-11-19T15:25:07Z</time>
      </trkpt>
      <trkpt lat="48.93691" lon="7.87609">
        <ele>148.4</ele>
        <time>2022-11-19T15:25:08Z</time>
      </trkpt>
      <trkpt lat="48.93688" lon="7.87615">
        <ele>148.4</ele>
        <time>2022-11-19T15:25:09Z</time>
      </trkpt>
      <trkpt lat="48.93687" lon="7.87621">
        <ele>148</ele>
        <time>2022-11-19T15:25:10Z</time>
      </trkpt>
      <trkpt lat="48.93688" lon="7.87629">
        <ele>147.4</ele>
        <time>2022-11-19T15:25:11Z</time>
      </trkpt>
      <trkpt lat="48.93689" lon="7.87633">
        <ele>147</ele>
        <time>2022-11-19T15:25:12Z</time>
      </trkpt>
      <trkpt lat="48.93691" lon="7.87639">
        <ele>146.8</ele>
        <time>2022-11-19T15:25:13Z</time>
      </trkpt>
      <trkpt lat="48.93692" lon="7.87645">
        <ele>146.6</ele>
        <time>2022-11-19T15:25:14Z</time>
      </trkpt>
      <trkpt lat="48.93692" lon="7.8766">
        <ele>146.6</ele>
        <time>2022-11-19T15:25:16Z</time>
      </trkpt>
      <trkpt lat="48.93692" lon="7.87666">
        <ele>146.6</ele>
        <time>2022-11-19T15:25:17Z</time>
      </trkpt>
      <trkpt lat="48.93691" lon="7.87672">
        <ele>146.4</ele>
        <time>2022-11-19T15:25:18Z</time>
      </trkpt>
      <trkpt lat="48.93689" lon="7.87686">
        <ele>146.4</ele>
        <time>2022-11-19T15:25:20Z</time>
      </trkpt>
      <trkpt lat="48.93688" lon="7.8769">
        <ele>146.4</ele>
        <time>2022-11-19T15:25:21Z</time>
      </trkpt>
      <trkpt lat="48.93687" lon="7.87695">
        <ele>146.4</ele>
        <time>2022-11-19T15:25:22Z</time>
      </trkpt>
      <trkpt lat="48.93686" lon="7.87699">
        <ele>146.4</ele>
        <time>2022-11-19T15:25:23Z</time>
      </trkpt>
      <trkpt lat="48.93685" lon="7.87704">
        <ele>146.6</ele>
        <time>2022-11-19T15:25:24Z</time>
      </trkpt>
      <trkpt lat="48.93683" lon="7.87709">
        <ele>146.6</ele>
        <time>2022-11-19T15:25:25Z</time>
      </trkpt>
      <trkpt lat="48.93682" lon="7.87715">
        <ele>146.6</ele>
        <time>2022-11-19T15:25:26Z</time>
      </trkpt>
      <trkpt lat="48.93681" lon="7.87727">
        <ele>146.6</ele>
        <time>2022-11-19T15:25:28Z</time>
      </trkpt>
      <trkpt lat="48.93675" lon="7.87758">
        <ele>147</ele>
        <time>2022-11-19T15:25:32Z</time>
      </trkpt>
      <trkpt lat="48.93675" lon="7.87764">
        <ele>147</ele>
        <time>2022-11-19T15:25:33Z</time>
      </trkpt>
      <trkpt lat="48.93673" lon="7.8777">
        <ele>147.2</ele>
        <time>2022-11-19T15:25:34Z</time>
      </trkpt>
      <trkpt lat="48.93673" lon="7.87777">
        <ele>147.2</ele>
        <time>2022-11-19T15:25:35Z</time>
      </trkpt>
      <trkpt lat="48.93673" lon="7.87806">
        <ele>147.4</ele>
        <time>2022-11-19T15:25:39Z</time>
      </trkpt>
      <trkpt lat="48.93673" lon="7.8782">
        <ele>147.4</ele>
        <time>2022-11-19T15:25:41Z</time>
      </trkpt>
      <trkpt lat="48.93672" lon="7.87826">
        <ele>147.4</ele>
        <time>2022-11-19T15:25:42Z</time>
      </trkpt>
      <trkpt lat="48.93672" lon="7.87852">
        <ele>147.2</ele>
        <time>2022-11-19T15:25:46Z</time>
      </trkpt>
      <trkpt lat="48.93671" lon="7.87869">
        <ele>147.2</ele>
        <time>2022-11-19T15:25:49Z</time>
      </trkpt>
      <trkpt lat="48.93671" lon="7.87876">
        <ele>147.2</ele>
        <time>2022-11-19T15:25:50Z</time>
      </trkpt>
      <trkpt lat="48.93671" lon="7.87882">
        <ele>147.2</ele>
        <time>2022-11-19T15:25:51Z</time>
      </trkpt>
      <trkpt lat="48.93671" lon="7.87886">
        <ele>147.2</ele>
        <time>2022-11-19T15:25:52Z</time>
      </trkpt>
      <trkpt lat="48.93671" lon="7.87891">
        <ele>147.2</ele>
        <time>2022-11-19T15:25:53Z</time>
      </trkpt>
      <trkpt lat="48.93671" lon="7.87895">
        <ele>147.2</ele>
        <time>2022-11-19T15:25:54Z</time>
      </trkpt>
      <trkpt lat="48.9367" lon="7.879">
        <ele>147.2</ele>
        <time>2022-11-19T15:25:55Z</time>
      </trkpt>
      <trkpt lat="48.9367" lon="7.87903">
        <ele>147.2</ele>
        <time>2022-11-19T15:25:56Z</time>
      </trkpt>
      <trkpt lat="48.93669" lon="7.87907">
        <ele>147.2</ele>
        <time>2022-11-19T15:25:57Z</time>
      </trkpt>
      <trkpt lat="48.93669" lon="7.87909">
        <ele>147.2</ele>
        <time>2022-11-19T15:25:58Z</time>
      </trkpt>
      <trkpt lat="48.93668" lon="7.87912">
        <ele>147.2</ele>
        <time>2022-11-19T15:25:59Z</time>
      </trkpt>
      <trkpt lat="48.93668" lon="7.87915">
        <ele>147.4</ele>
        <time>2022-11-19T15:26:00Z</time>
      </trkpt>
      <trkpt lat="48.93667" lon="7.87917">
        <ele>147.4</ele>
        <time>2022-11-19T15:26:01Z</time>
      </trkpt>
      <trkpt lat="48.93666" lon="7.87919">
        <ele>147.4</ele>
        <time>2022-11-19T15:26:02Z</time>
      </trkpt>
      <trkpt lat="48.93663" lon="7.87927">
        <ele>147.4</ele>
        <time>2022-11-19T15:26:06Z</time>
      </trkpt>
      <trkpt lat="48.93661" lon="7.87929">
        <ele>147.4</ele>
        <time>2022-11-19T15:26:07Z</time>
      </trkpt>
      <trkpt lat="48.9366" lon="7.87929">
        <ele>147.4</ele>
        <time>2022-11-19T15:26:08Z</time>
      </trkpt>
      <trkpt lat="48.93659" lon="7.87929">
        <ele>147.2</ele>
        <time>2022-11-19T15:26:09Z</time>
      </trkpt>
      <trkpt lat="48.93657" lon="7.87929">
        <ele>147.2</ele>
        <time>2022-11-19T15:26:10Z</time>
      </trkpt>
      <trkpt lat="48.93656" lon="7.87929">
        <ele>147.2</ele>
        <time>2022-11-19T15:26:11Z</time>
      </trkpt>
      <trkpt lat="48.93655" lon="7.87931">
        <ele>147.2</ele>
        <time>2022-11-19T15:26:12Z</time>
      </trkpt>
      <trkpt lat="48.93654" lon="7.87933">
        <ele>147.2</ele>
        <time>2022-11-19T15:26:13Z</time>
      </trkpt>
      <trkpt lat="48.93653" lon="7.87942">
        <ele>147.2</ele>
        <time>2022-11-19T15:26:16Z</time>
      </trkpt>
      <trkpt lat="48.93653" lon="7.87943">
        <ele>147.2</ele>
        <time>2022-11-19T15:26:18Z</time>
      </trkpt>
      <trkpt lat="48.93653" lon="7.87943">
        <ele>147.2</ele>
        <time>2022-11-19T15:26:19Z</time>
      </trkpt>
      <trkpt lat="48.93652" lon="7.87944">
        <ele>147.4</ele>
        <time>2022-11-19T15:26:20Z</time>
      </trkpt>
      <trkpt lat="48.93652" lon="7.87944">
        <ele>147.4</ele>
        <time>2022-11-19T15:26:21Z</time>
      </trkpt>
      <trkpt lat="48.93652" lon="7.87944">
        <ele>147.4</ele>
        <time>2022-11-19T15:26:22Z</time>
      </trkpt>
    </trkseg>
  </trk>
</gpx>